<?xml version='1.0' encoding='UTF-8'?><gpx version="1.1" creator="JPX - https://github.com/jenetics/jpx" xmlns="http://www.topografix.com/GPX/1/1"><trk><trkseg><trkpt lat="46.2789626" lon="13.1295707"><ele>198.0</ele><time>2026-05-01T07:38:10.632Z</time></trkpt><trkpt lat="46.2789032" lon="13.1295376"><ele>198.0</ele><time>2026-05-01T07:38:13.632Z</time></trkpt><trkpt lat="46.2789632" lon="13.1295885"><ele>198.0</ele><time>2026-05-01T07:38:17.633Z</time></trkpt><trkpt lat="46.2789918" lon="13.1295006"><ele>198.0</ele><time>2026-05-01T07:38:35.632Z</time></trkpt><trkpt lat="46.2789861" lon="13.129403"><ele>198.0</ele><time>2026-05-01T07:38:47.633Z</time></trkpt><trkpt lat="46.2789737" lon="13.1293061"><ele>198.0</ele><time>2026-05-01T07:38:49.632Z</time></trkpt><trkpt lat="46.2790463" lon="13.1291771"><ele>198.0</ele><time>2026-05-01T07:38:51.632Z</time></trkpt><trkpt lat="46.2791182" lon="13.1291319"><ele>198.0</ele><time>2026-05-01T07:38:52.632Z</time></trkpt><trkpt lat="46.2792007" lon="13.1291038"><ele>198.0</ele><time>2026-05-01T07:38:53.633Z</time></trkpt><trkpt lat="46.2792981" lon="13.1290765"><ele>198.0</ele><time>2026-05-01T07:38:54.632Z</time></trkpt><trkpt lat="46.2793983" lon="13.1290502"><ele>198.0</ele><time>2026-05-01T07:38:55.633Z</time></trkpt><trkpt lat="46.2795051" lon="13.1290211"><ele>197.5</ele><time>2026-05-01T07:38:56.633Z</time></trkpt><trkpt lat="46.279612" lon="13.1289907"><ele>197.0</ele><time>2026-05-01T07:38:57.632Z</time></trkpt><trkpt lat="46.2797266" lon="13.1289585"><ele>196.5</ele><time>2026-05-01T07:38:58.633Z</time></trkpt><trkpt lat="46.2798447" lon="13.1289216"><ele>196.0</ele><time>2026-05-01T07:38:59.632Z</time></trkpt><trkpt lat="46.2799626" lon="13.1288874"><ele>195.75</ele><time>2026-05-01T07:39:00.633Z</time></trkpt><trkpt lat="46.2800805" lon="13.1288439"><ele>195.5</ele><time>2026-05-01T07:39:01.633Z</time></trkpt><trkpt lat="46.2801973" lon="13.1287979"><ele>195.25</ele><time>2026-05-01T07:39:02.633Z</time></trkpt><trkpt lat="46.28032" lon="13.128748"><ele>195.0</ele><time>2026-05-01T07:39:03.633Z</time></trkpt><trkpt lat="46.280443" lon="13.1287028"><ele>195.0</ele><time>2026-05-01T07:39:04.632Z</time></trkpt><trkpt lat="46.2805638" lon="13.1286561"><ele>195.0</ele><time>2026-05-01T07:39:05.632Z</time></trkpt><trkpt lat="46.2806898" lon="13.1286048"><ele>195.0</ele><time>2026-05-01T07:39:06.632Z</time></trkpt><trkpt lat="46.2808169" lon="13.128553"><ele>195.0</ele><time>2026-05-01T07:39:07.634Z</time></trkpt><trkpt lat="46.2809433" lon="13.1285065"><ele>195.0</ele><time>2026-05-01T07:39:08.633Z</time></trkpt><trkpt lat="46.2810714" lon="13.1284537"><ele>195.0</ele><time>2026-05-01T07:39:09.634Z</time></trkpt><trkpt lat="46.281202" lon="13.1283963"><ele>195.0</ele><time>2026-05-01T07:39:10.633Z</time></trkpt><trkpt lat="46.2813343" lon="13.1283405"><ele>195.0</ele><time>2026-05-01T07:39:11.633Z</time></trkpt><trkpt lat="46.2814641" lon="13.1282869"><ele>195.25</ele><time>2026-05-01T07:39:12.633Z</time></trkpt><trkpt lat="46.2815922" lon="13.1282355"><ele>195.5</ele><time>2026-05-01T07:39:13.634Z</time></trkpt><trkpt lat="46.2817227" lon="13.1281876"><ele>195.75</ele><time>2026-05-01T07:39:14.632Z</time></trkpt><trkpt lat="46.2818496" lon="13.1281363"><ele>196.0</ele><time>2026-05-01T07:39:15.632Z</time></trkpt><trkpt lat="46.2819753" lon="13.1280869"><ele>196.0</ele><time>2026-05-01T07:39:16.634Z</time></trkpt><trkpt lat="46.2820972" lon="13.1280385"><ele>196.0</ele><time>2026-05-01T07:39:17.633Z</time></trkpt><trkpt lat="46.2822157" lon="13.1279914"><ele>196.0</ele><time>2026-05-01T07:39:18.633Z</time></trkpt><trkpt lat="46.2823334" lon="13.1279464"><ele>196.0</ele><time>2026-05-01T07:39:19.632Z</time></trkpt><trkpt lat="46.2824512" lon="13.1279011"><ele>195.75</ele><time>2026-05-01T07:39:20.634Z</time></trkpt><trkpt lat="46.282566" lon="13.1278568"><ele>195.5</ele><time>2026-05-01T07:39:21.633Z</time></trkpt><trkpt lat="46.2826844" lon="13.1278107"><ele>195.25</ele><time>2026-05-01T07:39:22.632Z</time></trkpt><trkpt lat="46.2827986" lon="13.1277639"><ele>195.0</ele><time>2026-05-01T07:39:23.633Z</time></trkpt><trkpt lat="46.2829013" lon="13.1277249"><ele>195.0</ele><time>2026-05-01T07:39:24.633Z</time></trkpt><trkpt lat="46.2829991" lon="13.1276912"><ele>195.0</ele><time>2026-05-01T07:39:25.634Z</time></trkpt><trkpt lat="46.283086" lon="13.1276675"><ele>195.0</ele><time>2026-05-01T07:39:26.632Z</time></trkpt><trkpt lat="46.2831533" lon="13.1276761"><ele>195.0</ele><time>2026-05-01T07:39:27.632Z</time></trkpt><trkpt lat="46.2832358" lon="13.1276843"><ele>195.0</ele><time>2026-05-01T07:39:29.633Z</time></trkpt><trkpt lat="46.2832943" lon="13.1276229"><ele>195.0</ele><time>2026-05-01T07:39:31.634Z</time></trkpt><trkpt lat="46.2833043" lon="13.1274402"><ele>195.4</ele><time>2026-05-01T07:39:33.634Z</time></trkpt><trkpt lat="46.2832897" lon="13.1273227"><ele>195.8</ele><time>2026-05-01T07:39:34.634Z</time></trkpt><trkpt lat="46.2832721" lon="13.1271982"><ele>196.2</ele><time>2026-05-01T07:39:35.633Z</time></trkpt><trkpt lat="46.2832517" lon="13.1270538"><ele>196.6</ele><time>2026-05-01T07:39:36.633Z</time></trkpt><trkpt lat="46.2832264" lon="13.1269047"><ele>197.0</ele><time>2026-05-01T07:39:37.634Z</time></trkpt><trkpt lat="46.2831941" lon="13.1267553"><ele>197.0</ele><time>2026-05-01T07:39:38.633Z</time></trkpt><trkpt lat="46.2831563" lon="13.1265941"><ele>197.0</ele><time>2026-05-01T07:39:39.634Z</time></trkpt><trkpt lat="46.2831264" lon="13.1264285"><ele>197.0</ele><time>2026-05-01T07:39:40.634Z</time></trkpt><trkpt lat="46.2831002" lon="13.1262735"><ele>197.0</ele><time>2026-05-01T07:39:41.633Z</time></trkpt><trkpt lat="46.283078" lon="13.1261315"><ele>197.0</ele><time>2026-05-01T07:39:42.633Z</time></trkpt><trkpt lat="46.2830683" lon="13.1259767"><ele>197.25</ele><time>2026-05-01T07:39:43.633Z</time></trkpt><trkpt lat="46.2830771" lon="13.1258059"><ele>197.5</ele><time>2026-05-01T07:39:44.633Z</time></trkpt><trkpt lat="46.2831047" lon="13.1256307"><ele>197.75</ele><time>2026-05-01T07:39:45.633Z</time></trkpt><trkpt lat="46.2831412" lon="13.1254441"><ele>198.0</ele><time>2026-05-01T07:39:46.632Z</time></trkpt><trkpt lat="46.2831733" lon="13.1252453"><ele>198.75</ele><time>2026-05-01T07:39:47.634Z</time></trkpt><trkpt lat="46.2832099" lon="13.1250508"><ele>199.5</ele><time>2026-05-01T07:39:48.634Z</time></trkpt><trkpt lat="46.2832578" lon="13.1248683"><ele>200.25</ele><time>2026-05-01T07:39:49.632Z</time></trkpt><trkpt lat="46.2833082" lon="13.1247"><ele>201.0</ele><time>2026-05-01T07:39:50.634Z</time></trkpt><trkpt lat="46.2833577" lon="13.1245462"><ele>201.0</ele><time>2026-05-01T07:39:51.632Z</time></trkpt><trkpt lat="46.2834009" lon="13.1244021"><ele>201.0</ele><time>2026-05-01T07:39:52.634Z</time></trkpt><trkpt lat="46.2834394" lon="13.1242706"><ele>201.0</ele><time>2026-05-01T07:39:53.632Z</time></trkpt><trkpt lat="46.283473" lon="13.1241582"><ele>201.0</ele><time>2026-05-01T07:39:54.632Z</time></trkpt><trkpt lat="46.2835007" lon="13.1240734"><ele>201.0</ele><time>2026-05-01T07:39:55.633Z</time></trkpt><trkpt lat="46.2835784" lon="13.1239655"><ele>200.8</ele><time>2026-05-01T07:39:57.633Z</time></trkpt><trkpt lat="46.2836368" lon="13.1239144"><ele>200.60000000000002</ele><time>2026-05-01T07:39:58.633Z</time></trkpt><trkpt lat="46.2837073" lon="13.1238555"><ele>200.4</ele><time>2026-05-01T07:39:59.634Z</time></trkpt><trkpt lat="46.2837994" lon="13.1238083"><ele>200.2</ele><time>2026-05-01T07:40:00.633Z</time></trkpt><trkpt lat="46.2838982" lon="13.1237565"><ele>200.0</ele><time>2026-05-01T07:40:01.632Z</time></trkpt><trkpt lat="46.284015" lon="13.1236989"><ele>200.0</ele><time>2026-05-01T07:40:02.632Z</time></trkpt><trkpt lat="46.2841334" lon="13.1236436"><ele>200.0</ele><time>2026-05-01T07:40:03.632Z</time></trkpt><trkpt lat="46.2842634" lon="13.1235777"><ele>200.0</ele><time>2026-05-01T07:40:04.633Z</time></trkpt><trkpt lat="46.2844042" lon="13.1235083"><ele>200.0</ele><time>2026-05-01T07:40:05.632Z</time></trkpt><trkpt lat="46.284555" lon="13.1234368"><ele>200.0</ele><time>2026-05-01T07:40:06.634Z</time></trkpt><trkpt lat="46.2847013" lon="13.1233665"><ele>200.0</ele><time>2026-05-01T07:40:07.632Z</time></trkpt><trkpt lat="46.2848441" lon="13.1232988"><ele>200.0</ele><time>2026-05-01T07:40:08.632Z</time></trkpt><trkpt lat="46.2849862" lon="13.1232308"><ele>199.75</ele><time>2026-05-01T07:40:09.634Z</time></trkpt><trkpt lat="46.2851271" lon="13.1231605"><ele>199.5</ele><time>2026-05-01T07:40:10.632Z</time></trkpt><trkpt lat="46.2852653" lon="13.1230921"><ele>199.25</ele><time>2026-05-01T07:40:11.632Z</time></trkpt><trkpt lat="46.285406" lon="13.123025"><ele>199.0</ele><time>2026-05-01T07:40:12.634Z</time></trkpt><trkpt lat="46.2855459" lon="13.1229596"><ele>198.75</ele><time>2026-05-01T07:40:13.634Z</time></trkpt><trkpt lat="46.2856838" lon="13.1228955"><ele>198.5</ele><time>2026-05-01T07:40:14.633Z</time></trkpt><trkpt lat="46.2858223" lon="13.1228287"><ele>198.25</ele><time>2026-05-01T07:40:15.632Z</time></trkpt><trkpt lat="46.2859606" lon="13.1227643"><ele>198.0</ele><time>2026-05-01T07:40:16.632Z</time></trkpt><trkpt lat="46.2860957" lon="13.1226986"><ele>198.0</ele><time>2026-05-01T07:40:17.633Z</time></trkpt><trkpt lat="46.2862343" lon="13.1226344"><ele>198.0</ele><time>2026-05-01T07:40:18.632Z</time></trkpt><trkpt lat="46.2863667" lon="13.1225766"><ele>198.0</ele><time>2026-05-01T07:40:19.633Z</time></trkpt><trkpt lat="46.2864885" lon="13.1225187"><ele>198.0</ele><time>2026-05-01T07:40:20.632Z</time></trkpt><trkpt lat="46.2866013" lon="13.1224676"><ele>198.2</ele><time>2026-05-01T07:40:21.633Z</time></trkpt><trkpt lat="46.2867088" lon="13.1224138"><ele>198.4</ele><time>2026-05-01T07:40:22.633Z</time></trkpt><trkpt lat="46.286805" lon="13.122364"><ele>198.6</ele><time>2026-05-01T07:40:23.632Z</time></trkpt><trkpt lat="46.2868828" lon="13.1223278"><ele>198.79999999999998</ele><time>2026-05-01T07:40:24.633Z</time></trkpt><trkpt lat="46.2869467" lon="13.1223153"><ele>199.0</ele><time>2026-05-01T07:40:25.634Z</time></trkpt><trkpt lat="46.2870327" lon="13.1223724"><ele>198.99999999999997</ele><time>2026-05-01T07:40:27.632Z</time></trkpt><trkpt lat="46.2871009" lon="13.1224657"><ele>199.0</ele><time>2026-05-01T07:40:29.633Z</time></trkpt><trkpt lat="46.2871651" lon="13.1225022"><ele>199.0</ele><time>2026-05-01T07:40:31.633Z</time></trkpt><trkpt lat="46.2872472" lon="13.1224142"><ele>199.0</ele><time>2026-05-01T07:43:01.631Z</time></trkpt><trkpt lat="46.2872547" lon="13.1222964"><ele>198.99999999999997</ele><time>2026-05-01T07:43:03.632Z</time></trkpt><trkpt lat="46.2872311" lon="13.1221935"><ele>199.0</ele><time>2026-05-01T07:43:06.631Z</time></trkpt><trkpt lat="46.287148" lon="13.1221539"><ele>199.2</ele><time>2026-05-01T07:43:08.632Z</time></trkpt><trkpt lat="46.2870838" lon="13.1221805"><ele>199.39999999999998</ele><time>2026-05-01T07:43:09.631Z</time></trkpt><trkpt lat="46.2870081" lon="13.1222248"><ele>199.6</ele><time>2026-05-01T07:43:10.631Z</time></trkpt><trkpt lat="46.286917" lon="13.1222588"><ele>199.8</ele><time>2026-05-01T07:43:11.633Z</time></trkpt><trkpt lat="46.2868201" lon="13.1223079"><ele>200.0</ele><time>2026-05-01T07:43:12.632Z</time></trkpt><trkpt lat="46.2867138" lon="13.1223597"><ele>199.75</ele><time>2026-05-01T07:43:13.631Z</time></trkpt><trkpt lat="46.2866055" lon="13.1224151"><ele>199.5</ele><time>2026-05-01T07:43:14.632Z</time></trkpt><trkpt lat="46.2864934" lon="13.1224723"><ele>199.25</ele><time>2026-05-01T07:43:15.631Z</time></trkpt><trkpt lat="46.2863772" lon="13.1225242"><ele>199.0</ele><time>2026-05-01T07:43:16.632Z</time></trkpt><trkpt lat="46.2862579" lon="13.1225825"><ele>198.75</ele><time>2026-05-01T07:43:17.632Z</time></trkpt><trkpt lat="46.2861319" lon="13.1226392"><ele>198.5</ele><time>2026-05-01T07:43:18.632Z</time></trkpt><trkpt lat="46.2860077" lon="13.1226952"><ele>198.25</ele><time>2026-05-01T07:43:19.632Z</time></trkpt><trkpt lat="46.2858838" lon="13.1227517"><ele>198.0</ele><time>2026-05-01T07:43:20.633Z</time></trkpt><trkpt lat="46.2857575" lon="13.1228123"><ele>198.0</ele><time>2026-05-01T07:43:21.632Z</time></trkpt><trkpt lat="46.2856259" lon="13.1228746"><ele>198.0</ele><time>2026-05-01T07:43:22.632Z</time></trkpt><trkpt lat="46.2854946" lon="13.1229428"><ele>198.0</ele><time>2026-05-01T07:43:23.633Z</time></trkpt><trkpt lat="46.2853628" lon="13.1230045"><ele>198.0</ele><time>2026-05-01T07:43:24.632Z</time></trkpt><trkpt lat="46.2852292" lon="13.1230664"><ele>198.25</ele><time>2026-05-01T07:43:25.632Z</time></trkpt><trkpt lat="46.2850912" lon="13.1231268"><ele>198.5</ele><time>2026-05-01T07:43:26.632Z</time></trkpt><trkpt lat="46.2849517" lon="13.1231906"><ele>198.75</ele><time>2026-05-01T07:43:27.632Z</time></trkpt><trkpt lat="46.2848113" lon="13.1232526"><ele>199.0</ele><time>2026-05-01T07:43:28.632Z</time></trkpt><trkpt lat="46.28467" lon="13.1233221"><ele>199.33333333333331</ele><time>2026-05-01T07:43:29.632Z</time></trkpt><trkpt lat="46.284525" lon="13.1233951"><ele>199.66666666666669</ele><time>2026-05-01T07:43:30.632Z</time></trkpt><trkpt lat="46.2843805" lon="13.1234631"><ele>200.0</ele><time>2026-05-01T07:43:31.632Z</time></trkpt><trkpt lat="46.284231" lon="13.1235285"><ele>200.0</ele><time>2026-05-01T07:43:32.631Z</time></trkpt><trkpt lat="46.2840811" lon="13.1235987"><ele>200.0</ele><time>2026-05-01T07:43:33.632Z</time></trkpt><trkpt lat="46.2839319" lon="13.1236704"><ele>200.0</ele><time>2026-05-01T07:43:34.631Z</time></trkpt><trkpt lat="46.2837821" lon="13.1237417"><ele>199.75</ele><time>2026-05-01T07:43:35.633Z</time></trkpt><trkpt lat="46.28364" lon="13.1238092"><ele>199.5</ele><time>2026-05-01T07:43:36.631Z</time></trkpt><trkpt lat="46.2835014" lon="13.1238753"><ele>199.25</ele><time>2026-05-01T07:43:37.631Z</time></trkpt><trkpt lat="46.2833665" lon="13.1239389"><ele>199.0</ele><time>2026-05-01T07:43:38.632Z</time></trkpt><trkpt lat="46.2832314" lon="13.1240021"><ele>199.25</ele><time>2026-05-01T07:43:39.631Z</time></trkpt><trkpt lat="46.2830968" lon="13.124065"><ele>199.5</ele><time>2026-05-01T07:43:40.631Z</time></trkpt><trkpt lat="46.2829614" lon="13.1241283"><ele>199.75</ele><time>2026-05-01T07:43:41.631Z</time></trkpt><trkpt lat="46.2828278" lon="13.1241922"><ele>200.0</ele><time>2026-05-01T07:43:42.631Z</time></trkpt><trkpt lat="46.2826914" lon="13.1242593"><ele>200.0</ele><time>2026-05-01T07:43:43.632Z</time></trkpt><trkpt lat="46.2825533" lon="13.124323"><ele>200.0</ele><time>2026-05-01T07:43:44.632Z</time></trkpt><trkpt lat="46.2824131" lon="13.1243946"><ele>200.0</ele><time>2026-05-01T07:43:45.631Z</time></trkpt><trkpt lat="46.2822706" lon="13.1244633"><ele>200.0</ele><time>2026-05-01T07:43:46.631Z</time></trkpt><trkpt lat="46.2821277" lon="13.1245205"><ele>200.0</ele><time>2026-05-01T07:43:47.632Z</time></trkpt><trkpt lat="46.2819836" lon="13.1245882"><ele>200.0</ele><time>2026-05-01T07:43:48.633Z</time></trkpt><trkpt lat="46.2818402" lon="13.1246565"><ele>200.0</ele><time>2026-05-01T07:43:49.633Z</time></trkpt><trkpt lat="46.2816971" lon="13.1247232"><ele>200.0</ele><time>2026-05-01T07:43:50.632Z</time></trkpt><trkpt lat="46.2815531" lon="13.124798"><ele>200.0</ele><time>2026-05-01T07:43:51.632Z</time></trkpt><trkpt lat="46.2814089" lon="13.1248776"><ele>200.0</ele><time>2026-05-01T07:43:52.632Z</time></trkpt><trkpt lat="46.2812625" lon="13.124957"><ele>199.66666666666669</ele><time>2026-05-01T07:43:53.632Z</time></trkpt><trkpt lat="46.2811145" lon="13.1250299"><ele>199.33333333333331</ele><time>2026-05-01T07:43:54.631Z</time></trkpt><trkpt lat="46.2809696" lon="13.1251113"><ele>199.0</ele><time>2026-05-01T07:43:55.631Z</time></trkpt><trkpt lat="46.2808222" lon="13.1251847"><ele>199.0</ele><time>2026-05-01T07:43:56.632Z</time></trkpt><trkpt lat="46.2806756" lon="13.1252646"><ele>199.0</ele><time>2026-05-01T07:43:57.632Z</time></trkpt><trkpt lat="46.2805304" lon="13.1253319"><ele>199.0</ele><time>2026-05-01T07:43:58.632Z</time></trkpt><trkpt lat="46.2803942" lon="13.1253911"><ele>198.75</ele><time>2026-05-01T07:43:59.631Z</time></trkpt><trkpt lat="46.2802659" lon="13.1254516"><ele>198.5</ele><time>2026-05-01T07:44:00.633Z</time></trkpt><trkpt lat="46.2801447" lon="13.1255065"><ele>198.25</ele><time>2026-05-01T07:44:01.63Z</time></trkpt><trkpt lat="46.2800344" lon="13.1255645"><ele>198.0</ele><time>2026-05-01T07:44:02.63Z</time></trkpt><trkpt lat="46.2799315" lon="13.1256195"><ele>198.0</ele><time>2026-05-01T07:44:03.632Z</time></trkpt><trkpt lat="46.2798397" lon="13.1256607"><ele>198.0</ele><time>2026-05-01T07:44:04.631Z</time></trkpt><trkpt lat="46.2797498" lon="13.1257058"><ele>198.0</ele><time>2026-05-01T07:44:05.632Z</time></trkpt><trkpt lat="46.2796623" lon="13.1257434"><ele>198.0</ele><time>2026-05-01T07:44:06.631Z</time></trkpt><trkpt lat="46.2795913" lon="13.1257845"><ele>198.0</ele><time>2026-05-01T07:44:07.63Z</time></trkpt><trkpt lat="46.2795198" lon="13.1258196"><ele>198.0</ele><time>2026-05-01T07:44:08.632Z</time></trkpt><trkpt lat="46.2794564" lon="13.1258523"><ele>197.60000000000002</ele><time>2026-05-01T07:44:09.63Z</time></trkpt><trkpt lat="46.2793628" lon="13.1259119"><ele>197.20000000000002</ele><time>2026-05-01T07:44:11.632Z</time></trkpt><trkpt lat="46.2793013" lon="13.125937"><ele>196.8</ele><time>2026-05-01T07:44:13.631Z</time></trkpt><trkpt lat="46.2792255" lon="13.125973"><ele>196.4</ele><time>2026-05-01T07:44:51.631Z</time></trkpt><trkpt lat="46.2791415" lon="13.1260196"><ele>196.0</ele><time>2026-05-01T07:44:53.63Z</time></trkpt><trkpt lat="46.2790217" lon="13.1260823"><ele>195.99999999999997</ele><time>2026-05-01T07:44:55.63Z</time></trkpt><trkpt lat="46.2789605" lon="13.1261275"><ele>196.0</ele><time>2026-05-01T07:44:56.63Z</time></trkpt><trkpt lat="46.2788916" lon="13.1261711"><ele>196.0</ele><time>2026-05-01T07:44:57.631Z</time></trkpt><trkpt lat="46.2788233" lon="13.1262233"><ele>196.0</ele><time>2026-05-01T07:44:58.631Z</time></trkpt><trkpt lat="46.2787462" lon="13.1262744"><ele>195.99999999999997</ele><time>2026-05-01T07:44:59.631Z</time></trkpt><trkpt lat="46.278666" lon="13.1263337"><ele>196.0</ele><time>2026-05-01T07:45:00.631Z</time></trkpt><trkpt lat="46.278571" lon="13.1264068"><ele>196.0</ele><time>2026-05-01T07:45:01.63Z</time></trkpt><trkpt lat="46.2784697" lon="13.1264776"><ele>196.0</ele><time>2026-05-01T07:45:02.631Z</time></trkpt><trkpt lat="46.2783674" lon="13.126544"><ele>196.0</ele><time>2026-05-01T07:45:03.632Z</time></trkpt><trkpt lat="46.2782622" lon="13.1265993"><ele>196.0</ele><time>2026-05-01T07:45:04.63Z</time></trkpt><trkpt lat="46.2781543" lon="13.1266479"><ele>196.0</ele><time>2026-05-01T07:45:05.63Z</time></trkpt><trkpt lat="46.2780425" lon="13.1267077"><ele>196.0</ele><time>2026-05-01T07:45:06.631Z</time></trkpt><trkpt lat="46.2779349" lon="13.126759"><ele>196.0</ele><time>2026-05-01T07:45:07.63Z</time></trkpt><trkpt lat="46.2778319" lon="13.1268111"><ele>196.0</ele><time>2026-05-01T07:45:08.63Z</time></trkpt><trkpt lat="46.2777344" lon="13.1268615"><ele>196.0</ele><time>2026-05-01T07:45:09.632Z</time></trkpt><trkpt lat="46.2776402" lon="13.1269095"><ele>196.0</ele><time>2026-05-01T07:45:10.631Z</time></trkpt><trkpt lat="46.2775438" lon="13.1269621"><ele>196.0</ele><time>2026-05-01T07:45:11.631Z</time></trkpt><trkpt lat="46.277456" lon="13.1270126"><ele>196.0</ele><time>2026-05-01T07:45:12.63Z</time></trkpt><trkpt lat="46.277364" lon="13.1270636"><ele>196.0</ele><time>2026-05-01T07:45:13.63Z</time></trkpt><trkpt lat="46.2772678" lon="13.1271183"><ele>196.0</ele><time>2026-05-01T07:45:14.63Z</time></trkpt><trkpt lat="46.2771751" lon="13.1271672"><ele>196.0</ele><time>2026-05-01T07:45:15.631Z</time></trkpt><trkpt lat="46.2770805" lon="13.1272203"><ele>196.0</ele><time>2026-05-01T07:45:16.63Z</time></trkpt><trkpt lat="46.2769839" lon="13.1272721"><ele>196.0</ele><time>2026-05-01T07:45:17.631Z</time></trkpt><trkpt lat="46.2768852" lon="13.1273254"><ele>196.0</ele><time>2026-05-01T07:45:18.63Z</time></trkpt><trkpt lat="46.2767842" lon="13.1273779"><ele>196.0</ele><time>2026-05-01T07:45:19.631Z</time></trkpt><trkpt lat="46.2766901" lon="13.1274287"><ele>196.0</ele><time>2026-05-01T07:45:20.63Z</time></trkpt><trkpt lat="46.2766005" lon="13.1274777"><ele>196.0</ele><time>2026-05-01T07:45:21.631Z</time></trkpt><trkpt lat="46.2765069" lon="13.1275297"><ele>196.0</ele><time>2026-05-01T07:45:22.632Z</time></trkpt><trkpt lat="46.2764179" lon="13.1275781"><ele>196.0</ele><time>2026-05-01T07:45:23.631Z</time></trkpt><trkpt lat="46.2763287" lon="13.1276272"><ele>196.0</ele><time>2026-05-01T07:45:24.63Z</time></trkpt><trkpt lat="46.2762385" lon="13.1276767"><ele>195.60000000000002</ele><time>2026-05-01T07:45:25.632Z</time></trkpt><trkpt lat="46.2761465" lon="13.1277236"><ele>195.2</ele><time>2026-05-01T07:45:26.631Z</time></trkpt><trkpt lat="46.2760511" lon="13.127773"><ele>194.8</ele><time>2026-05-01T07:45:27.631Z</time></trkpt><trkpt lat="46.2759573" lon="13.1278211"><ele>194.39999999999998</ele><time>2026-05-01T07:45:28.63Z</time></trkpt><trkpt lat="46.2758647" lon="13.1278685"><ele>194.0</ele><time>2026-05-01T07:45:29.631Z</time></trkpt><trkpt lat="46.2757623" lon="13.1279201"><ele>194.0</ele><time>2026-05-01T07:45:30.632Z</time></trkpt><trkpt lat="46.2756637" lon="13.1279714"><ele>194.0</ele><time>2026-05-01T07:45:31.631Z</time></trkpt><trkpt lat="46.2755673" lon="13.1280231"><ele>194.0</ele><time>2026-05-01T07:45:32.631Z</time></trkpt><trkpt lat="46.2754658" lon="13.1280772"><ele>194.0</ele><time>2026-05-01T07:45:33.631Z</time></trkpt><trkpt lat="46.275364" lon="13.1281318"><ele>194.0</ele><time>2026-05-01T07:45:34.631Z</time></trkpt><trkpt lat="46.2752641" lon="13.1281842"><ele>194.16666666666669</ele><time>2026-05-01T07:45:35.631Z</time></trkpt><trkpt lat="46.2751742" lon="13.1282297"><ele>194.33333333333334</ele><time>2026-05-01T07:45:36.631Z</time></trkpt><trkpt lat="46.2750903" lon="13.128273"><ele>194.5</ele><time>2026-05-01T07:45:37.63Z</time></trkpt><trkpt lat="46.2750057" lon="13.1283198"><ele>194.66666666666669</ele><time>2026-05-01T07:45:38.631Z</time></trkpt><trkpt lat="46.2749253" lon="13.1283656"><ele>194.83333333333334</ele><time>2026-05-01T07:45:39.631Z</time></trkpt><trkpt lat="46.2748496" lon="13.1284068"><ele>195.0</ele><time>2026-05-01T07:45:40.63Z</time></trkpt><trkpt lat="46.2747781" lon="13.1284429"><ele>194.8</ele><time>2026-05-01T07:45:41.631Z</time></trkpt><trkpt lat="46.2747105" lon="13.1284728"><ele>194.6</ele><time>2026-05-01T07:45:42.63Z</time></trkpt><trkpt lat="46.2746469" lon="13.1284971"><ele>194.39999999999998</ele><time>2026-05-01T07:45:43.631Z</time></trkpt><trkpt lat="46.2745184" lon="13.1285267"><ele>194.2</ele><time>2026-05-01T07:45:45.63Z</time></trkpt><trkpt lat="46.2744342" lon="13.1285594"><ele>194.0</ele><time>2026-05-01T07:45:46.631Z</time></trkpt><trkpt lat="46.2743397" lon="13.1285965"><ele>194.0</ele><time>2026-05-01T07:45:47.631Z</time></trkpt><trkpt lat="46.274237" lon="13.1286557"><ele>194.0</ele><time>2026-05-01T07:45:48.63Z</time></trkpt><trkpt lat="46.2741138" lon="13.1287109"><ele>194.0</ele><time>2026-05-01T07:45:49.631Z</time></trkpt><trkpt lat="46.2739728" lon="13.1287587"><ele>194.0</ele><time>2026-05-01T07:45:50.63Z</time></trkpt><trkpt lat="46.2738199" lon="13.1287998"><ele>193.66666666666669</ele><time>2026-05-01T07:45:51.63Z</time></trkpt><trkpt lat="46.2736687" lon="13.1288494"><ele>193.33333333333331</ele><time>2026-05-01T07:45:52.631Z</time></trkpt><trkpt lat="46.2735025" lon="13.1288988"><ele>193.0</ele><time>2026-05-01T07:45:53.63Z</time></trkpt><trkpt lat="46.2733438" lon="13.1289068"><ele>193.0</ele><time>2026-05-01T07:45:54.632Z</time></trkpt><trkpt lat="46.273183" lon="13.1289585"><ele>193.0</ele><time>2026-05-01T07:45:55.631Z</time></trkpt><trkpt lat="46.2730256" lon="13.1290165"><ele>193.0</ele><time>2026-05-01T07:45:56.632Z</time></trkpt><trkpt lat="46.2728741" lon="13.1290711"><ele>193.0</ele><time>2026-05-01T07:45:57.63Z</time></trkpt><trkpt lat="46.2727275" lon="13.1291233"><ele>193.0</ele><time>2026-05-01T07:45:58.632Z</time></trkpt><trkpt lat="46.2725922" lon="13.1291818"><ele>193.0</ele><time>2026-05-01T07:45:59.63Z</time></trkpt><trkpt lat="46.2724643" lon="13.129241"><ele>193.0</ele><time>2026-05-01T07:46:00.632Z</time></trkpt><trkpt lat="46.2723474" lon="13.1292939"><ele>192.60000000000002</ele><time>2026-05-01T07:46:01.63Z</time></trkpt><trkpt lat="46.2722309" lon="13.1293477"><ele>192.20000000000002</ele><time>2026-05-01T07:46:02.631Z</time></trkpt><trkpt lat="46.2721361" lon="13.1293861"><ele>191.8</ele><time>2026-05-01T07:46:03.63Z</time></trkpt><trkpt lat="46.2720504" lon="13.1294144"><ele>191.4</ele><time>2026-05-01T07:46:04.63Z</time></trkpt><trkpt lat="46.2719805" lon="13.1294293"><ele>191.0</ele><time>2026-05-01T07:46:05.63Z</time></trkpt><trkpt lat="46.2718755" lon="13.1294612"><ele>191.0</ele><time>2026-05-01T07:46:07.632Z</time></trkpt><trkpt lat="46.2718174" lon="13.1295515"><ele>191.0</ele><time>2026-05-01T07:46:09.63Z</time></trkpt><trkpt lat="46.2718597" lon="13.1297083"><ele>191.0</ele><time>2026-05-01T07:46:11.631Z</time></trkpt><trkpt lat="46.2719042" lon="13.1298126"><ele>191.0</ele><time>2026-05-01T07:46:12.632Z</time></trkpt><trkpt lat="46.2719437" lon="13.1299426"><ele>191.0</ele><time>2026-05-01T07:46:13.631Z</time></trkpt><trkpt lat="46.2718749" lon="13.1300739"><ele>191.0</ele><time>2026-05-01T07:46:14.63Z</time></trkpt><trkpt lat="46.2718868" lon="13.1302254"><ele>191.0</ele><time>2026-05-01T07:46:15.631Z</time></trkpt><trkpt lat="46.2718979" lon="13.1303828"><ele>191.0</ele><time>2026-05-01T07:46:16.631Z</time></trkpt><trkpt lat="46.2719076" lon="13.1305275"><ele>191.0</ele><time>2026-05-01T07:46:17.63Z</time></trkpt><trkpt lat="46.2719168" lon="13.130681"><ele>191.0</ele><time>2026-05-01T07:46:18.63Z</time></trkpt><trkpt lat="46.2719238" lon="13.1308337"><ele>191.0</ele><time>2026-05-01T07:46:19.631Z</time></trkpt><trkpt lat="46.2719236" lon="13.1309958"><ele>191.0</ele><time>2026-05-01T07:46:20.631Z</time></trkpt><trkpt lat="46.2719252" lon="13.1311632"><ele>191.0</ele><time>2026-05-01T07:46:21.631Z</time></trkpt><trkpt lat="46.2719359" lon="13.131342"><ele>191.0</ele><time>2026-05-01T07:46:22.63Z</time></trkpt><trkpt lat="46.2719632" lon="13.131528"><ele>190.75</ele><time>2026-05-01T07:46:23.63Z</time></trkpt><trkpt lat="46.2720024" lon="13.1317159"><ele>190.5</ele><time>2026-05-01T07:46:24.631Z</time></trkpt><trkpt lat="46.2720469" lon="13.131908"><ele>190.25</ele><time>2026-05-01T07:46:25.631Z</time></trkpt><trkpt lat="46.2720963" lon="13.1321014"><ele>190.0</ele><time>2026-05-01T07:46:26.632Z</time></trkpt><trkpt lat="46.2721466" lon="13.1322855"><ele>190.0</ele><time>2026-05-01T07:46:27.631Z</time></trkpt><trkpt lat="46.2721932" lon="13.1324639"><ele>190.0</ele><time>2026-05-01T07:46:28.631Z</time></trkpt><trkpt lat="46.2722363" lon="13.1326338"><ele>190.0</ele><time>2026-05-01T07:46:29.631Z</time></trkpt><trkpt lat="46.2722751" lon="13.1327913"><ele>190.0</ele><time>2026-05-01T07:46:30.631Z</time></trkpt><trkpt lat="46.2723135" lon="13.1329436"><ele>190.2</ele><time>2026-05-01T07:46:31.63Z</time></trkpt><trkpt lat="46.2723465" lon="13.1330788"><ele>190.4</ele><time>2026-05-01T07:46:32.631Z</time></trkpt><trkpt lat="46.2723775" lon="13.133211"><ele>190.60000000000002</ele><time>2026-05-01T07:46:33.631Z</time></trkpt><trkpt lat="46.2724059" lon="13.133341"><ele>190.8</ele><time>2026-05-01T07:46:34.631Z</time></trkpt><trkpt lat="46.2724337" lon="13.1334688"><ele>191.0</ele><time>2026-05-01T07:46:35.63Z</time></trkpt><trkpt lat="46.2724674" lon="13.1335925"><ele>191.0</ele><time>2026-05-01T07:46:36.632Z</time></trkpt><trkpt lat="46.2725064" lon="13.1337107"><ele>191.0</ele><time>2026-05-01T07:46:37.631Z</time></trkpt><trkpt lat="46.272549" lon="13.133827"><ele>191.0</ele><time>2026-05-01T07:46:38.632Z</time></trkpt><trkpt lat="46.2725968" lon="13.1339449"><ele>191.0</ele><time>2026-05-01T07:46:39.631Z</time></trkpt><trkpt lat="46.2726454" lon="13.1340562"><ele>191.0</ele><time>2026-05-01T07:46:40.631Z</time></trkpt><trkpt lat="46.2726945" lon="13.1341622"><ele>191.0</ele><time>2026-05-01T07:46:41.631Z</time></trkpt><trkpt lat="46.272747" lon="13.1342768"><ele>191.0</ele><time>2026-05-01T07:46:42.632Z</time></trkpt><trkpt lat="46.2727977" lon="13.134392"><ele>191.0</ele><time>2026-05-01T07:46:43.63Z</time></trkpt><trkpt lat="46.2728553" lon="13.1345234"><ele>191.0</ele><time>2026-05-01T07:46:44.63Z</time></trkpt><trkpt lat="46.2729227" lon="13.1346655"><ele>191.0</ele><time>2026-05-01T07:46:45.631Z</time></trkpt><trkpt lat="46.2730085" lon="13.1348106"><ele>192.33333333333331</ele><time>2026-05-01T07:46:46.63Z</time></trkpt><trkpt lat="46.273115" lon="13.1349598"><ele>193.66666666666666</ele><time>2026-05-01T07:46:47.631Z</time></trkpt><trkpt lat="46.2732345" lon="13.1350932"><ele>195.0</ele><time>2026-05-01T07:46:48.63Z</time></trkpt><trkpt lat="46.2733623" lon="13.1352132"><ele>195.0</ele><time>2026-05-01T07:46:49.63Z</time></trkpt><trkpt lat="46.2735105" lon="13.1353373"><ele>195.0</ele><time>2026-05-01T07:46:50.63Z</time></trkpt><trkpt lat="46.2736463" lon="13.1354552"><ele>195.0</ele><time>2026-05-01T07:46:51.631Z</time></trkpt><trkpt lat="46.2737715" lon="13.1355776"><ele>195.0</ele><time>2026-05-01T07:46:52.631Z</time></trkpt><trkpt lat="46.2738939" lon="13.1357177"><ele>195.0</ele><time>2026-05-01T07:46:53.63Z</time></trkpt><trkpt lat="46.2740109" lon="13.1358695"><ele>195.0</ele><time>2026-05-01T07:46:54.63Z</time></trkpt><trkpt lat="46.2741246" lon="13.1360359"><ele>197.75</ele><time>2026-05-01T07:46:55.632Z</time></trkpt><trkpt lat="46.2742307" lon="13.1361967"><ele>200.5</ele><time>2026-05-01T07:46:56.631Z</time></trkpt><trkpt lat="46.2743284" lon="13.1363508"><ele>203.25</ele><time>2026-05-01T07:46:57.63Z</time></trkpt><trkpt lat="46.2744172" lon="13.1364981"><ele>206.0</ele><time>2026-05-01T07:46:58.631Z</time></trkpt><trkpt lat="46.2744833" lon="13.1366401"><ele>206.5</ele><time>2026-05-01T07:46:59.632Z</time></trkpt><trkpt lat="46.2745225" lon="13.1367897"><ele>207.0</ele><time>2026-05-01T07:47:00.631Z</time></trkpt><trkpt lat="46.2745342" lon="13.1369359"><ele>207.5</ele><time>2026-05-01T07:47:01.63Z</time></trkpt><trkpt lat="46.2745224" lon="13.1370981"><ele>208.0</ele><time>2026-05-01T07:47:02.631Z</time></trkpt><trkpt lat="46.2744988" lon="13.1372753"><ele>208.75</ele><time>2026-05-01T07:47:03.631Z</time></trkpt><trkpt lat="46.2744696" lon="13.1374614"><ele>209.5</ele><time>2026-05-01T07:47:04.631Z</time></trkpt><trkpt lat="46.2744385" lon="13.1376611"><ele>210.25</ele><time>2026-05-01T07:47:05.63Z</time></trkpt><trkpt lat="46.2744043" lon="13.1378754"><ele>211.0</ele><time>2026-05-01T07:47:06.631Z</time></trkpt><trkpt lat="46.2743661" lon="13.1380862"><ele>212.0</ele><time>2026-05-01T07:47:07.631Z</time></trkpt><trkpt lat="46.27433" lon="13.1382925"><ele>213.0</ele><time>2026-05-01T07:47:08.631Z</time></trkpt><trkpt lat="46.2743026" lon="13.1384889"><ele>214.0</ele><time>2026-05-01T07:47:09.631Z</time></trkpt><trkpt lat="46.2742895" lon="13.1386699"><ele>215.0</ele><time>2026-05-01T07:47:10.631Z</time></trkpt><trkpt lat="46.2742991" lon="13.1388489"><ele>215.0</ele><time>2026-05-01T07:47:11.632Z</time></trkpt><trkpt lat="46.2743344" lon="13.1390132"><ele>215.0</ele><time>2026-05-01T07:47:12.63Z</time></trkpt><trkpt lat="46.2743859" lon="13.1391826"><ele>215.0</ele><time>2026-05-01T07:47:13.631Z</time></trkpt><trkpt lat="46.2744415" lon="13.1393643"><ele>215.0</ele><time>2026-05-01T07:47:14.631Z</time></trkpt><trkpt lat="46.2744863" lon="13.1395475"><ele>216.5</ele><time>2026-05-01T07:47:15.631Z</time></trkpt><trkpt lat="46.2745074" lon="13.1397353"><ele>218.0</ele><time>2026-05-01T07:47:16.63Z</time></trkpt><trkpt lat="46.2745053" lon="13.1399326"><ele>219.5</ele><time>2026-05-01T07:47:17.631Z</time></trkpt><trkpt lat="46.2744856" lon="13.1401297"><ele>221.0</ele><time>2026-05-01T07:47:18.631Z</time></trkpt><trkpt lat="46.27446" lon="13.1403347"><ele>223.25</ele><time>2026-05-01T07:47:19.63Z</time></trkpt><trkpt lat="46.2744367" lon="13.1405332"><ele>225.5</ele><time>2026-05-01T07:47:20.631Z</time></trkpt><trkpt lat="46.2744312" lon="13.1407222"><ele>227.75</ele><time>2026-05-01T07:47:21.63Z</time></trkpt><trkpt lat="46.2744516" lon="13.140919"><ele>230.0</ele><time>2026-05-01T07:47:22.631Z</time></trkpt><trkpt lat="46.2744898" lon="13.1411018"><ele>230.0</ele><time>2026-05-01T07:47:23.63Z</time></trkpt><trkpt lat="46.2745349" lon="13.1412866"><ele>230.0</ele><time>2026-05-01T07:47:24.63Z</time></trkpt><trkpt lat="46.2745756" lon="13.1414749"><ele>230.0</ele><time>2026-05-01T07:47:25.632Z</time></trkpt><trkpt lat="46.2745988" lon="13.1416684"><ele>230.0</ele><time>2026-05-01T07:47:26.631Z</time></trkpt><trkpt lat="46.2746132" lon="13.1418695"><ele>230.0</ele><time>2026-05-01T07:47:27.631Z</time></trkpt><trkpt lat="46.2746461" lon="13.1420472"><ele>230.0</ele><time>2026-05-01T07:47:28.63Z</time></trkpt><trkpt lat="46.2747069" lon="13.1422042"><ele>230.0</ele><time>2026-05-01T07:47:29.63Z</time></trkpt><trkpt lat="46.2747841" lon="13.1423452"><ele>230.0</ele><time>2026-05-01T07:47:30.631Z</time></trkpt><trkpt lat="46.2748718" lon="13.1424814"><ele>233.6</ele><time>2026-05-01T07:47:31.63Z</time></trkpt><trkpt lat="46.2749684" lon="13.1426111"><ele>237.2</ele><time>2026-05-01T07:47:32.631Z</time></trkpt><trkpt lat="46.2750506" lon="13.1427148"><ele>240.8</ele><time>2026-05-01T07:47:33.631Z</time></trkpt><trkpt lat="46.2751309" lon="13.1427995"><ele>244.4</ele><time>2026-05-01T07:47:34.63Z</time></trkpt><trkpt lat="46.2752136" lon="13.1428519"><ele>248.0</ele><time>2026-05-01T07:47:35.631Z</time></trkpt><trkpt lat="46.2752827" lon="13.1428889"><ele>248.0</ele><time>2026-05-01T07:47:36.631Z</time></trkpt><trkpt lat="46.275368" lon="13.1430102"><ele>248.0</ele><time>2026-05-01T07:47:38.632Z</time></trkpt><trkpt lat="46.275393" lon="13.1431066"><ele>248.0</ele><time>2026-05-01T07:47:39.631Z</time></trkpt><trkpt lat="46.2753647" lon="13.1433366"><ele>248.0</ele><time>2026-05-01T07:47:41.63Z</time></trkpt><trkpt lat="46.2753432" lon="13.1435152"><ele>247.25</ele><time>2026-05-01T07:47:42.632Z</time></trkpt><trkpt lat="46.275319" lon="13.1436903"><ele>246.5</ele><time>2026-05-01T07:47:43.631Z</time></trkpt><trkpt lat="46.2752906" lon="13.1438242"><ele>245.75</ele><time>2026-05-01T07:47:44.631Z</time></trkpt><trkpt lat="46.2752626" lon="13.143973"><ele>245.0</ele><time>2026-05-01T07:47:45.63Z</time></trkpt><trkpt lat="46.2751825" lon="13.1441107"><ele>260.33333333333337</ele><time>2026-05-01T07:47:46.631Z</time></trkpt><trkpt lat="46.2751342" lon="13.1442512"><ele>275.6666666666667</ele><time>2026-05-01T07:47:47.631Z</time></trkpt><trkpt lat="46.275032" lon="13.1443878"><ele>291.0</ele><time>2026-05-01T07:47:48.631Z</time></trkpt><trkpt lat="46.2747919" lon="13.1445585"><ele>265.5</ele><time>2026-05-01T07:47:49.631Z</time></trkpt><trkpt lat="46.2744954" lon="13.1446503"><ele>240.0</ele><time>2026-05-01T07:47:50.632Z</time></trkpt><trkpt lat="46.2742341" lon="13.1444517"><ele>240.0</ele><time>2026-05-01T07:47:51.631Z</time></trkpt><trkpt lat="46.2741428" lon="13.1444109"><ele>240.0</ele><time>2026-05-01T07:47:52.632Z</time></trkpt><trkpt lat="46.274059" lon="13.1444228"><ele>240.0</ele><time>2026-05-01T07:47:53.63Z</time></trkpt><trkpt lat="46.2739495" lon="13.1444365"><ele>240.0</ele><time>2026-05-01T07:47:54.63Z</time></trkpt><trkpt lat="46.2738445" lon="13.1444793"><ele>240.0</ele><time>2026-05-01T07:47:55.631Z</time></trkpt><trkpt lat="46.2737276" lon="13.1445346"><ele>236.0</ele><time>2026-05-01T07:47:56.632Z</time></trkpt><trkpt lat="46.2736133" lon="13.1445833"><ele>232.0</ele><time>2026-05-01T07:47:57.631Z</time></trkpt><trkpt lat="46.2734907" lon="13.1446207"><ele>228.0</ele><time>2026-05-01T07:47:58.631Z</time></trkpt><trkpt lat="46.2733635" lon="13.1446598"><ele>224.0</ele><time>2026-05-01T07:47:59.631Z</time></trkpt><trkpt lat="46.2732359" lon="13.1447124"><ele>220.75</ele><time>2026-05-01T07:48:00.631Z</time></trkpt><trkpt lat="46.2731003" lon="13.144762"><ele>217.5</ele><time>2026-05-01T07:48:01.631Z</time></trkpt><trkpt lat="46.2729708" lon="13.1448087"><ele>214.25</ele><time>2026-05-01T07:48:02.63Z</time></trkpt><trkpt lat="46.2728568" lon="13.1448486"><ele>211.0</ele><time>2026-05-01T07:48:03.63Z</time></trkpt><trkpt lat="46.2727418" lon="13.1448811"><ele>215.83333333333331</ele><time>2026-05-01T07:48:04.631Z</time></trkpt><trkpt lat="46.2726631" lon="13.1449192"><ele>220.66666666666666</ele><time>2026-05-01T07:48:05.631Z</time></trkpt><trkpt lat="46.2725995" lon="13.1449335"><ele>225.5</ele><time>2026-05-01T07:48:06.63Z</time></trkpt><trkpt lat="46.2724911" lon="13.1449414"><ele>230.33333333333331</ele><time>2026-05-01T07:48:09.631Z</time></trkpt><trkpt lat="46.2725661" lon="13.1450008"><ele>235.16666666666666</ele><time>2026-05-01T07:48:13.631Z</time></trkpt><trkpt lat="46.2726279" lon="13.1449695"><ele>240.0</ele><time>2026-05-01T07:48:14.63Z</time></trkpt><trkpt lat="46.2727009" lon="13.1449423"><ele>240.0</ele><time>2026-05-01T07:48:15.631Z</time></trkpt><trkpt lat="46.2727895" lon="13.1449175"><ele>240.0</ele><time>2026-05-01T07:48:16.629Z</time></trkpt><trkpt lat="46.2728852" lon="13.1448768"><ele>240.0</ele><time>2026-05-01T07:48:17.63Z</time></trkpt><trkpt lat="46.2729862" lon="13.1448434"><ele>240.0</ele><time>2026-05-01T07:48:18.629Z</time></trkpt><trkpt lat="46.2731031" lon="13.1448028"><ele>240.0</ele><time>2026-05-01T07:48:19.629Z</time></trkpt><trkpt lat="46.2732343" lon="13.1447583"><ele>236.0</ele><time>2026-05-01T07:48:20.63Z</time></trkpt><trkpt lat="46.2733659" lon="13.1447107"><ele>232.0</ele><time>2026-05-01T07:48:21.631Z</time></trkpt><trkpt lat="46.2734956" lon="13.1446693"><ele>228.0</ele><time>2026-05-01T07:48:22.629Z</time></trkpt><trkpt lat="46.2736383" lon="13.1446215"><ele>224.0</ele><time>2026-05-01T07:48:23.63Z</time></trkpt><trkpt lat="46.27377" lon="13.1445755"><ele>224.0</ele><time>2026-05-01T07:48:24.629Z</time></trkpt><trkpt lat="46.2738883" lon="13.144535"><ele>223.99999999999997</ele><time>2026-05-01T07:48:25.629Z</time></trkpt><trkpt lat="46.2739939" lon="13.1444973"><ele>223.99999999999997</ele><time>2026-05-01T07:48:26.63Z</time></trkpt><trkpt lat="46.274085" lon="13.1444672"><ele>224.0</ele><time>2026-05-01T07:48:27.63Z</time></trkpt><trkpt lat="46.2741581" lon="13.1444327"><ele>224.0</ele><time>2026-05-01T07:48:28.63Z</time></trkpt><trkpt lat="46.2742457" lon="13.1443904"><ele>224.0</ele><time>2026-05-01T07:48:30.631Z</time></trkpt><trkpt lat="46.2742401" lon="13.1445011"><ele>223.99999999999997</ele><time>2026-05-01T07:48:34.629Z</time></trkpt><trkpt lat="46.2741318" lon="13.1445566"><ele>223.99999999999997</ele><time>2026-05-01T07:48:36.63Z</time></trkpt><trkpt lat="46.2740179" lon="13.1445984"><ele>224.0</ele><time>2026-05-01T07:48:37.63Z</time></trkpt><trkpt lat="46.2739344" lon="13.1446453"><ele>224.0</ele><time>2026-05-01T07:48:38.631Z</time></trkpt><trkpt lat="46.27385" lon="13.1446913"><ele>224.0</ele><time>2026-05-01T07:48:39.629Z</time></trkpt><trkpt lat="46.2737511" lon="13.1447311"><ele>224.0</ele><time>2026-05-01T07:48:40.63Z</time></trkpt><trkpt lat="46.2736102" lon="13.1447999"><ele>224.0</ele><time>2026-05-01T07:48:41.629Z</time></trkpt><trkpt lat="46.2734885" lon="13.144865"><ele>224.0</ele><time>2026-05-01T07:48:42.629Z</time></trkpt><trkpt lat="46.2733647" lon="13.1449498"><ele>228.0</ele><time>2026-05-01T07:48:43.631Z</time></trkpt><trkpt lat="46.2732162" lon="13.1449784"><ele>232.0</ele><time>2026-05-01T07:48:44.63Z</time></trkpt><trkpt lat="46.2731027" lon="13.1450224"><ele>236.0</ele><time>2026-05-01T07:48:45.629Z</time></trkpt><trkpt lat="46.2729694" lon="13.1450636"><ele>240.0</ele><time>2026-05-01T07:48:46.63Z</time></trkpt><trkpt lat="46.2728316" lon="13.1450864"><ele>240.0</ele><time>2026-05-01T07:48:47.63Z</time></trkpt><trkpt lat="46.2727079" lon="13.1451525"><ele>240.0</ele><time>2026-05-01T07:48:48.63Z</time></trkpt><trkpt lat="46.2726011" lon="13.1451861"><ele>240.0</ele><time>2026-05-01T07:48:49.63Z</time></trkpt><trkpt lat="46.2724945" lon="13.1453358"><ele>240.0</ele><time>2026-05-01T07:48:50.63Z</time></trkpt><trkpt lat="46.2723877" lon="13.1454657"><ele>240.0</ele><time>2026-05-01T07:48:51.63Z</time></trkpt><trkpt lat="46.2722856" lon="13.1455684"><ele>240.0</ele><time>2026-05-01T07:48:52.629Z</time></trkpt><trkpt lat="46.2721769" lon="13.1456972"><ele>240.0</ele><time>2026-05-01T07:48:53.63Z</time></trkpt><trkpt lat="46.2720618" lon="13.145807"><ele>240.0</ele><time>2026-05-01T07:48:54.63Z</time></trkpt><trkpt lat="46.2719476" lon="13.1459258"><ele>242.25</ele><time>2026-05-01T07:48:55.63Z</time></trkpt><trkpt lat="46.2718396" lon="13.146054"><ele>244.5</ele><time>2026-05-01T07:48:56.631Z</time></trkpt><trkpt lat="46.2717282" lon="13.1461692"><ele>246.75</ele><time>2026-05-01T07:48:57.63Z</time></trkpt><trkpt lat="46.2716249" lon="13.146273"><ele>249.0</ele><time>2026-05-01T07:48:58.63Z</time></trkpt><trkpt lat="46.2715207" lon="13.1463667"><ele>251.25</ele><time>2026-05-01T07:48:59.631Z</time></trkpt><trkpt lat="46.27142" lon="13.1464605"><ele>253.5</ele><time>2026-05-01T07:49:00.629Z</time></trkpt><trkpt lat="46.2713014" lon="13.1465053"><ele>255.75</ele><time>2026-05-01T07:49:01.63Z</time></trkpt><trkpt lat="46.2711819" lon="13.1465697"><ele>258.0</ele><time>2026-05-01T07:49:02.631Z</time></trkpt><trkpt lat="46.271062" lon="13.1466321"><ele>258.0</ele><time>2026-05-01T07:49:03.629Z</time></trkpt><trkpt lat="46.2709334" lon="13.1467183"><ele>258.0</ele><time>2026-05-01T07:49:04.63Z</time></trkpt><trkpt lat="46.2708105" lon="13.1468029"><ele>258.0</ele><time>2026-05-01T07:49:05.629Z</time></trkpt><trkpt lat="46.2706839" lon="13.1468955"><ele>258.0</ele><time>2026-05-01T07:49:06.63Z</time></trkpt><trkpt lat="46.2705615" lon="13.1469999"><ele>254.25</ele><time>2026-05-01T07:49:07.629Z</time></trkpt><trkpt lat="46.2704446" lon="13.1471198"><ele>250.5</ele><time>2026-05-01T07:49:08.629Z</time></trkpt><trkpt lat="46.2703197" lon="13.1472101"><ele>246.75</ele><time>2026-05-01T07:49:09.629Z</time></trkpt><trkpt lat="46.2702093" lon="13.1473162"><ele>243.0</ele><time>2026-05-01T07:49:10.629Z</time></trkpt><trkpt lat="46.2700896" lon="13.1473939"><ele>245.0</ele><time>2026-05-01T07:49:11.631Z</time></trkpt><trkpt lat="46.2699374" lon="13.1474496"><ele>247.0</ele><time>2026-05-01T07:49:12.63Z</time></trkpt><trkpt lat="46.2698269" lon="13.1475271"><ele>249.0</ele><time>2026-05-01T07:49:13.629Z</time></trkpt><trkpt lat="46.2697" lon="13.1475973"><ele>251.0</ele><time>2026-05-01T07:49:14.63Z</time></trkpt><trkpt lat="46.269606" lon="13.1476975"><ele>251.0</ele><time>2026-05-01T07:49:15.629Z</time></trkpt><trkpt lat="46.2695056" lon="13.1477935"><ele>251.0</ele><time>2026-05-01T07:49:16.63Z</time></trkpt><trkpt lat="46.2694168" lon="13.1479023"><ele>251.0</ele><time>2026-05-01T07:49:17.629Z</time></trkpt><trkpt lat="46.2693337" lon="13.148016"><ele>251.0</ele><time>2026-05-01T07:49:18.63Z</time></trkpt><trkpt lat="46.2692529" lon="13.1481327"><ele>253.75</ele><time>2026-05-01T07:49:19.63Z</time></trkpt><trkpt lat="46.2691742" lon="13.1482405"><ele>256.5</ele><time>2026-05-01T07:49:20.629Z</time></trkpt><trkpt lat="46.2690961" lon="13.148356"><ele>259.25</ele><time>2026-05-01T07:49:21.63Z</time></trkpt><trkpt lat="46.2689576" lon="13.148416"><ele>262.0</ele><time>2026-05-01T07:49:22.63Z</time></trkpt><trkpt lat="46.2688564" lon="13.1484871"><ele>262.0</ele><time>2026-05-01T07:49:23.63Z</time></trkpt><trkpt lat="46.2687403" lon="13.1485393"><ele>262.0</ele><time>2026-05-01T07:49:24.63Z</time></trkpt><trkpt lat="46.2686245" lon="13.1485928"><ele>262.0</ele><time>2026-05-01T07:49:25.63Z</time></trkpt><trkpt lat="46.2685087" lon="13.1486536"><ele>262.0</ele><time>2026-05-01T07:49:26.63Z</time></trkpt><trkpt lat="46.2683945" lon="13.1487165"><ele>262.0</ele><time>2026-05-01T07:49:27.631Z</time></trkpt><trkpt lat="46.2682833" lon="13.1487794"><ele>262.0</ele><time>2026-05-01T07:49:28.63Z</time></trkpt><trkpt lat="46.2681708" lon="13.1488458"><ele>262.0</ele><time>2026-05-01T07:49:29.63Z</time></trkpt><trkpt lat="46.2680562" lon="13.1489275"><ele>262.0</ele><time>2026-05-01T07:49:30.631Z</time></trkpt><trkpt lat="46.2679427" lon="13.1490033"><ele>264.75</ele><time>2026-05-01T07:49:31.63Z</time></trkpt><trkpt lat="46.2678265" lon="13.1490674"><ele>267.5</ele><time>2026-05-01T07:49:32.63Z</time></trkpt><trkpt lat="46.2677165" lon="13.1491461"><ele>270.25</ele><time>2026-05-01T07:49:33.629Z</time></trkpt><trkpt lat="46.2676108" lon="13.1492353"><ele>273.0</ele><time>2026-05-01T07:49:34.63Z</time></trkpt><trkpt lat="46.2675105" lon="13.1493415"><ele>273.0</ele><time>2026-05-01T07:49:35.63Z</time></trkpt><trkpt lat="46.2674068" lon="13.1494435"><ele>273.0</ele><time>2026-05-01T07:49:36.631Z</time></trkpt><trkpt lat="46.2672932" lon="13.1495326"><ele>273.0</ele><time>2026-05-01T07:49:37.63Z</time></trkpt><trkpt lat="46.2671762" lon="13.1496071"><ele>273.0</ele><time>2026-05-01T07:49:38.63Z</time></trkpt><trkpt lat="46.2670674" lon="13.149672"><ele>274.4</ele><time>2026-05-01T07:49:39.631Z</time></trkpt><trkpt lat="46.2669576" lon="13.1497361"><ele>275.8</ele><time>2026-05-01T07:49:40.63Z</time></trkpt><trkpt lat="46.266853" lon="13.1497954"><ele>277.2</ele><time>2026-05-01T07:49:41.631Z</time></trkpt><trkpt lat="46.2667511" lon="13.1498538"><ele>278.6</ele><time>2026-05-01T07:49:42.629Z</time></trkpt><trkpt lat="46.2666555" lon="13.1499166"><ele>280.0</ele><time>2026-05-01T07:49:43.63Z</time></trkpt><trkpt lat="46.2665656" lon="13.1500045"><ele>280.0</ele><time>2026-05-01T07:49:44.63Z</time></trkpt><trkpt lat="46.266479" lon="13.1500795"><ele>280.0</ele><time>2026-05-01T07:49:45.629Z</time></trkpt><trkpt lat="46.2663882" lon="13.1501601"><ele>280.0</ele><time>2026-05-01T07:49:46.63Z</time></trkpt><trkpt lat="46.266301" lon="13.1502494"><ele>280.0</ele><time>2026-05-01T07:49:47.629Z</time></trkpt><trkpt lat="46.2662179" lon="13.1503409"><ele>280.0</ele><time>2026-05-01T07:49:48.629Z</time></trkpt><trkpt lat="46.2661392" lon="13.1504381"><ele>279.6</ele><time>2026-05-01T07:49:49.629Z</time></trkpt><trkpt lat="46.2660605" lon="13.1505473"><ele>279.2</ele><time>2026-05-01T07:49:50.629Z</time></trkpt><trkpt lat="46.2659861" lon="13.1506604"><ele>278.8</ele><time>2026-05-01T07:49:51.63Z</time></trkpt><trkpt lat="46.2659161" lon="13.1507818"><ele>278.4</ele><time>2026-05-01T07:49:52.629Z</time></trkpt><trkpt lat="46.2658395" lon="13.1508868"><ele>278.0</ele><time>2026-05-01T07:49:53.63Z</time></trkpt><trkpt lat="46.2657585" lon="13.150981"><ele>278.0</ele><time>2026-05-01T07:49:54.629Z</time></trkpt><trkpt lat="46.2656755" lon="13.151058"><ele>278.0</ele><time>2026-05-01T07:49:55.631Z</time></trkpt><trkpt lat="46.265599" lon="13.1511364"><ele>278.0</ele><time>2026-05-01T07:49:56.63Z</time></trkpt><trkpt lat="46.2655307" lon="13.1512187"><ele>278.0</ele><time>2026-05-01T07:49:57.63Z</time></trkpt><trkpt lat="46.2654722" lon="13.1512993"><ele>278.0</ele><time>2026-05-01T07:49:58.63Z</time></trkpt><trkpt lat="46.2654219" lon="13.1513837"><ele>278.0</ele><time>2026-05-01T07:49:59.63Z</time></trkpt><trkpt lat="46.2653676" lon="13.1514638"><ele>278.0</ele><time>2026-05-01T07:50:00.629Z</time></trkpt><trkpt lat="46.2653023" lon="13.1515226"><ele>278.0</ele><time>2026-05-01T07:50:01.629Z</time></trkpt><trkpt lat="46.2652268" lon="13.1515576"><ele>278.0</ele><time>2026-05-01T07:50:02.63Z</time></trkpt><trkpt lat="46.2651513" lon="13.1515597"><ele>278.0</ele><time>2026-05-01T07:50:03.629Z</time></trkpt><trkpt lat="46.2650698" lon="13.1515361"><ele>278.0</ele><time>2026-05-01T07:50:04.629Z</time></trkpt><trkpt lat="46.2649867" lon="13.1515041"><ele>278.0</ele><time>2026-05-01T07:50:05.63Z</time></trkpt><trkpt lat="46.2649075" lon="13.1514539"><ele>276.83333333333337</ele><time>2026-05-01T07:50:06.629Z</time></trkpt><trkpt lat="46.2648322" lon="13.1513835"><ele>275.6666666666667</ele><time>2026-05-01T07:50:07.63Z</time></trkpt><trkpt lat="46.2647544" lon="13.1513278"><ele>274.5</ele><time>2026-05-01T07:50:08.63Z</time></trkpt><trkpt lat="46.264678" lon="13.1512896"><ele>273.3333333333333</ele><time>2026-05-01T07:50:09.629Z</time></trkpt><trkpt lat="46.2645985" lon="13.1512888"><ele>272.16666666666663</ele><time>2026-05-01T07:50:10.631Z</time></trkpt><trkpt lat="46.2645209" lon="13.1513123"><ele>271.0</ele><time>2026-05-01T07:50:11.629Z</time></trkpt><trkpt lat="46.2644405" lon="13.1513304"><ele>271.0</ele><time>2026-05-01T07:50:12.63Z</time></trkpt><trkpt lat="46.2643528" lon="13.1513433"><ele>271.0</ele><time>2026-05-01T07:50:13.629Z</time></trkpt><trkpt lat="46.264264" lon="13.1513574"><ele>271.0</ele><time>2026-05-01T07:50:14.629Z</time></trkpt><trkpt lat="46.2641724" lon="13.1513738"><ele>271.0</ele><time>2026-05-01T07:50:15.629Z</time></trkpt><trkpt lat="46.2640833" lon="13.1513892"><ele>271.0</ele><time>2026-05-01T07:50:16.631Z</time></trkpt><trkpt lat="46.2639943" lon="13.1514082"><ele>271.0</ele><time>2026-05-01T07:50:17.631Z</time></trkpt><trkpt lat="46.2639008" lon="13.1514142"><ele>270.40000000000003</ele><time>2026-05-01T07:50:18.63Z</time></trkpt><trkpt lat="46.263805" lon="13.1514217"><ele>269.8</ele><time>2026-05-01T07:50:19.631Z</time></trkpt><trkpt lat="46.2637075" lon="13.1514307"><ele>269.20000000000005</ele><time>2026-05-01T07:50:20.629Z</time></trkpt><trkpt lat="46.2636156" lon="13.1514364"><ele>268.6</ele><time>2026-05-01T07:50:21.629Z</time></trkpt><trkpt lat="46.2635251" lon="13.1514444"><ele>268.0</ele><time>2026-05-01T07:50:22.63Z</time></trkpt><trkpt lat="46.2634392" lon="13.1514496"><ele>268.0</ele><time>2026-05-01T07:50:23.629Z</time></trkpt><trkpt lat="46.26335" lon="13.1514498"><ele>268.0</ele><time>2026-05-01T07:50:24.629Z</time></trkpt><trkpt lat="46.2632607" lon="13.151455"><ele>268.0</ele><time>2026-05-01T07:50:25.63Z</time></trkpt><trkpt lat="46.2631686" lon="13.1514604"><ele>268.0</ele><time>2026-05-01T07:50:26.63Z</time></trkpt><trkpt lat="46.2630789" lon="13.1514737"><ele>268.0</ele><time>2026-05-01T07:50:27.631Z</time></trkpt><trkpt lat="46.2629867" lon="13.1514862"><ele>268.8</ele><time>2026-05-01T07:50:28.63Z</time></trkpt><trkpt lat="46.2628935" lon="13.1515024"><ele>269.6</ele><time>2026-05-01T07:50:29.63Z</time></trkpt><trkpt lat="46.2627974" lon="13.1515184"><ele>270.4</ele><time>2026-05-01T07:50:30.629Z</time></trkpt><trkpt lat="46.2627008" lon="13.1515389"><ele>271.2</ele><time>2026-05-01T07:50:31.63Z</time></trkpt><trkpt lat="46.2625964" lon="13.1515718"><ele>272.0</ele><time>2026-05-01T07:50:32.63Z</time></trkpt><trkpt lat="46.2624975" lon="13.1516062"><ele>272.0</ele><time>2026-05-01T07:50:33.629Z</time></trkpt><trkpt lat="46.2623999" lon="13.1516489"><ele>272.0</ele><time>2026-05-01T07:50:34.631Z</time></trkpt><trkpt lat="46.2623145" lon="13.1516964"><ele>272.0</ele><time>2026-05-01T07:50:35.629Z</time></trkpt><trkpt lat="46.2622349" lon="13.1517371"><ele>272.0</ele><time>2026-05-01T07:50:37.63Z</time></trkpt><trkpt lat="46.2621653" lon="13.1517926"><ele>272.0</ele><time>2026-05-01T07:50:40.629Z</time></trkpt><trkpt lat="46.2620562" lon="13.151889"><ele>271.33333333333337</ele><time>2026-05-01T07:50:42.629Z</time></trkpt><trkpt lat="46.2619915" lon="13.1519295"><ele>270.6666666666667</ele><time>2026-05-01T07:50:43.63Z</time></trkpt><trkpt lat="46.2619179" lon="13.1519764"><ele>270.0</ele><time>2026-05-01T07:50:44.629Z</time></trkpt><trkpt lat="46.2618462" lon="13.1520216"><ele>269.3333333333333</ele><time>2026-05-01T07:50:45.631Z</time></trkpt><trkpt lat="46.2617755" lon="13.1520724"><ele>268.66666666666663</ele><time>2026-05-01T07:50:46.63Z</time></trkpt><trkpt lat="46.2617123" lon="13.152137"><ele>268.0</ele><time>2026-05-01T07:50:47.629Z</time></trkpt><trkpt lat="46.2616456" lon="13.1522014"><ele>268.0</ele><time>2026-05-01T07:50:48.63Z</time></trkpt><trkpt lat="46.2615803" lon="13.1522524"><ele>268.0</ele><time>2026-05-01T07:50:49.629Z</time></trkpt><trkpt lat="46.2615098" lon="13.1523112"><ele>268.0</ele><time>2026-05-01T07:50:50.629Z</time></trkpt><trkpt lat="46.2614422" lon="13.1523844"><ele>268.0</ele><time>2026-05-01T07:50:51.631Z</time></trkpt><trkpt lat="46.2613784" lon="13.1524788"><ele>268.0</ele><time>2026-05-01T07:50:52.631Z</time></trkpt><trkpt lat="46.261315" lon="13.1526016"><ele>268.0</ele><time>2026-05-01T07:50:53.629Z</time></trkpt><trkpt lat="46.2612605" lon="13.1527293"><ele>267.5</ele><time>2026-05-01T07:50:54.629Z</time></trkpt><trkpt lat="46.2612002" lon="13.1528519"><ele>267.0</ele><time>2026-05-01T07:50:55.63Z</time></trkpt><trkpt lat="46.2611354" lon="13.1529708"><ele>266.5</ele><time>2026-05-01T07:50:56.63Z</time></trkpt><trkpt lat="46.2610545" lon="13.1530964"><ele>266.0</ele><time>2026-05-01T07:50:57.63Z</time></trkpt><trkpt lat="46.260959" lon="13.15322"><ele>268.0</ele><time>2026-05-01T07:50:58.63Z</time></trkpt><trkpt lat="46.260869" lon="13.1533496"><ele>270.0</ele><time>2026-05-01T07:50:59.63Z</time></trkpt><trkpt lat="46.2607825" lon="13.1534939"><ele>272.0</ele><time>2026-05-01T07:51:00.631Z</time></trkpt><trkpt lat="46.2607011" lon="13.1536456"><ele>274.0</ele><time>2026-05-01T07:51:01.629Z</time></trkpt><trkpt lat="46.2606221" lon="13.1538021"><ele>271.75</ele><time>2026-05-01T07:51:02.629Z</time></trkpt><trkpt lat="46.2605421" lon="13.1539631"><ele>269.5</ele><time>2026-05-01T07:51:03.629Z</time></trkpt><trkpt lat="46.2604651" lon="13.1541155"><ele>267.25</ele><time>2026-05-01T07:51:04.631Z</time></trkpt><trkpt lat="46.2603981" lon="13.154258"><ele>265.0</ele><time>2026-05-01T07:51:05.629Z</time></trkpt><trkpt lat="46.2603354" lon="13.1543982"><ele>265.0</ele><time>2026-05-01T07:51:06.63Z</time></trkpt><trkpt lat="46.2602746" lon="13.1545372"><ele>265.0</ele><time>2026-05-01T07:51:07.629Z</time></trkpt><trkpt lat="46.260219" lon="13.1546748"><ele>265.0</ele><time>2026-05-01T07:51:08.629Z</time></trkpt><trkpt lat="46.2601606" lon="13.1548168"><ele>265.0</ele><time>2026-05-01T07:51:09.63Z</time></trkpt><trkpt lat="46.260112" lon="13.1549621"><ele>265.8</ele><time>2026-05-01T07:51:10.629Z</time></trkpt><trkpt lat="46.2600743" lon="13.1551034"><ele>266.6</ele><time>2026-05-01T07:51:11.629Z</time></trkpt><trkpt lat="46.2600455" lon="13.1552444"><ele>267.4</ele><time>2026-05-01T07:51:12.629Z</time></trkpt><trkpt lat="46.2600279" lon="13.1553883"><ele>268.2</ele><time>2026-05-01T07:51:13.631Z</time></trkpt><trkpt lat="46.2600201" lon="13.1555277"><ele>269.0</ele><time>2026-05-01T07:51:14.63Z</time></trkpt><trkpt lat="46.2600156" lon="13.1556653"><ele>269.1666666666667</ele><time>2026-05-01T07:51:15.63Z</time></trkpt><trkpt lat="46.2600116" lon="13.1557969"><ele>269.33333333333337</ele><time>2026-05-01T07:51:16.629Z</time></trkpt><trkpt lat="46.2600029" lon="13.1559255"><ele>269.5</ele><time>2026-05-01T07:51:17.63Z</time></trkpt><trkpt lat="46.2599897" lon="13.1560414"><ele>269.6666666666667</ele><time>2026-05-01T07:51:18.631Z</time></trkpt><trkpt lat="46.2599575" lon="13.1561389"><ele>269.8333333333333</ele><time>2026-05-01T07:51:19.63Z</time></trkpt><trkpt lat="46.2598991" lon="13.1562275"><ele>270.0</ele><time>2026-05-01T07:51:20.63Z</time></trkpt><trkpt lat="46.2598237" lon="13.1563268"><ele>268.0</ele><time>2026-05-01T07:51:21.631Z</time></trkpt><trkpt lat="46.2597573" lon="13.1564306"><ele>266.0</ele><time>2026-05-01T07:51:22.63Z</time></trkpt><trkpt lat="46.2596849" lon="13.1565361"><ele>264.0</ele><time>2026-05-01T07:51:23.63Z</time></trkpt><trkpt lat="46.2596104" lon="13.1566587"><ele>262.0</ele><time>2026-05-01T07:51:24.63Z</time></trkpt><trkpt lat="46.2595405" lon="13.1567655"><ele>260.0</ele><time>2026-05-01T07:51:25.631Z</time></trkpt><trkpt lat="46.2594739" lon="13.1568699"><ele>260.0</ele><time>2026-05-01T07:51:26.629Z</time></trkpt><trkpt lat="46.2594081" lon="13.15697"><ele>260.0</ele><time>2026-05-01T07:51:27.63Z</time></trkpt><trkpt lat="46.2593485" lon="13.1570735"><ele>260.0</ele><time>2026-05-01T07:51:28.631Z</time></trkpt><trkpt lat="46.259283" lon="13.1571793"><ele>260.0</ele><time>2026-05-01T07:51:29.629Z</time></trkpt><trkpt lat="46.2592095" lon="13.1573037"><ele>260.0</ele><time>2026-05-01T07:51:30.631Z</time></trkpt><trkpt lat="46.2591168" lon="13.1574323"><ele>257.25</ele><time>2026-05-01T07:51:31.629Z</time></trkpt><trkpt lat="46.2590199" lon="13.1575214"><ele>254.5</ele><time>2026-05-01T07:51:32.63Z</time></trkpt><trkpt lat="46.258924" lon="13.1576167"><ele>251.75</ele><time>2026-05-01T07:51:33.63Z</time></trkpt><trkpt lat="46.2588377" lon="13.1577225"><ele>249.0</ele><time>2026-05-01T07:51:34.63Z</time></trkpt><trkpt lat="46.2587481" lon="13.1578284"><ele>249.0</ele><time>2026-05-01T07:51:35.629Z</time></trkpt><trkpt lat="46.2586663" lon="13.1579657"><ele>249.0</ele><time>2026-05-01T07:51:36.63Z</time></trkpt><trkpt lat="46.2585935" lon="13.1581225"><ele>249.0</ele><time>2026-05-01T07:51:37.63Z</time></trkpt><trkpt lat="46.2585037" lon="13.1582634"><ele>249.0</ele><time>2026-05-01T07:51:38.629Z</time></trkpt><trkpt lat="46.2583973" lon="13.1583786"><ele>251.0</ele><time>2026-05-01T07:51:39.63Z</time></trkpt><trkpt lat="46.2582863" lon="13.1584691"><ele>253.0</ele><time>2026-05-01T07:51:40.629Z</time></trkpt><trkpt lat="46.2581645" lon="13.1585183"><ele>255.0</ele><time>2026-05-01T07:51:41.63Z</time></trkpt><trkpt lat="46.2580533" lon="13.1585714"><ele>257.0</ele><time>2026-05-01T07:51:42.629Z</time></trkpt><trkpt lat="46.257944" lon="13.1586092"><ele>257.0</ele><time>2026-05-01T07:51:43.63Z</time></trkpt><trkpt lat="46.2578544" lon="13.1587092"><ele>257.0</ele><time>2026-05-01T07:51:44.629Z</time></trkpt><trkpt lat="46.2577676" lon="13.1588118"><ele>257.0</ele><time>2026-05-01T07:51:45.629Z</time></trkpt><trkpt lat="46.257695" lon="13.1589438"><ele>257.0</ele><time>2026-05-01T07:51:46.63Z</time></trkpt><trkpt lat="46.257629" lon="13.1590826"><ele>261.5</ele><time>2026-05-01T07:51:47.63Z</time></trkpt><trkpt lat="46.2575452" lon="13.1592331"><ele>266.0</ele><time>2026-05-01T07:51:48.629Z</time></trkpt><trkpt lat="46.257455" lon="13.1593898"><ele>270.5</ele><time>2026-05-01T07:51:49.631Z</time></trkpt><trkpt lat="46.2573726" lon="13.1595606"><ele>275.0</ele><time>2026-05-01T07:51:50.63Z</time></trkpt><trkpt lat="46.2573084" lon="13.1597331"><ele>275.25</ele><time>2026-05-01T07:51:51.63Z</time></trkpt><trkpt lat="46.2572569" lon="13.1599109"><ele>275.5</ele><time>2026-05-01T07:51:52.63Z</time></trkpt><trkpt lat="46.2572022" lon="13.1600863"><ele>275.75</ele><time>2026-05-01T07:51:53.629Z</time></trkpt><trkpt lat="46.2572013" lon="13.1602891"><ele>276.0</ele><time>2026-05-01T07:51:54.631Z</time></trkpt><trkpt lat="46.2572308" lon="13.1604834"><ele>276.0</ele><time>2026-05-01T07:51:55.63Z</time></trkpt><trkpt lat="46.2572358" lon="13.1606749"><ele>276.0</ele><time>2026-05-01T07:51:56.63Z</time></trkpt><trkpt lat="46.2572411" lon="13.1608651"><ele>276.0</ele><time>2026-05-01T07:51:57.629Z</time></trkpt><trkpt lat="46.257243" lon="13.1610456"><ele>276.0</ele><time>2026-05-01T07:51:58.629Z</time></trkpt><trkpt lat="46.2572351" lon="13.1612003"><ele>278.6666666666667</ele><time>2026-05-01T07:51:59.629Z</time></trkpt><trkpt lat="46.2572126" lon="13.1613261"><ele>281.3333333333333</ele><time>2026-05-01T07:52:00.63Z</time></trkpt><trkpt lat="46.2571776" lon="13.1614329"><ele>284.0</ele><time>2026-05-01T07:52:01.631Z</time></trkpt><trkpt lat="46.2571137" lon="13.1615113"><ele>286.66666666666663</ele><time>2026-05-01T07:52:02.629Z</time></trkpt><trkpt lat="46.2570357" lon="13.1615517"><ele>289.3333333333333</ele><time>2026-05-01T07:52:03.629Z</time></trkpt><trkpt lat="46.2569538" lon="13.1615514"><ele>292.0</ele><time>2026-05-01T07:52:04.63Z</time></trkpt><trkpt lat="46.2568771" lon="13.1615042"><ele>292.0</ele><time>2026-05-01T07:52:05.63Z</time></trkpt><trkpt lat="46.2567918" lon="13.1614587"><ele>292.0</ele><time>2026-05-01T07:52:06.629Z</time></trkpt><trkpt lat="46.2567162" lon="13.1613111"><ele>292.0</ele><time>2026-05-01T07:52:07.631Z</time></trkpt><trkpt lat="46.2566306" lon="13.1611839"><ele>292.0</ele><time>2026-05-01T07:52:08.63Z</time></trkpt><trkpt lat="46.2565694" lon="13.1610301"><ele>292.0</ele><time>2026-05-01T07:52:09.63Z</time></trkpt><trkpt lat="46.2565138" lon="13.1608515"><ele>292.0</ele><time>2026-05-01T07:52:10.63Z</time></trkpt><trkpt lat="46.2564423" lon="13.1607072"><ele>292.0</ele><time>2026-05-01T07:52:11.629Z</time></trkpt><trkpt lat="46.2563621" lon="13.1605823"><ele>292.0</ele><time>2026-05-01T07:52:12.63Z</time></trkpt><trkpt lat="46.2562831" lon="13.1604721"><ele>291.16666666666663</ele><time>2026-05-01T07:52:13.63Z</time></trkpt><trkpt lat="46.2562004" lon="13.1603994"><ele>290.3333333333333</ele><time>2026-05-01T07:52:14.629Z</time></trkpt><trkpt lat="46.2561215" lon="13.1603402"><ele>289.5</ele><time>2026-05-01T07:52:15.63Z</time></trkpt><trkpt lat="46.2560477" lon="13.1603279"><ele>288.6666666666667</ele><time>2026-05-01T07:52:16.629Z</time></trkpt><trkpt lat="46.2559855" lon="13.1603574"><ele>287.83333333333337</ele><time>2026-05-01T07:52:17.63Z</time></trkpt><trkpt lat="46.255929" lon="13.1604029"><ele>287.0</ele><time>2026-05-01T07:52:18.63Z</time></trkpt><trkpt lat="46.2558397" lon="13.1605185"><ele>287.0</ele><time>2026-05-01T07:52:19.63Z</time></trkpt><trkpt lat="46.2557941" lon="13.1606518"><ele>287.0</ele><time>2026-05-01T07:52:20.63Z</time></trkpt><trkpt lat="46.2557434" lon="13.1607836"><ele>287.0</ele><time>2026-05-01T07:52:21.63Z</time></trkpt><trkpt lat="46.2556986" lon="13.1609081"><ele>287.0</ele><time>2026-05-01T07:52:22.631Z</time></trkpt><trkpt lat="46.2556366" lon="13.1609938"><ele>287.0</ele><time>2026-05-01T07:52:23.63Z</time></trkpt><trkpt lat="46.2555988" lon="13.1610948"><ele>289.83333333333337</ele><time>2026-05-01T07:52:24.63Z</time></trkpt><trkpt lat="46.2555678" lon="13.1611874"><ele>292.6666666666667</ele><time>2026-05-01T07:52:25.631Z</time></trkpt><trkpt lat="46.2555566" lon="13.161278"><ele>295.5</ele><time>2026-05-01T07:52:26.63Z</time></trkpt><trkpt lat="46.2555464" lon="13.1613722"><ele>298.3333333333333</ele><time>2026-05-01T07:52:27.63Z</time></trkpt><trkpt lat="46.2556406" lon="13.1614113"><ele>301.16666666666663</ele><time>2026-05-01T07:52:28.63Z</time></trkpt><trkpt lat="46.2557333" lon="13.1614079"><ele>304.0</ele><time>2026-05-01T07:52:29.629Z</time></trkpt><trkpt lat="46.2557963" lon="13.1613272"><ele>304.0</ele><time>2026-05-01T07:52:30.63Z</time></trkpt><trkpt lat="46.2558536" lon="13.161239"><ele>304.0</ele><time>2026-05-01T07:52:31.629Z</time></trkpt><trkpt lat="46.2559009" lon="13.1611414"><ele>304.0</ele><time>2026-05-01T07:52:32.629Z</time></trkpt><trkpt lat="46.2559501" lon="13.1610343"><ele>304.0</ele><time>2026-05-01T07:52:33.628Z</time></trkpt><trkpt lat="46.2559989" lon="13.1609414"><ele>304.0</ele><time>2026-05-01T07:52:34.629Z</time></trkpt><trkpt lat="46.2560926" lon="13.1609263"><ele>304.0</ele><time>2026-05-01T07:52:35.63Z</time></trkpt><trkpt lat="46.2561614" lon="13.1608719"><ele>304.0</ele><time>2026-05-01T07:52:36.628Z</time></trkpt><trkpt lat="46.2562361" lon="13.1609407"><ele>304.0</ele><time>2026-05-01T07:52:37.628Z</time></trkpt><trkpt lat="46.256278" lon="13.1610088"><ele>304.0</ele><time>2026-05-01T07:52:38.63Z</time></trkpt><trkpt lat="46.2563129" lon="13.1610886"><ele>304.0</ele><time>2026-05-01T07:52:39.629Z</time></trkpt><trkpt lat="46.2563277" lon="13.1612154"><ele>304.0</ele><time>2026-05-01T07:52:40.628Z</time></trkpt><trkpt lat="46.2561745" lon="13.1613446"><ele>304.0</ele><time>2026-05-01T07:52:41.63Z</time></trkpt><trkpt lat="46.2561262" lon="13.161468"><ele>304.0</ele><time>2026-05-01T07:52:42.629Z</time></trkpt><trkpt lat="46.2560549" lon="13.1616027"><ele>304.0</ele><time>2026-05-01T07:52:43.628Z</time></trkpt><trkpt lat="46.255975" lon="13.1617297"><ele>304.0</ele><time>2026-05-01T07:52:44.628Z</time></trkpt><trkpt lat="46.2558793" lon="13.1618433"><ele>307.0</ele><time>2026-05-01T07:52:45.63Z</time></trkpt><trkpt lat="46.255772" lon="13.1619238"><ele>310.0</ele><time>2026-05-01T07:52:46.629Z</time></trkpt><trkpt lat="46.255668" lon="13.16201"><ele>313.0</ele><time>2026-05-01T07:52:47.63Z</time></trkpt><trkpt lat="46.2555625" lon="13.1620688"><ele>316.0</ele><time>2026-05-01T07:52:48.629Z</time></trkpt><trkpt lat="46.2554572" lon="13.1621097"><ele>319.20000000000005</ele><time>2026-05-01T07:52:49.628Z</time></trkpt><trkpt lat="46.2553617" lon="13.1621629"><ele>322.40000000000003</ele><time>2026-05-01T07:52:50.628Z</time></trkpt><trkpt lat="46.2552823" lon="13.1622247"><ele>325.6</ele><time>2026-05-01T07:52:51.629Z</time></trkpt><trkpt lat="46.2552301" lon="13.1623342"><ele>328.8</ele><time>2026-05-01T07:52:52.629Z</time></trkpt><trkpt lat="46.2552431" lon="13.1624905"><ele>332.0</ele><time>2026-05-01T07:52:54.63Z</time></trkpt><trkpt lat="46.2554799" lon="13.1625027"><ele>331.6</ele><time>2026-05-01T07:52:56.629Z</time></trkpt><trkpt lat="46.2556002" lon="13.1624934"><ele>331.20000000000005</ele><time>2026-05-01T07:52:57.629Z</time></trkpt><trkpt lat="46.2557005" lon="13.1624778"><ele>330.8</ele><time>2026-05-01T07:52:58.628Z</time></trkpt><trkpt lat="46.2557962" lon="13.162459"><ele>330.4</ele><time>2026-05-01T07:52:59.629Z</time></trkpt><trkpt lat="46.2558978" lon="13.1624475"><ele>330.0</ele><time>2026-05-01T07:53:00.63Z</time></trkpt><trkpt lat="46.2559645" lon="13.1624808"><ele>330.0</ele><time>2026-05-01T07:53:01.628Z</time></trkpt><trkpt lat="46.2560091" lon="13.162625"><ele>330.0</ele><time>2026-05-01T07:53:03.628Z</time></trkpt><trkpt lat="46.255977" lon="13.1627037"><ele>330.0</ele><time>2026-05-01T07:53:04.629Z</time></trkpt><trkpt lat="46.2559202" lon="13.1627666"><ele>330.0</ele><time>2026-05-01T07:53:05.63Z</time></trkpt><trkpt lat="46.2558378" lon="13.1628333"><ele>330.0</ele><time>2026-05-01T07:53:06.628Z</time></trkpt><trkpt lat="46.2557517" lon="13.1629062"><ele>330.0</ele><time>2026-05-01T07:53:07.629Z</time></trkpt><trkpt lat="46.2556607" lon="13.1629834"><ele>332.0</ele><time>2026-05-01T07:53:08.629Z</time></trkpt><trkpt lat="46.2555633" lon="13.1630703"><ele>334.0</ele><time>2026-05-01T07:53:09.628Z</time></trkpt><trkpt lat="46.2554804" lon="13.1631464"><ele>336.0</ele><time>2026-05-01T07:53:10.629Z</time></trkpt><trkpt lat="46.2554219" lon="13.1632363"><ele>338.0</ele><time>2026-05-01T07:53:11.629Z</time></trkpt><trkpt lat="46.2553942" lon="13.1633631"><ele>340.0</ele><time>2026-05-01T07:53:12.629Z</time></trkpt><trkpt lat="46.2553703" lon="13.1634898"><ele>340.25</ele><time>2026-05-01T07:53:13.628Z</time></trkpt><trkpt lat="46.2553924" lon="13.1636507"><ele>340.5</ele><time>2026-05-01T07:53:14.63Z</time></trkpt><trkpt lat="46.255367" lon="13.1638047"><ele>340.75</ele><time>2026-05-01T07:53:15.628Z</time></trkpt><trkpt lat="46.2553245" lon="13.1639629"><ele>341.0</ele><time>2026-05-01T07:53:16.629Z</time></trkpt><trkpt lat="46.2552725" lon="13.1641085"><ele>343.20000000000005</ele><time>2026-05-01T07:53:17.629Z</time></trkpt><trkpt lat="46.2552203" lon="13.1642319"><ele>345.40000000000003</ele><time>2026-05-01T07:53:18.63Z</time></trkpt><trkpt lat="46.2551559" lon="13.1643272"><ele>347.6</ele><time>2026-05-01T07:53:19.629Z</time></trkpt><trkpt lat="46.2550932" lon="13.1643881"><ele>349.8</ele><time>2026-05-01T07:53:20.629Z</time></trkpt><trkpt lat="46.2550064" lon="13.1644129"><ele>352.0</ele><time>2026-05-01T07:53:21.629Z</time></trkpt><trkpt lat="46.2549017" lon="13.1644343"><ele>352.0</ele><time>2026-05-01T07:53:22.629Z</time></trkpt><trkpt lat="46.2547883" lon="13.1644793"><ele>352.0</ele><time>2026-05-01T07:53:23.628Z</time></trkpt><trkpt lat="46.2546694" lon="13.1645375"><ele>352.0</ele><time>2026-05-01T07:53:24.628Z</time></trkpt><trkpt lat="46.2545543" lon="13.1645972"><ele>352.0</ele><time>2026-05-01T07:53:25.629Z</time></trkpt><trkpt lat="46.2544383" lon="13.1646578"><ele>351.25</ele><time>2026-05-01T07:53:26.628Z</time></trkpt><trkpt lat="46.2543247" lon="13.1647419"><ele>350.5</ele><time>2026-05-01T07:53:27.628Z</time></trkpt><trkpt lat="46.2542145" lon="13.1648418"><ele>349.75</ele><time>2026-05-01T07:53:28.629Z</time></trkpt><trkpt lat="46.2541038" lon="13.1649484"><ele>349.0</ele><time>2026-05-01T07:53:29.628Z</time></trkpt><trkpt lat="46.2539918" lon="13.1650196"><ele>350.79999999999995</ele><time>2026-05-01T07:53:30.629Z</time></trkpt><trkpt lat="46.2538839" lon="13.1650897"><ele>352.59999999999997</ele><time>2026-05-01T07:53:31.629Z</time></trkpt><trkpt lat="46.2537909" lon="13.1651075"><ele>354.4</ele><time>2026-05-01T07:53:32.629Z</time></trkpt><trkpt lat="46.2537316" lon="13.1651746"><ele>356.2</ele><time>2026-05-01T07:53:33.629Z</time></trkpt><trkpt lat="46.2537018" lon="13.1652616"><ele>358.0</ele><time>2026-05-01T07:53:34.628Z</time></trkpt><trkpt lat="46.2537186" lon="13.1654432"><ele>358.0</ele><time>2026-05-01T07:53:36.629Z</time></trkpt><trkpt lat="46.2537831" lon="13.165461"><ele>358.0</ele><time>2026-05-01T07:53:37.629Z</time></trkpt><trkpt lat="46.2538857" lon="13.1654232"><ele>358.0</ele><time>2026-05-01T07:53:38.629Z</time></trkpt><trkpt lat="46.2540329" lon="13.1654005"><ele>358.0</ele><time>2026-05-01T07:53:39.629Z</time></trkpt><trkpt lat="46.2541435" lon="13.1653733"><ele>358.0</ele><time>2026-05-01T07:53:40.628Z</time></trkpt><trkpt lat="46.2542621" lon="13.1653514"><ele>358.2</ele><time>2026-05-01T07:53:41.629Z</time></trkpt><trkpt lat="46.2543805" lon="13.1653666"><ele>358.4</ele><time>2026-05-01T07:53:42.629Z</time></trkpt><trkpt lat="46.2544969" lon="13.1654001"><ele>358.59999999999997</ele><time>2026-05-01T07:53:43.628Z</time></trkpt><trkpt lat="46.2546013" lon="13.165436"><ele>358.79999999999995</ele><time>2026-05-01T07:53:44.629Z</time></trkpt><trkpt lat="46.2546634" lon="13.1655099"><ele>359.0</ele><time>2026-05-01T07:53:45.629Z</time></trkpt><trkpt lat="46.254703" lon="13.1655918"><ele>359.0</ele><time>2026-05-01T07:53:46.628Z</time></trkpt><trkpt lat="46.2547461" lon="13.1656591"><ele>359.0</ele><time>2026-05-01T07:53:47.629Z</time></trkpt><trkpt lat="46.2546874" lon="13.1657439"><ele>359.0</ele><time>2026-05-01T07:53:49.628Z</time></trkpt><trkpt lat="46.2545621" lon="13.1656913"><ele>359.0</ele><time>2026-05-01T07:53:50.629Z</time></trkpt><trkpt lat="46.2544545" lon="13.165683"><ele>359.0</ele><time>2026-05-01T07:53:51.629Z</time></trkpt><trkpt lat="46.2543398" lon="13.1657033"><ele>361.5</ele><time>2026-05-01T07:53:52.63Z</time></trkpt><trkpt lat="46.2542439" lon="13.165739"><ele>364.0</ele><time>2026-05-01T07:53:53.629Z</time></trkpt><trkpt lat="46.2541542" lon="13.1658146"><ele>366.5</ele><time>2026-05-01T07:53:54.628Z</time></trkpt><trkpt lat="46.2540605" lon="13.1659211"><ele>369.0</ele><time>2026-05-01T07:53:55.629Z</time></trkpt><trkpt lat="46.2539547" lon="13.1660351"><ele>369.0</ele><time>2026-05-01T07:53:56.628Z</time></trkpt><trkpt lat="46.2538458" lon="13.1661598"><ele>369.0</ele><time>2026-05-01T07:53:57.628Z</time></trkpt><trkpt lat="46.2537448" lon="13.1662684"><ele>369.0</ele><time>2026-05-01T07:53:58.628Z</time></trkpt><trkpt lat="46.2536494" lon="13.1663721"><ele>369.0</ele><time>2026-05-01T07:53:59.629Z</time></trkpt><trkpt lat="46.2535566" lon="13.1664799"><ele>372.5</ele><time>2026-05-01T07:54:00.628Z</time></trkpt><trkpt lat="46.2534629" lon="13.1665843"><ele>376.0</ele><time>2026-05-01T07:54:01.629Z</time></trkpt><trkpt lat="46.253374" lon="13.1666894"><ele>379.5</ele><time>2026-05-01T07:54:02.629Z</time></trkpt><trkpt lat="46.2533043" lon="13.1668112"><ele>383.0</ele><time>2026-05-01T07:54:03.628Z</time></trkpt><trkpt lat="46.2532547" lon="13.1669509"><ele>383.0</ele><time>2026-05-01T07:54:04.628Z</time></trkpt><trkpt lat="46.2532218" lon="13.167079"><ele>383.0</ele><time>2026-05-01T07:54:05.628Z</time></trkpt><trkpt lat="46.2531959" lon="13.1671964"><ele>383.0</ele><time>2026-05-01T07:54:06.629Z</time></trkpt><trkpt lat="46.2531745" lon="13.1672893"><ele>383.0</ele><time>2026-05-01T07:54:07.628Z</time></trkpt><trkpt lat="46.2530974" lon="13.1674055"><ele>383.0</ele><time>2026-05-01T07:54:09.628Z</time></trkpt><trkpt lat="46.2530277" lon="13.1674397"><ele>383.0</ele><time>2026-05-01T07:54:10.629Z</time></trkpt><trkpt lat="46.2529363" lon="13.1674534"><ele>382.4</ele><time>2026-05-01T07:54:11.629Z</time></trkpt><trkpt lat="46.2528384" lon="13.1674482"><ele>381.79999999999995</ele><time>2026-05-01T07:54:12.628Z</time></trkpt><trkpt lat="46.2527369" lon="13.1674279"><ele>381.2</ele><time>2026-05-01T07:54:13.629Z</time></trkpt><trkpt lat="46.2526277" lon="13.1673883"><ele>380.6</ele><time>2026-05-01T07:54:14.628Z</time></trkpt><trkpt lat="46.2525195" lon="13.1673315"><ele>380.0</ele><time>2026-05-01T07:54:15.629Z</time></trkpt><trkpt lat="46.2524153" lon="13.1672526"><ele>379.0</ele><time>2026-05-01T07:54:16.629Z</time></trkpt><trkpt lat="46.2523157" lon="13.1671728"><ele>378.0</ele><time>2026-05-01T07:54:17.628Z</time></trkpt><trkpt lat="46.2522279" lon="13.1670936"><ele>377.0</ele><time>2026-05-01T07:54:18.629Z</time></trkpt><trkpt lat="46.2521505" lon="13.1669942"><ele>376.0</ele><time>2026-05-01T07:54:19.629Z</time></trkpt><trkpt lat="46.2520853" lon="13.1668728"><ele>375.0</ele><time>2026-05-01T07:54:20.627Z</time></trkpt><trkpt lat="46.2520274" lon="13.1667529"><ele>373.6666666666667</ele><time>2026-05-01T07:54:21.627Z</time></trkpt><trkpt lat="46.2519744" lon="13.1666393"><ele>372.3333333333333</ele><time>2026-05-01T07:54:22.627Z</time></trkpt><trkpt lat="46.2519364" lon="13.1665376"><ele>371.0</ele><time>2026-05-01T07:54:23.627Z</time></trkpt><trkpt lat="46.2519218" lon="13.1664344"><ele>369.66666666666663</ele><time>2026-05-01T07:54:24.628Z</time></trkpt><trkpt lat="46.2519332" lon="13.166322"><ele>368.3333333333333</ele><time>2026-05-01T07:54:25.629Z</time></trkpt><trkpt lat="46.251969" lon="13.1662119"><ele>367.0</ele><time>2026-05-01T07:54:26.628Z</time></trkpt><trkpt lat="46.2520347" lon="13.1660988"><ele>364.6</ele><time>2026-05-01T07:54:27.627Z</time></trkpt><trkpt lat="46.2521083" lon="13.1659998"><ele>362.20000000000005</ele><time>2026-05-01T07:54:28.629Z</time></trkpt><trkpt lat="46.2521731" lon="13.1658969"><ele>359.8</ele><time>2026-05-01T07:54:29.627Z</time></trkpt><trkpt lat="46.2522319" lon="13.1657972"><ele>357.4</ele><time>2026-05-01T07:54:30.627Z</time></trkpt><trkpt lat="46.2522818" lon="13.1656841"><ele>355.0</ele><time>2026-05-01T07:54:31.628Z</time></trkpt><trkpt lat="46.2523076" lon="13.1655611"><ele>354.8</ele><time>2026-05-01T07:54:32.628Z</time></trkpt><trkpt lat="46.2523114" lon="13.1654332"><ele>354.6</ele><time>2026-05-01T07:54:33.628Z</time></trkpt><trkpt lat="46.2522888" lon="13.1653099"><ele>354.4</ele><time>2026-05-01T07:54:34.627Z</time></trkpt><trkpt lat="46.2522402" lon="13.1651923"><ele>354.2</ele><time>2026-05-01T07:54:35.627Z</time></trkpt><trkpt lat="46.2521848" lon="13.1650827"><ele>354.0</ele><time>2026-05-01T07:54:36.628Z</time></trkpt><trkpt lat="46.2520878" lon="13.1650159"><ele>352.0</ele><time>2026-05-01T07:54:37.629Z</time></trkpt><trkpt lat="46.2519736" lon="13.1650045"><ele>350.0</ele><time>2026-05-01T07:54:38.628Z</time></trkpt><trkpt lat="46.2518699" lon="13.1650013"><ele>348.0</ele><time>2026-05-01T07:54:39.627Z</time></trkpt><trkpt lat="46.251766" lon="13.1649954"><ele>346.0</ele><time>2026-05-01T07:54:40.628Z</time></trkpt><trkpt lat="46.2516686" lon="13.1649532"><ele>344.0</ele><time>2026-05-01T07:54:41.627Z</time></trkpt><trkpt lat="46.2515781" lon="13.1648758"><ele>342.79999999999995</ele><time>2026-05-01T07:54:42.628Z</time></trkpt><trkpt lat="46.2514902" lon="13.1647871"><ele>341.59999999999997</ele><time>2026-05-01T07:54:43.628Z</time></trkpt><trkpt lat="46.2514122" lon="13.1646746"><ele>340.4</ele><time>2026-05-01T07:54:44.627Z</time></trkpt><trkpt lat="46.2513295" lon="13.1645696"><ele>339.2</ele><time>2026-05-01T07:54:45.628Z</time></trkpt><trkpt lat="46.2512478" lon="13.1644925"><ele>338.0</ele><time>2026-05-01T07:54:46.628Z</time></trkpt><trkpt lat="46.251152" lon="13.1644414"><ele>336.4</ele><time>2026-05-01T07:54:47.628Z</time></trkpt><trkpt lat="46.2510538" lon="13.1644181"><ele>334.79999999999995</ele><time>2026-05-01T07:54:48.627Z</time></trkpt><trkpt lat="46.2509627" lon="13.1643888"><ele>333.2</ele><time>2026-05-01T07:54:49.629Z</time></trkpt><trkpt lat="46.2508876" lon="13.1643331"><ele>331.6</ele><time>2026-05-01T07:54:50.627Z</time></trkpt><trkpt lat="46.2508185" lon="13.1642506"><ele>330.0</ele><time>2026-05-01T07:54:51.629Z</time></trkpt><trkpt lat="46.2507509" lon="13.1641256"><ele>328.0</ele><time>2026-05-01T07:54:52.628Z</time></trkpt><trkpt lat="46.2506829" lon="13.1639872"><ele>326.0</ele><time>2026-05-01T07:54:53.627Z</time></trkpt><trkpt lat="46.2506156" lon="13.1638369"><ele>324.0</ele><time>2026-05-01T07:54:54.628Z</time></trkpt><trkpt lat="46.2505476" lon="13.1636998"><ele>322.0</ele><time>2026-05-01T07:54:55.628Z</time></trkpt><trkpt lat="46.2504851" lon="13.1635723"><ele>319.40000000000003</ele><time>2026-05-01T07:54:56.628Z</time></trkpt><trkpt lat="46.2504272" lon="13.1634514"><ele>316.8</ele><time>2026-05-01T07:54:57.627Z</time></trkpt><trkpt lat="46.2503708" lon="13.1633519"><ele>314.2</ele><time>2026-05-01T07:54:58.628Z</time></trkpt><trkpt lat="46.2503275" lon="13.1632633"><ele>311.6</ele><time>2026-05-01T07:54:59.627Z</time></trkpt><trkpt lat="46.2503062" lon="13.1631728"><ele>309.0</ele><time>2026-05-01T07:55:00.627Z</time></trkpt><trkpt lat="46.2503379" lon="13.162994"><ele>308.59999999999997</ele><time>2026-05-01T07:55:02.627Z</time></trkpt><trkpt lat="46.2504261" lon="13.1629541"><ele>308.2</ele><time>2026-05-01T07:55:03.628Z</time></trkpt><trkpt lat="46.2505228" lon="13.1629375"><ele>307.79999999999995</ele><time>2026-05-01T07:55:04.628Z</time></trkpt><trkpt lat="46.2506164" lon="13.1629435"><ele>307.4</ele><time>2026-05-01T07:55:05.628Z</time></trkpt><trkpt lat="46.2507047" lon="13.1629624"><ele>307.0</ele><time>2026-05-01T07:55:06.627Z</time></trkpt><trkpt lat="46.2507811" lon="13.1629977"><ele>307.0</ele><time>2026-05-01T07:55:07.628Z</time></trkpt><trkpt lat="46.2508501" lon="13.1629872"><ele>307.0</ele><time>2026-05-01T07:55:08.627Z</time></trkpt><trkpt lat="46.2509209" lon="13.1629647"><ele>307.0</ele><time>2026-05-01T07:55:09.627Z</time></trkpt><trkpt lat="46.2509292" lon="13.1628637"><ele>307.0</ele><time>2026-05-01T07:55:10.627Z</time></trkpt><trkpt lat="46.2508826" lon="13.1627068"><ele>307.0</ele><time>2026-05-01T07:55:12.627Z</time></trkpt><trkpt lat="46.2508115" lon="13.1626643"><ele>307.0</ele><time>2026-05-01T07:55:13.627Z</time></trkpt><trkpt lat="46.2507144" lon="13.1626422"><ele>302.25</ele><time>2026-05-01T07:55:14.627Z</time></trkpt><trkpt lat="46.2506104" lon="13.1625905"><ele>297.5</ele><time>2026-05-01T07:55:15.627Z</time></trkpt><trkpt lat="46.2505057" lon="13.1624925"><ele>292.75</ele><time>2026-05-01T07:55:16.629Z</time></trkpt><trkpt lat="46.2503952" lon="13.162373"><ele>288.0</ele><time>2026-05-01T07:55:17.627Z</time></trkpt><trkpt lat="46.2502897" lon="13.162246"><ele>286.25</ele><time>2026-05-01T07:55:18.628Z</time></trkpt><trkpt lat="46.2501976" lon="13.1621112"><ele>284.5</ele><time>2026-05-01T07:55:19.628Z</time></trkpt><trkpt lat="46.2501105" lon="13.1619832"><ele>282.75</ele><time>2026-05-01T07:55:20.628Z</time></trkpt><trkpt lat="46.2500145" lon="13.1618695"><ele>281.0</ele><time>2026-05-01T07:55:21.627Z</time></trkpt><trkpt lat="46.2498932" lon="13.1617795"><ele>278.25</ele><time>2026-05-01T07:55:22.628Z</time></trkpt><trkpt lat="46.2497594" lon="13.1617062"><ele>275.5</ele><time>2026-05-01T07:55:23.629Z</time></trkpt><trkpt lat="46.2496269" lon="13.1616459"><ele>272.75</ele><time>2026-05-01T07:55:24.627Z</time></trkpt><trkpt lat="46.2494907" lon="13.1615814"><ele>270.0</ele><time>2026-05-01T07:55:25.628Z</time></trkpt><trkpt lat="46.249371" lon="13.1614784"><ele>269.75</ele><time>2026-05-01T07:55:26.627Z</time></trkpt><trkpt lat="46.2492472" lon="13.1613704"><ele>269.5</ele><time>2026-05-01T07:55:27.628Z</time></trkpt><trkpt lat="46.2491425" lon="13.161257"><ele>269.25</ele><time>2026-05-01T07:55:28.627Z</time></trkpt><trkpt lat="46.2490415" lon="13.1611614"><ele>269.0</ele><time>2026-05-01T07:55:29.627Z</time></trkpt><trkpt lat="46.2489456" lon="13.1610845"><ele>268.0</ele><time>2026-05-01T07:55:30.627Z</time></trkpt><trkpt lat="46.2488528" lon="13.16104"><ele>267.0</ele><time>2026-05-01T07:55:31.628Z</time></trkpt><trkpt lat="46.2487716" lon="13.1610132"><ele>266.0</ele><time>2026-05-01T07:55:32.627Z</time></trkpt><trkpt lat="46.2486988" lon="13.1609835"><ele>265.0</ele><time>2026-05-01T07:55:33.627Z</time></trkpt><trkpt lat="46.2486725" lon="13.1608267"><ele>264.0</ele><time>2026-05-01T07:55:35.627Z</time></trkpt><trkpt lat="46.2487107" lon="13.16075"><ele>263.0</ele><time>2026-05-01T07:55:36.627Z</time></trkpt><trkpt lat="46.2487907" lon="13.1606572"><ele>260.25</ele><time>2026-05-01T07:55:38.628Z</time></trkpt><trkpt lat="46.2489588" lon="13.1605901"><ele>257.5</ele><time>2026-05-01T07:55:40.628Z</time></trkpt><trkpt lat="46.2490091" lon="13.1605192"><ele>254.75</ele><time>2026-05-01T07:55:41.628Z</time></trkpt><trkpt lat="46.2490516" lon="13.1604189"><ele>252.0</ele><time>2026-05-01T07:55:43.628Z</time></trkpt><trkpt lat="46.2489075" lon="13.1603255"><ele>251.83333333333334</ele><time>2026-05-01T07:55:45.627Z</time></trkpt><trkpt lat="46.2488208" lon="13.1603003"><ele>251.66666666666669</ele><time>2026-05-01T07:55:46.628Z</time></trkpt><trkpt lat="46.2487128" lon="13.1602766"><ele>251.5</ele><time>2026-05-01T07:55:47.627Z</time></trkpt><trkpt lat="46.2486221" lon="13.1602807"><ele>251.33333333333334</ele><time>2026-05-01T07:55:48.628Z</time></trkpt><trkpt lat="46.2485617" lon="13.1603067"><ele>251.16666666666669</ele><time>2026-05-01T07:55:49.628Z</time></trkpt><trkpt lat="46.2485036" lon="13.1602685"><ele>251.0</ele><time>2026-05-01T07:55:50.627Z</time></trkpt><trkpt lat="46.248415" lon="13.1601838"><ele>251.0</ele><time>2026-05-01T07:55:52.627Z</time></trkpt><trkpt lat="46.2484906" lon="13.1600612"><ele>251.0</ele><time>2026-05-01T07:55:53.628Z</time></trkpt><trkpt lat="46.2486402" lon="13.1599384"><ele>251.0</ele><time>2026-05-01T07:55:55.628Z</time></trkpt><trkpt lat="46.2487204" lon="13.1598825"><ele>251.0</ele><time>2026-05-01T07:55:56.629Z</time></trkpt><trkpt lat="46.2488037" lon="13.1598216"><ele>249.33333333333334</ele><time>2026-05-01T07:55:57.627Z</time></trkpt><trkpt lat="46.2488694" lon="13.1597652"><ele>247.66666666666669</ele><time>2026-05-01T07:55:58.628Z</time></trkpt><trkpt lat="46.2489149" lon="13.1596852"><ele>246.0</ele><time>2026-05-01T07:55:59.627Z</time></trkpt><trkpt lat="46.2489314" lon="13.159591"><ele>244.33333333333331</ele><time>2026-05-01T07:56:00.629Z</time></trkpt><trkpt lat="46.2489119" lon="13.1594876"><ele>242.66666666666666</ele><time>2026-05-01T07:56:01.628Z</time></trkpt><trkpt lat="46.2488662" lon="13.159388"><ele>241.0</ele><time>2026-05-01T07:56:02.627Z</time></trkpt><trkpt lat="46.2488065" lon="13.1592943"><ele>241.0</ele><time>2026-05-01T07:56:03.628Z</time></trkpt><trkpt lat="46.2487395" lon="13.1591943"><ele>241.00000000000003</ele><time>2026-05-01T07:56:04.628Z</time></trkpt><trkpt lat="46.2486746" lon="13.1590874"><ele>241.00000000000003</ele><time>2026-05-01T07:56:05.629Z</time></trkpt><trkpt lat="46.2485992" lon="13.1589718"><ele>241.0</ele><time>2026-05-01T07:56:06.628Z</time></trkpt><trkpt lat="46.2485254" lon="13.1588597"><ele>241.0</ele><time>2026-05-01T07:56:07.628Z</time></trkpt><trkpt lat="46.2484514" lon="13.1587459"><ele>240.0</ele><time>2026-05-01T07:56:08.628Z</time></trkpt><trkpt lat="46.2483774" lon="13.1586351"><ele>239.00000000000003</ele><time>2026-05-01T07:56:09.627Z</time></trkpt><trkpt lat="46.2483031" lon="13.1585304"><ele>238.00000000000003</ele><time>2026-05-01T07:56:10.628Z</time></trkpt><trkpt lat="46.2482382" lon="13.1584232"><ele>237.0</ele><time>2026-05-01T07:56:11.627Z</time></trkpt><trkpt lat="46.2481839" lon="13.1583011"><ele>236.0</ele><time>2026-05-01T07:56:12.629Z</time></trkpt><trkpt lat="46.2481322" lon="13.1581624"><ele>235.25</ele><time>2026-05-01T07:56:13.628Z</time></trkpt><trkpt lat="46.2480768" lon="13.1580166"><ele>234.5</ele><time>2026-05-01T07:56:14.627Z</time></trkpt><trkpt lat="46.2480162" lon="13.1578666"><ele>233.75</ele><time>2026-05-01T07:56:15.627Z</time></trkpt><trkpt lat="46.2479466" lon="13.1577206"><ele>233.0</ele><time>2026-05-01T07:56:16.628Z</time></trkpt><trkpt lat="46.2478715" lon="13.1575733"><ele>233.0</ele><time>2026-05-01T07:56:17.627Z</time></trkpt><trkpt lat="46.2477965" lon="13.1574338"><ele>233.0</ele><time>2026-05-01T07:56:18.629Z</time></trkpt><trkpt lat="46.2477247" lon="13.1572981"><ele>233.0</ele><time>2026-05-01T07:56:19.627Z</time></trkpt><trkpt lat="46.247657" lon="13.1571655"><ele>233.0</ele><time>2026-05-01T07:56:20.629Z</time></trkpt><trkpt lat="46.2475906" lon="13.1570299"><ele>232.8</ele><time>2026-05-01T07:56:21.629Z</time></trkpt><trkpt lat="46.2475213" lon="13.156903"><ele>232.60000000000002</ele><time>2026-05-01T07:56:22.627Z</time></trkpt><trkpt lat="46.247452" lon="13.1567817"><ele>232.39999999999998</ele><time>2026-05-01T07:56:23.628Z</time></trkpt><trkpt lat="46.2473815" lon="13.1566687"><ele>232.2</ele><time>2026-05-01T07:56:24.628Z</time></trkpt><trkpt lat="46.247312" lon="13.1565608"><ele>232.0</ele><time>2026-05-01T07:56:25.628Z</time></trkpt><trkpt lat="46.2472428" lon="13.1564474"><ele>230.39999999999998</ele><time>2026-05-01T07:56:26.627Z</time></trkpt><trkpt lat="46.2471771" lon="13.1563369"><ele>228.79999999999998</ele><time>2026-05-01T07:56:27.628Z</time></trkpt><trkpt lat="46.2471079" lon="13.1562331"><ele>227.2</ele><time>2026-05-01T07:56:28.629Z</time></trkpt><trkpt lat="46.2470277" lon="13.1561426"><ele>225.6</ele><time>2026-05-01T07:56:29.628Z</time></trkpt><trkpt lat="46.2469287" lon="13.1560763"><ele>224.0</ele><time>2026-05-01T07:56:30.629Z</time></trkpt><trkpt lat="46.2468242" lon="13.1560192"><ele>224.0</ele><time>2026-05-01T07:56:31.627Z</time></trkpt><trkpt lat="46.2467197" lon="13.1559526"><ele>224.0</ele><time>2026-05-01T07:56:32.627Z</time></trkpt><trkpt lat="46.2466137" lon="13.1558773"><ele>224.0</ele><time>2026-05-01T07:56:33.627Z</time></trkpt><trkpt lat="46.2465071" lon="13.1557987"><ele>224.0</ele><time>2026-05-01T07:56:34.627Z</time></trkpt><trkpt lat="46.2463996" lon="13.1557211"><ele>223.75</ele><time>2026-05-01T07:56:35.628Z</time></trkpt><trkpt lat="46.2462872" lon="13.155648"><ele>223.5</ele><time>2026-05-01T07:56:36.628Z</time></trkpt><trkpt lat="46.2461799" lon="13.1555744"><ele>223.25</ele><time>2026-05-01T07:56:37.628Z</time></trkpt><trkpt lat="46.2460736" lon="13.1555148"><ele>223.0</ele><time>2026-05-01T07:56:38.628Z</time></trkpt><trkpt lat="46.2459662" lon="13.155472"><ele>223.0</ele><time>2026-05-01T07:56:39.628Z</time></trkpt><trkpt lat="46.2458555" lon="13.1554515"><ele>223.0</ele><time>2026-05-01T07:56:40.627Z</time></trkpt><trkpt lat="46.2457458" lon="13.1554556"><ele>223.0</ele><time>2026-05-01T07:56:41.628Z</time></trkpt><trkpt lat="46.2456365" lon="13.1554736"><ele>223.0</ele><time>2026-05-01T07:56:42.627Z</time></trkpt><trkpt lat="46.2455306" lon="13.1555111"><ele>223.0</ele><time>2026-05-01T07:56:43.627Z</time></trkpt><trkpt lat="46.2454234" lon="13.1555462"><ele>222.0</ele><time>2026-05-01T07:56:44.628Z</time></trkpt><trkpt lat="46.2453241" lon="13.1555762"><ele>221.0</ele><time>2026-05-01T07:56:45.627Z</time></trkpt><trkpt lat="46.2452305" lon="13.1555812"><ele>220.0</ele><time>2026-05-01T07:56:46.628Z</time></trkpt><trkpt lat="46.2451473" lon="13.1555579"><ele>219.0</ele><time>2026-05-01T07:56:47.628Z</time></trkpt><trkpt lat="46.2450663" lon="13.1555018"><ele>218.0</ele><time>2026-05-01T07:56:48.627Z</time></trkpt><trkpt lat="46.2449886" lon="13.1554115"><ele>218.0</ele><time>2026-05-01T07:56:49.629Z</time></trkpt><trkpt lat="46.2449068" lon="13.1553041"><ele>218.0</ele><time>2026-05-01T07:56:50.627Z</time></trkpt><trkpt lat="46.2448203" lon="13.1551918"><ele>218.0</ele><time>2026-05-01T07:56:51.627Z</time></trkpt><trkpt lat="46.2447234" lon="13.1550704"><ele>218.0</ele><time>2026-05-01T07:56:52.628Z</time></trkpt><trkpt lat="46.2446283" lon="13.1549354"><ele>218.0</ele><time>2026-05-01T07:56:53.629Z</time></trkpt><trkpt lat="46.2445365" lon="13.1548014"><ele>218.0</ele><time>2026-05-01T07:56:54.629Z</time></trkpt><trkpt lat="46.2444532" lon="13.1546763"><ele>218.0</ele><time>2026-05-01T07:56:55.629Z</time></trkpt><trkpt lat="46.244373" lon="13.1545548"><ele>218.0</ele><time>2026-05-01T07:56:56.628Z</time></trkpt><trkpt lat="46.244298" lon="13.1544421"><ele>218.0</ele><time>2026-05-01T07:56:57.627Z</time></trkpt><trkpt lat="46.2442277" lon="13.1543337"><ele>218.0</ele><time>2026-05-01T07:56:58.628Z</time></trkpt><trkpt lat="46.2441693" lon="13.1542353"><ele>218.0</ele><time>2026-05-01T07:56:59.629Z</time></trkpt><trkpt lat="46.2441305" lon="13.1541327"><ele>218.0</ele><time>2026-05-01T07:57:00.628Z</time></trkpt><trkpt lat="46.2441073" lon="13.1540136"><ele>218.0</ele><time>2026-05-01T07:57:01.628Z</time></trkpt><trkpt lat="46.2440726" lon="13.1538861"><ele>217.2</ele><time>2026-05-01T07:57:02.628Z</time></trkpt><trkpt lat="46.2440273" lon="13.1537569"><ele>216.4</ele><time>2026-05-01T07:57:03.628Z</time></trkpt><trkpt lat="46.2440054" lon="13.1536079"><ele>215.59999999999997</ele><time>2026-05-01T07:57:04.627Z</time></trkpt><trkpt lat="46.244005" lon="13.1534457"><ele>214.79999999999998</ele><time>2026-05-01T07:57:05.628Z</time></trkpt><trkpt lat="46.2440131" lon="13.153268"><ele>214.0</ele><time>2026-05-01T07:57:06.627Z</time></trkpt><trkpt lat="46.2440167" lon="13.1530804"><ele>214.0</ele><time>2026-05-01T07:57:07.627Z</time></trkpt><trkpt lat="46.2440058" lon="13.152877"><ele>214.0</ele><time>2026-05-01T07:57:08.628Z</time></trkpt><trkpt lat="46.2439819" lon="13.152672"><ele>214.0</ele><time>2026-05-01T07:57:09.628Z</time></trkpt><trkpt lat="46.2439571" lon="13.1524755"><ele>214.0</ele><time>2026-05-01T07:57:10.627Z</time></trkpt><trkpt lat="46.2439332" lon="13.152288"><ele>214.0</ele><time>2026-05-01T07:57:11.627Z</time></trkpt><trkpt lat="46.2439142" lon="13.1521062"><ele>214.0</ele><time>2026-05-01T07:57:12.628Z</time></trkpt><trkpt lat="46.243895" lon="13.1519317"><ele>214.0</ele><time>2026-05-01T07:57:13.628Z</time></trkpt><trkpt lat="46.2438852" lon="13.1517667"><ele>214.0</ele><time>2026-05-01T07:57:14.628Z</time></trkpt><trkpt lat="46.2438805" lon="13.1516061"><ele>213.0</ele><time>2026-05-01T07:57:15.628Z</time></trkpt><trkpt lat="46.2438719" lon="13.1514522"><ele>211.99999999999997</ele><time>2026-05-01T07:57:16.629Z</time></trkpt><trkpt lat="46.2438547" lon="13.1513059"><ele>211.0</ele><time>2026-05-01T07:57:17.628Z</time></trkpt><trkpt lat="46.2438246" lon="13.1511613"><ele>210.0</ele><time>2026-05-01T07:57:18.628Z</time></trkpt><trkpt lat="46.2437772" lon="13.151025"><ele>209.0</ele><time>2026-05-01T07:57:19.627Z</time></trkpt><trkpt lat="46.2437108" lon="13.1509021"><ele>209.0</ele><time>2026-05-01T07:57:20.628Z</time></trkpt><trkpt lat="46.243634" lon="13.1507809"><ele>209.0</ele><time>2026-05-01T07:57:21.628Z</time></trkpt><trkpt lat="46.2435569" lon="13.1506568"><ele>209.0</ele><time>2026-05-01T07:57:22.627Z</time></trkpt><trkpt lat="46.2434784" lon="13.1505271"><ele>209.0</ele><time>2026-05-01T07:57:23.627Z</time></trkpt><trkpt lat="46.2434048" lon="13.1503906"><ele>208.0</ele><time>2026-05-01T07:57:24.628Z</time></trkpt><trkpt lat="46.2433405" lon="13.1502519"><ele>207.0</ele><time>2026-05-01T07:57:25.628Z</time></trkpt><trkpt lat="46.2432785" lon="13.1501192"><ele>206.0</ele><time>2026-05-01T07:57:26.627Z</time></trkpt><trkpt lat="46.2432143" lon="13.1499927"><ele>205.0</ele><time>2026-05-01T07:57:27.627Z</time></trkpt><trkpt lat="46.243138" lon="13.1498743"><ele>204.0</ele><time>2026-05-01T07:57:28.629Z</time></trkpt><trkpt lat="46.2430533" lon="13.1497773"><ele>203.6</ele><time>2026-05-01T07:57:29.627Z</time></trkpt><trkpt lat="46.2429592" lon="13.1496909"><ele>203.2</ele><time>2026-05-01T07:57:30.629Z</time></trkpt><trkpt lat="46.2428637" lon="13.1496046"><ele>202.79999999999998</ele><time>2026-05-01T07:57:31.628Z</time></trkpt><trkpt lat="46.24277" lon="13.1495264"><ele>202.39999999999998</ele><time>2026-05-01T07:57:32.627Z</time></trkpt><trkpt lat="46.2426836" lon="13.1494615"><ele>202.0</ele><time>2026-05-01T07:57:33.627Z</time></trkpt><trkpt lat="46.2426034" lon="13.1494047"><ele>202.0</ele><time>2026-05-01T07:57:34.628Z</time></trkpt><trkpt lat="46.2425291" lon="13.149336"><ele>202.0</ele><time>2026-05-01T07:57:35.627Z</time></trkpt><trkpt lat="46.2424562" lon="13.1492481"><ele>202.0</ele><time>2026-05-01T07:57:36.628Z</time></trkpt><trkpt lat="46.2423704" lon="13.1491537"><ele>202.0</ele><time>2026-05-01T07:57:37.628Z</time></trkpt><trkpt lat="46.242269" lon="13.1490714"><ele>202.0</ele><time>2026-05-01T07:57:38.628Z</time></trkpt><trkpt lat="46.2421631" lon="13.1489799"><ele>200.25</ele><time>2026-05-01T07:57:39.628Z</time></trkpt><trkpt lat="46.2420563" lon="13.1488855"><ele>198.5</ele><time>2026-05-01T07:57:40.627Z</time></trkpt><trkpt lat="46.2419405" lon="13.1487928"><ele>196.75</ele><time>2026-05-01T07:57:41.627Z</time></trkpt><trkpt lat="46.2418225" lon="13.1486946"><ele>195.0</ele><time>2026-05-01T07:57:42.628Z</time></trkpt><trkpt lat="46.2417005" lon="13.1485909"><ele>195.0</ele><time>2026-05-01T07:57:43.628Z</time></trkpt><trkpt lat="46.2415769" lon="13.148489"><ele>195.0</ele><time>2026-05-01T07:57:44.628Z</time></trkpt><trkpt lat="46.241462" lon="13.1483985"><ele>195.0</ele><time>2026-05-01T07:57:45.627Z</time></trkpt><trkpt lat="46.2413494" lon="13.1483223"><ele>195.0</ele><time>2026-05-01T07:57:46.628Z</time></trkpt><trkpt lat="46.2412367" lon="13.1482635"><ele>194.25</ele><time>2026-05-01T07:57:47.627Z</time></trkpt><trkpt lat="46.2411229" lon="13.1482223"><ele>193.5</ele><time>2026-05-01T07:57:48.629Z</time></trkpt><trkpt lat="46.24101" lon="13.148184"><ele>192.75</ele><time>2026-05-01T07:57:49.629Z</time></trkpt><trkpt lat="46.2408953" lon="13.1481581"><ele>192.0</ele><time>2026-05-01T07:57:50.627Z</time></trkpt><trkpt lat="46.2407818" lon="13.1481372"><ele>192.0</ele><time>2026-05-01T07:57:51.628Z</time></trkpt><trkpt lat="46.2406713" lon="13.1481147"><ele>192.0</ele><time>2026-05-01T07:57:52.627Z</time></trkpt><trkpt lat="46.2405711" lon="13.1480966"><ele>192.0</ele><time>2026-05-01T07:57:53.628Z</time></trkpt><trkpt lat="46.2404943" lon="13.1480746"><ele>192.0</ele><time>2026-05-01T07:57:54.627Z</time></trkpt><trkpt lat="46.2403974" lon="13.1480202"><ele>192.0</ele><time>2026-05-01T07:57:56.628Z</time></trkpt><trkpt lat="46.2403349" lon="13.1479087"><ele>191.2</ele><time>2026-05-01T07:57:58.627Z</time></trkpt><trkpt lat="46.2403274" lon="13.1478034"><ele>190.39999999999998</ele><time>2026-05-01T07:57:59.628Z</time></trkpt><trkpt lat="46.2403352" lon="13.1476679"><ele>189.60000000000002</ele><time>2026-05-01T07:58:00.628Z</time></trkpt><trkpt lat="46.2403369" lon="13.1475072"><ele>188.8</ele><time>2026-05-01T07:58:01.628Z</time></trkpt><trkpt lat="46.2403431" lon="13.1473445"><ele>188.0</ele><time>2026-05-01T07:58:02.628Z</time></trkpt><trkpt lat="46.2403467" lon="13.1471699"><ele>188.0</ele><time>2026-05-01T07:58:03.628Z</time></trkpt><trkpt lat="46.2403552" lon="13.1469747"><ele>188.0</ele><time>2026-05-01T07:58:04.627Z</time></trkpt><trkpt lat="46.2403643" lon="13.1467863"><ele>188.0</ele><time>2026-05-01T07:58:05.628Z</time></trkpt><trkpt lat="46.2403695" lon="13.1466098"><ele>188.0</ele><time>2026-05-01T07:58:06.628Z</time></trkpt><trkpt lat="46.2403727" lon="13.1464338"><ele>188.5</ele><time>2026-05-01T07:58:07.628Z</time></trkpt><trkpt lat="46.2403774" lon="13.1462538"><ele>189.0</ele><time>2026-05-01T07:58:08.628Z</time></trkpt><trkpt lat="46.2403798" lon="13.1460814"><ele>189.5</ele><time>2026-05-01T07:58:09.628Z</time></trkpt><trkpt lat="46.2403882" lon="13.1459044"><ele>190.0</ele><time>2026-05-01T07:58:10.627Z</time></trkpt><trkpt lat="46.2403933" lon="13.1457303"><ele>189.75</ele><time>2026-05-01T07:58:11.628Z</time></trkpt><trkpt lat="46.240405" lon="13.1455511"><ele>189.5</ele><time>2026-05-01T07:58:12.627Z</time></trkpt><trkpt lat="46.240429" lon="13.1453681"><ele>189.25</ele><time>2026-05-01T07:58:13.629Z</time></trkpt><trkpt lat="46.2404627" lon="13.1451837"><ele>189.0</ele><time>2026-05-01T07:58:14.628Z</time></trkpt><trkpt lat="46.2405055" lon="13.1450017"><ele>188.0</ele><time>2026-05-01T07:58:15.627Z</time></trkpt><trkpt lat="46.2405648" lon="13.144821"><ele>187.0</ele><time>2026-05-01T07:58:16.629Z</time></trkpt><trkpt lat="46.2406367" lon="13.1446494"><ele>186.0</ele><time>2026-05-01T07:58:17.627Z</time></trkpt><trkpt lat="46.2407143" lon="13.1444911"><ele>185.0</ele><time>2026-05-01T07:58:18.628Z</time></trkpt><trkpt lat="46.2407973" lon="13.1443436"><ele>185.0</ele><time>2026-05-01T07:58:19.627Z</time></trkpt><trkpt lat="46.2408869" lon="13.1442024"><ele>185.0</ele><time>2026-05-01T07:58:20.628Z</time></trkpt><trkpt lat="46.2409829" lon="13.1440695"><ele>185.0</ele><time>2026-05-01T07:58:21.627Z</time></trkpt><trkpt lat="46.2410803" lon="13.1439382"><ele>185.0</ele><time>2026-05-01T07:58:22.627Z</time></trkpt><trkpt lat="46.24118" lon="13.1438125"><ele>184.75</ele><time>2026-05-01T07:58:23.628Z</time></trkpt><trkpt lat="46.2412775" lon="13.1436909"><ele>184.5</ele><time>2026-05-01T07:58:24.628Z</time></trkpt><trkpt lat="46.2413738" lon="13.1435744"><ele>184.25</ele><time>2026-05-01T07:58:25.628Z</time></trkpt><trkpt lat="46.2414719" lon="13.143456"><ele>184.0</ele><time>2026-05-01T07:58:26.627Z</time></trkpt><trkpt lat="46.2415711" lon="13.1433355"><ele>184.0</ele><time>2026-05-01T07:58:27.628Z</time></trkpt><trkpt lat="46.2416622" lon="13.1432194"><ele>184.0</ele><time>2026-05-01T07:58:28.629Z</time></trkpt><trkpt lat="46.2417478" lon="13.1431057"><ele>184.0</ele><time>2026-05-01T07:58:29.629Z</time></trkpt><trkpt lat="46.2418238" lon="13.1429868"><ele>184.0</ele><time>2026-05-01T07:58:30.628Z</time></trkpt><trkpt lat="46.2418907" lon="13.1428626"><ele>183.6</ele><time>2026-05-01T07:58:31.627Z</time></trkpt><trkpt lat="46.2419495" lon="13.1427392"><ele>183.2</ele><time>2026-05-01T07:58:32.628Z</time></trkpt><trkpt lat="46.2419999" lon="13.1426156"><ele>182.79999999999998</ele><time>2026-05-01T07:58:33.627Z</time></trkpt><trkpt lat="46.2420457" lon="13.1424841"><ele>182.39999999999998</ele><time>2026-05-01T07:58:34.628Z</time></trkpt><trkpt lat="46.2420869" lon="13.1423443"><ele>182.0</ele><time>2026-05-01T07:58:35.628Z</time></trkpt><trkpt lat="46.2421284" lon="13.1421972"><ele>181.0</ele><time>2026-05-01T07:58:36.629Z</time></trkpt><trkpt lat="46.2421639" lon="13.1420412"><ele>180.0</ele><time>2026-05-01T07:58:37.629Z</time></trkpt><trkpt lat="46.2422028" lon="13.1418762"><ele>179.0</ele><time>2026-05-01T07:58:38.628Z</time></trkpt><trkpt lat="46.2422391" lon="13.1417044"><ele>178.0</ele><time>2026-05-01T07:58:39.628Z</time></trkpt><trkpt lat="46.2422767" lon="13.1415297"><ele>177.60000000000002</ele><time>2026-05-01T07:58:40.629Z</time></trkpt><trkpt lat="46.2423156" lon="13.1413659"><ele>177.20000000000002</ele><time>2026-05-01T07:58:41.628Z</time></trkpt><trkpt lat="46.2423501" lon="13.1412156"><ele>176.8</ele><time>2026-05-01T07:58:42.628Z</time></trkpt><trkpt lat="46.2423797" lon="13.1410743"><ele>176.4</ele><time>2026-05-01T07:58:43.627Z</time></trkpt><trkpt lat="46.2424103" lon="13.1409377"><ele>176.0</ele><time>2026-05-01T07:58:44.629Z</time></trkpt><trkpt lat="46.2424404" lon="13.140809"><ele>176.33333333333331</ele><time>2026-05-01T07:58:45.628Z</time></trkpt><trkpt lat="46.2424696" lon="13.1406854"><ele>176.66666666666666</ele><time>2026-05-01T07:58:46.629Z</time></trkpt><trkpt lat="46.2424939" lon="13.1405645"><ele>177.0</ele><time>2026-05-01T07:58:47.628Z</time></trkpt><trkpt lat="46.2425181" lon="13.1404506"><ele>177.33333333333334</ele><time>2026-05-01T07:58:48.627Z</time></trkpt><trkpt lat="46.2425449" lon="13.1403431"><ele>177.66666666666669</ele><time>2026-05-01T07:58:49.627Z</time></trkpt><trkpt lat="46.2425698" lon="13.140241"><ele>178.0</ele><time>2026-05-01T07:58:50.628Z</time></trkpt><trkpt lat="46.2425971" lon="13.1401459"><ele>178.0</ele><time>2026-05-01T07:58:51.627Z</time></trkpt><trkpt lat="46.2426199" lon="13.140055"><ele>178.0</ele><time>2026-05-01T07:58:52.628Z</time></trkpt><trkpt lat="46.2426446" lon="13.1399691"><ele>178.0</ele><time>2026-05-01T07:58:53.627Z</time></trkpt><trkpt lat="46.2427005" lon="13.1398299"><ele>178.0</ele><time>2026-05-01T07:58:55.627Z</time></trkpt><trkpt lat="46.2427601" lon="13.1397212"><ele>178.0</ele><time>2026-05-01T07:58:57.628Z</time></trkpt><trkpt lat="46.2427868" lon="13.1396308"><ele>178.0</ele><time>2026-05-01T07:58:59.628Z</time></trkpt><trkpt lat="46.2426894" lon="13.1396499"><ele>178.0</ele><time>2026-05-01T07:59:03.627Z</time></trkpt><trkpt lat="46.2426651" lon="13.1397339"><ele>178.0</ele><time>2026-05-01T07:59:04.628Z</time></trkpt><trkpt lat="46.2426412" lon="13.1398405"><ele>178.0</ele><time>2026-05-01T07:59:05.627Z</time></trkpt><trkpt lat="46.2426072" lon="13.1399741"><ele>178.0</ele><time>2026-05-01T07:59:06.629Z</time></trkpt><trkpt lat="46.2425692" lon="13.1401347"><ele>178.0</ele><time>2026-05-01T07:59:07.628Z</time></trkpt><trkpt lat="46.242528" lon="13.1403169"><ele>178.0</ele><time>2026-05-01T07:59:08.629Z</time></trkpt><trkpt lat="46.2424933" lon="13.1404839"><ele>178.0</ele><time>2026-05-01T07:59:09.628Z</time></trkpt><trkpt lat="46.2424517" lon="13.1406527"><ele>178.0</ele><time>2026-05-01T07:59:10.628Z</time></trkpt><trkpt lat="46.2424112" lon="13.1408241"><ele>178.0</ele><time>2026-05-01T07:59:11.627Z</time></trkpt><trkpt lat="46.2423704" lon="13.1409943"><ele>178.0</ele><time>2026-05-01T07:59:12.627Z</time></trkpt><trkpt lat="46.242332" lon="13.1411621"><ele>178.0</ele><time>2026-05-01T07:59:13.627Z</time></trkpt><trkpt lat="46.2422943" lon="13.1413278"><ele>178.0</ele><time>2026-05-01T07:59:14.627Z</time></trkpt><trkpt lat="46.2422555" lon="13.1414932"><ele>178.0</ele><time>2026-05-01T07:59:15.627Z</time></trkpt><trkpt lat="46.242218" lon="13.1416545"><ele>178.0</ele><time>2026-05-01T07:59:16.627Z</time></trkpt><trkpt lat="46.2421837" lon="13.1418017"><ele>178.0</ele><time>2026-05-01T07:59:17.628Z</time></trkpt><trkpt lat="46.2421495" lon="13.1419403"><ele>178.0</ele><time>2026-05-01T07:59:18.627Z</time></trkpt><trkpt lat="46.2421211" lon="13.1420666"><ele>178.0</ele><time>2026-05-01T07:59:19.627Z</time></trkpt><trkpt lat="46.2420954" lon="13.1421789"><ele>178.0</ele><time>2026-05-01T07:59:20.627Z</time></trkpt><trkpt lat="46.2420683" lon="13.1422811"><ele>178.0</ele><time>2026-05-01T07:59:21.627Z</time></trkpt><trkpt lat="46.2420395" lon="13.1423801"><ele>178.0</ele><time>2026-05-01T07:59:22.626Z</time></trkpt><trkpt lat="46.2420157" lon="13.1424697"><ele>178.0</ele><time>2026-05-01T07:59:23.627Z</time></trkpt><trkpt lat="46.2419619" lon="13.142641"><ele>178.0</ele><time>2026-05-01T07:59:25.626Z</time></trkpt><trkpt lat="46.2419236" lon="13.142729"><ele>178.0</ele><time>2026-05-01T07:59:26.626Z</time></trkpt><trkpt lat="46.2418794" lon="13.1428194"><ele>178.0</ele><time>2026-05-01T07:59:27.627Z</time></trkpt><trkpt lat="46.2418329" lon="13.1429076"><ele>178.8</ele><time>2026-05-01T07:59:28.627Z</time></trkpt><trkpt lat="46.2417889" lon="13.1429821"><ele>179.60000000000002</ele><time>2026-05-01T07:59:29.626Z</time></trkpt><trkpt lat="46.2417004" lon="13.1431128"><ele>180.39999999999998</ele><time>2026-05-01T07:59:31.626Z</time></trkpt><trkpt lat="46.2416454" lon="13.1431821"><ele>181.2</ele><time>2026-05-01T07:59:32.628Z</time></trkpt><trkpt lat="46.2415795" lon="13.1432678"><ele>182.0</ele><time>2026-05-01T07:59:33.627Z</time></trkpt><trkpt lat="46.2415034" lon="13.1433609"><ele>182.0</ele><time>2026-05-01T07:59:34.627Z</time></trkpt><trkpt lat="46.2414315" lon="13.1434433"><ele>182.0</ele><time>2026-05-01T07:59:35.626Z</time></trkpt><trkpt lat="46.2413595" lon="13.1435251"><ele>182.0</ele><time>2026-05-01T07:59:36.628Z</time></trkpt><trkpt lat="46.2412888" lon="13.1436173"><ele>182.0</ele><time>2026-05-01T07:59:37.628Z</time></trkpt><trkpt lat="46.2412218" lon="13.1437029"><ele>182.0</ele><time>2026-05-01T07:59:38.626Z</time></trkpt><trkpt lat="46.2411614" lon="13.1437823"><ele>182.0</ele><time>2026-05-01T07:59:39.626Z</time></trkpt><trkpt lat="46.2411107" lon="13.1438597"><ele>182.0</ele><time>2026-05-01T07:59:40.628Z</time></trkpt><trkpt lat="46.2410319" lon="13.1439324"><ele>182.0</ele><time>2026-05-01T07:59:42.626Z</time></trkpt><trkpt lat="46.2409754" lon="13.1438832"><ele>182.0</ele><time>2026-05-01T07:59:44.627Z</time></trkpt><trkpt lat="46.2409275" lon="13.1437959"><ele>182.0</ele><time>2026-05-01T07:59:46.627Z</time></trkpt><trkpt lat="46.2408564" lon="13.1436537"><ele>182.0</ele><time>2026-05-01T07:59:48.627Z</time></trkpt><trkpt lat="46.2408258" lon="13.1435391"><ele>182.0</ele><time>2026-05-01T07:59:49.626Z</time></trkpt><trkpt lat="46.2407958" lon="13.1434439"><ele>182.0</ele><time>2026-05-01T07:59:50.627Z</time></trkpt><trkpt lat="46.2407626" lon="13.1433565"><ele>182.0</ele><time>2026-05-01T07:59:51.627Z</time></trkpt><trkpt lat="46.2407331" lon="13.1432688"><ele>182.0</ele><time>2026-05-01T07:59:52.627Z</time></trkpt><trkpt lat="46.2407035" lon="13.1431843"><ele>182.0</ele><time>2026-05-01T07:59:53.627Z</time></trkpt><trkpt lat="46.2406366" lon="13.1430179"><ele>182.0</ele><time>2026-05-01T07:59:55.628Z</time></trkpt><trkpt lat="46.2405954" lon="13.1429361"><ele>181.66666666666666</ele><time>2026-05-01T07:59:56.628Z</time></trkpt><trkpt lat="46.2405477" lon="13.1428539"><ele>181.33333333333331</ele><time>2026-05-01T07:59:57.627Z</time></trkpt><trkpt lat="46.2404985" lon="13.1427686"><ele>181.0</ele><time>2026-05-01T07:59:58.627Z</time></trkpt><trkpt lat="46.2404489" lon="13.1426859"><ele>180.66666666666666</ele><time>2026-05-01T07:59:59.627Z</time></trkpt><trkpt lat="46.2404003" lon="13.1425999"><ele>180.33333333333334</ele><time>2026-05-01T08:00:00.626Z</time></trkpt><trkpt lat="46.240351" lon="13.1425017"><ele>180.0</ele><time>2026-05-01T08:00:01.627Z</time></trkpt><trkpt lat="46.2403037" lon="13.1424103"><ele>179.66666666666666</ele><time>2026-05-01T08:00:02.626Z</time></trkpt><trkpt lat="46.240259" lon="13.142317"><ele>179.33333333333334</ele><time>2026-05-01T08:00:03.627Z</time></trkpt><trkpt lat="46.2402119" lon="13.1422213"><ele>179.0</ele><time>2026-05-01T08:00:04.626Z</time></trkpt><trkpt lat="46.2401653" lon="13.1421256"><ele>178.66666666666669</ele><time>2026-05-01T08:00:05.627Z</time></trkpt><trkpt lat="46.2401201" lon="13.1420319"><ele>178.33333333333334</ele><time>2026-05-01T08:00:06.627Z</time></trkpt><trkpt lat="46.240087" lon="13.1419397"><ele>178.0</ele><time>2026-05-01T08:00:07.626Z</time></trkpt><trkpt lat="46.2400603" lon="13.1418488"><ele>178.0</ele><time>2026-05-01T08:00:08.627Z</time></trkpt><trkpt lat="46.240041" lon="13.141762"><ele>178.0</ele><time>2026-05-01T08:00:09.626Z</time></trkpt><trkpt lat="46.2400427" lon="13.1416664"><ele>178.0</ele><time>2026-05-01T08:00:10.626Z</time></trkpt><trkpt lat="46.2400587" lon="13.1415685"><ele>178.0</ele><time>2026-05-01T08:00:11.627Z</time></trkpt><trkpt lat="46.2400939" lon="13.1414827"><ele>178.0</ele><time>2026-05-01T08:00:12.627Z</time></trkpt><trkpt lat="46.2401395" lon="13.1414156"><ele>178.0</ele><time>2026-05-01T08:00:13.626Z</time></trkpt><trkpt lat="46.2401976" lon="13.1412632"><ele>177.8</ele><time>2026-05-01T08:00:15.626Z</time></trkpt><trkpt lat="46.2401644" lon="13.141105"><ele>177.60000000000002</ele><time>2026-05-01T08:00:17.627Z</time></trkpt><trkpt lat="46.2400753" lon="13.1409473"><ele>177.39999999999998</ele><time>2026-05-01T08:00:19.628Z</time></trkpt><trkpt lat="46.2400355" lon="13.1408589"><ele>177.2</ele><time>2026-05-01T08:00:20.627Z</time></trkpt><trkpt lat="46.2399518" lon="13.1408192"><ele>177.0</ele><time>2026-05-01T08:00:23.628Z</time></trkpt><trkpt lat="46.2399102" lon="13.1407353"><ele>176.5</ele><time>2026-05-01T08:00:25.626Z</time></trkpt><trkpt lat="46.2398536" lon="13.1406368"><ele>176.0</ele><time>2026-05-01T08:00:47.628Z</time></trkpt><trkpt lat="46.2397951" lon="13.1405568"><ele>175.5</ele><time>2026-05-01T08:00:48.626Z</time></trkpt><trkpt lat="46.2397553" lon="13.1404838"><ele>175.0</ele><time>2026-05-01T08:00:49.626Z</time></trkpt><trkpt lat="46.2397072" lon="13.1403952"><ele>174.5</ele><time>2026-05-01T08:00:50.627Z</time></trkpt><trkpt lat="46.2396574" lon="13.1403172"><ele>174.0</ele><time>2026-05-01T08:00:51.628Z</time></trkpt><trkpt lat="46.2396101" lon="13.1402528"><ele>174.0</ele><time>2026-05-01T08:00:52.628Z</time></trkpt><trkpt lat="46.2395063" lon="13.1401671"><ele>174.0</ele><time>2026-05-01T08:00:54.626Z</time></trkpt><trkpt lat="46.2394424" lon="13.1401569"><ele>174.0</ele><time>2026-05-01T08:00:55.627Z</time></trkpt><trkpt lat="46.2393752" lon="13.1401493"><ele>174.0</ele><time>2026-05-01T08:00:56.627Z</time></trkpt><trkpt lat="46.2393013" lon="13.140134"><ele>174.0</ele><time>2026-05-01T08:00:57.626Z</time></trkpt><trkpt lat="46.2392303" lon="13.1401044"><ele>174.0</ele><time>2026-05-01T08:00:58.628Z</time></trkpt><trkpt lat="46.2391626" lon="13.1400449"><ele>174.0</ele><time>2026-05-01T08:00:59.628Z</time></trkpt><trkpt lat="46.2391005" lon="13.13996"><ele>174.0</ele><time>2026-05-01T08:01:00.627Z</time></trkpt><trkpt lat="46.239033" lon="13.1398592"><ele>174.0</ele><time>2026-05-01T08:01:01.626Z</time></trkpt><trkpt lat="46.2389695" lon="13.1397692"><ele>174.0</ele><time>2026-05-01T08:01:02.626Z</time></trkpt><trkpt lat="46.2389062" lon="13.1396897"><ele>174.0</ele><time>2026-05-01T08:01:03.627Z</time></trkpt><trkpt lat="46.238851" lon="13.1396058"><ele>174.0</ele><time>2026-05-01T08:01:04.627Z</time></trkpt><trkpt lat="46.23879" lon="13.1395146"><ele>173.79999999999998</ele><time>2026-05-01T08:01:05.626Z</time></trkpt><trkpt lat="46.2387259" lon="13.1394245"><ele>173.6</ele><time>2026-05-01T08:01:06.627Z</time></trkpt><trkpt lat="46.2386605" lon="13.139323"><ele>173.4</ele><time>2026-05-01T08:01:07.628Z</time></trkpt><trkpt lat="46.2385899" lon="13.1392118"><ele>173.2</ele><time>2026-05-01T08:01:08.627Z</time></trkpt><trkpt lat="46.2385265" lon="13.1391178"><ele>173.0</ele><time>2026-05-01T08:01:09.627Z</time></trkpt><trkpt lat="46.2384777" lon="13.1390364"><ele>173.0</ele><time>2026-05-01T08:01:10.627Z</time></trkpt><trkpt lat="46.2384332" lon="13.1389684"><ele>173.0</ele><time>2026-05-01T08:01:11.627Z</time></trkpt><trkpt lat="46.2383925" lon="13.138847"><ele>173.0</ele><time>2026-05-01T08:01:13.627Z</time></trkpt><trkpt lat="46.2384225" lon="13.1387647"><ele>173.0</ele><time>2026-05-01T08:01:15.626Z</time></trkpt><trkpt lat="46.2385177" lon="13.1386874"><ele>173.0</ele><time>2026-05-01T08:01:17.627Z</time></trkpt><trkpt lat="46.2385566" lon="13.138568"><ele>173.0</ele><time>2026-05-01T08:01:19.627Z</time></trkpt><trkpt lat="46.2385342" lon="13.1384816"><ele>173.0</ele><time>2026-05-01T08:01:20.627Z</time></trkpt><trkpt lat="46.2384877" lon="13.138365"><ele>173.0</ele><time>2026-05-01T08:01:21.628Z</time></trkpt><trkpt lat="46.2384334" lon="13.1382341"><ele>173.0</ele><time>2026-05-01T08:01:22.628Z</time></trkpt><trkpt lat="46.2383784" lon="13.1381035"><ele>173.0</ele><time>2026-05-01T08:01:23.627Z</time></trkpt><trkpt lat="46.2383196" lon="13.1379557"><ele>173.0</ele><time>2026-05-01T08:01:24.628Z</time></trkpt><trkpt lat="46.238262" lon="13.1378115"><ele>173.0</ele><time>2026-05-01T08:01:25.626Z</time></trkpt><trkpt lat="46.2382097" lon="13.1376827"><ele>173.0</ele><time>2026-05-01T08:01:26.626Z</time></trkpt><trkpt lat="46.2381664" lon="13.1375703"><ele>173.0</ele><time>2026-05-01T08:01:27.627Z</time></trkpt><trkpt lat="46.2381224" lon="13.1374662"><ele>173.0</ele><time>2026-05-01T08:01:28.627Z</time></trkpt><trkpt lat="46.2380871" lon="13.1373667"><ele>173.0</ele><time>2026-05-01T08:01:29.626Z</time></trkpt><trkpt lat="46.2380471" lon="13.1372674"><ele>173.0</ele><time>2026-05-01T08:01:30.627Z</time></trkpt><trkpt lat="46.2380071" lon="13.1371678"><ele>173.0</ele><time>2026-05-01T08:01:31.627Z</time></trkpt><trkpt lat="46.2379722" lon="13.1370785"><ele>173.0</ele><time>2026-05-01T08:01:32.626Z</time></trkpt><trkpt lat="46.23794" lon="13.1369897"><ele>173.0</ele><time>2026-05-01T08:01:33.627Z</time></trkpt><trkpt lat="46.2379044" lon="13.1369037"><ele>173.0</ele><time>2026-05-01T08:01:34.626Z</time></trkpt><trkpt lat="46.2378716" lon="13.1368219"><ele>173.0</ele><time>2026-05-01T08:01:35.627Z</time></trkpt><trkpt lat="46.2378124" lon="13.1366707"><ele>173.0</ele><time>2026-05-01T08:01:37.627Z</time></trkpt><trkpt lat="46.2377549" lon="13.1365269"><ele>173.0</ele><time>2026-05-01T08:01:39.626Z</time></trkpt><trkpt lat="46.2377004" lon="13.1364009"><ele>173.0</ele><time>2026-05-01T08:01:41.626Z</time></trkpt><trkpt lat="46.237649" lon="13.1362759"><ele>173.0</ele><time>2026-05-01T08:01:43.626Z</time></trkpt><trkpt lat="46.2375944" lon="13.1361504"><ele>173.0</ele><time>2026-05-01T08:01:45.628Z</time></trkpt><trkpt lat="46.2375427" lon="13.136022"><ele>173.0</ele><time>2026-05-01T08:01:47.627Z</time></trkpt><trkpt lat="46.2374859" lon="13.1358885"><ele>173.0</ele><time>2026-05-01T08:01:49.626Z</time></trkpt><trkpt lat="46.2374316" lon="13.1357486"><ele>173.0</ele><time>2026-05-01T08:01:51.627Z</time></trkpt><trkpt lat="46.2373728" lon="13.1356149"><ele>173.0</ele><time>2026-05-01T08:01:53.626Z</time></trkpt><trkpt lat="46.2373218" lon="13.1354728"><ele>173.0</ele><time>2026-05-01T08:01:55.626Z</time></trkpt><trkpt lat="46.2372604" lon="13.1353077"><ele>173.0</ele><time>2026-05-01T08:01:57.627Z</time></trkpt><trkpt lat="46.2372235" lon="13.1352139"><ele>173.0</ele><time>2026-05-01T08:01:58.626Z</time></trkpt><trkpt lat="46.2371872" lon="13.1351184"><ele>173.0</ele><time>2026-05-01T08:01:59.627Z</time></trkpt><trkpt lat="46.237142" lon="13.135015"><ele>173.0</ele><time>2026-05-01T08:02:00.628Z</time></trkpt><trkpt lat="46.2370951" lon="13.1349054"><ele>173.0</ele><time>2026-05-01T08:02:01.627Z</time></trkpt><trkpt lat="46.2370465" lon="13.1347994"><ele>173.0</ele><time>2026-05-01T08:02:02.626Z</time></trkpt><trkpt lat="46.2369922" lon="13.1346995"><ele>173.0</ele><time>2026-05-01T08:02:03.626Z</time></trkpt><trkpt lat="46.2369273" lon="13.1346057"><ele>173.0</ele><time>2026-05-01T08:02:04.626Z</time></trkpt><trkpt lat="46.2368559" lon="13.1345179"><ele>173.0</ele><time>2026-05-01T08:02:05.628Z</time></trkpt><trkpt lat="46.2367821" lon="13.1344385"><ele>173.0</ele><time>2026-05-01T08:02:06.627Z</time></trkpt><trkpt lat="46.2367074" lon="13.1343577"><ele>173.0</ele><time>2026-05-01T08:02:07.628Z</time></trkpt><trkpt lat="46.2366332" lon="13.1342715"><ele>173.0</ele><time>2026-05-01T08:02:08.626Z</time></trkpt><trkpt lat="46.2365565" lon="13.1341878"><ele>173.0</ele><time>2026-05-01T08:02:09.626Z</time></trkpt><trkpt lat="46.2364812" lon="13.1341043"><ele>173.0</ele><time>2026-05-01T08:02:10.628Z</time></trkpt><trkpt lat="46.2364039" lon="13.1340201"><ele>173.0</ele><time>2026-05-01T08:02:11.626Z</time></trkpt><trkpt lat="46.2363259" lon="13.1339346"><ele>173.0</ele><time>2026-05-01T08:02:12.627Z</time></trkpt><trkpt lat="46.2362469" lon="13.1338468"><ele>173.4</ele><time>2026-05-01T08:02:13.627Z</time></trkpt><trkpt lat="46.2361697" lon="13.133754"><ele>173.8</ele><time>2026-05-01T08:02:14.627Z</time></trkpt><trkpt lat="46.2360904" lon="13.1336592"><ele>174.2</ele><time>2026-05-01T08:02:15.627Z</time></trkpt><trkpt lat="46.2360113" lon="13.1335681"><ele>174.6</ele><time>2026-05-01T08:02:16.627Z</time></trkpt><trkpt lat="46.2359324" lon="13.1334811"><ele>175.0</ele><time>2026-05-01T08:02:17.627Z</time></trkpt><trkpt lat="46.2358525" lon="13.1333933"><ele>175.0</ele><time>2026-05-01T08:02:18.626Z</time></trkpt><trkpt lat="46.2357716" lon="13.1333109"><ele>175.0</ele><time>2026-05-01T08:02:19.627Z</time></trkpt><trkpt lat="46.2356901" lon="13.1332243"><ele>175.0</ele><time>2026-05-01T08:02:20.627Z</time></trkpt><trkpt lat="46.2356088" lon="13.1331367"><ele>175.0</ele><time>2026-05-01T08:02:21.627Z</time></trkpt><trkpt lat="46.2355319" lon="13.1330486"><ele>175.0</ele><time>2026-05-01T08:02:22.627Z</time></trkpt><trkpt lat="46.2354574" lon="13.1329545"><ele>174.4</ele><time>2026-05-01T08:02:23.627Z</time></trkpt><trkpt lat="46.2353798" lon="13.1328636"><ele>173.8</ele><time>2026-05-01T08:02:24.628Z</time></trkpt><trkpt lat="46.235299" lon="13.1327738"><ele>173.2</ele><time>2026-05-01T08:02:25.627Z</time></trkpt><trkpt lat="46.2352213" lon="13.1326888"><ele>172.6</ele><time>2026-05-01T08:02:26.628Z</time></trkpt><trkpt lat="46.2351419" lon="13.1325968"><ele>172.0</ele><time>2026-05-01T08:02:27.627Z</time></trkpt><trkpt lat="46.2350657" lon="13.1325091"><ele>172.0</ele><time>2026-05-01T08:02:28.628Z</time></trkpt><trkpt lat="46.2349944" lon="13.1324274"><ele>172.0</ele><time>2026-05-01T08:02:29.626Z</time></trkpt><trkpt lat="46.2349288" lon="13.1323277"><ele>172.0</ele><time>2026-05-01T08:02:30.626Z</time></trkpt><trkpt lat="46.2348661" lon="13.1321945"><ele>172.0</ele><time>2026-05-01T08:02:31.626Z</time></trkpt><trkpt lat="46.2348071" lon="13.1320347"><ele>172.0</ele><time>2026-05-01T08:02:32.627Z</time></trkpt><trkpt lat="46.2347493" lon="13.1318649"><ele>172.0</ele><time>2026-05-01T08:02:33.626Z</time></trkpt><trkpt lat="46.2346921" lon="13.131686"><ele>172.0</ele><time>2026-05-01T08:02:34.626Z</time></trkpt><trkpt lat="46.2346399" lon="13.1315162"><ele>172.0</ele><time>2026-05-01T08:02:35.627Z</time></trkpt><trkpt lat="46.234588" lon="13.1313467"><ele>172.0</ele><time>2026-05-01T08:02:36.626Z</time></trkpt><trkpt lat="46.2345328" lon="13.1311721"><ele>172.5</ele><time>2026-05-01T08:02:37.627Z</time></trkpt><trkpt lat="46.2344758" lon="13.1310017"><ele>173.0</ele><time>2026-05-01T08:02:38.626Z</time></trkpt><trkpt lat="46.2344176" lon="13.1308291"><ele>173.5</ele><time>2026-05-01T08:02:39.627Z</time></trkpt><trkpt lat="46.2343627" lon="13.1306634"><ele>174.0</ele><time>2026-05-01T08:02:40.627Z</time></trkpt><trkpt lat="46.2343097" lon="13.1304894"><ele>174.0</ele><time>2026-05-01T08:02:41.626Z</time></trkpt><trkpt lat="46.2342565" lon="13.1303304"><ele>174.0</ele><time>2026-05-01T08:02:42.627Z</time></trkpt><trkpt lat="46.2342082" lon="13.1301835"><ele>174.0</ele><time>2026-05-01T08:02:43.627Z</time></trkpt><trkpt lat="46.2341595" lon="13.1300492"><ele>174.0</ele><time>2026-05-01T08:02:44.627Z</time></trkpt><trkpt lat="46.2341118" lon="13.1299152"><ele>174.0</ele><time>2026-05-01T08:02:45.627Z</time></trkpt><trkpt lat="46.2340703" lon="13.129786"><ele>173.6</ele><time>2026-05-01T08:02:46.627Z</time></trkpt><trkpt lat="46.2340307" lon="13.1296524"><ele>173.2</ele><time>2026-05-01T08:02:47.627Z</time></trkpt><trkpt lat="46.2339944" lon="13.1295202"><ele>172.79999999999998</ele><time>2026-05-01T08:02:48.626Z</time></trkpt><trkpt lat="46.2339578" lon="13.1293881"><ele>172.39999999999998</ele><time>2026-05-01T08:02:49.627Z</time></trkpt><trkpt lat="46.2339202" lon="13.1292598"><ele>172.0</ele><time>2026-05-01T08:02:50.625Z</time></trkpt><trkpt lat="46.2338791" lon="13.1291336"><ele>172.2</ele><time>2026-05-01T08:02:51.625Z</time></trkpt><trkpt lat="46.2338419" lon="13.1290038"><ele>172.39999999999998</ele><time>2026-05-01T08:02:52.626Z</time></trkpt><trkpt lat="46.2338022" lon="13.1288755"><ele>172.60000000000002</ele><time>2026-05-01T08:02:53.625Z</time></trkpt><trkpt lat="46.2337631" lon="13.1287452"><ele>172.8</ele><time>2026-05-01T08:02:54.625Z</time></trkpt><trkpt lat="46.2337252" lon="13.1286182"><ele>173.0</ele><time>2026-05-01T08:02:55.625Z</time></trkpt><trkpt lat="46.2336867" lon="13.128493"><ele>173.0</ele><time>2026-05-01T08:02:56.626Z</time></trkpt><trkpt lat="46.233653" lon="13.1283651"><ele>173.0</ele><time>2026-05-01T08:02:57.626Z</time></trkpt><trkpt lat="46.23362" lon="13.128239"><ele>173.0</ele><time>2026-05-01T08:02:58.626Z</time></trkpt><trkpt lat="46.2335844" lon="13.128111"><ele>173.0</ele><time>2026-05-01T08:02:59.625Z</time></trkpt><trkpt lat="46.2335494" lon="13.1279881"><ele>173.0</ele><time>2026-05-01T08:03:00.626Z</time></trkpt><trkpt lat="46.2335122" lon="13.1278796"><ele>173.0</ele><time>2026-05-01T08:03:01.626Z</time></trkpt><trkpt lat="46.2334713" lon="13.1277912"><ele>173.0</ele><time>2026-05-01T08:03:02.626Z</time></trkpt><trkpt lat="46.2334243" lon="13.1277188"><ele>173.0</ele><time>2026-05-01T08:03:03.626Z</time></trkpt><trkpt lat="46.2333516" lon="13.1276238"><ele>173.0</ele><time>2026-05-01T08:03:05.626Z</time></trkpt><trkpt lat="46.2332793" lon="13.1275899"><ele>173.0</ele><time>2026-05-01T08:03:08.626Z</time></trkpt><trkpt lat="46.2332237" lon="13.1276511"><ele>173.0</ele><time>2026-05-01T08:03:10.626Z</time></trkpt><trkpt lat="46.2331644" lon="13.1277534"><ele>172.83333333333331</ele><time>2026-05-01T08:03:12.627Z</time></trkpt><trkpt lat="46.2331205" lon="13.127819"><ele>172.66666666666666</ele><time>2026-05-01T08:03:13.627Z</time></trkpt><trkpt lat="46.2330754" lon="13.1278886"><ele>172.5</ele><time>2026-05-01T08:03:14.626Z</time></trkpt><trkpt lat="46.2330312" lon="13.1279538"><ele>172.33333333333334</ele><time>2026-05-01T08:03:15.625Z</time></trkpt><trkpt lat="46.2329467" lon="13.1280836"><ele>172.16666666666669</ele><time>2026-05-01T08:03:17.626Z</time></trkpt><trkpt lat="46.2328588" lon="13.1282137"><ele>172.0</ele><time>2026-05-01T08:03:19.625Z</time></trkpt><trkpt lat="46.2328154" lon="13.1282798"><ele>172.00000000000003</ele><time>2026-05-01T08:03:20.626Z</time></trkpt><trkpt lat="46.2327744" lon="13.1283502"><ele>172.0</ele><time>2026-05-01T08:03:21.625Z</time></trkpt><trkpt lat="46.232736" lon="13.1284251"><ele>172.0</ele><time>2026-05-01T08:03:22.627Z</time></trkpt><trkpt lat="46.2327016" lon="13.1285052"><ele>172.0</ele><time>2026-05-01T08:03:23.626Z</time></trkpt><trkpt lat="46.2326724" lon="13.1285875"><ele>172.0</ele><time>2026-05-01T08:03:24.625Z</time></trkpt><trkpt lat="46.2326518" lon="13.1286757"><ele>172.00000000000003</ele><time>2026-05-01T08:03:25.625Z</time></trkpt><trkpt lat="46.2326358" lon="13.1287653"><ele>172.0</ele><time>2026-05-01T08:03:26.625Z</time></trkpt><trkpt lat="46.2326236" lon="13.1288566"><ele>172.00000000000003</ele><time>2026-05-01T08:03:27.626Z</time></trkpt><trkpt lat="46.2326119" lon="13.1289482"><ele>172.0</ele><time>2026-05-01T08:03:28.626Z</time></trkpt><trkpt lat="46.232604" lon="13.1290393"><ele>172.0</ele><time>2026-05-01T08:03:29.626Z</time></trkpt><trkpt lat="46.2325986" lon="13.1291317"><ele>172.0</ele><time>2026-05-01T08:03:30.625Z</time></trkpt><trkpt lat="46.2325913" lon="13.1292284"><ele>172.0</ele><time>2026-05-01T08:03:31.626Z</time></trkpt><trkpt lat="46.2325847" lon="13.1293252"><ele>172.00000000000003</ele><time>2026-05-01T08:03:32.627Z</time></trkpt><trkpt lat="46.2325793" lon="13.1294233"><ele>172.0</ele><time>2026-05-01T08:03:33.625Z</time></trkpt><trkpt lat="46.2325753" lon="13.1295224"><ele>172.00000000000003</ele><time>2026-05-01T08:03:34.626Z</time></trkpt><trkpt lat="46.232568" lon="13.129624"><ele>172.0</ele><time>2026-05-01T08:03:35.625Z</time></trkpt><trkpt lat="46.2325612" lon="13.1297217"><ele>172.0</ele><time>2026-05-01T08:03:36.625Z</time></trkpt><trkpt lat="46.232555" lon="13.1298174"><ele>172.0</ele><time>2026-05-01T08:03:37.625Z</time></trkpt><trkpt lat="46.232548" lon="13.129912"><ele>172.0</ele><time>2026-05-01T08:03:38.626Z</time></trkpt><trkpt lat="46.2325404" lon="13.1300069"><ele>172.00000000000003</ele><time>2026-05-01T08:03:39.625Z</time></trkpt><trkpt lat="46.2325317" lon="13.1300997"><ele>172.0</ele><time>2026-05-01T08:03:40.625Z</time></trkpt><trkpt lat="46.2325241" lon="13.1301921"><ele>171.85714285714286</ele><time>2026-05-01T08:03:41.625Z</time></trkpt><trkpt lat="46.2325153" lon="13.1302873"><ele>171.71428571428572</ele><time>2026-05-01T08:03:42.625Z</time></trkpt><trkpt lat="46.2325076" lon="13.1303827"><ele>171.57142857142856</ele><time>2026-05-01T08:03:43.625Z</time></trkpt><trkpt lat="46.2325027" lon="13.1304786"><ele>171.42857142857144</ele><time>2026-05-01T08:03:44.627Z</time></trkpt><trkpt lat="46.2324982" lon="13.1305739"><ele>171.28571428571428</ele><time>2026-05-01T08:03:45.626Z</time></trkpt><trkpt lat="46.232495" lon="13.1306699"><ele>171.14285714285714</ele><time>2026-05-01T08:03:46.626Z</time></trkpt><trkpt lat="46.2324887" lon="13.1307648"><ele>171.0</ele><time>2026-05-01T08:03:47.625Z</time></trkpt><trkpt lat="46.2324833" lon="13.1308597"><ele>171.0</ele><time>2026-05-01T08:03:48.626Z</time></trkpt><trkpt lat="46.2324776" lon="13.1309522"><ele>171.0</ele><time>2026-05-01T08:03:49.626Z</time></trkpt><trkpt lat="46.2324669" lon="13.131129"><ele>171.0</ele><time>2026-05-01T08:03:51.625Z</time></trkpt><trkpt lat="46.2324597" lon="13.1312201"><ele>171.0</ele><time>2026-05-01T08:03:52.625Z</time></trkpt><trkpt lat="46.2324485" lon="13.1313962"><ele>171.0</ele><time>2026-05-01T08:03:54.626Z</time></trkpt><trkpt lat="46.2324371" lon="13.1315655"><ele>171.5</ele><time>2026-05-01T08:03:56.625Z</time></trkpt><trkpt lat="46.2324246" lon="13.1317336"><ele>172.0</ele><time>2026-05-01T08:03:58.625Z</time></trkpt><trkpt lat="46.2324145" lon="13.1319084"><ele>172.5</ele><time>2026-05-01T08:04:00.626Z</time></trkpt><trkpt lat="46.2324002" lon="13.1320872"><ele>173.0</ele><time>2026-05-01T08:04:02.627Z</time></trkpt><trkpt lat="46.2323946" lon="13.1322654"><ele>173.0</ele><time>2026-05-01T08:04:04.626Z</time></trkpt><trkpt lat="46.2323863" lon="13.1323558"><ele>173.0</ele><time>2026-05-01T08:04:05.627Z</time></trkpt><trkpt lat="46.2323534" lon="13.1325292"><ele>173.0</ele><time>2026-05-01T08:04:07.625Z</time></trkpt><trkpt lat="46.2323313" lon="13.132615"><ele>173.0</ele><time>2026-05-01T08:04:08.625Z</time></trkpt><trkpt lat="46.232302" lon="13.1326995"><ele>173.0</ele><time>2026-05-01T08:04:09.626Z</time></trkpt><trkpt lat="46.2322667" lon="13.1327771"><ele>173.0</ele><time>2026-05-01T08:04:10.625Z</time></trkpt><trkpt lat="46.2322233" lon="13.1328488"><ele>173.0</ele><time>2026-05-01T08:04:11.626Z</time></trkpt><trkpt lat="46.2321342" lon="13.1329606"><ele>172.66666666666666</ele><time>2026-05-01T08:04:13.626Z</time></trkpt><trkpt lat="46.2320637" lon="13.1330374"><ele>172.33333333333331</ele><time>2026-05-01T08:04:15.626Z</time></trkpt><trkpt lat="46.232021" lon="13.1331063"><ele>172.0</ele><time>2026-05-01T08:05:02.626Z</time></trkpt><trkpt lat="46.231946" lon="13.1332239"><ele>171.66666666666666</ele><time>2026-05-01T08:05:04.627Z</time></trkpt><trkpt lat="46.2318948" lon="13.1332926"><ele>171.33333333333334</ele><time>2026-05-01T08:05:05.625Z</time></trkpt><trkpt lat="46.2318274" lon="13.1333829"><ele>171.0</ele><time>2026-05-01T08:05:06.626Z</time></trkpt><trkpt lat="46.2317535" lon="13.1334776"><ele>171.5</ele><time>2026-05-01T08:05:07.626Z</time></trkpt><trkpt lat="46.2316717" lon="13.1335853"><ele>172.0</ele><time>2026-05-01T08:05:08.626Z</time></trkpt><trkpt lat="46.2315686" lon="13.1337146"><ele>172.5</ele><time>2026-05-01T08:05:09.626Z</time></trkpt><trkpt lat="46.2314484" lon="13.1338686"><ele>173.0</ele><time>2026-05-01T08:05:10.625Z</time></trkpt><trkpt lat="46.2313221" lon="13.1340281"><ele>173.5</ele><time>2026-05-01T08:05:11.625Z</time></trkpt><trkpt lat="46.2312088" lon="13.1341745"><ele>174.0</ele><time>2026-05-01T08:05:12.626Z</time></trkpt><trkpt lat="46.231105" lon="13.1343116"><ele>174.5</ele><time>2026-05-01T08:05:13.626Z</time></trkpt><trkpt lat="46.2310029" lon="13.13445"><ele>175.0</ele><time>2026-05-01T08:05:14.625Z</time></trkpt><trkpt lat="46.2309037" lon="13.1345805"><ele>175.0</ele><time>2026-05-01T08:05:15.626Z</time></trkpt><trkpt lat="46.2308108" lon="13.1346996"><ele>175.0</ele><time>2026-05-01T08:05:16.625Z</time></trkpt><trkpt lat="46.2307202" lon="13.1348065"><ele>175.0</ele><time>2026-05-01T08:05:17.625Z</time></trkpt><trkpt lat="46.230643" lon="13.1349088"><ele>175.0</ele><time>2026-05-01T08:05:18.626Z</time></trkpt><trkpt lat="46.2305688" lon="13.135005"><ele>175.0</ele><time>2026-05-01T08:05:19.625Z</time></trkpt><trkpt lat="46.2304979" lon="13.1350881"><ele>174.66666666666669</ele><time>2026-05-01T08:05:20.626Z</time></trkpt><trkpt lat="46.2304326" lon="13.135173"><ele>174.33333333333334</ele><time>2026-05-01T08:05:21.626Z</time></trkpt><trkpt lat="46.2303682" lon="13.1352526"><ele>174.0</ele><time>2026-05-01T08:05:22.625Z</time></trkpt><trkpt lat="46.2303065" lon="13.1353347"><ele>173.66666666666666</ele><time>2026-05-01T08:05:23.625Z</time></trkpt><trkpt lat="46.2302466" lon="13.135415"><ele>173.33333333333331</ele><time>2026-05-01T08:05:24.626Z</time></trkpt><trkpt lat="46.2301896" lon="13.1354952"><ele>173.0</ele><time>2026-05-01T08:05:25.627Z</time></trkpt><trkpt lat="46.2301332" lon="13.1355716"><ele>173.0</ele><time>2026-05-01T08:05:26.627Z</time></trkpt><trkpt lat="46.2300742" lon="13.1356518"><ele>173.0</ele><time>2026-05-01T08:05:27.626Z</time></trkpt><trkpt lat="46.230013" lon="13.1357291"><ele>173.0</ele><time>2026-05-01T08:05:28.626Z</time></trkpt><trkpt lat="46.2299497" lon="13.1358119"><ele>173.0</ele><time>2026-05-01T08:05:29.625Z</time></trkpt><trkpt lat="46.2298818" lon="13.1358962"><ele>173.0</ele><time>2026-05-01T08:05:30.626Z</time></trkpt><trkpt lat="46.2298136" lon="13.1359832"><ele>173.0</ele><time>2026-05-01T08:05:31.625Z</time></trkpt><trkpt lat="46.2297404" lon="13.136075"><ele>172.8</ele><time>2026-05-01T08:05:32.625Z</time></trkpt><trkpt lat="46.2296582" lon="13.1361781"><ele>172.60000000000002</ele><time>2026-05-01T08:05:33.626Z</time></trkpt><trkpt lat="46.2295778" lon="13.1362836"><ele>172.39999999999998</ele><time>2026-05-01T08:05:34.625Z</time></trkpt><trkpt lat="46.2294961" lon="13.1363918"><ele>172.2</ele><time>2026-05-01T08:05:35.626Z</time></trkpt><trkpt lat="46.2294138" lon="13.1364975"><ele>172.0</ele><time>2026-05-01T08:05:36.625Z</time></trkpt><trkpt lat="46.2293328" lon="13.136608"><ele>172.0</ele><time>2026-05-01T08:05:37.626Z</time></trkpt><trkpt lat="46.229252" lon="13.136717"><ele>172.0</ele><time>2026-05-01T08:05:38.625Z</time></trkpt><trkpt lat="46.2291717" lon="13.1368257"><ele>172.0</ele><time>2026-05-01T08:05:39.627Z</time></trkpt><trkpt lat="46.229092" lon="13.1369371"><ele>172.0</ele><time>2026-05-01T08:05:40.626Z</time></trkpt><trkpt lat="46.2290146" lon="13.137044"><ele>172.0</ele><time>2026-05-01T08:05:41.626Z</time></trkpt><trkpt lat="46.2289338" lon="13.1371442"><ele>172.0</ele><time>2026-05-01T08:05:42.625Z</time></trkpt><trkpt lat="46.2288552" lon="13.1372458"><ele>172.0</ele><time>2026-05-01T08:05:43.626Z</time></trkpt><trkpt lat="46.2287781" lon="13.1373479"><ele>172.0</ele><time>2026-05-01T08:05:44.626Z</time></trkpt><trkpt lat="46.2287031" lon="13.1374485"><ele>172.0</ele><time>2026-05-01T08:05:45.626Z</time></trkpt><trkpt lat="46.2286267" lon="13.1375485"><ele>172.0</ele><time>2026-05-01T08:05:46.626Z</time></trkpt><trkpt lat="46.2285526" lon="13.1376421"><ele>172.0</ele><time>2026-05-01T08:05:47.626Z</time></trkpt><trkpt lat="46.2284781" lon="13.1377382"><ele>172.0</ele><time>2026-05-01T08:05:48.625Z</time></trkpt><trkpt lat="46.2284028" lon="13.1378354"><ele>172.0</ele><time>2026-05-01T08:05:49.625Z</time></trkpt><trkpt lat="46.2283272" lon="13.1379256"><ele>172.0</ele><time>2026-05-01T08:05:50.626Z</time></trkpt><trkpt lat="46.2282476" lon="13.1380159"><ele>172.0</ele><time>2026-05-01T08:05:51.627Z</time></trkpt><trkpt lat="46.2281673" lon="13.1381039"><ele>172.0</ele><time>2026-05-01T08:05:52.626Z</time></trkpt><trkpt lat="46.2280826" lon="13.138191"><ele>172.0</ele><time>2026-05-01T08:05:53.625Z</time></trkpt><trkpt lat="46.2279995" lon="13.1382772"><ele>172.0</ele><time>2026-05-01T08:05:54.625Z</time></trkpt><trkpt lat="46.2279188" lon="13.1383695"><ele>172.0</ele><time>2026-05-01T08:05:55.625Z</time></trkpt><trkpt lat="46.227839" lon="13.1384631"><ele>172.0</ele><time>2026-05-01T08:05:56.625Z</time></trkpt><trkpt lat="46.2277597" lon="13.1385507"><ele>172.0</ele><time>2026-05-01T08:05:57.625Z</time></trkpt><trkpt lat="46.2276788" lon="13.1386381"><ele>172.0</ele><time>2026-05-01T08:05:58.626Z</time></trkpt><trkpt lat="46.2275953" lon="13.138728"><ele>172.0</ele><time>2026-05-01T08:05:59.626Z</time></trkpt><trkpt lat="46.2275133" lon="13.1388144"><ele>172.0</ele><time>2026-05-01T08:06:00.626Z</time></trkpt><trkpt lat="46.2274307" lon="13.1389077"><ele>172.0</ele><time>2026-05-01T08:06:01.625Z</time></trkpt><trkpt lat="46.2273478" lon="13.1389951"><ele>172.39999999999998</ele><time>2026-05-01T08:06:02.626Z</time></trkpt><trkpt lat="46.227265" lon="13.1390915"><ele>172.79999999999998</ele><time>2026-05-01T08:06:03.626Z</time></trkpt><trkpt lat="46.2271803" lon="13.1391818"><ele>173.2</ele><time>2026-05-01T08:06:04.627Z</time></trkpt><trkpt lat="46.2270967" lon="13.1392715"><ele>173.6</ele><time>2026-05-01T08:06:05.627Z</time></trkpt><trkpt lat="46.2270132" lon="13.1393608"><ele>174.0</ele><time>2026-05-01T08:06:06.626Z</time></trkpt><trkpt lat="46.2269297" lon="13.1394536"><ele>174.0</ele><time>2026-05-01T08:06:07.626Z</time></trkpt><trkpt lat="46.2268462" lon="13.1395425"><ele>174.0</ele><time>2026-05-01T08:06:08.626Z</time></trkpt><trkpt lat="46.2267568" lon="13.1396327"><ele>174.0</ele><time>2026-05-01T08:06:09.626Z</time></trkpt><trkpt lat="46.2266726" lon="13.1397235"><ele>174.0</ele><time>2026-05-01T08:06:10.625Z</time></trkpt><trkpt lat="46.2265903" lon="13.1398167"><ele>174.0</ele><time>2026-05-01T08:06:11.626Z</time></trkpt><trkpt lat="46.2265051" lon="13.1399104"><ele>174.2</ele><time>2026-05-01T08:06:12.626Z</time></trkpt><trkpt lat="46.2264202" lon="13.1400025"><ele>174.39999999999998</ele><time>2026-05-01T08:06:13.625Z</time></trkpt><trkpt lat="46.2263312" lon="13.1400938"><ele>174.6</ele><time>2026-05-01T08:06:14.627Z</time></trkpt><trkpt lat="46.2262465" lon="13.1401885"><ele>174.8</ele><time>2026-05-01T08:06:15.627Z</time></trkpt><trkpt lat="46.2261625" lon="13.1402849"><ele>175.0</ele><time>2026-05-01T08:06:16.626Z</time></trkpt><trkpt lat="46.2260785" lon="13.1403751"><ele>175.0</ele><time>2026-05-01T08:06:17.626Z</time></trkpt><trkpt lat="46.2259912" lon="13.1404631"><ele>175.0</ele><time>2026-05-01T08:06:18.627Z</time></trkpt><trkpt lat="46.2258998" lon="13.140548"><ele>175.0</ele><time>2026-05-01T08:06:19.626Z</time></trkpt><trkpt lat="46.2258144" lon="13.1406345"><ele>175.0</ele><time>2026-05-01T08:06:20.626Z</time></trkpt><trkpt lat="46.2257287" lon="13.1407278"><ele>175.0</ele><time>2026-05-01T08:06:21.625Z</time></trkpt><trkpt lat="46.2256472" lon="13.1408267"><ele>174.6</ele><time>2026-05-01T08:06:22.626Z</time></trkpt><trkpt lat="46.2255636" lon="13.1409263"><ele>174.2</ele><time>2026-05-01T08:06:23.627Z</time></trkpt><trkpt lat="46.2254781" lon="13.1410229"><ele>173.8</ele><time>2026-05-01T08:06:24.625Z</time></trkpt><trkpt lat="46.2253942" lon="13.1411278"><ele>173.4</ele><time>2026-05-01T08:06:25.625Z</time></trkpt><trkpt lat="46.2252983" lon="13.1412334"><ele>173.0</ele><time>2026-05-01T08:06:26.626Z</time></trkpt><trkpt lat="46.2252072" lon="13.1413297"><ele>173.0</ele><time>2026-05-01T08:06:27.626Z</time></trkpt><trkpt lat="46.2251279" lon="13.1414197"><ele>173.0</ele><time>2026-05-01T08:06:28.625Z</time></trkpt><trkpt lat="46.2250487" lon="13.1415025"><ele>173.0</ele><time>2026-05-01T08:06:29.625Z</time></trkpt><trkpt lat="46.2249773" lon="13.1415791"><ele>173.0</ele><time>2026-05-01T08:06:30.625Z</time></trkpt><trkpt lat="46.2249051" lon="13.1416543"><ele>173.0</ele><time>2026-05-01T08:06:31.626Z</time></trkpt><trkpt lat="46.2248353" lon="13.1417286"><ele>173.2</ele><time>2026-05-01T08:06:32.626Z</time></trkpt><trkpt lat="46.2247745" lon="13.1417925"><ele>173.4</ele><time>2026-05-01T08:06:33.625Z</time></trkpt><trkpt lat="46.2247113" lon="13.1418662"><ele>173.6</ele><time>2026-05-01T08:06:35.626Z</time></trkpt><trkpt lat="46.2246205" lon="13.141865"><ele>173.79999999999998</ele><time>2026-05-01T08:06:38.625Z</time></trkpt><trkpt lat="46.2245165" lon="13.1417094"><ele>174.0</ele><time>2026-05-01T08:06:40.626Z</time></trkpt><trkpt lat="46.2244431" lon="13.1416149"><ele>174.25</ele><time>2026-05-01T08:06:41.626Z</time></trkpt><trkpt lat="46.2243642" lon="13.1415233"><ele>174.5</ele><time>2026-05-01T08:06:42.626Z</time></trkpt><trkpt lat="46.2242662" lon="13.141408"><ele>174.75</ele><time>2026-05-01T08:06:43.626Z</time></trkpt><trkpt lat="46.2241663" lon="13.1412912"><ele>175.0</ele><time>2026-05-01T08:06:44.625Z</time></trkpt><trkpt lat="46.2240586" lon="13.1411642"><ele>175.33333333333334</ele><time>2026-05-01T08:06:45.624Z</time></trkpt><trkpt lat="46.2239383" lon="13.1410279"><ele>175.66666666666666</ele><time>2026-05-01T08:06:46.624Z</time></trkpt><trkpt lat="46.2238245" lon="13.1408943"><ele>176.0</ele><time>2026-05-01T08:06:47.625Z</time></trkpt><trkpt lat="46.223703" lon="13.1407504"><ele>175.33333333333331</ele><time>2026-05-01T08:06:48.625Z</time></trkpt><trkpt lat="46.2235752" lon="13.1405916"><ele>174.66666666666666</ele><time>2026-05-01T08:06:49.625Z</time></trkpt><trkpt lat="46.2234396" lon="13.1404358"><ele>174.0</ele><time>2026-05-01T08:06:50.625Z</time></trkpt><trkpt lat="46.2233181" lon="13.140294"><ele>174.0</ele><time>2026-05-01T08:06:51.626Z</time></trkpt><trkpt lat="46.2232017" lon="13.140159"><ele>174.0</ele><time>2026-05-01T08:06:52.625Z</time></trkpt><trkpt lat="46.223086" lon="13.1400246"><ele>174.0</ele><time>2026-05-01T08:06:53.624Z</time></trkpt><trkpt lat="46.2229716" lon="13.1398957"><ele>174.0</ele><time>2026-05-01T08:06:54.624Z</time></trkpt><trkpt lat="46.2228594" lon="13.1397754"><ele>174.5</ele><time>2026-05-01T08:06:55.624Z</time></trkpt><trkpt lat="46.2227563" lon="13.1396684"><ele>175.0</ele><time>2026-05-01T08:06:56.625Z</time></trkpt><trkpt lat="46.2226564" lon="13.1395863"><ele>175.5</ele><time>2026-05-01T08:06:57.625Z</time></trkpt><trkpt lat="46.2225536" lon="13.1395322"><ele>176.0</ele><time>2026-05-01T08:06:58.625Z</time></trkpt><trkpt lat="46.2224481" lon="13.1395021"><ele>176.0</ele><time>2026-05-01T08:06:59.625Z</time></trkpt><trkpt lat="46.2223503" lon="13.1394899"><ele>176.0</ele><time>2026-05-01T08:07:00.626Z</time></trkpt><trkpt lat="46.2222584" lon="13.1394988"><ele>176.0</ele><time>2026-05-01T08:07:01.626Z</time></trkpt><trkpt lat="46.2221806" lon="13.1395242"><ele>176.0</ele><time>2026-05-01T08:07:02.624Z</time></trkpt><trkpt lat="46.2221164" lon="13.1395659"><ele>176.0</ele><time>2026-05-01T08:07:03.625Z</time></trkpt><trkpt lat="46.2220747" lon="13.1396772"><ele>176.0</ele><time>2026-05-01T08:07:05.625Z</time></trkpt><trkpt lat="46.2220775" lon="13.1398533"><ele>177.0</ele><time>2026-05-01T08:07:07.624Z</time></trkpt><trkpt lat="46.2220662" lon="13.1399626"><ele>178.0</ele><time>2026-05-01T08:07:08.624Z</time></trkpt><trkpt lat="46.2220455" lon="13.140076"><ele>179.0</ele><time>2026-05-01T08:07:09.625Z</time></trkpt><trkpt lat="46.2220235" lon="13.1401928"><ele>180.0</ele><time>2026-05-01T08:07:10.625Z</time></trkpt><trkpt lat="46.2220056" lon="13.1403131"><ele>181.0</ele><time>2026-05-01T08:07:11.624Z</time></trkpt><trkpt lat="46.2219888" lon="13.1404346"><ele>182.0</ele><time>2026-05-01T08:07:12.625Z</time></trkpt><trkpt lat="46.2219643" lon="13.1405523"><ele>182.0</ele><time>2026-05-01T08:07:13.625Z</time></trkpt><trkpt lat="46.2219428" lon="13.1406691"><ele>182.0</ele><time>2026-05-01T08:07:14.625Z</time></trkpt><trkpt lat="46.2219225" lon="13.1407854"><ele>182.0</ele><time>2026-05-01T08:07:15.625Z</time></trkpt><trkpt lat="46.2219002" lon="13.1408987"><ele>182.0</ele><time>2026-05-01T08:07:16.624Z</time></trkpt><trkpt lat="46.2218823" lon="13.141007"><ele>182.0</ele><time>2026-05-01T08:07:17.624Z</time></trkpt><trkpt lat="46.2218673" lon="13.1411153"><ele>182.0</ele><time>2026-05-01T08:07:18.625Z</time></trkpt><trkpt lat="46.2218538" lon="13.1412285"><ele>182.33333333333331</ele><time>2026-05-01T08:07:19.624Z</time></trkpt><trkpt lat="46.2218351" lon="13.1413387"><ele>182.66666666666666</ele><time>2026-05-01T08:07:20.624Z</time></trkpt><trkpt lat="46.2218189" lon="13.1414521"><ele>183.0</ele><time>2026-05-01T08:07:21.625Z</time></trkpt><trkpt lat="46.2218035" lon="13.141566"><ele>183.33333333333334</ele><time>2026-05-01T08:07:22.625Z</time></trkpt><trkpt lat="46.2217858" lon="13.1416785"><ele>183.66666666666669</ele><time>2026-05-01T08:07:23.625Z</time></trkpt><trkpt lat="46.2217698" lon="13.1417935"><ele>184.0</ele><time>2026-05-01T08:07:24.625Z</time></trkpt><trkpt lat="46.2217509" lon="13.1419077"><ele>183.33333333333334</ele><time>2026-05-01T08:07:25.624Z</time></trkpt><trkpt lat="46.2217426" lon="13.1420232"><ele>182.66666666666669</ele><time>2026-05-01T08:07:26.624Z</time></trkpt><trkpt lat="46.2217352" lon="13.1421334"><ele>182.0</ele><time>2026-05-01T08:07:27.626Z</time></trkpt><trkpt lat="46.2217277" lon="13.1422416"><ele>181.33333333333334</ele><time>2026-05-01T08:07:28.624Z</time></trkpt><trkpt lat="46.2217147" lon="13.1423468"><ele>180.66666666666666</ele><time>2026-05-01T08:07:29.624Z</time></trkpt><trkpt lat="46.221704" lon="13.1424483"><ele>180.0</ele><time>2026-05-01T08:07:30.624Z</time></trkpt><trkpt lat="46.2216884" lon="13.1425525"><ele>179.83333333333334</ele><time>2026-05-01T08:07:31.626Z</time></trkpt><trkpt lat="46.2216795" lon="13.1426583"><ele>179.66666666666666</ele><time>2026-05-01T08:07:32.626Z</time></trkpt><trkpt lat="46.2216942" lon="13.1428476"><ele>179.5</ele><time>2026-05-01T08:07:34.625Z</time></trkpt><trkpt lat="46.221701" lon="13.142957"><ele>179.33333333333331</ele><time>2026-05-01T08:07:35.626Z</time></trkpt><trkpt lat="46.2216971" lon="13.1430632"><ele>179.16666666666666</ele><time>2026-05-01T08:07:36.624Z</time></trkpt><trkpt lat="46.2216963" lon="13.1431677"><ele>179.0</ele><time>2026-05-01T08:07:37.625Z</time></trkpt><trkpt lat="46.2216918" lon="13.1432734"><ele>179.00000000000003</ele><time>2026-05-01T08:07:38.625Z</time></trkpt><trkpt lat="46.2216913" lon="13.1433704"><ele>179.0</ele><time>2026-05-01T08:07:39.624Z</time></trkpt><trkpt lat="46.2216918" lon="13.1434744"><ele>179.0</ele><time>2026-05-01T08:07:40.624Z</time></trkpt><trkpt lat="46.2216943" lon="13.1435826"><ele>179.0</ele><time>2026-05-01T08:07:41.626Z</time></trkpt><trkpt lat="46.2216959" lon="13.1436915"><ele>179.0</ele><time>2026-05-01T08:07:42.624Z</time></trkpt><trkpt lat="46.2217004" lon="13.1438038"><ele>179.00000000000003</ele><time>2026-05-01T08:07:43.624Z</time></trkpt><trkpt lat="46.2217165" lon="13.1439091"><ele>179.0</ele><time>2026-05-01T08:07:44.625Z</time></trkpt><trkpt lat="46.2217337" lon="13.1440114"><ele>178.42857142857144</ele><time>2026-05-01T08:07:45.625Z</time></trkpt><trkpt lat="46.2217635" lon="13.1441071"><ele>177.85714285714286</ele><time>2026-05-01T08:07:46.624Z</time></trkpt><trkpt lat="46.2218032" lon="13.1442046"><ele>177.28571428571428</ele><time>2026-05-01T08:07:47.625Z</time></trkpt><trkpt lat="46.2218503" lon="13.1442866"><ele>176.71428571428572</ele><time>2026-05-01T08:07:48.626Z</time></trkpt><trkpt lat="46.2218967" lon="13.144373"><ele>176.14285714285714</ele><time>2026-05-01T08:07:49.625Z</time></trkpt><trkpt lat="46.2219306" lon="13.1444633"><ele>175.57142857142858</ele><time>2026-05-01T08:07:50.625Z</time></trkpt><trkpt lat="46.2219575" lon="13.1445459"><ele>175.0</ele><time>2026-05-01T08:07:51.624Z</time></trkpt><trkpt lat="46.2219893" lon="13.1446389"><ele>175.0</ele><time>2026-05-01T08:07:52.626Z</time></trkpt><trkpt lat="46.2220246" lon="13.1447319"><ele>175.0</ele><time>2026-05-01T08:07:53.625Z</time></trkpt><trkpt lat="46.2220601" lon="13.1448228"><ele>175.0</ele><time>2026-05-01T08:07:54.624Z</time></trkpt><trkpt lat="46.2220911" lon="13.144916"><ele>175.0</ele><time>2026-05-01T08:07:55.625Z</time></trkpt><trkpt lat="46.2221284" lon="13.1450059"><ele>175.0</ele><time>2026-05-01T08:07:56.624Z</time></trkpt><trkpt lat="46.2221606" lon="13.1450951"><ele>175.0</ele><time>2026-05-01T08:07:57.624Z</time></trkpt><trkpt lat="46.2221912" lon="13.1451893"><ele>175.0</ele><time>2026-05-01T08:07:58.625Z</time></trkpt><trkpt lat="46.2222119" lon="13.1452903"><ele>175.33333333333334</ele><time>2026-05-01T08:07:59.626Z</time></trkpt><trkpt lat="46.2222364" lon="13.1453857"><ele>175.66666666666669</ele><time>2026-05-01T08:08:00.624Z</time></trkpt><trkpt lat="46.2222547" lon="13.1454826"><ele>176.0</ele><time>2026-05-01T08:08:01.624Z</time></trkpt><trkpt lat="46.2222705" lon="13.1455813"><ele>176.33333333333334</ele><time>2026-05-01T08:08:02.625Z</time></trkpt><trkpt lat="46.2222763" lon="13.1456833"><ele>176.66666666666666</ele><time>2026-05-01T08:08:03.624Z</time></trkpt><trkpt lat="46.2222711" lon="13.1458295"><ele>177.0</ele><time>2026-05-01T08:08:05.625Z</time></trkpt><trkpt lat="46.2222528" lon="13.1459304"><ele>177.8</ele><time>2026-05-01T08:08:07.624Z</time></trkpt><trkpt lat="46.2222387" lon="13.1460356"><ele>178.6</ele><time>2026-05-01T08:08:09.625Z</time></trkpt><trkpt lat="46.2222253" lon="13.1461456"><ele>179.4</ele><time>2026-05-01T08:08:11.626Z</time></trkpt><trkpt lat="46.2222064" lon="13.1462895"><ele>180.20000000000002</ele><time>2026-05-01T08:08:46.626Z</time></trkpt><trkpt lat="46.2221882" lon="13.1464332"><ele>181.0</ele><time>2026-05-01T08:08:48.626Z</time></trkpt><trkpt lat="46.2221749" lon="13.1465822"><ele>181.16666666666669</ele><time>2026-05-01T08:08:50.624Z</time></trkpt><trkpt lat="46.2221615" lon="13.1467366"><ele>181.33333333333334</ele><time>2026-05-01T08:08:52.625Z</time></trkpt><trkpt lat="46.2221458" lon="13.1468984"><ele>181.5</ele><time>2026-05-01T08:08:54.626Z</time></trkpt><trkpt lat="46.2221315" lon="13.1469939"><ele>181.66666666666666</ele><time>2026-05-01T08:08:55.625Z</time></trkpt><trkpt lat="46.2221178" lon="13.1471005"><ele>181.83333333333331</ele><time>2026-05-01T08:08:56.624Z</time></trkpt><trkpt lat="46.2221002" lon="13.1472076"><ele>182.0</ele><time>2026-05-01T08:08:57.624Z</time></trkpt><trkpt lat="46.2220841" lon="13.1473252"><ele>181.0</ele><time>2026-05-01T08:08:58.626Z</time></trkpt><trkpt lat="46.2220629" lon="13.1474484"><ele>180.0</ele><time>2026-05-01T08:08:59.625Z</time></trkpt><trkpt lat="46.2220454" lon="13.1475817"><ele>179.0</ele><time>2026-05-01T08:09:00.624Z</time></trkpt><trkpt lat="46.2220275" lon="13.1477111"><ele>178.0</ele><time>2026-05-01T08:09:01.624Z</time></trkpt><trkpt lat="46.2220032" lon="13.1478423"><ele>177.0</ele><time>2026-05-01T08:09:02.626Z</time></trkpt><trkpt lat="46.2219809" lon="13.1479744"><ele>177.0</ele><time>2026-05-01T08:09:03.626Z</time></trkpt><trkpt lat="46.2219601" lon="13.1481022"><ele>177.0</ele><time>2026-05-01T08:09:04.624Z</time></trkpt><trkpt lat="46.2219474" lon="13.1482183"><ele>177.0</ele><time>2026-05-01T08:09:05.624Z</time></trkpt><trkpt lat="46.2219471" lon="13.1483179"><ele>177.0</ele><time>2026-05-01T08:09:06.624Z</time></trkpt><trkpt lat="46.2219552" lon="13.1484725"><ele>177.0</ele><time>2026-05-01T08:09:08.625Z</time></trkpt><trkpt lat="46.221961" lon="13.1485734"><ele>177.0</ele><time>2026-05-01T08:09:10.625Z</time></trkpt><trkpt lat="46.2218981" lon="13.1486614"><ele>177.0</ele><time>2026-05-01T08:09:13.625Z</time></trkpt><trkpt lat="46.2218272" lon="13.1487028"><ele>177.0</ele><time>2026-05-01T08:09:15.625Z</time></trkpt><trkpt lat="46.2217529" lon="13.1487468"><ele>177.0</ele><time>2026-05-01T08:09:18.624Z</time></trkpt><trkpt lat="46.2216898" lon="13.1487781"><ele>177.0</ele><time>2026-05-01T08:09:20.624Z</time></trkpt><trkpt lat="46.2216164" lon="13.1488099"><ele>177.0</ele><time>2026-05-01T08:09:32.625Z</time></trkpt><trkpt lat="46.2215023" lon="13.1488677"><ele>177.0</ele><time>2026-05-01T08:09:34.625Z</time></trkpt><trkpt lat="46.2213914" lon="13.1488947"><ele>179.6</ele><time>2026-05-01T08:09:36.625Z</time></trkpt><trkpt lat="46.2212905" lon="13.1489222"><ele>182.2</ele><time>2026-05-01T08:09:38.625Z</time></trkpt><trkpt lat="46.2212148" lon="13.1489571"><ele>184.8</ele><time>2026-05-01T08:09:40.626Z</time></trkpt><trkpt lat="46.221142" lon="13.1490446"><ele>187.4</ele><time>2026-05-01T08:09:42.625Z</time></trkpt><trkpt lat="46.22107" lon="13.1491495"><ele>190.0</ele><time>2026-05-01T08:09:44.625Z</time></trkpt><trkpt lat="46.2209994" lon="13.1492596"><ele>190.0</ele><time>2026-05-01T08:09:46.624Z</time></trkpt><trkpt lat="46.2209314" lon="13.1492895"><ele>190.0</ele><time>2026-05-01T08:09:48.624Z</time></trkpt><trkpt lat="46.2208725" lon="13.1493558"><ele>190.0</ele><time>2026-05-01T08:09:50.625Z</time></trkpt><trkpt lat="46.2208151" lon="13.1494206"><ele>190.0</ele><time>2026-05-01T08:09:52.624Z</time></trkpt><trkpt lat="46.2207598" lon="13.1494744"><ele>190.0</ele><time>2026-05-01T08:09:54.625Z</time></trkpt><trkpt lat="46.2207076" lon="13.1495367"><ele>190.0</ele><time>2026-05-01T08:09:56.625Z</time></trkpt><trkpt lat="46.2206488" lon="13.1496069"><ele>190.0</ele><time>2026-05-01T08:09:58.624Z</time></trkpt><trkpt lat="46.2205918" lon="13.1496744"><ele>190.33333333333334</ele><time>2026-05-01T08:10:00.625Z</time></trkpt><trkpt lat="46.2205339" lon="13.1497508"><ele>190.66666666666669</ele><time>2026-05-01T08:10:02.625Z</time></trkpt><trkpt lat="46.2204785" lon="13.1498305"><ele>191.0</ele><time>2026-05-01T08:10:04.625Z</time></trkpt><trkpt lat="46.2204068" lon="13.1499849"><ele>191.33333333333334</ele><time>2026-05-01T08:10:09.626Z</time></trkpt><trkpt lat="46.2204474" lon="13.1498688"><ele>191.66666666666666</ele><time>2026-05-01T08:10:15.624Z</time></trkpt><trkpt lat="46.2204029" lon="13.149943"><ele>192.0</ele><time>2026-05-01T08:10:23.624Z</time></trkpt><trkpt lat="46.2203669" lon="13.150027"><ele>192.0</ele><time>2026-05-01T08:10:24.626Z</time></trkpt><trkpt lat="46.220318" lon="13.1501469"><ele>192.0</ele><time>2026-05-01T08:10:26.626Z</time></trkpt><trkpt lat="46.2202779" lon="13.1502541"><ele>192.0</ele><time>2026-05-01T08:10:28.625Z</time></trkpt><trkpt lat="46.2202383" lon="13.1503636"><ele>192.0</ele><time>2026-05-01T08:10:30.626Z</time></trkpt><trkpt lat="46.2202033" lon="13.1504907"><ele>192.0</ele><time>2026-05-01T08:10:32.625Z</time></trkpt><trkpt lat="46.2201641" lon="13.150633"><ele>191.0</ele><time>2026-05-01T08:10:34.625Z</time></trkpt><trkpt lat="46.2201415" lon="13.1507635"><ele>190.0</ele><time>2026-05-01T08:10:36.626Z</time></trkpt><trkpt lat="46.2201389" lon="13.1508751"><ele>189.0</ele><time>2026-05-01T08:10:38.626Z</time></trkpt><trkpt lat="46.220146" lon="13.1509842"><ele>188.0</ele><time>2026-05-01T08:10:40.624Z</time></trkpt><trkpt lat="46.2201368" lon="13.1510904"><ele>187.0</ele><time>2026-05-01T08:10:42.625Z</time></trkpt><trkpt lat="46.2201193" lon="13.1511871"><ele>186.0</ele><time>2026-05-01T08:10:44.625Z</time></trkpt><trkpt lat="46.2201032" lon="13.1512829"><ele>186.0</ele><time>2026-05-01T08:10:46.624Z</time></trkpt><trkpt lat="46.2200883" lon="13.1513752"><ele>186.0</ele><time>2026-05-01T08:10:48.625Z</time></trkpt><trkpt lat="46.2200718" lon="13.1514724"><ele>186.0</ele><time>2026-05-01T08:10:50.625Z</time></trkpt><trkpt lat="46.2200633" lon="13.151564"><ele>186.0</ele><time>2026-05-01T08:10:52.625Z</time></trkpt><trkpt lat="46.2200713" lon="13.151708"><ele>186.0</ele><time>2026-05-01T08:10:55.624Z</time></trkpt><trkpt lat="46.2200834" lon="13.1518227"><ele>186.0</ele><time>2026-05-01T08:10:57.624Z</time></trkpt><trkpt lat="46.2200969" lon="13.1519276"><ele>185.66666666666666</ele><time>2026-05-01T08:11:00.626Z</time></trkpt><trkpt lat="46.2200977" lon="13.1520323"><ele>185.33333333333334</ele><time>2026-05-01T08:11:02.623Z</time></trkpt><trkpt lat="46.2200942" lon="13.1521619"><ele>185.0</ele><time>2026-05-01T08:11:04.623Z</time></trkpt><trkpt lat="46.2200961" lon="13.1522661"><ele>184.66666666666669</ele><time>2026-05-01T08:11:06.624Z</time></trkpt><trkpt lat="46.2201059" lon="13.1523635"><ele>184.33333333333334</ele><time>2026-05-01T08:11:09.625Z</time></trkpt><trkpt lat="46.2201188" lon="13.1524738"><ele>184.0</ele><time>2026-05-01T08:11:12.623Z</time></trkpt><trkpt lat="46.2201232" lon="13.1525744"><ele>184.66666666666669</ele><time>2026-05-01T08:11:14.624Z</time></trkpt><trkpt lat="46.2201318" lon="13.1526773"><ele>185.33333333333334</ele><time>2026-05-01T08:11:16.624Z</time></trkpt><trkpt lat="46.2201358" lon="13.1527889"><ele>186.0</ele><time>2026-05-01T08:11:18.624Z</time></trkpt><trkpt lat="46.2201411" lon="13.1528998"><ele>186.66666666666666</ele><time>2026-05-01T08:11:20.625Z</time></trkpt><trkpt lat="46.2201514" lon="13.1530042"><ele>187.33333333333331</ele><time>2026-05-01T08:11:22.625Z</time></trkpt><trkpt lat="46.2201594" lon="13.1531269"><ele>188.0</ele><time>2026-05-01T08:11:24.623Z</time></trkpt><trkpt lat="46.2201709" lon="13.1532803"><ele>188.4</ele><time>2026-05-01T08:11:26.623Z</time></trkpt><trkpt lat="46.2201875" lon="13.1534072"><ele>188.8</ele><time>2026-05-01T08:11:28.624Z</time></trkpt><trkpt lat="46.2202344" lon="13.1535598"><ele>189.2</ele><time>2026-05-01T08:11:30.623Z</time></trkpt><trkpt lat="46.2202603" lon="13.1536702"><ele>189.6</ele><time>2026-05-01T08:11:32.624Z</time></trkpt><trkpt lat="46.2203041" lon="13.1537472"><ele>190.0</ele><time>2026-05-01T08:11:34.623Z</time></trkpt><trkpt lat="46.2203548" lon="13.1538645"><ele>190.0</ele><time>2026-05-01T08:11:37.624Z</time></trkpt><trkpt lat="46.2204304" lon="13.1539274"><ele>190.0</ele><time>2026-05-01T08:11:39.623Z</time></trkpt><trkpt lat="46.2205015" lon="13.1539485"><ele>190.0</ele><time>2026-05-01T08:11:41.624Z</time></trkpt><trkpt lat="46.2205704" lon="13.1539578"><ele>190.0</ele><time>2026-05-01T08:11:43.625Z</time></trkpt><trkpt lat="46.2205948" lon="13.1541184"><ele>190.0</ele><time>2026-05-01T08:11:47.624Z</time></trkpt><trkpt lat="46.2206023" lon="13.1542339"><ele>190.0</ele><time>2026-05-01T08:11:48.623Z</time></trkpt><trkpt lat="46.2206045" lon="13.1543428"><ele>191.33333333333334</ele><time>2026-05-01T08:11:49.624Z</time></trkpt><trkpt lat="46.2206131" lon="13.1544525"><ele>192.66666666666669</ele><time>2026-05-01T08:11:50.623Z</time></trkpt><trkpt lat="46.2206229" lon="13.1545507"><ele>194.0</ele><time>2026-05-01T08:11:51.624Z</time></trkpt><trkpt lat="46.2206277" lon="13.1546429"><ele>195.33333333333334</ele><time>2026-05-01T08:11:52.624Z</time></trkpt><trkpt lat="46.220636" lon="13.1547375"><ele>196.66666666666666</ele><time>2026-05-01T08:11:53.623Z</time></trkpt><trkpt lat="46.2206956" lon="13.1548906"><ele>198.0</ele><time>2026-05-01T08:11:55.624Z</time></trkpt><trkpt lat="46.2207453" lon="13.154969"><ele>195.16666666666666</ele><time>2026-05-01T08:11:56.623Z</time></trkpt><trkpt lat="46.2208178" lon="13.1550447"><ele>192.33333333333334</ele><time>2026-05-01T08:11:57.625Z</time></trkpt><trkpt lat="46.220898" lon="13.1551067"><ele>189.5</ele><time>2026-05-01T08:11:58.625Z</time></trkpt><trkpt lat="46.2209813" lon="13.1551638"><ele>186.66666666666669</ele><time>2026-05-01T08:11:59.624Z</time></trkpt><trkpt lat="46.221057" lon="13.1552118"><ele>183.83333333333334</ele><time>2026-05-01T08:12:00.623Z</time></trkpt><trkpt lat="46.221139" lon="13.1552632"><ele>181.0</ele><time>2026-05-01T08:12:01.624Z</time></trkpt><trkpt lat="46.2212183" lon="13.155311"><ele>181.0</ele><time>2026-05-01T08:12:02.624Z</time></trkpt><trkpt lat="46.2212967" lon="13.1553575"><ele>181.0</ele><time>2026-05-01T08:12:03.624Z</time></trkpt><trkpt lat="46.2213806" lon="13.1554058"><ele>181.0</ele><time>2026-05-01T08:12:04.623Z</time></trkpt><trkpt lat="46.2214594" lon="13.1554511"><ele>181.0</ele><time>2026-05-01T08:12:05.625Z</time></trkpt><trkpt lat="46.221545" lon="13.1555003"><ele>181.0</ele><time>2026-05-01T08:12:06.625Z</time></trkpt><trkpt lat="46.2216298" lon="13.1555556"><ele>181.0</ele><time>2026-05-01T08:12:07.623Z</time></trkpt><trkpt lat="46.2217181" lon="13.1556094"><ele>180.5</ele><time>2026-05-01T08:12:08.624Z</time></trkpt><trkpt lat="46.2218014" lon="13.155658"><ele>180.0</ele><time>2026-05-01T08:12:09.624Z</time></trkpt><trkpt lat="46.2218724" lon="13.1557064"><ele>179.5</ele><time>2026-05-01T08:12:10.623Z</time></trkpt><trkpt lat="46.2219456" lon="13.1557615"><ele>179.0</ele><time>2026-05-01T08:12:11.623Z</time></trkpt><trkpt lat="46.2220189" lon="13.1558256"><ele>178.5</ele><time>2026-05-01T08:12:12.624Z</time></trkpt><trkpt lat="46.2220892" lon="13.1559075"><ele>178.0</ele><time>2026-05-01T08:12:13.625Z</time></trkpt><trkpt lat="46.2221635" lon="13.1559918"><ele>178.0</ele><time>2026-05-01T08:12:14.625Z</time></trkpt><trkpt lat="46.2222403" lon="13.1560805"><ele>178.0</ele><time>2026-05-01T08:12:15.624Z</time></trkpt><trkpt lat="46.2223201" lon="13.156174"><ele>178.0</ele><time>2026-05-01T08:12:16.624Z</time></trkpt><trkpt lat="46.2223996" lon="13.1562696"><ele>178.0</ele><time>2026-05-01T08:12:17.624Z</time></trkpt><trkpt lat="46.2224753" lon="13.1563499"><ele>178.0</ele><time>2026-05-01T08:12:18.624Z</time></trkpt><trkpt lat="46.2225582" lon="13.1564327"><ele>178.0</ele><time>2026-05-01T08:12:19.624Z</time></trkpt><trkpt lat="46.2226273" lon="13.1565119"><ele>178.0</ele><time>2026-05-01T08:12:20.623Z</time></trkpt><trkpt lat="46.2226978" lon="13.1565902"><ele>178.0</ele><time>2026-05-01T08:12:21.623Z</time></trkpt><trkpt lat="46.2227651" lon="13.1566602"><ele>178.0</ele><time>2026-05-01T08:12:22.623Z</time></trkpt><trkpt lat="46.222832" lon="13.1567258"><ele>178.0</ele><time>2026-05-01T08:12:23.624Z</time></trkpt><trkpt lat="46.2229124" lon="13.156789"><ele>178.0</ele><time>2026-05-01T08:12:24.624Z</time></trkpt><trkpt lat="46.2230171" lon="13.1568549"><ele>178.0</ele><time>2026-05-01T08:12:25.625Z</time></trkpt><trkpt lat="46.2231227" lon="13.1569092"><ele>178.0</ele><time>2026-05-01T08:12:26.624Z</time></trkpt><trkpt lat="46.2232315" lon="13.1569548"><ele>178.0</ele><time>2026-05-01T08:12:27.624Z</time></trkpt><trkpt lat="46.2233567" lon="13.1570122"><ele>178.0</ele><time>2026-05-01T08:12:28.624Z</time></trkpt><trkpt lat="46.2234882" lon="13.157076"><ele>178.25</ele><time>2026-05-01T08:12:29.624Z</time></trkpt><trkpt lat="46.2236076" lon="13.1571369"><ele>178.5</ele><time>2026-05-01T08:12:30.623Z</time></trkpt><trkpt lat="46.2237256" lon="13.1571942"><ele>178.75</ele><time>2026-05-01T08:12:31.623Z</time></trkpt><trkpt lat="46.2238426" lon="13.1572516"><ele>179.0</ele><time>2026-05-01T08:12:32.624Z</time></trkpt><trkpt lat="46.2239621" lon="13.1573078"><ele>178.75</ele><time>2026-05-01T08:12:33.624Z</time></trkpt><trkpt lat="46.2240792" lon="13.1573613"><ele>178.5</ele><time>2026-05-01T08:12:34.624Z</time></trkpt><trkpt lat="46.2241972" lon="13.1574107"><ele>178.25</ele><time>2026-05-01T08:12:35.623Z</time></trkpt><trkpt lat="46.2243145" lon="13.1574645"><ele>178.0</ele><time>2026-05-01T08:12:36.624Z</time></trkpt><trkpt lat="46.2244318" lon="13.1575162"><ele>178.25</ele><time>2026-05-01T08:12:37.624Z</time></trkpt><trkpt lat="46.2245454" lon="13.1575709"><ele>178.5</ele><time>2026-05-01T08:12:38.624Z</time></trkpt><trkpt lat="46.2246601" lon="13.1576222"><ele>178.75</ele><time>2026-05-01T08:12:39.623Z</time></trkpt><trkpt lat="46.2247747" lon="13.1576712"><ele>179.0</ele><time>2026-05-01T08:12:40.625Z</time></trkpt><trkpt lat="46.2248812" lon="13.1577241"><ele>179.0</ele><time>2026-05-01T08:12:41.624Z</time></trkpt><trkpt lat="46.2249821" lon="13.1577842"><ele>179.0</ele><time>2026-05-01T08:12:42.623Z</time></trkpt><trkpt lat="46.2250836" lon="13.1578519"><ele>179.0</ele><time>2026-05-01T08:12:43.625Z</time></trkpt><trkpt lat="46.2251794" lon="13.1579308"><ele>179.0</ele><time>2026-05-01T08:12:44.624Z</time></trkpt><trkpt lat="46.2252627" lon="13.1580098"><ele>179.0</ele><time>2026-05-01T08:12:45.624Z</time></trkpt><trkpt lat="46.2253356" lon="13.1580954"><ele>179.0</ele><time>2026-05-01T08:12:46.623Z</time></trkpt><trkpt lat="46.2253988" lon="13.1582005"><ele>179.0</ele><time>2026-05-01T08:12:47.624Z</time></trkpt><trkpt lat="46.2254495" lon="13.1583252"><ele>179.0</ele><time>2026-05-01T08:12:48.624Z</time></trkpt><trkpt lat="46.2254986" lon="13.158487"><ele>179.0</ele><time>2026-05-01T08:12:49.623Z</time></trkpt><trkpt lat="46.2255478" lon="13.1586746"><ele>179.0</ele><time>2026-05-01T08:12:50.624Z</time></trkpt><trkpt lat="46.2256051" lon="13.1588888"><ele>179.0</ele><time>2026-05-01T08:12:51.624Z</time></trkpt><trkpt lat="46.2256517" lon="13.1590842"><ele>179.0</ele><time>2026-05-01T08:12:52.623Z</time></trkpt><trkpt lat="46.2256933" lon="13.1592653"><ele>179.0</ele><time>2026-05-01T08:12:53.624Z</time></trkpt><trkpt lat="46.2257391" lon="13.1594469"><ele>179.0</ele><time>2026-05-01T08:12:54.624Z</time></trkpt><trkpt lat="46.225787" lon="13.1596178"><ele>179.0</ele><time>2026-05-01T08:12:55.624Z</time></trkpt><trkpt lat="46.2258312" lon="13.1597788"><ele>179.0</ele><time>2026-05-01T08:12:56.624Z</time></trkpt><trkpt lat="46.2258707" lon="13.1599225"><ele>179.0</ele><time>2026-05-01T08:12:57.624Z</time></trkpt><trkpt lat="46.225911" lon="13.1600523"><ele>179.2</ele><time>2026-05-01T08:12:58.624Z</time></trkpt><trkpt lat="46.2259513" lon="13.16017"><ele>179.39999999999998</ele><time>2026-05-01T08:12:59.623Z</time></trkpt><trkpt lat="46.2259955" lon="13.1602791"><ele>179.6</ele><time>2026-05-01T08:13:00.623Z</time></trkpt><trkpt lat="46.2260502" lon="13.1603837"><ele>179.8</ele><time>2026-05-01T08:13:01.623Z</time></trkpt><trkpt lat="46.2261137" lon="13.1604754"><ele>180.0</ele><time>2026-05-01T08:13:02.623Z</time></trkpt><trkpt lat="46.2261859" lon="13.1605555"><ele>180.0</ele><time>2026-05-01T08:13:03.624Z</time></trkpt><trkpt lat="46.2262675" lon="13.1606278"><ele>180.0</ele><time>2026-05-01T08:13:04.624Z</time></trkpt><trkpt lat="46.2263668" lon="13.1607057"><ele>180.0</ele><time>2026-05-01T08:13:05.624Z</time></trkpt><trkpt lat="46.2264851" lon="13.160792"><ele>180.0</ele><time>2026-05-01T08:13:06.624Z</time></trkpt><trkpt lat="46.226609" lon="13.160882"><ele>180.4</ele><time>2026-05-01T08:13:07.624Z</time></trkpt><trkpt lat="46.2267169" lon="13.1609614"><ele>180.8</ele><time>2026-05-01T08:13:08.624Z</time></trkpt><trkpt lat="46.2268107" lon="13.1610392"><ele>181.2</ele><time>2026-05-01T08:13:09.625Z</time></trkpt><trkpt lat="46.2268982" lon="13.1611117"><ele>181.6</ele><time>2026-05-01T08:13:10.624Z</time></trkpt><trkpt lat="46.226985" lon="13.1611819"><ele>182.0</ele><time>2026-05-01T08:13:11.623Z</time></trkpt><trkpt lat="46.2270763" lon="13.1612573"><ele>182.0</ele><time>2026-05-01T08:13:12.624Z</time></trkpt><trkpt lat="46.2271697" lon="13.1613257"><ele>182.0</ele><time>2026-05-01T08:13:13.623Z</time></trkpt><trkpt lat="46.2272711" lon="13.161386"><ele>182.0</ele><time>2026-05-01T08:13:14.623Z</time></trkpt><trkpt lat="46.2273716" lon="13.1614421"><ele>182.0</ele><time>2026-05-01T08:13:15.624Z</time></trkpt><trkpt lat="46.2274631" lon="13.161497"><ele>182.0</ele><time>2026-05-01T08:13:16.624Z</time></trkpt><trkpt lat="46.2275484" lon="13.1615599"><ele>182.16666666666666</ele><time>2026-05-01T08:13:17.624Z</time></trkpt><trkpt lat="46.2276221" lon="13.1616329"><ele>182.33333333333331</ele><time>2026-05-01T08:13:18.624Z</time></trkpt><trkpt lat="46.2276842" lon="13.1617142"><ele>182.5</ele><time>2026-05-01T08:13:19.623Z</time></trkpt><trkpt lat="46.2277407" lon="13.1618066"><ele>182.66666666666666</ele><time>2026-05-01T08:13:20.624Z</time></trkpt><trkpt lat="46.2277932" lon="13.1619048"><ele>182.83333333333334</ele><time>2026-05-01T08:13:21.624Z</time></trkpt><trkpt lat="46.2278338" lon="13.1620098"><ele>183.0</ele><time>2026-05-01T08:13:22.623Z</time></trkpt><trkpt lat="46.2278544" lon="13.1621233"><ele>183.0</ele><time>2026-05-01T08:13:23.623Z</time></trkpt><trkpt lat="46.2278586" lon="13.1622473"><ele>183.0</ele><time>2026-05-01T08:13:24.624Z</time></trkpt><trkpt lat="46.2278468" lon="13.1623926"><ele>183.0</ele><time>2026-05-01T08:13:25.624Z</time></trkpt><trkpt lat="46.2278182" lon="13.1625545"><ele>183.0</ele><time>2026-05-01T08:13:26.623Z</time></trkpt><trkpt lat="46.2277798" lon="13.1627195"><ele>183.0</ele><time>2026-05-01T08:13:27.625Z</time></trkpt><trkpt lat="46.2277449" lon="13.1628813"><ele>183.0</ele><time>2026-05-01T08:13:28.623Z</time></trkpt><trkpt lat="46.2277058" lon="13.1630454"><ele>183.0</ele><time>2026-05-01T08:13:29.624Z</time></trkpt><trkpt lat="46.2276643" lon="13.1632208"><ele>183.0</ele><time>2026-05-01T08:13:30.624Z</time></trkpt><trkpt lat="46.2276248" lon="13.1634035"><ele>183.0</ele><time>2026-05-01T08:13:31.623Z</time></trkpt><trkpt lat="46.227583" lon="13.1635888"><ele>183.0</ele><time>2026-05-01T08:13:32.623Z</time></trkpt><trkpt lat="46.2275408" lon="13.1637781"><ele>183.0</ele><time>2026-05-01T08:13:33.624Z</time></trkpt><trkpt lat="46.2274981" lon="13.1639733"><ele>183.0</ele><time>2026-05-01T08:13:34.625Z</time></trkpt><trkpt lat="46.2274517" lon="13.1641692"><ele>183.0</ele><time>2026-05-01T08:13:35.623Z</time></trkpt><trkpt lat="46.2274031" lon="13.1643697"><ele>183.25</ele><time>2026-05-01T08:13:36.624Z</time></trkpt><trkpt lat="46.2273556" lon="13.164571"><ele>183.5</ele><time>2026-05-01T08:13:37.624Z</time></trkpt><trkpt lat="46.2273104" lon="13.1647726"><ele>183.75</ele><time>2026-05-01T08:13:38.624Z</time></trkpt><trkpt lat="46.2272681" lon="13.164977"><ele>184.0</ele><time>2026-05-01T08:13:39.623Z</time></trkpt><trkpt lat="46.2272308" lon="13.1651712"><ele>184.25</ele><time>2026-05-01T08:13:40.624Z</time></trkpt><trkpt lat="46.227198" lon="13.1653456"><ele>184.5</ele><time>2026-05-01T08:13:41.624Z</time></trkpt><trkpt lat="46.22717" lon="13.1655131"><ele>184.75</ele><time>2026-05-01T08:13:42.624Z</time></trkpt><trkpt lat="46.2271503" lon="13.1656773"><ele>185.0</ele><time>2026-05-01T08:13:43.624Z</time></trkpt><trkpt lat="46.2271387" lon="13.1658405"><ele>185.25</ele><time>2026-05-01T08:13:44.624Z</time></trkpt><trkpt lat="46.2271375" lon="13.1660042"><ele>185.5</ele><time>2026-05-01T08:13:45.624Z</time></trkpt><trkpt lat="46.2271442" lon="13.1661759"><ele>185.75</ele><time>2026-05-01T08:13:46.624Z</time></trkpt><trkpt lat="46.2271578" lon="13.1663565"><ele>186.0</ele><time>2026-05-01T08:13:47.625Z</time></trkpt><trkpt lat="46.2271784" lon="13.1665457"><ele>186.0</ele><time>2026-05-01T08:13:48.624Z</time></trkpt><trkpt lat="46.2271988" lon="13.1667416"><ele>186.0</ele><time>2026-05-01T08:13:49.624Z</time></trkpt><trkpt lat="46.2272169" lon="13.1669411"><ele>186.0</ele><time>2026-05-01T08:13:50.625Z</time></trkpt><trkpt lat="46.2272383" lon="13.1671401"><ele>186.0</ele><time>2026-05-01T08:13:51.623Z</time></trkpt><trkpt lat="46.2272574" lon="13.1673271"><ele>186.0</ele><time>2026-05-01T08:13:52.623Z</time></trkpt><trkpt lat="46.2272728" lon="13.1674874"><ele>186.0</ele><time>2026-05-01T08:13:53.623Z</time></trkpt><trkpt lat="46.2272876" lon="13.1676254"><ele>186.0</ele><time>2026-05-01T08:13:54.623Z</time></trkpt><trkpt lat="46.2273018" lon="13.1677506"><ele>186.0</ele><time>2026-05-01T08:13:55.624Z</time></trkpt><trkpt lat="46.2273143" lon="13.1678595"><ele>186.0</ele><time>2026-05-01T08:13:56.625Z</time></trkpt><trkpt lat="46.2273152" lon="13.1679535"><ele>186.0</ele><time>2026-05-01T08:13:57.623Z</time></trkpt><trkpt lat="46.2272524" lon="13.1681164"><ele>185.4</ele><time>2026-05-01T08:13:59.625Z</time></trkpt><trkpt lat="46.2271902" lon="13.1682175"><ele>184.8</ele><time>2026-05-01T08:14:00.624Z</time></trkpt><trkpt lat="46.2271315" lon="13.1683374"><ele>184.20000000000002</ele><time>2026-05-01T08:14:01.624Z</time></trkpt><trkpt lat="46.2270862" lon="13.1684713"><ele>183.60000000000002</ele><time>2026-05-01T08:14:02.625Z</time></trkpt><trkpt lat="46.2270462" lon="13.168619"><ele>183.0</ele><time>2026-05-01T08:14:03.623Z</time></trkpt><trkpt lat="46.2270071" lon="13.1687798"><ele>183.0</ele><time>2026-05-01T08:14:04.623Z</time></trkpt><trkpt lat="46.2269686" lon="13.1689417"><ele>183.0</ele><time>2026-05-01T08:14:05.623Z</time></trkpt><trkpt lat="46.2269338" lon="13.1691196"><ele>183.0</ele><time>2026-05-01T08:14:06.624Z</time></trkpt><trkpt lat="46.2269025" lon="13.1693194"><ele>183.0</ele><time>2026-05-01T08:14:07.623Z</time></trkpt><trkpt lat="46.2268704" lon="13.1695027"><ele>183.5</ele><time>2026-05-01T08:14:08.623Z</time></trkpt><trkpt lat="46.2268411" lon="13.1696656"><ele>184.0</ele><time>2026-05-01T08:14:09.624Z</time></trkpt><trkpt lat="46.2268152" lon="13.1698274"><ele>184.5</ele><time>2026-05-01T08:14:10.624Z</time></trkpt><trkpt lat="46.2267936" lon="13.1699885"><ele>185.0</ele><time>2026-05-01T08:14:11.624Z</time></trkpt><trkpt lat="46.2267687" lon="13.1701465"><ele>185.5</ele><time>2026-05-01T08:14:12.624Z</time></trkpt><trkpt lat="46.2267402" lon="13.170308"><ele>186.0</ele><time>2026-05-01T08:14:13.624Z</time></trkpt><trkpt lat="46.2267112" lon="13.1704721"><ele>186.5</ele><time>2026-05-01T08:14:14.625Z</time></trkpt><trkpt lat="46.2266838" lon="13.1706431"><ele>187.0</ele><time>2026-05-01T08:14:15.623Z</time></trkpt><trkpt lat="46.2266584" lon="13.170816"><ele>187.0</ele><time>2026-05-01T08:14:16.623Z</time></trkpt><trkpt lat="46.2266347" lon="13.1709775"><ele>187.0</ele><time>2026-05-01T08:14:17.624Z</time></trkpt><trkpt lat="46.2266105" lon="13.1711208"><ele>187.0</ele><time>2026-05-01T08:14:18.623Z</time></trkpt><trkpt lat="46.2265873" lon="13.1712571"><ele>187.0</ele><time>2026-05-01T08:14:19.625Z</time></trkpt><trkpt lat="46.2265647" lon="13.1713952"><ele>187.0</ele><time>2026-05-01T08:14:20.624Z</time></trkpt><trkpt lat="46.2265394" lon="13.1715299"><ele>187.39999999999998</ele><time>2026-05-01T08:14:21.624Z</time></trkpt><trkpt lat="46.226505" lon="13.1716633"><ele>187.79999999999998</ele><time>2026-05-01T08:14:22.625Z</time></trkpt><trkpt lat="46.226471" lon="13.1717957"><ele>188.2</ele><time>2026-05-01T08:14:23.623Z</time></trkpt><trkpt lat="46.226441" lon="13.1719274"><ele>188.6</ele><time>2026-05-01T08:14:24.625Z</time></trkpt><trkpt lat="46.2264098" lon="13.1720607"><ele>189.0</ele><time>2026-05-01T08:14:25.623Z</time></trkpt><trkpt lat="46.2263802" lon="13.1721932"><ele>189.0</ele><time>2026-05-01T08:14:26.624Z</time></trkpt><trkpt lat="46.2263558" lon="13.1723061"><ele>189.0</ele><time>2026-05-01T08:14:27.625Z</time></trkpt><trkpt lat="46.2263293" lon="13.1724436"><ele>189.0</ele><time>2026-05-01T08:14:29.623Z</time></trkpt><trkpt lat="46.2263354" lon="13.1725591"><ele>189.0</ele><time>2026-05-01T08:14:32.624Z</time></trkpt><trkpt lat="46.2264124" lon="13.1726637"><ele>189.0</ele><time>2026-05-01T08:14:34.624Z</time></trkpt><trkpt lat="46.2264611" lon="13.1727229"><ele>189.0</ele><time>2026-05-01T08:14:35.623Z</time></trkpt><trkpt lat="46.2264985" lon="13.1727993"><ele>189.0</ele><time>2026-05-01T08:14:36.624Z</time></trkpt><trkpt lat="46.2265144" lon="13.1728939"><ele>189.0</ele><time>2026-05-01T08:14:37.624Z</time></trkpt><trkpt lat="46.2265125" lon="13.1730128"><ele>189.0</ele><time>2026-05-01T08:14:38.624Z</time></trkpt><trkpt lat="46.2264997" lon="13.1731392"><ele>189.0</ele><time>2026-05-01T08:14:39.623Z</time></trkpt><trkpt lat="46.2264842" lon="13.1732719"><ele>189.0</ele><time>2026-05-01T08:14:40.624Z</time></trkpt><trkpt lat="46.2264725" lon="13.1734183"><ele>189.0</ele><time>2026-05-01T08:14:41.623Z</time></trkpt><trkpt lat="46.2264594" lon="13.1735734"><ele>190.0</ele><time>2026-05-01T08:14:42.625Z</time></trkpt><trkpt lat="46.2264445" lon="13.1737228"><ele>191.0</ele><time>2026-05-01T08:14:43.623Z</time></trkpt><trkpt lat="46.2264244" lon="13.1738689"><ele>192.0</ele><time>2026-05-01T08:14:44.623Z</time></trkpt><trkpt lat="46.2263984" lon="13.1740128"><ele>193.0</ele><time>2026-05-01T08:14:45.623Z</time></trkpt><trkpt lat="46.2263656" lon="13.1741511"><ele>194.0</ele><time>2026-05-01T08:14:46.625Z</time></trkpt><trkpt lat="46.226327" lon="13.1742882"><ele>194.0</ele><time>2026-05-01T08:14:47.624Z</time></trkpt><trkpt lat="46.2262929" lon="13.174423"><ele>194.0</ele><time>2026-05-01T08:14:48.623Z</time></trkpt><trkpt lat="46.2262663" lon="13.1745528"><ele>194.0</ele><time>2026-05-01T08:14:49.625Z</time></trkpt><trkpt lat="46.2262413" lon="13.1746769"><ele>194.0</ele><time>2026-05-01T08:14:50.624Z</time></trkpt><trkpt lat="46.2262182" lon="13.1747973"><ele>194.0</ele><time>2026-05-01T08:14:51.624Z</time></trkpt><trkpt lat="46.2261947" lon="13.1749131"><ele>193.50000000000003</ele><time>2026-05-01T08:14:52.623Z</time></trkpt><trkpt lat="46.2261711" lon="13.1750302"><ele>193.0</ele><time>2026-05-01T08:14:53.623Z</time></trkpt><trkpt lat="46.2261487" lon="13.1751427"><ele>192.5</ele><time>2026-05-01T08:14:54.624Z</time></trkpt><trkpt lat="46.2261342" lon="13.1752479"><ele>192.0</ele><time>2026-05-01T08:14:55.624Z</time></trkpt><trkpt lat="46.2261312" lon="13.1754047"><ele>191.5</ele><time>2026-05-01T08:14:57.623Z</time></trkpt><trkpt lat="46.2261294" lon="13.1754961"><ele>191.0</ele><time>2026-05-01T08:15:05.624Z</time></trkpt><trkpt lat="46.2260483" lon="13.1756311"><ele>190.8</ele><time>2026-05-01T08:15:07.624Z</time></trkpt><trkpt lat="46.2259837" lon="13.1757051"><ele>190.60000000000002</ele><time>2026-05-01T08:15:08.624Z</time></trkpt><trkpt lat="46.2259056" lon="13.1757917"><ele>190.4</ele><time>2026-05-01T08:15:09.623Z</time></trkpt><trkpt lat="46.2258166" lon="13.1758897"><ele>190.2</ele><time>2026-05-01T08:15:10.624Z</time></trkpt><trkpt lat="46.2257259" lon="13.175988"><ele>190.0</ele><time>2026-05-01T08:15:11.623Z</time></trkpt><trkpt lat="46.2256265" lon="13.176092"><ele>190.0</ele><time>2026-05-01T08:15:12.624Z</time></trkpt><trkpt lat="46.2255251" lon="13.1761965"><ele>190.0</ele><time>2026-05-01T08:15:13.625Z</time></trkpt><trkpt lat="46.2254223" lon="13.1763021"><ele>190.0</ele><time>2026-05-01T08:15:14.625Z</time></trkpt><trkpt lat="46.2253126" lon="13.1764064"><ele>190.0</ele><time>2026-05-01T08:15:15.624Z</time></trkpt><trkpt lat="46.2251977" lon="13.1765328"><ele>190.0</ele><time>2026-05-01T08:15:16.624Z</time></trkpt><trkpt lat="46.2250845" lon="13.1766603"><ele>190.0</ele><time>2026-05-01T08:15:17.623Z</time></trkpt><trkpt lat="46.224973" lon="13.1767822"><ele>190.0</ele><time>2026-05-01T08:15:18.624Z</time></trkpt><trkpt lat="46.22486" lon="13.1769077"><ele>190.0</ele><time>2026-05-01T08:15:19.623Z</time></trkpt><trkpt lat="46.2247425" lon="13.1770323"><ele>190.33333333333334</ele><time>2026-05-01T08:15:20.623Z</time></trkpt><trkpt lat="46.2246222" lon="13.1771565"><ele>190.66666666666666</ele><time>2026-05-01T08:15:21.624Z</time></trkpt><trkpt lat="46.2244939" lon="13.1772882"><ele>191.0</ele><time>2026-05-01T08:15:22.624Z</time></trkpt><trkpt lat="46.2243615" lon="13.1774156"><ele>191.0</ele><time>2026-05-01T08:15:23.623Z</time></trkpt><trkpt lat="46.2242228" lon="13.1775421"><ele>191.0</ele><time>2026-05-01T08:15:24.624Z</time></trkpt><trkpt lat="46.2240825" lon="13.1776582"><ele>191.0</ele><time>2026-05-01T08:15:25.624Z</time></trkpt><trkpt lat="46.2239398" lon="13.1777666"><ele>191.33333333333331</ele><time>2026-05-01T08:15:26.623Z</time></trkpt><trkpt lat="46.2237956" lon="13.1778675"><ele>191.66666666666666</ele><time>2026-05-01T08:15:27.623Z</time></trkpt><trkpt lat="46.2236488" lon="13.1779569"><ele>192.0</ele><time>2026-05-01T08:15:28.623Z</time></trkpt><trkpt lat="46.2235032" lon="13.1780378"><ele>192.0</ele><time>2026-05-01T08:15:29.623Z</time></trkpt><trkpt lat="46.2233582" lon="13.1781139"><ele>192.0</ele><time>2026-05-01T08:15:30.624Z</time></trkpt><trkpt lat="46.2232144" lon="13.1781885"><ele>192.0</ele><time>2026-05-01T08:15:31.624Z</time></trkpt><trkpt lat="46.2230755" lon="13.178259"><ele>192.5</ele><time>2026-05-01T08:15:32.623Z</time></trkpt><trkpt lat="46.222939" lon="13.1783253"><ele>193.0</ele><time>2026-05-01T08:15:33.624Z</time></trkpt><trkpt lat="46.2228065" lon="13.1783906"><ele>193.5</ele><time>2026-05-01T08:15:34.624Z</time></trkpt><trkpt lat="46.2226793" lon="13.1784579"><ele>194.0</ele><time>2026-05-01T08:15:35.623Z</time></trkpt><trkpt lat="46.2225553" lon="13.1785172"><ele>194.0</ele><time>2026-05-01T08:15:36.624Z</time></trkpt><trkpt lat="46.2224361" lon="13.1785753"><ele>194.0</ele><time>2026-05-01T08:15:37.625Z</time></trkpt><trkpt lat="46.2223194" lon="13.1786324"><ele>194.0</ele><time>2026-05-01T08:15:38.624Z</time></trkpt><trkpt lat="46.2222106" lon="13.1786828"><ele>194.0</ele><time>2026-05-01T08:15:39.623Z</time></trkpt><trkpt lat="46.2221045" lon="13.1787345"><ele>194.0</ele><time>2026-05-01T08:15:40.624Z</time></trkpt><trkpt lat="46.2220018" lon="13.1787831"><ele>194.0</ele><time>2026-05-01T08:15:41.624Z</time></trkpt><trkpt lat="46.2219006" lon="13.1788366"><ele>194.0</ele><time>2026-05-01T08:15:42.623Z</time></trkpt><trkpt lat="46.2218056" lon="13.178885"><ele>194.0</ele><time>2026-05-01T08:15:43.622Z</time></trkpt><trkpt lat="46.2217136" lon="13.1789334"><ele>194.0</ele><time>2026-05-01T08:15:44.623Z</time></trkpt><trkpt lat="46.2216206" lon="13.1789791"><ele>194.00000000000003</ele><time>2026-05-01T08:15:45.623Z</time></trkpt><trkpt lat="46.2215285" lon="13.1790257"><ele>194.0</ele><time>2026-05-01T08:15:46.624Z</time></trkpt><trkpt lat="46.2214414" lon="13.1790684"><ele>194.0</ele><time>2026-05-01T08:15:47.624Z</time></trkpt><trkpt lat="46.2213606" lon="13.1791072"><ele>194.0</ele><time>2026-05-01T08:15:48.623Z</time></trkpt><trkpt lat="46.2212824" lon="13.1791414"><ele>194.00000000000003</ele><time>2026-05-01T08:15:49.623Z</time></trkpt><trkpt lat="46.2212116" lon="13.1791745"><ele>194.0</ele><time>2026-05-01T08:15:50.622Z</time></trkpt><trkpt lat="46.2210986" lon="13.17923"><ele>194.0</ele><time>2026-05-01T08:15:52.623Z</time></trkpt><trkpt lat="46.2210258" lon="13.1792611"><ele>194.0</ele><time>2026-05-01T08:15:54.623Z</time></trkpt><trkpt lat="46.2209461" lon="13.1793029"><ele>194.0</ele><time>2026-05-01T08:16:06.624Z</time></trkpt><trkpt lat="46.2208417" lon="13.1793489"><ele>194.0</ele><time>2026-05-01T08:16:08.623Z</time></trkpt><trkpt lat="46.2207258" lon="13.17941"><ele>194.0</ele><time>2026-05-01T08:16:10.622Z</time></trkpt><trkpt lat="46.2206586" lon="13.1794411"><ele>193.79999999999998</ele><time>2026-05-01T08:16:11.622Z</time></trkpt><trkpt lat="46.2205755" lon="13.1794832"><ele>193.6</ele><time>2026-05-01T08:16:12.624Z</time></trkpt><trkpt lat="46.2204838" lon="13.1795275"><ele>193.4</ele><time>2026-05-01T08:16:13.624Z</time></trkpt><trkpt lat="46.2203869" lon="13.1795736"><ele>193.2</ele><time>2026-05-01T08:16:14.623Z</time></trkpt><trkpt lat="46.2202825" lon="13.1796284"><ele>193.0</ele><time>2026-05-01T08:16:15.623Z</time></trkpt><trkpt lat="46.2201735" lon="13.1796835"><ele>193.0</ele><time>2026-05-01T08:16:16.623Z</time></trkpt><trkpt lat="46.2200623" lon="13.1797424"><ele>193.0</ele><time>2026-05-01T08:16:17.622Z</time></trkpt><trkpt lat="46.2199524" lon="13.1798033"><ele>193.0</ele><time>2026-05-01T08:16:18.623Z</time></trkpt><trkpt lat="46.2198347" lon="13.1798591"><ele>193.0</ele><time>2026-05-01T08:16:19.622Z</time></trkpt><trkpt lat="46.219708" lon="13.1799176"><ele>192.75</ele><time>2026-05-01T08:16:20.622Z</time></trkpt><trkpt lat="46.2195807" lon="13.1799782"><ele>192.5</ele><time>2026-05-01T08:16:21.623Z</time></trkpt><trkpt lat="46.2194525" lon="13.1800431"><ele>192.25</ele><time>2026-05-01T08:16:22.623Z</time></trkpt><trkpt lat="46.2193169" lon="13.1801116"><ele>192.0</ele><time>2026-05-01T08:16:23.622Z</time></trkpt><trkpt lat="46.2191817" lon="13.180184"><ele>192.0</ele><time>2026-05-01T08:16:24.622Z</time></trkpt><trkpt lat="46.2190426" lon="13.1802557"><ele>192.0</ele><time>2026-05-01T08:16:25.622Z</time></trkpt><trkpt lat="46.2189019" lon="13.1803237"><ele>192.0</ele><time>2026-05-01T08:16:26.623Z</time></trkpt><trkpt lat="46.2187592" lon="13.1803889"><ele>192.0</ele><time>2026-05-01T08:16:27.623Z</time></trkpt><trkpt lat="46.2186264" lon="13.180451"><ele>192.39999999999998</ele><time>2026-05-01T08:16:28.624Z</time></trkpt><trkpt lat="46.2185094" lon="13.1805064"><ele>192.79999999999998</ele><time>2026-05-01T08:16:29.623Z</time></trkpt><trkpt lat="46.2184055" lon="13.1805535"><ele>193.2</ele><time>2026-05-01T08:16:30.622Z</time></trkpt><trkpt lat="46.2183048" lon="13.1806025"><ele>193.6</ele><time>2026-05-01T08:16:31.623Z</time></trkpt><trkpt lat="46.2182174" lon="13.1806399"><ele>194.0</ele><time>2026-05-01T08:16:32.624Z</time></trkpt><trkpt lat="46.2181527" lon="13.1806721"><ele>194.16666666666669</ele><time>2026-05-01T08:16:33.624Z</time></trkpt><trkpt lat="46.2180906" lon="13.180701"><ele>194.33333333333334</ele><time>2026-05-01T08:16:34.624Z</time></trkpt><trkpt lat="46.2180067" lon="13.1807169"><ele>194.5</ele><time>2026-05-01T08:16:36.622Z</time></trkpt><trkpt lat="46.2179696" lon="13.1806153"><ele>194.66666666666669</ele><time>2026-05-01T08:16:38.622Z</time></trkpt><trkpt lat="46.2179538" lon="13.1805196"><ele>194.83333333333334</ele><time>2026-05-01T08:16:39.623Z</time></trkpt><trkpt lat="46.2179295" lon="13.1804082"><ele>195.0</ele><time>2026-05-01T08:16:40.622Z</time></trkpt><trkpt lat="46.2179008" lon="13.1802988"><ele>195.0</ele><time>2026-05-01T08:16:41.622Z</time></trkpt><trkpt lat="46.2178667" lon="13.1801824"><ele>195.0</ele><time>2026-05-01T08:16:42.623Z</time></trkpt><trkpt lat="46.2178287" lon="13.1800613"><ele>195.0</ele><time>2026-05-01T08:16:43.624Z</time></trkpt><trkpt lat="46.2177896" lon="13.1799316"><ele>195.0</ele><time>2026-05-01T08:16:44.624Z</time></trkpt><trkpt lat="46.2177535" lon="13.1797918"><ele>195.0</ele><time>2026-05-01T08:16:45.623Z</time></trkpt><trkpt lat="46.2177247" lon="13.1796378"><ele>195.0</ele><time>2026-05-01T08:16:46.623Z</time></trkpt><trkpt lat="46.2177061" lon="13.1794703"><ele>195.0</ele><time>2026-05-01T08:16:47.623Z</time></trkpt><trkpt lat="46.2176911" lon="13.1793121"><ele>195.0</ele><time>2026-05-01T08:16:48.623Z</time></trkpt><trkpt lat="46.21768" lon="13.1791578"><ele>195.0</ele><time>2026-05-01T08:16:49.623Z</time></trkpt><trkpt lat="46.2176679" lon="13.1789992"><ele>195.0</ele><time>2026-05-01T08:16:50.623Z</time></trkpt><trkpt lat="46.2176543" lon="13.178845"><ele>194.5</ele><time>2026-05-01T08:16:51.623Z</time></trkpt><trkpt lat="46.2176396" lon="13.1786863"><ele>194.0</ele><time>2026-05-01T08:16:52.622Z</time></trkpt><trkpt lat="46.2176229" lon="13.1785252"><ele>193.5</ele><time>2026-05-01T08:16:53.623Z</time></trkpt><trkpt lat="46.2176078" lon="13.1783608"><ele>193.0</ele><time>2026-05-01T08:16:54.623Z</time></trkpt><trkpt lat="46.2175929" lon="13.1781928"><ele>192.5</ele><time>2026-05-01T08:16:55.624Z</time></trkpt><trkpt lat="46.2175753" lon="13.1780252"><ele>192.0</ele><time>2026-05-01T08:16:56.623Z</time></trkpt><trkpt lat="46.2175537" lon="13.1778558"><ele>191.5</ele><time>2026-05-01T08:16:57.623Z</time></trkpt><trkpt lat="46.2175372" lon="13.1776794"><ele>191.0</ele><time>2026-05-01T08:16:58.623Z</time></trkpt><trkpt lat="46.2175195" lon="13.1775029"><ele>190.75</ele><time>2026-05-01T08:16:59.623Z</time></trkpt><trkpt lat="46.2175046" lon="13.177324"><ele>190.5</ele><time>2026-05-01T08:17:00.624Z</time></trkpt><trkpt lat="46.2174865" lon="13.1771521"><ele>190.25</ele><time>2026-05-01T08:17:01.622Z</time></trkpt><trkpt lat="46.2174644" lon="13.1769803"><ele>190.0</ele><time>2026-05-01T08:17:02.622Z</time></trkpt><trkpt lat="46.2174487" lon="13.1768105"><ele>190.0</ele><time>2026-05-01T08:17:03.623Z</time></trkpt><trkpt lat="46.2174334" lon="13.1766445"><ele>190.0</ele><time>2026-05-01T08:17:04.624Z</time></trkpt><trkpt lat="46.2174188" lon="13.1764781"><ele>190.0</ele><time>2026-05-01T08:17:05.623Z</time></trkpt><trkpt lat="46.2174042" lon="13.1763186"><ele>190.0</ele><time>2026-05-01T08:17:06.623Z</time></trkpt><trkpt lat="46.2173891" lon="13.1761595"><ele>190.2</ele><time>2026-05-01T08:17:07.623Z</time></trkpt><trkpt lat="46.2173739" lon="13.1759997"><ele>190.4</ele><time>2026-05-01T08:17:08.623Z</time></trkpt><trkpt lat="46.2173592" lon="13.1758428"><ele>190.60000000000002</ele><time>2026-05-01T08:17:09.623Z</time></trkpt><trkpt lat="46.2173398" lon="13.175686"><ele>190.8</ele><time>2026-05-01T08:17:10.622Z</time></trkpt><trkpt lat="46.217324" lon="13.1755243"><ele>191.0</ele><time>2026-05-01T08:17:11.623Z</time></trkpt><trkpt lat="46.2173053" lon="13.1753609"><ele>191.5</ele><time>2026-05-01T08:17:12.622Z</time></trkpt><trkpt lat="46.2172895" lon="13.1751998"><ele>192.0</ele><time>2026-05-01T08:17:13.622Z</time></trkpt><trkpt lat="46.2172774" lon="13.1750359"><ele>192.5</ele><time>2026-05-01T08:17:14.623Z</time></trkpt><trkpt lat="46.2172616" lon="13.1748694"><ele>193.0</ele><time>2026-05-01T08:17:15.623Z</time></trkpt><trkpt lat="46.2172485" lon="13.1747015"><ele>193.25</ele><time>2026-05-01T08:17:16.623Z</time></trkpt><trkpt lat="46.2172335" lon="13.1745351"><ele>193.5</ele><time>2026-05-01T08:17:17.622Z</time></trkpt><trkpt lat="46.2172148" lon="13.1743747"><ele>193.75</ele><time>2026-05-01T08:17:18.622Z</time></trkpt><trkpt lat="46.2171886" lon="13.1742185"><ele>194.0</ele><time>2026-05-01T08:17:19.622Z</time></trkpt><trkpt lat="46.2171599" lon="13.1740636"><ele>194.25</ele><time>2026-05-01T08:17:20.622Z</time></trkpt><trkpt lat="46.2171236" lon="13.1739056"><ele>194.5</ele><time>2026-05-01T08:17:21.623Z</time></trkpt><trkpt lat="46.2170875" lon="13.1737434"><ele>194.75</ele><time>2026-05-01T08:17:22.623Z</time></trkpt><trkpt lat="46.2170488" lon="13.1735731"><ele>195.0</ele><time>2026-05-01T08:17:23.623Z</time></trkpt><trkpt lat="46.2170105" lon="13.1733981"><ele>195.0</ele><time>2026-05-01T08:17:24.622Z</time></trkpt><trkpt lat="46.21697" lon="13.1732191"><ele>195.0</ele><time>2026-05-01T08:17:25.622Z</time></trkpt><trkpt lat="46.2169289" lon="13.1730325"><ele>195.0</ele><time>2026-05-01T08:17:26.622Z</time></trkpt><trkpt lat="46.2168837" lon="13.1728413"><ele>195.0</ele><time>2026-05-01T08:17:27.623Z</time></trkpt><trkpt lat="46.2168393" lon="13.1726459"><ele>194.5</ele><time>2026-05-01T08:17:28.623Z</time></trkpt><trkpt lat="46.2167972" lon="13.1724586"><ele>194.0</ele><time>2026-05-01T08:17:29.623Z</time></trkpt><trkpt lat="46.2167602" lon="13.1722907"><ele>193.5</ele><time>2026-05-01T08:17:30.622Z</time></trkpt><trkpt lat="46.2167259" lon="13.1721285"><ele>193.0</ele><time>2026-05-01T08:17:31.622Z</time></trkpt><trkpt lat="46.2166892" lon="13.1719559"><ele>192.0</ele><time>2026-05-01T08:17:32.623Z</time></trkpt><trkpt lat="46.2166493" lon="13.1717726"><ele>191.0</ele><time>2026-05-01T08:17:33.622Z</time></trkpt><trkpt lat="46.2166092" lon="13.1715855"><ele>190.0</ele><time>2026-05-01T08:17:34.623Z</time></trkpt><trkpt lat="46.2165713" lon="13.1713993"><ele>189.0</ele><time>2026-05-01T08:17:35.623Z</time></trkpt><trkpt lat="46.2165317" lon="13.1712184"><ele>189.0</ele><time>2026-05-01T08:17:36.623Z</time></trkpt><trkpt lat="46.2164916" lon="13.1710307"><ele>189.0</ele><time>2026-05-01T08:17:37.623Z</time></trkpt><trkpt lat="46.2164511" lon="13.1708376"><ele>189.0</ele><time>2026-05-01T08:17:38.622Z</time></trkpt><trkpt lat="46.2164085" lon="13.1706424"><ele>189.0</ele><time>2026-05-01T08:17:39.622Z</time></trkpt><trkpt lat="46.2163646" lon="13.1704511"><ele>188.75</ele><time>2026-05-01T08:17:40.622Z</time></trkpt><trkpt lat="46.2163221" lon="13.1702601"><ele>188.5</ele><time>2026-05-01T08:17:41.623Z</time></trkpt><trkpt lat="46.2162818" lon="13.1700712"><ele>188.25</ele><time>2026-05-01T08:17:42.622Z</time></trkpt><trkpt lat="46.2162411" lon="13.1698851"><ele>188.0</ele><time>2026-05-01T08:17:43.623Z</time></trkpt><trkpt lat="46.2162028" lon="13.1697008"><ele>188.0</ele><time>2026-05-01T08:17:44.623Z</time></trkpt><trkpt lat="46.2161622" lon="13.16952"><ele>188.0</ele><time>2026-05-01T08:17:45.624Z</time></trkpt><trkpt lat="46.2161237" lon="13.169341"><ele>188.0</ele><time>2026-05-01T08:17:46.623Z</time></trkpt><trkpt lat="46.2160836" lon="13.1691636"><ele>188.0</ele><time>2026-05-01T08:17:47.623Z</time></trkpt><trkpt lat="46.2160435" lon="13.1689887"><ele>188.0</ele><time>2026-05-01T08:17:48.623Z</time></trkpt><trkpt lat="46.2160053" lon="13.1688136"><ele>188.0</ele><time>2026-05-01T08:17:49.622Z</time></trkpt><trkpt lat="46.2159652" lon="13.168639"><ele>188.0</ele><time>2026-05-01T08:17:50.622Z</time></trkpt><trkpt lat="46.2159277" lon="13.168463"><ele>188.0</ele><time>2026-05-01T08:17:51.623Z</time></trkpt><trkpt lat="46.2158867" lon="13.1682867"><ele>188.0</ele><time>2026-05-01T08:17:52.623Z</time></trkpt><trkpt lat="46.2158452" lon="13.1681152"><ele>188.0</ele><time>2026-05-01T08:17:53.623Z</time></trkpt><trkpt lat="46.2158048" lon="13.1679473"><ele>188.0</ele><time>2026-05-01T08:17:54.622Z</time></trkpt><trkpt lat="46.2157701" lon="13.1677946"><ele>188.0</ele><time>2026-05-01T08:17:55.623Z</time></trkpt><trkpt lat="46.2157348" lon="13.1676568"><ele>188.0</ele><time>2026-05-01T08:17:56.622Z</time></trkpt><trkpt lat="46.2156943" lon="13.1675181"><ele>188.0</ele><time>2026-05-01T08:17:57.624Z</time></trkpt><trkpt lat="46.2156474" lon="13.1673756"><ele>188.0</ele><time>2026-05-01T08:17:58.624Z</time></trkpt><trkpt lat="46.2155968" lon="13.1672414"><ele>188.0</ele><time>2026-05-01T08:17:59.623Z</time></trkpt><trkpt lat="46.215548" lon="13.1671218"><ele>188.0</ele><time>2026-05-01T08:18:00.624Z</time></trkpt><trkpt lat="46.2155012" lon="13.16701"><ele>188.16666666666666</ele><time>2026-05-01T08:18:01.623Z</time></trkpt><trkpt lat="46.2154549" lon="13.1669068"><ele>188.33333333333331</ele><time>2026-05-01T08:18:02.623Z</time></trkpt><trkpt lat="46.2154109" lon="13.1668168"><ele>188.5</ele><time>2026-05-01T08:18:03.623Z</time></trkpt><trkpt lat="46.2153643" lon="13.1667361"><ele>188.66666666666666</ele><time>2026-05-01T08:18:04.622Z</time></trkpt><trkpt lat="46.2153136" lon="13.1666544"><ele>188.83333333333334</ele><time>2026-05-01T08:18:05.622Z</time></trkpt><trkpt lat="46.2152566" lon="13.1665729"><ele>189.0</ele><time>2026-05-01T08:18:06.623Z</time></trkpt><trkpt lat="46.2151931" lon="13.1664948"><ele>189.0</ele><time>2026-05-01T08:18:07.623Z</time></trkpt><trkpt lat="46.2151222" lon="13.1664197"><ele>189.0</ele><time>2026-05-01T08:18:08.623Z</time></trkpt><trkpt lat="46.215046" lon="13.1663501"><ele>189.0</ele><time>2026-05-01T08:18:09.623Z</time></trkpt><trkpt lat="46.2149646" lon="13.1662868"><ele>189.0</ele><time>2026-05-01T08:18:10.624Z</time></trkpt><trkpt lat="46.2148797" lon="13.1662257"><ele>189.0</ele><time>2026-05-01T08:18:11.623Z</time></trkpt><trkpt lat="46.214791" lon="13.166165"><ele>189.0</ele><time>2026-05-01T08:18:12.624Z</time></trkpt><trkpt lat="46.2146995" lon="13.1661038"><ele>189.0</ele><time>2026-05-01T08:18:13.624Z</time></trkpt><trkpt lat="46.2146039" lon="13.1660425"><ele>189.0</ele><time>2026-05-01T08:18:14.623Z</time></trkpt><trkpt lat="46.2145058" lon="13.1659784"><ele>189.0</ele><time>2026-05-01T08:18:15.623Z</time></trkpt><trkpt lat="46.2144096" lon="13.1659125"><ele>189.0</ele><time>2026-05-01T08:18:16.624Z</time></trkpt><trkpt lat="46.2143157" lon="13.1658448"><ele>189.0</ele><time>2026-05-01T08:18:17.623Z</time></trkpt><trkpt lat="46.2142184" lon="13.1657719"><ele>189.0</ele><time>2026-05-01T08:18:18.622Z</time></trkpt><trkpt lat="46.2141153" lon="13.165696"><ele>189.0</ele><time>2026-05-01T08:18:19.622Z</time></trkpt><trkpt lat="46.2140074" lon="13.1656155"><ele>189.0</ele><time>2026-05-01T08:18:20.622Z</time></trkpt><trkpt lat="46.2138992" lon="13.1655357"><ele>189.0</ele><time>2026-05-01T08:18:21.622Z</time></trkpt><trkpt lat="46.2137886" lon="13.1654582"><ele>189.0</ele><time>2026-05-01T08:18:22.623Z</time></trkpt><trkpt lat="46.2136774" lon="13.1653839"><ele>189.0</ele><time>2026-05-01T08:18:23.623Z</time></trkpt><trkpt lat="46.2135697" lon="13.1653115"><ele>189.0</ele><time>2026-05-01T08:18:24.622Z</time></trkpt><trkpt lat="46.2134575" lon="13.1652396"><ele>189.0</ele><time>2026-05-01T08:18:25.622Z</time></trkpt><trkpt lat="46.2133422" lon="13.1651675"><ele>189.0</ele><time>2026-05-01T08:18:26.623Z</time></trkpt><trkpt lat="46.2132276" lon="13.1650915"><ele>189.0</ele><time>2026-05-01T08:18:27.623Z</time></trkpt><trkpt lat="46.2131094" lon="13.1650135"><ele>189.0</ele><time>2026-05-01T08:18:28.624Z</time></trkpt><trkpt lat="46.2129871" lon="13.1649392"><ele>188.5</ele><time>2026-05-01T08:18:29.624Z</time></trkpt><trkpt lat="46.2128676" lon="13.1648635"><ele>188.0</ele><time>2026-05-01T08:18:30.622Z</time></trkpt><trkpt lat="46.2127562" lon="13.1647892"><ele>187.5</ele><time>2026-05-01T08:18:31.622Z</time></trkpt><trkpt lat="46.2126446" lon="13.1647242"><ele>187.0</ele><time>2026-05-01T08:18:32.623Z</time></trkpt><trkpt lat="46.2125329" lon="13.1646671"><ele>187.5</ele><time>2026-05-01T08:18:33.624Z</time></trkpt><trkpt lat="46.2124245" lon="13.1646219"><ele>188.0</ele><time>2026-05-01T08:18:34.623Z</time></trkpt><trkpt lat="46.2123119" lon="13.1645861"><ele>188.5</ele><time>2026-05-01T08:18:35.623Z</time></trkpt><trkpt lat="46.2121941" lon="13.1645545"><ele>189.0</ele><time>2026-05-01T08:18:36.622Z</time></trkpt><trkpt lat="46.2120742" lon="13.1645387"><ele>189.0</ele><time>2026-05-01T08:18:37.623Z</time></trkpt><trkpt lat="46.211953" lon="13.1645369"><ele>189.0</ele><time>2026-05-01T08:18:38.623Z</time></trkpt><trkpt lat="46.2118359" lon="13.164545"><ele>189.0</ele><time>2026-05-01T08:18:39.623Z</time></trkpt><trkpt lat="46.2117241" lon="13.1645585"><ele>189.0</ele><time>2026-05-01T08:18:40.623Z</time></trkpt><trkpt lat="46.2116195" lon="13.1645826"><ele>189.0</ele><time>2026-05-01T08:18:41.623Z</time></trkpt><trkpt lat="46.2115258" lon="13.1646137"><ele>189.0</ele><time>2026-05-01T08:18:42.622Z</time></trkpt><trkpt lat="46.2114397" lon="13.1646486"><ele>189.0</ele><time>2026-05-01T08:18:43.623Z</time></trkpt><trkpt lat="46.2113616" lon="13.1646878"><ele>189.0</ele><time>2026-05-01T08:18:44.623Z</time></trkpt><trkpt lat="46.2112928" lon="13.1647301"><ele>189.0</ele><time>2026-05-01T08:18:45.622Z</time></trkpt><trkpt lat="46.2112257" lon="13.1647728"><ele>189.0</ele><time>2026-05-01T08:18:46.622Z</time></trkpt><trkpt lat="46.2111543" lon="13.1648247"><ele>189.0</ele><time>2026-05-01T08:18:47.622Z</time></trkpt><trkpt lat="46.2110811" lon="13.1648773"><ele>189.0</ele><time>2026-05-01T08:18:48.623Z</time></trkpt><trkpt lat="46.2110064" lon="13.1649365"><ele>189.0</ele><time>2026-05-01T08:18:49.624Z</time></trkpt><trkpt lat="46.2109305" lon="13.1650075"><ele>189.0</ele><time>2026-05-01T08:18:50.623Z</time></trkpt><trkpt lat="46.2108559" lon="13.1650896"><ele>189.0</ele><time>2026-05-01T08:18:51.622Z</time></trkpt><trkpt lat="46.2107849" lon="13.1651825"><ele>189.0</ele><time>2026-05-01T08:18:52.622Z</time></trkpt><trkpt lat="46.2107127" lon="13.1652967"><ele>188.5</ele><time>2026-05-01T08:18:53.623Z</time></trkpt><trkpt lat="46.2106302" lon="13.1654288"><ele>188.0</ele><time>2026-05-01T08:18:54.622Z</time></trkpt><trkpt lat="46.210546" lon="13.1655692"><ele>187.5</ele><time>2026-05-01T08:18:55.622Z</time></trkpt><trkpt lat="46.2104592" lon="13.1657103"><ele>187.0</ele><time>2026-05-01T08:18:56.624Z</time></trkpt><trkpt lat="46.2103717" lon="13.1658567"><ele>187.0</ele><time>2026-05-01T08:18:57.624Z</time></trkpt><trkpt lat="46.2102828" lon="13.1660058"><ele>187.0</ele><time>2026-05-01T08:18:58.624Z</time></trkpt><trkpt lat="46.2101898" lon="13.1661564"><ele>187.0</ele><time>2026-05-01T08:18:59.623Z</time></trkpt><trkpt lat="46.2100919" lon="13.166315"><ele>187.0</ele><time>2026-05-01T08:19:00.622Z</time></trkpt><trkpt lat="46.2099854" lon="13.1664858"><ele>187.0</ele><time>2026-05-01T08:19:01.623Z</time></trkpt><trkpt lat="46.2098747" lon="13.1666661"><ele>187.0</ele><time>2026-05-01T08:19:02.624Z</time></trkpt><trkpt lat="46.2097689" lon="13.1668378"><ele>187.0</ele><time>2026-05-01T08:19:03.622Z</time></trkpt><trkpt lat="46.2096666" lon="13.1669996"><ele>187.0</ele><time>2026-05-01T08:19:04.623Z</time></trkpt><trkpt lat="46.2095663" lon="13.1671609"><ele>187.0</ele><time>2026-05-01T08:19:05.623Z</time></trkpt><trkpt lat="46.2094683" lon="13.1673184"><ele>187.0</ele><time>2026-05-01T08:19:06.623Z</time></trkpt><trkpt lat="46.2093717" lon="13.1674707"><ele>187.0</ele><time>2026-05-01T08:19:07.623Z</time></trkpt><trkpt lat="46.2092792" lon="13.1676207"><ele>187.0</ele><time>2026-05-01T08:19:08.622Z</time></trkpt><trkpt lat="46.2091891" lon="13.1677646"><ele>187.0</ele><time>2026-05-01T08:19:09.624Z</time></trkpt><trkpt lat="46.2090997" lon="13.1679046"><ele>187.0</ele><time>2026-05-01T08:19:10.624Z</time></trkpt><trkpt lat="46.2090075" lon="13.1680478"><ele>187.0</ele><time>2026-05-01T08:19:11.623Z</time></trkpt><trkpt lat="46.2089118" lon="13.1681959"><ele>186.25</ele><time>2026-05-01T08:19:12.623Z</time></trkpt><trkpt lat="46.2088153" lon="13.1683503"><ele>185.5</ele><time>2026-05-01T08:19:13.624Z</time></trkpt><trkpt lat="46.2087188" lon="13.1685049"><ele>184.75</ele><time>2026-05-01T08:19:14.622Z</time></trkpt><trkpt lat="46.2086212" lon="13.1686545"><ele>184.0</ele><time>2026-05-01T08:19:15.622Z</time></trkpt><trkpt lat="46.2085173" lon="13.1688142"><ele>184.0</ele><time>2026-05-01T08:19:16.624Z</time></trkpt><trkpt lat="46.2084061" lon="13.1689881"><ele>184.0</ele><time>2026-05-01T08:19:17.624Z</time></trkpt><trkpt lat="46.2082981" lon="13.1691536"><ele>184.0</ele><time>2026-05-01T08:19:18.623Z</time></trkpt><trkpt lat="46.2082015" lon="13.1693024"><ele>184.0</ele><time>2026-05-01T08:19:19.623Z</time></trkpt><trkpt lat="46.2081128" lon="13.1694422"><ele>184.0</ele><time>2026-05-01T08:19:20.624Z</time></trkpt><trkpt lat="46.2080261" lon="13.1695782"><ele>184.0</ele><time>2026-05-01T08:19:21.623Z</time></trkpt><trkpt lat="46.2079408" lon="13.1697093"><ele>184.0</ele><time>2026-05-01T08:19:22.622Z</time></trkpt><trkpt lat="46.2078543" lon="13.1698418"><ele>184.0</ele><time>2026-05-01T08:19:23.624Z</time></trkpt><trkpt lat="46.207767" lon="13.1699765"><ele>184.0</ele><time>2026-05-01T08:19:24.623Z</time></trkpt><trkpt lat="46.2076797" lon="13.1701146"><ele>184.0</ele><time>2026-05-01T08:19:25.622Z</time></trkpt><trkpt lat="46.2075931" lon="13.170252"><ele>184.0</ele><time>2026-05-01T08:19:26.623Z</time></trkpt><trkpt lat="46.2075123" lon="13.1703802"><ele>184.0</ele><time>2026-05-01T08:19:27.624Z</time></trkpt><trkpt lat="46.2074394" lon="13.1704972"><ele>184.0</ele><time>2026-05-01T08:19:28.623Z</time></trkpt><trkpt lat="46.2073719" lon="13.1706068"><ele>184.0</ele><time>2026-05-01T08:19:29.624Z</time></trkpt><trkpt lat="46.2073058" lon="13.1707127"><ele>184.0</ele><time>2026-05-01T08:19:30.624Z</time></trkpt><trkpt lat="46.2072483" lon="13.1708141"><ele>184.0</ele><time>2026-05-01T08:19:31.622Z</time></trkpt><trkpt lat="46.2071965" lon="13.1709063"><ele>184.33333333333334</ele><time>2026-05-01T08:19:32.622Z</time></trkpt><trkpt lat="46.2071496" lon="13.1709912"><ele>184.66666666666669</ele><time>2026-05-01T08:19:33.623Z</time></trkpt><trkpt lat="46.2070916" lon="13.171109"><ele>185.0</ele><time>2026-05-01T08:19:35.622Z</time></trkpt><trkpt lat="46.2070337" lon="13.1711949"><ele>185.33333333333334</ele><time>2026-05-01T08:19:37.622Z</time></trkpt><trkpt lat="46.2069829" lon="13.1712698"><ele>185.66666666666666</ele><time>2026-05-01T08:19:38.623Z</time></trkpt><trkpt lat="46.2069179" lon="13.1713564"><ele>186.0</ele><time>2026-05-01T08:19:39.624Z</time></trkpt><trkpt lat="46.2068418" lon="13.1714601"><ele>186.75</ele><time>2026-05-01T08:19:40.624Z</time></trkpt><trkpt lat="46.206764" lon="13.1715787"><ele>187.5</ele><time>2026-05-01T08:19:41.624Z</time></trkpt><trkpt lat="46.206679" lon="13.171713"><ele>188.25</ele><time>2026-05-01T08:19:42.624Z</time></trkpt><trkpt lat="46.2065923" lon="13.1718532"><ele>189.0</ele><time>2026-05-01T08:19:43.623Z</time></trkpt><trkpt lat="46.2065149" lon="13.1719987"><ele>188.5</ele><time>2026-05-01T08:19:44.624Z</time></trkpt><trkpt lat="46.2064486" lon="13.1721597"><ele>188.0</ele><time>2026-05-01T08:19:45.622Z</time></trkpt><trkpt lat="46.2063896" lon="13.1723271"><ele>187.5</ele><time>2026-05-01T08:19:46.623Z</time></trkpt><trkpt lat="46.2063385" lon="13.172492"><ele>187.0</ele><time>2026-05-01T08:19:47.623Z</time></trkpt><trkpt lat="46.2062981" lon="13.1726498"><ele>186.75</ele><time>2026-05-01T08:19:48.623Z</time></trkpt><trkpt lat="46.2062719" lon="13.1728015"><ele>186.5</ele><time>2026-05-01T08:19:49.623Z</time></trkpt><trkpt lat="46.2062584" lon="13.172973"><ele>186.25</ele><time>2026-05-01T08:19:50.622Z</time></trkpt><trkpt lat="46.2062527" lon="13.1731761"><ele>186.0</ele><time>2026-05-01T08:19:51.622Z</time></trkpt><trkpt lat="46.2062455" lon="13.1733745"><ele>186.0</ele><time>2026-05-01T08:19:52.623Z</time></trkpt><trkpt lat="46.2062367" lon="13.1735559"><ele>186.0</ele><time>2026-05-01T08:19:53.624Z</time></trkpt><trkpt lat="46.2062261" lon="13.173735"><ele>186.0</ele><time>2026-05-01T08:19:54.623Z</time></trkpt><trkpt lat="46.206215" lon="13.1739109"><ele>186.0</ele><time>2026-05-01T08:19:55.623Z</time></trkpt><trkpt lat="46.2061912" lon="13.1740818"><ele>185.75</ele><time>2026-05-01T08:19:56.622Z</time></trkpt><trkpt lat="46.2061475" lon="13.1742463"><ele>185.5</ele><time>2026-05-01T08:19:57.623Z</time></trkpt><trkpt lat="46.2060908" lon="13.1744097"><ele>185.25</ele><time>2026-05-01T08:19:58.623Z</time></trkpt><trkpt lat="46.2060355" lon="13.1745829"><ele>185.0</ele><time>2026-05-01T08:19:59.623Z</time></trkpt><trkpt lat="46.2059809" lon="13.1747605"><ele>185.25</ele><time>2026-05-01T08:20:00.623Z</time></trkpt><trkpt lat="46.2059269" lon="13.1749385"><ele>185.5</ele><time>2026-05-01T08:20:01.622Z</time></trkpt><trkpt lat="46.2058728" lon="13.1751122"><ele>185.75</ele><time>2026-05-01T08:20:02.622Z</time></trkpt><trkpt lat="46.2058212" lon="13.175274"><ele>186.0</ele><time>2026-05-01T08:20:03.623Z</time></trkpt><trkpt lat="46.2057719" lon="13.1754291"><ele>186.0</ele><time>2026-05-01T08:20:04.623Z</time></trkpt><trkpt lat="46.2057222" lon="13.1755847"><ele>186.0</ele><time>2026-05-01T08:20:05.623Z</time></trkpt><trkpt lat="46.2056711" lon="13.1757396"><ele>186.0</ele><time>2026-05-01T08:20:06.623Z</time></trkpt><trkpt lat="46.2056193" lon="13.1758926"><ele>186.0</ele><time>2026-05-01T08:20:07.623Z</time></trkpt><trkpt lat="46.2055678" lon="13.1760468"><ele>186.0</ele><time>2026-05-01T08:20:08.624Z</time></trkpt><trkpt lat="46.2055206" lon="13.1762029"><ele>186.0</ele><time>2026-05-01T08:20:09.623Z</time></trkpt><trkpt lat="46.2054739" lon="13.1763636"><ele>186.0</ele><time>2026-05-01T08:20:10.622Z</time></trkpt><trkpt lat="46.2054216" lon="13.1765279"><ele>186.0</ele><time>2026-05-01T08:20:11.623Z</time></trkpt><trkpt lat="46.2053684" lon="13.1766943"><ele>186.0</ele><time>2026-05-01T08:20:12.622Z</time></trkpt><trkpt lat="46.2053166" lon="13.1768621"><ele>186.0</ele><time>2026-05-01T08:20:13.623Z</time></trkpt><trkpt lat="46.2052645" lon="13.1770314"><ele>186.0</ele><time>2026-05-01T08:20:14.623Z</time></trkpt><trkpt lat="46.2052108" lon="13.1771936"><ele>186.0</ele><time>2026-05-01T08:20:15.623Z</time></trkpt><trkpt lat="46.2051609" lon="13.1773387"><ele>186.20000000000002</ele><time>2026-05-01T08:20:16.622Z</time></trkpt><trkpt lat="46.2051087" lon="13.1774707"><ele>186.4</ele><time>2026-05-01T08:20:17.622Z</time></trkpt><trkpt lat="46.2050481" lon="13.177602"><ele>186.6</ele><time>2026-05-01T08:20:18.624Z</time></trkpt><trkpt lat="46.2049781" lon="13.1777317"><ele>186.8</ele><time>2026-05-01T08:20:19.622Z</time></trkpt><trkpt lat="46.2049028" lon="13.1778579"><ele>187.0</ele><time>2026-05-01T08:20:20.622Z</time></trkpt><trkpt lat="46.2048198" lon="13.1779919"><ele>187.25</ele><time>2026-05-01T08:20:21.623Z</time></trkpt><trkpt lat="46.2047284" lon="13.1781303"><ele>187.5</ele><time>2026-05-01T08:20:22.622Z</time></trkpt><trkpt lat="46.2046306" lon="13.1782622"><ele>187.75</ele><time>2026-05-01T08:20:23.622Z</time></trkpt><trkpt lat="46.2045239" lon="13.1783912"><ele>188.0</ele><time>2026-05-01T08:20:24.622Z</time></trkpt><trkpt lat="46.2044126" lon="13.1785207"><ele>187.5</ele><time>2026-05-01T08:20:25.623Z</time></trkpt><trkpt lat="46.2042986" lon="13.178646"><ele>187.0</ele><time>2026-05-01T08:20:26.623Z</time></trkpt><trkpt lat="46.2041749" lon="13.1787508"><ele>186.5</ele><time>2026-05-01T08:20:27.622Z</time></trkpt><trkpt lat="46.2040434" lon="13.1788488"><ele>186.0</ele><time>2026-05-01T08:20:28.623Z</time></trkpt><trkpt lat="46.203905" lon="13.1789428"><ele>186.66666666666666</ele><time>2026-05-01T08:20:29.623Z</time></trkpt><trkpt lat="46.2037615" lon="13.17903"><ele>187.33333333333331</ele><time>2026-05-01T08:20:30.623Z</time></trkpt><trkpt lat="46.2036153" lon="13.179106"><ele>188.0</ele><time>2026-05-01T08:20:31.623Z</time></trkpt><trkpt lat="46.2034798" lon="13.1791677"><ele>188.0</ele><time>2026-05-01T08:20:32.622Z</time></trkpt><trkpt lat="46.2033502" lon="13.1792177"><ele>188.0</ele><time>2026-05-01T08:20:33.623Z</time></trkpt><trkpt lat="46.2032162" lon="13.1792615"><ele>188.0</ele><time>2026-05-01T08:20:34.623Z</time></trkpt><trkpt lat="46.2030748" lon="13.1792912"><ele>188.0</ele><time>2026-05-01T08:20:35.622Z</time></trkpt><trkpt lat="46.202932" lon="13.179305"><ele>188.75</ele><time>2026-05-01T08:20:36.623Z</time></trkpt><trkpt lat="46.2027891" lon="13.1793058"><ele>189.5</ele><time>2026-05-01T08:20:37.623Z</time></trkpt><trkpt lat="46.2026419" lon="13.179296"><ele>190.25</ele><time>2026-05-01T08:20:38.622Z</time></trkpt><trkpt lat="46.2024921" lon="13.1792742"><ele>191.0</ele><time>2026-05-01T08:20:39.623Z</time></trkpt><trkpt lat="46.2023424" lon="13.1792611"><ele>190.0</ele><time>2026-05-01T08:20:40.623Z</time></trkpt><trkpt lat="46.2021923" lon="13.1792528"><ele>189.0</ele><time>2026-05-01T08:20:41.623Z</time></trkpt><trkpt lat="46.2020403" lon="13.1792389"><ele>188.0</ele><time>2026-05-01T08:20:42.622Z</time></trkpt><trkpt lat="46.2018943" lon="13.1792247"><ele>187.0</ele><time>2026-05-01T08:20:43.623Z</time></trkpt><trkpt lat="46.2017522" lon="13.1792097"><ele>187.0</ele><time>2026-05-01T08:20:44.622Z</time></trkpt><trkpt lat="46.2016046" lon="13.1791901"><ele>187.0</ele><time>2026-05-01T08:20:45.624Z</time></trkpt><trkpt lat="46.2014545" lon="13.179166"><ele>187.0</ele><time>2026-05-01T08:20:46.623Z</time></trkpt><trkpt lat="46.2013026" lon="13.1791473"><ele>187.0</ele><time>2026-05-01T08:20:47.623Z</time></trkpt><trkpt lat="46.2011491" lon="13.1791313"><ele>187.0</ele><time>2026-05-01T08:20:48.622Z</time></trkpt><trkpt lat="46.2010035" lon="13.1791175"><ele>187.0</ele><time>2026-05-01T08:20:49.622Z</time></trkpt><trkpt lat="46.2008754" lon="13.1790994"><ele>187.0</ele><time>2026-05-01T08:20:50.624Z</time></trkpt><trkpt lat="46.2007581" lon="13.1790864"><ele>187.2</ele><time>2026-05-01T08:20:51.624Z</time></trkpt><trkpt lat="46.2006519" lon="13.1790801"><ele>187.39999999999998</ele><time>2026-05-01T08:20:52.623Z</time></trkpt><trkpt lat="46.2005541" lon="13.1790682"><ele>187.60000000000002</ele><time>2026-05-01T08:20:53.622Z</time></trkpt><trkpt lat="46.2004622" lon="13.1790612"><ele>187.8</ele><time>2026-05-01T08:20:54.624Z</time></trkpt><trkpt lat="46.2003796" lon="13.1790527"><ele>188.0</ele><time>2026-05-01T08:20:55.622Z</time></trkpt><trkpt lat="46.2003026" lon="13.1790514"><ele>188.0</ele><time>2026-05-01T08:20:56.623Z</time></trkpt><trkpt lat="46.2002329" lon="13.1790529"><ele>188.0</ele><time>2026-05-01T08:20:57.622Z</time></trkpt><trkpt lat="46.2001083" lon="13.1790841"><ele>188.0</ele><time>2026-05-01T08:20:59.623Z</time></trkpt><trkpt lat="46.200039" lon="13.1791158"><ele>188.0</ele><time>2026-05-01T08:21:00.622Z</time></trkpt><trkpt lat="46.1999678" lon="13.1791591"><ele>188.0</ele><time>2026-05-01T08:21:01.623Z</time></trkpt><trkpt lat="46.1998969" lon="13.1792184"><ele>188.0</ele><time>2026-05-01T08:21:02.623Z</time></trkpt><trkpt lat="46.1998276" lon="13.1792883"><ele>188.16666666666666</ele><time>2026-05-01T08:21:03.623Z</time></trkpt><trkpt lat="46.1997626" lon="13.1793691"><ele>188.33333333333331</ele><time>2026-05-01T08:21:04.623Z</time></trkpt><trkpt lat="46.1996994" lon="13.1794529"><ele>188.5</ele><time>2026-05-01T08:21:05.623Z</time></trkpt><trkpt lat="46.1996375" lon="13.1795442"><ele>188.66666666666666</ele><time>2026-05-01T08:21:06.624Z</time></trkpt><trkpt lat="46.1995756" lon="13.1796431"><ele>188.83333333333334</ele><time>2026-05-01T08:21:07.621Z</time></trkpt><trkpt lat="46.1995135" lon="13.1797442"><ele>189.0</ele><time>2026-05-01T08:21:08.622Z</time></trkpt><trkpt lat="46.1994485" lon="13.1798537"><ele>188.0</ele><time>2026-05-01T08:21:09.622Z</time></trkpt><trkpt lat="46.1993822" lon="13.179966"><ele>187.0</ele><time>2026-05-01T08:21:10.622Z</time></trkpt><trkpt lat="46.1993079" lon="13.1800947"><ele>186.0</ele><time>2026-05-01T08:21:11.621Z</time></trkpt><trkpt lat="46.1992294" lon="13.1802259"><ele>185.0</ele><time>2026-05-01T08:21:12.622Z</time></trkpt><trkpt lat="46.1991445" lon="13.1803757"><ele>185.0</ele><time>2026-05-01T08:21:13.622Z</time></trkpt><trkpt lat="46.1990474" lon="13.1805444"><ele>185.0</ele><time>2026-05-01T08:21:14.621Z</time></trkpt><trkpt lat="46.1989551" lon="13.180705"><ele>185.0</ele><time>2026-05-01T08:21:15.622Z</time></trkpt><trkpt lat="46.1988649" lon="13.1808568"><ele>185.0</ele><time>2026-05-01T08:21:16.623Z</time></trkpt><trkpt lat="46.1987846" lon="13.1809983"><ele>185.0</ele><time>2026-05-01T08:21:17.621Z</time></trkpt><trkpt lat="46.1987036" lon="13.1811413"><ele>185.0</ele><time>2026-05-01T08:21:18.622Z</time></trkpt><trkpt lat="46.1986209" lon="13.1812808"><ele>185.0</ele><time>2026-05-01T08:21:19.622Z</time></trkpt><trkpt lat="46.19854" lon="13.1814241"><ele>185.0</ele><time>2026-05-01T08:21:20.621Z</time></trkpt><trkpt lat="46.1984602" lon="13.1815596"><ele>185.25</ele><time>2026-05-01T08:21:21.623Z</time></trkpt><trkpt lat="46.1983778" lon="13.1816965"><ele>185.5</ele><time>2026-05-01T08:21:22.621Z</time></trkpt><trkpt lat="46.1982958" lon="13.1818361"><ele>185.75</ele><time>2026-05-01T08:21:23.622Z</time></trkpt><trkpt lat="46.1982107" lon="13.1819791"><ele>186.0</ele><time>2026-05-01T08:21:24.621Z</time></trkpt><trkpt lat="46.1981233" lon="13.1821277"><ele>186.25</ele><time>2026-05-01T08:21:25.622Z</time></trkpt><trkpt lat="46.1980405" lon="13.1822662"><ele>186.5</ele><time>2026-05-01T08:21:26.622Z</time></trkpt><trkpt lat="46.1979677" lon="13.1823974"><ele>186.75</ele><time>2026-05-01T08:21:27.621Z</time></trkpt><trkpt lat="46.1979024" lon="13.1825219"><ele>187.0</ele><time>2026-05-01T08:21:28.622Z</time></trkpt><trkpt lat="46.1978403" lon="13.1826518"><ele>186.0</ele><time>2026-05-01T08:21:29.622Z</time></trkpt><trkpt lat="46.1977771" lon="13.1827893"><ele>185.0</ele><time>2026-05-01T08:21:30.621Z</time></trkpt><trkpt lat="46.1977207" lon="13.1829397"><ele>184.0</ele><time>2026-05-01T08:21:31.622Z</time></trkpt><trkpt lat="46.1976709" lon="13.1830982"><ele>183.0</ele><time>2026-05-01T08:21:32.621Z</time></trkpt><trkpt lat="46.1976269" lon="13.1832589"><ele>183.0</ele><time>2026-05-01T08:21:33.622Z</time></trkpt><trkpt lat="46.197585" lon="13.1834239"><ele>183.0</ele><time>2026-05-01T08:21:34.621Z</time></trkpt><trkpt lat="46.1975447" lon="13.1836003"><ele>183.0</ele><time>2026-05-01T08:21:35.622Z</time></trkpt><trkpt lat="46.1975029" lon="13.1837801"><ele>183.0</ele><time>2026-05-01T08:21:36.622Z</time></trkpt><trkpt lat="46.1974609" lon="13.183958"><ele>183.25</ele><time>2026-05-01T08:21:37.622Z</time></trkpt><trkpt lat="46.1974223" lon="13.1841343"><ele>183.5</ele><time>2026-05-01T08:21:38.621Z</time></trkpt><trkpt lat="46.1973796" lon="13.1843164"><ele>183.75</ele><time>2026-05-01T08:21:39.622Z</time></trkpt><trkpt lat="46.1973375" lon="13.1844915"><ele>184.0</ele><time>2026-05-01T08:21:40.621Z</time></trkpt><trkpt lat="46.1972984" lon="13.1846545"><ele>184.0</ele><time>2026-05-01T08:21:41.621Z</time></trkpt><trkpt lat="46.1972594" lon="13.1848145"><ele>184.0</ele><time>2026-05-01T08:21:42.622Z</time></trkpt><trkpt lat="46.1972242" lon="13.184961"><ele>184.0</ele><time>2026-05-01T08:21:43.622Z</time></trkpt><trkpt lat="46.1971767" lon="13.1851084"><ele>184.0</ele><time>2026-05-01T08:21:44.623Z</time></trkpt><trkpt lat="46.1971168" lon="13.1852454"><ele>184.0</ele><time>2026-05-01T08:21:45.623Z</time></trkpt><trkpt lat="46.1970453" lon="13.1853875"><ele>184.5</ele><time>2026-05-01T08:21:46.622Z</time></trkpt><trkpt lat="46.1969698" lon="13.1855323"><ele>185.0</ele><time>2026-05-01T08:21:47.622Z</time></trkpt><trkpt lat="46.1968887" lon="13.1856713"><ele>185.5</ele><time>2026-05-01T08:21:48.622Z</time></trkpt><trkpt lat="46.1967961" lon="13.1858053"><ele>186.0</ele><time>2026-05-01T08:21:49.623Z</time></trkpt><trkpt lat="46.1966987" lon="13.1859261"><ele>186.0</ele><time>2026-05-01T08:21:50.622Z</time></trkpt><trkpt lat="46.1965951" lon="13.1860421"><ele>186.0</ele><time>2026-05-01T08:21:51.622Z</time></trkpt><trkpt lat="46.196491" lon="13.186153"><ele>186.0</ele><time>2026-05-01T08:21:52.622Z</time></trkpt><trkpt lat="46.1963887" lon="13.1862557"><ele>186.0</ele><time>2026-05-01T08:21:53.621Z</time></trkpt><trkpt lat="46.1962891" lon="13.1863597"><ele>186.0</ele><time>2026-05-01T08:21:54.621Z</time></trkpt><trkpt lat="46.1961921" lon="13.1864553"><ele>186.0</ele><time>2026-05-01T08:21:55.623Z</time></trkpt><trkpt lat="46.1960962" lon="13.1865511"><ele>186.0</ele><time>2026-05-01T08:21:56.622Z</time></trkpt><trkpt lat="46.1960017" lon="13.1866492"><ele>186.0</ele><time>2026-05-01T08:21:57.622Z</time></trkpt><trkpt lat="46.1959069" lon="13.1867472"><ele>185.8</ele><time>2026-05-01T08:21:58.622Z</time></trkpt><trkpt lat="46.1958158" lon="13.1868407"><ele>185.60000000000002</ele><time>2026-05-01T08:21:59.621Z</time></trkpt><trkpt lat="46.1957311" lon="13.1869306"><ele>185.4</ele><time>2026-05-01T08:22:00.621Z</time></trkpt><trkpt lat="46.1956481" lon="13.1870177"><ele>185.2</ele><time>2026-05-01T08:22:01.623Z</time></trkpt><trkpt lat="46.1955676" lon="13.1871008"><ele>185.0</ele><time>2026-05-01T08:22:02.622Z</time></trkpt><trkpt lat="46.1954882" lon="13.1871827"><ele>185.0</ele><time>2026-05-01T08:22:03.621Z</time></trkpt><trkpt lat="46.1954107" lon="13.1872617"><ele>185.0</ele><time>2026-05-01T08:22:04.621Z</time></trkpt><trkpt lat="46.1953346" lon="13.1873421"><ele>185.0</ele><time>2026-05-01T08:22:05.622Z</time></trkpt><trkpt lat="46.1952569" lon="13.187422"><ele>185.0</ele><time>2026-05-01T08:22:06.621Z</time></trkpt><trkpt lat="46.19518" lon="13.1875029"><ele>185.0</ele><time>2026-05-01T08:22:07.621Z</time></trkpt><trkpt lat="46.1951033" lon="13.1875853"><ele>185.2</ele><time>2026-05-01T08:22:08.621Z</time></trkpt><trkpt lat="46.1950248" lon="13.1876659"><ele>185.4</ele><time>2026-05-01T08:22:09.622Z</time></trkpt><trkpt lat="46.1949448" lon="13.1877461"><ele>185.60000000000002</ele><time>2026-05-01T08:22:10.622Z</time></trkpt><trkpt lat="46.1948644" lon="13.1878309"><ele>185.8</ele><time>2026-05-01T08:22:11.622Z</time></trkpt><trkpt lat="46.1947843" lon="13.187916"><ele>186.0</ele><time>2026-05-01T08:22:12.621Z</time></trkpt><trkpt lat="46.1946996" lon="13.1880008"><ele>185.60000000000002</ele><time>2026-05-01T08:22:13.621Z</time></trkpt><trkpt lat="46.1946125" lon="13.1880909"><ele>185.2</ele><time>2026-05-01T08:22:14.622Z</time></trkpt><trkpt lat="46.1945264" lon="13.1881839"><ele>184.8</ele><time>2026-05-01T08:22:15.622Z</time></trkpt><trkpt lat="46.194443" lon="13.1882718"><ele>184.39999999999998</ele><time>2026-05-01T08:22:16.622Z</time></trkpt><trkpt lat="46.1943618" lon="13.1883547"><ele>184.0</ele><time>2026-05-01T08:22:17.621Z</time></trkpt><trkpt lat="46.1942829" lon="13.1884361"><ele>184.0</ele><time>2026-05-01T08:22:18.622Z</time></trkpt><trkpt lat="46.194205" lon="13.1885165"><ele>184.0</ele><time>2026-05-01T08:22:19.622Z</time></trkpt><trkpt lat="46.1941292" lon="13.1885949"><ele>184.0</ele><time>2026-05-01T08:22:20.622Z</time></trkpt><trkpt lat="46.194055" lon="13.1886715"><ele>184.0</ele><time>2026-05-01T08:22:21.621Z</time></trkpt><trkpt lat="46.1939825" lon="13.1887459"><ele>184.0</ele><time>2026-05-01T08:22:22.621Z</time></trkpt><trkpt lat="46.1939121" lon="13.1888212"><ele>183.83333333333334</ele><time>2026-05-01T08:22:23.622Z</time></trkpt><trkpt lat="46.1938435" lon="13.1888964"><ele>183.66666666666669</ele><time>2026-05-01T08:22:24.622Z</time></trkpt><trkpt lat="46.1937762" lon="13.1889697"><ele>183.5</ele><time>2026-05-01T08:22:25.621Z</time></trkpt><trkpt lat="46.1937112" lon="13.1890433"><ele>183.33333333333334</ele><time>2026-05-01T08:22:26.622Z</time></trkpt><trkpt lat="46.1936481" lon="13.1891179"><ele>183.16666666666666</ele><time>2026-05-01T08:22:27.622Z</time></trkpt><trkpt lat="46.1935838" lon="13.1891915"><ele>183.0</ele><time>2026-05-01T08:22:28.623Z</time></trkpt><trkpt lat="46.1935189" lon="13.1892605"><ele>183.0</ele><time>2026-05-01T08:22:29.622Z</time></trkpt><trkpt lat="46.1934556" lon="13.1893356"><ele>183.0</ele><time>2026-05-01T08:22:30.621Z</time></trkpt><trkpt lat="46.1933908" lon="13.1894146"><ele>183.0</ele><time>2026-05-01T08:22:31.621Z</time></trkpt><trkpt lat="46.1933216" lon="13.1894816"><ele>183.0</ele><time>2026-05-01T08:22:32.622Z</time></trkpt><trkpt lat="46.1932497" lon="13.1895395"><ele>183.0</ele><time>2026-05-01T08:22:33.622Z</time></trkpt><trkpt lat="46.1931798" lon="13.1896065"><ele>183.0</ele><time>2026-05-01T08:22:34.622Z</time></trkpt><trkpt lat="46.1931153" lon="13.1896826"><ele>183.33333333333334</ele><time>2026-05-01T08:22:35.622Z</time></trkpt><trkpt lat="46.1930503" lon="13.1897568"><ele>183.66666666666666</ele><time>2026-05-01T08:22:36.623Z</time></trkpt><trkpt lat="46.1929824" lon="13.1898278"><ele>184.0</ele><time>2026-05-01T08:22:37.621Z</time></trkpt><trkpt lat="46.1929117" lon="13.1898945"><ele>184.33333333333331</ele><time>2026-05-01T08:22:38.621Z</time></trkpt><trkpt lat="46.1928358" lon="13.1899547"><ele>184.66666666666666</ele><time>2026-05-01T08:22:39.622Z</time></trkpt><trkpt lat="46.1927567" lon="13.1900089"><ele>185.0</ele><time>2026-05-01T08:22:40.623Z</time></trkpt><trkpt lat="46.1926777" lon="13.1900605"><ele>185.0</ele><time>2026-05-01T08:22:41.623Z</time></trkpt><trkpt lat="46.1925984" lon="13.190104"><ele>185.0</ele><time>2026-05-01T08:22:42.622Z</time></trkpt><trkpt lat="46.1925175" lon="13.190147"><ele>185.0</ele><time>2026-05-01T08:22:43.622Z</time></trkpt><trkpt lat="46.1924366" lon="13.190191"><ele>185.0</ele><time>2026-05-01T08:22:44.622Z</time></trkpt><trkpt lat="46.1923584" lon="13.1902381"><ele>185.0</ele><time>2026-05-01T08:22:45.622Z</time></trkpt><trkpt lat="46.192277" lon="13.1902846"><ele>185.0</ele><time>2026-05-01T08:22:46.621Z</time></trkpt><trkpt lat="46.192194" lon="13.1903277"><ele>185.0</ele><time>2026-05-01T08:22:47.621Z</time></trkpt><trkpt lat="46.1921123" lon="13.190371"><ele>185.0</ele><time>2026-05-01T08:22:48.622Z</time></trkpt><trkpt lat="46.1920331" lon="13.1904156"><ele>185.0</ele><time>2026-05-01T08:22:49.622Z</time></trkpt><trkpt lat="46.191962" lon="13.1904573"><ele>185.0</ele><time>2026-05-01T08:22:50.621Z</time></trkpt><trkpt lat="46.1919006" lon="13.1904887"><ele>185.0</ele><time>2026-05-01T08:22:51.622Z</time></trkpt><trkpt lat="46.1918169" lon="13.1905276"><ele>185.0</ele><time>2026-05-01T08:22:53.621Z</time></trkpt><trkpt lat="46.1917534" lon="13.190617"><ele>185.0</ele><time>2026-05-01T08:22:57.622Z</time></trkpt><trkpt lat="46.1917784" lon="13.1907806"><ele>185.0</ele><time>2026-05-01T08:22:59.623Z</time></trkpt><trkpt lat="46.1918065" lon="13.1908905"><ele>185.0</ele><time>2026-05-01T08:23:00.622Z</time></trkpt><trkpt lat="46.1918303" lon="13.1910076"><ele>185.0</ele><time>2026-05-01T08:23:01.622Z</time></trkpt><trkpt lat="46.1918516" lon="13.1911201"><ele>185.0</ele><time>2026-05-01T08:23:02.621Z</time></trkpt><trkpt lat="46.1918837" lon="13.191241"><ele>185.0</ele><time>2026-05-01T08:23:03.621Z</time></trkpt><trkpt lat="46.1919201" lon="13.1913805"><ele>185.0</ele><time>2026-05-01T08:23:04.622Z</time></trkpt><trkpt lat="46.1919593" lon="13.1915306"><ele>185.0</ele><time>2026-05-01T08:23:05.621Z</time></trkpt><trkpt lat="46.1920006" lon="13.1916927"><ele>185.0</ele><time>2026-05-01T08:23:06.622Z</time></trkpt><trkpt lat="46.1920447" lon="13.1918472"><ele>185.0</ele><time>2026-05-01T08:23:07.622Z</time></trkpt><trkpt lat="46.1920918" lon="13.1919929"><ele>185.5</ele><time>2026-05-01T08:23:08.622Z</time></trkpt><trkpt lat="46.1921465" lon="13.1921352"><ele>186.0</ele><time>2026-05-01T08:23:09.621Z</time></trkpt><trkpt lat="46.1922037" lon="13.1922799"><ele>186.5</ele><time>2026-05-01T08:23:10.621Z</time></trkpt><trkpt lat="46.1922655" lon="13.1924285"><ele>187.0</ele><time>2026-05-01T08:23:11.623Z</time></trkpt><trkpt lat="46.1923313" lon="13.1925789"><ele>187.25</ele><time>2026-05-01T08:23:12.623Z</time></trkpt><trkpt lat="46.1923999" lon="13.1927303"><ele>187.5</ele><time>2026-05-01T08:23:13.622Z</time></trkpt><trkpt lat="46.1924686" lon="13.1928828"><ele>187.75</ele><time>2026-05-01T08:23:14.622Z</time></trkpt><trkpt lat="46.1925346" lon="13.1930366"><ele>188.0</ele><time>2026-05-01T08:23:15.623Z</time></trkpt><trkpt lat="46.1926019" lon="13.1931956"><ele>188.75</ele><time>2026-05-01T08:23:16.622Z</time></trkpt><trkpt lat="46.1926708" lon="13.1933571"><ele>189.5</ele><time>2026-05-01T08:23:17.622Z</time></trkpt><trkpt lat="46.1927439" lon="13.1935159"><ele>190.25</ele><time>2026-05-01T08:23:18.621Z</time></trkpt><trkpt lat="46.1928116" lon="13.1936723"><ele>191.0</ele><time>2026-05-01T08:23:19.621Z</time></trkpt><trkpt lat="46.1928748" lon="13.1938205"><ele>191.0</ele><time>2026-05-01T08:23:20.622Z</time></trkpt><trkpt lat="46.1929318" lon="13.1939564"><ele>191.0</ele><time>2026-05-01T08:23:21.622Z</time></trkpt><trkpt lat="46.1929861" lon="13.1940826"><ele>191.0</ele><time>2026-05-01T08:23:22.622Z</time></trkpt><trkpt lat="46.1930419" lon="13.1941965"><ele>191.0</ele><time>2026-05-01T08:23:23.622Z</time></trkpt><trkpt lat="46.1930923" lon="13.1943023"><ele>191.0</ele><time>2026-05-01T08:23:24.621Z</time></trkpt><trkpt lat="46.1931339" lon="13.1944014"><ele>191.16666666666666</ele><time>2026-05-01T08:23:25.621Z</time></trkpt><trkpt lat="46.1931636" lon="13.1944867"><ele>191.33333333333331</ele><time>2026-05-01T08:23:26.621Z</time></trkpt><trkpt lat="46.1931695" lon="13.1946361"><ele>191.5</ele><time>2026-05-01T08:23:28.622Z</time></trkpt><trkpt lat="46.1931334" lon="13.1947222"><ele>191.66666666666666</ele><time>2026-05-01T08:23:29.622Z</time></trkpt><trkpt lat="46.1930863" lon="13.1948225"><ele>191.83333333333334</ele><time>2026-05-01T08:23:30.622Z</time></trkpt><trkpt lat="46.1930195" lon="13.1949271"><ele>192.0</ele><time>2026-05-01T08:23:31.622Z</time></trkpt><trkpt lat="46.1929346" lon="13.1950229"><ele>192.25</ele><time>2026-05-01T08:23:32.622Z</time></trkpt><trkpt lat="46.1928442" lon="13.1951163"><ele>192.5</ele><time>2026-05-01T08:23:33.622Z</time></trkpt><trkpt lat="46.1927437" lon="13.195215"><ele>192.75</ele><time>2026-05-01T08:23:34.621Z</time></trkpt><trkpt lat="46.1926322" lon="13.1953141"><ele>193.0</ele><time>2026-05-01T08:23:35.622Z</time></trkpt><trkpt lat="46.1925204" lon="13.1954053"><ele>193.0</ele><time>2026-05-01T08:23:36.623Z</time></trkpt><trkpt lat="46.1924065" lon="13.1954933"><ele>193.0</ele><time>2026-05-01T08:23:37.622Z</time></trkpt><trkpt lat="46.1922905" lon="13.1955863"><ele>193.0</ele><time>2026-05-01T08:23:38.622Z</time></trkpt><trkpt lat="46.1921713" lon="13.1956765"><ele>193.0</ele><time>2026-05-01T08:23:39.621Z</time></trkpt><trkpt lat="46.1920509" lon="13.1957646"><ele>192.5</ele><time>2026-05-01T08:23:40.623Z</time></trkpt><trkpt lat="46.1919281" lon="13.1958588"><ele>192.0</ele><time>2026-05-01T08:23:41.622Z</time></trkpt><trkpt lat="46.1918047" lon="13.1959531"><ele>191.5</ele><time>2026-05-01T08:23:42.621Z</time></trkpt><trkpt lat="46.1916832" lon="13.1960445"><ele>191.0</ele><time>2026-05-01T08:23:43.622Z</time></trkpt><trkpt lat="46.1915645" lon="13.1961385"><ele>190.5</ele><time>2026-05-01T08:23:44.621Z</time></trkpt><trkpt lat="46.1914514" lon="13.1962291"><ele>190.0</ele><time>2026-05-01T08:23:45.622Z</time></trkpt><trkpt lat="46.1913395" lon="13.196314"><ele>189.5</ele><time>2026-05-01T08:23:46.622Z</time></trkpt><trkpt lat="46.1912336" lon="13.1963925"><ele>189.0</ele><time>2026-05-01T08:23:47.622Z</time></trkpt><trkpt lat="46.1911362" lon="13.1964705"><ele>188.79999999999998</ele><time>2026-05-01T08:23:48.622Z</time></trkpt><trkpt lat="46.1910434" lon="13.1965401"><ele>188.6</ele><time>2026-05-01T08:23:49.621Z</time></trkpt><trkpt lat="46.190956" lon="13.1966087"><ele>188.4</ele><time>2026-05-01T08:23:50.621Z</time></trkpt><trkpt lat="46.1908761" lon="13.19667"><ele>188.2</ele><time>2026-05-01T08:23:51.621Z</time></trkpt><trkpt lat="46.1908018" lon="13.1967294"><ele>188.0</ele><time>2026-05-01T08:23:52.621Z</time></trkpt><trkpt lat="46.1907379" lon="13.1967852"><ele>188.0</ele><time>2026-05-01T08:23:53.621Z</time></trkpt><trkpt lat="46.1906845" lon="13.1968334"><ele>188.0</ele><time>2026-05-01T08:23:54.621Z</time></trkpt><trkpt lat="46.1905953" lon="13.1969142"><ele>188.0</ele><time>2026-05-01T08:23:56.623Z</time></trkpt><trkpt lat="46.1905348" lon="13.1969618"><ele>188.0</ele><time>2026-05-01T08:23:58.623Z</time></trkpt><trkpt lat="46.1904199" lon="13.1970633"><ele>188.0</ele><time>2026-05-01T08:24:18.621Z</time></trkpt><trkpt lat="46.1903415" lon="13.1971156"><ele>188.0</ele><time>2026-05-01T08:24:19.621Z</time></trkpt><trkpt lat="46.1902375" lon="13.1971807"><ele>188.0</ele><time>2026-05-01T08:24:20.621Z</time></trkpt><trkpt lat="46.1901214" lon="13.1972581"><ele>188.0</ele><time>2026-05-01T08:24:21.622Z</time></trkpt><trkpt lat="46.1900006" lon="13.1973397"><ele>188.0</ele><time>2026-05-01T08:24:22.621Z</time></trkpt><trkpt lat="46.1898643" lon="13.1974407"><ele>188.0</ele><time>2026-05-01T08:24:23.621Z</time></trkpt><trkpt lat="46.1897308" lon="13.1975479"><ele>188.0</ele><time>2026-05-01T08:24:24.622Z</time></trkpt><trkpt lat="46.1895852" lon="13.1976624"><ele>188.0</ele><time>2026-05-01T08:24:25.622Z</time></trkpt><trkpt lat="46.1894274" lon="13.1977808"><ele>188.0</ele><time>2026-05-01T08:24:26.621Z</time></trkpt><trkpt lat="46.1892717" lon="13.1978963"><ele>188.0</ele><time>2026-05-01T08:24:27.622Z</time></trkpt><trkpt lat="46.189107" lon="13.1980165"><ele>188.0</ele><time>2026-05-01T08:24:28.621Z</time></trkpt><trkpt lat="46.1889351" lon="13.1981482"><ele>187.0</ele><time>2026-05-01T08:24:29.623Z</time></trkpt><trkpt lat="46.1887748" lon="13.1982793"><ele>186.0</ele><time>2026-05-01T08:24:30.623Z</time></trkpt><trkpt lat="46.1886181" lon="13.1984101"><ele>185.0</ele><time>2026-05-01T08:24:31.621Z</time></trkpt><trkpt lat="46.1884666" lon="13.198542"><ele>185.0</ele><time>2026-05-01T08:24:32.622Z</time></trkpt><trkpt lat="46.1883168" lon="13.1986726"><ele>185.0</ele><time>2026-05-01T08:24:33.621Z</time></trkpt><trkpt lat="46.1881723" lon="13.1988039"><ele>185.0</ele><time>2026-05-01T08:24:34.622Z</time></trkpt><trkpt lat="46.1880304" lon="13.1989345"><ele>185.33333333333331</ele><time>2026-05-01T08:24:35.621Z</time></trkpt><trkpt lat="46.1878845" lon="13.1990612"><ele>185.66666666666666</ele><time>2026-05-01T08:24:36.622Z</time></trkpt><trkpt lat="46.1877434" lon="13.1991896"><ele>186.0</ele><time>2026-05-01T08:24:37.622Z</time></trkpt><trkpt lat="46.1875961" lon="13.1993158"><ele>186.0</ele><time>2026-05-01T08:24:38.621Z</time></trkpt><trkpt lat="46.1874544" lon="13.1994429"><ele>186.0</ele><time>2026-05-01T08:24:39.621Z</time></trkpt><trkpt lat="46.1873092" lon="13.1995622"><ele>186.0</ele><time>2026-05-01T08:24:40.621Z</time></trkpt><trkpt lat="46.1871634" lon="13.1996774"><ele>186.0</ele><time>2026-05-01T08:24:41.621Z</time></trkpt><trkpt lat="46.1870162" lon="13.1997867"><ele>186.0</ele><time>2026-05-01T08:24:42.622Z</time></trkpt><trkpt lat="46.1868669" lon="13.1998873"><ele>186.0</ele><time>2026-05-01T08:24:43.623Z</time></trkpt><trkpt lat="46.1867133" lon="13.1999873"><ele>186.0</ele><time>2026-05-01T08:24:44.621Z</time></trkpt><trkpt lat="46.1865603" lon="13.2000822"><ele>186.0</ele><time>2026-05-01T08:24:45.622Z</time></trkpt><trkpt lat="46.1864068" lon="13.2001752"><ele>186.0</ele><time>2026-05-01T08:24:46.623Z</time></trkpt><trkpt lat="46.1862542" lon="13.2002734"><ele>185.33333333333334</ele><time>2026-05-01T08:24:47.623Z</time></trkpt><trkpt lat="46.1861033" lon="13.2003648"><ele>184.66666666666669</ele><time>2026-05-01T08:24:48.622Z</time></trkpt><trkpt lat="46.1859517" lon="13.2004637"><ele>184.0</ele><time>2026-05-01T08:24:49.621Z</time></trkpt><trkpt lat="46.1857998" lon="13.2005668"><ele>184.66666666666669</ele><time>2026-05-01T08:24:50.621Z</time></trkpt><trkpt lat="46.1856465" lon="13.200665"><ele>185.33333333333334</ele><time>2026-05-01T08:24:51.622Z</time></trkpt><trkpt lat="46.1854908" lon="13.2007657"><ele>186.0</ele><time>2026-05-01T08:24:52.623Z</time></trkpt><trkpt lat="46.1853298" lon="13.2008651"><ele>186.0</ele><time>2026-05-01T08:24:53.622Z</time></trkpt><trkpt lat="46.1851729" lon="13.2009623"><ele>186.0</ele><time>2026-05-01T08:24:54.621Z</time></trkpt><trkpt lat="46.1850148" lon="13.2010662"><ele>186.0</ele><time>2026-05-01T08:24:55.621Z</time></trkpt><trkpt lat="46.1848507" lon="13.2011676"><ele>185.66666666666666</ele><time>2026-05-01T08:24:56.622Z</time></trkpt><trkpt lat="46.1846923" lon="13.2012716"><ele>185.33333333333331</ele><time>2026-05-01T08:24:57.621Z</time></trkpt><trkpt lat="46.1845292" lon="13.2013717"><ele>185.0</ele><time>2026-05-01T08:24:58.621Z</time></trkpt><trkpt lat="46.1843642" lon="13.2014742"><ele>185.0</ele><time>2026-05-01T08:24:59.622Z</time></trkpt><trkpt lat="46.1842006" lon="13.2015767"><ele>185.0</ele><time>2026-05-01T08:25:00.621Z</time></trkpt><trkpt lat="46.1840341" lon="13.2016792"><ele>185.0</ele><time>2026-05-01T08:25:01.622Z</time></trkpt><trkpt lat="46.1838679" lon="13.2017868"><ele>185.0</ele><time>2026-05-01T08:25:02.623Z</time></trkpt><trkpt lat="46.183703" lon="13.2018927"><ele>185.0</ele><time>2026-05-01T08:25:03.621Z</time></trkpt><trkpt lat="46.1835369" lon="13.2019999"><ele>185.0</ele><time>2026-05-01T08:25:04.621Z</time></trkpt><trkpt lat="46.183371" lon="13.2021055"><ele>185.0</ele><time>2026-05-01T08:25:05.621Z</time></trkpt><trkpt lat="46.1832048" lon="13.2022176"><ele>185.0</ele><time>2026-05-01T08:25:06.622Z</time></trkpt><trkpt lat="46.1830372" lon="13.2023279"><ele>185.0</ele><time>2026-05-01T08:25:07.621Z</time></trkpt><trkpt lat="46.1828692" lon="13.2024356"><ele>185.0</ele><time>2026-05-01T08:25:08.621Z</time></trkpt><trkpt lat="46.1827006" lon="13.2025468"><ele>185.0</ele><time>2026-05-01T08:25:09.621Z</time></trkpt><trkpt lat="46.1825346" lon="13.2026507"><ele>185.0</ele><time>2026-05-01T08:25:10.621Z</time></trkpt><trkpt lat="46.1823824" lon="13.2027531"><ele>183.25</ele><time>2026-05-01T08:25:11.622Z</time></trkpt><trkpt lat="46.1822409" lon="13.2028476"><ele>181.5</ele><time>2026-05-01T08:25:12.621Z</time></trkpt><trkpt lat="46.182107" lon="13.2029374"><ele>179.75</ele><time>2026-05-01T08:25:13.622Z</time></trkpt><trkpt lat="46.1819788" lon="13.2030225"><ele>178.0</ele><time>2026-05-01T08:25:14.623Z</time></trkpt><trkpt lat="46.1818628" lon="13.2031012"><ele>178.25</ele><time>2026-05-01T08:25:15.623Z</time></trkpt><trkpt lat="46.1817521" lon="13.2031737"><ele>178.5</ele><time>2026-05-01T08:25:16.623Z</time></trkpt><trkpt lat="46.1816477" lon="13.2032409"><ele>178.75</ele><time>2026-05-01T08:25:17.622Z</time></trkpt><trkpt lat="46.1815462" lon="13.2033077"><ele>179.0</ele><time>2026-05-01T08:25:18.621Z</time></trkpt><trkpt lat="46.1814506" lon="13.2033678"><ele>179.16666666666666</ele><time>2026-05-01T08:25:19.622Z</time></trkpt><trkpt lat="46.1813648" lon="13.2034247"><ele>179.33333333333331</ele><time>2026-05-01T08:25:20.621Z</time></trkpt><trkpt lat="46.1812825" lon="13.2034764"><ele>179.5</ele><time>2026-05-01T08:25:21.622Z</time></trkpt><trkpt lat="46.1812029" lon="13.2035229"><ele>179.66666666666666</ele><time>2026-05-01T08:25:22.621Z</time></trkpt><trkpt lat="46.1811315" lon="13.2035731"><ele>179.83333333333334</ele><time>2026-05-01T08:25:23.621Z</time></trkpt><trkpt lat="46.1810575" lon="13.2036242"><ele>180.0</ele><time>2026-05-01T08:25:24.621Z</time></trkpt><trkpt lat="46.1809895" lon="13.2036726"><ele>180.0</ele><time>2026-05-01T08:25:25.621Z</time></trkpt><trkpt lat="46.1809269" lon="13.2037197"><ele>180.0</ele><time>2026-05-01T08:25:26.622Z</time></trkpt><trkpt lat="46.180865" lon="13.2037636"><ele>180.0</ele><time>2026-05-01T08:25:27.621Z</time></trkpt><trkpt lat="46.1808057" lon="13.2038084"><ele>180.0</ele><time>2026-05-01T08:25:28.621Z</time></trkpt><trkpt lat="46.180714" lon="13.20387"><ele>180.0</ele><time>2026-05-01T08:25:30.621Z</time></trkpt><trkpt lat="46.180651" lon="13.2039095"><ele>180.0</ele><time>2026-05-01T08:25:33.622Z</time></trkpt><trkpt lat="46.1805792" lon="13.2039742"><ele>179.8</ele><time>2026-05-01T08:25:42.622Z</time></trkpt><trkpt lat="46.1805011" lon="13.2040792"><ele>179.6</ele><time>2026-05-01T08:25:44.623Z</time></trkpt><trkpt lat="46.1805144" lon="13.2042153"><ele>179.39999999999998</ele><time>2026-05-01T08:25:46.621Z</time></trkpt><trkpt lat="46.180599" lon="13.2043637"><ele>179.2</ele><time>2026-05-01T08:25:48.622Z</time></trkpt><trkpt lat="46.1806431" lon="13.2044531"><ele>179.0</ele><time>2026-05-01T08:25:49.622Z</time></trkpt><trkpt lat="46.1806921" lon="13.2045317"><ele>179.39999999999998</ele><time>2026-05-01T08:25:50.622Z</time></trkpt><trkpt lat="46.1807264" lon="13.2046384"><ele>179.8</ele><time>2026-05-01T08:25:51.622Z</time></trkpt><trkpt lat="46.1807544" lon="13.2047705"><ele>180.2</ele><time>2026-05-01T08:25:52.621Z</time></trkpt><trkpt lat="46.1807806" lon="13.204892"><ele>180.60000000000002</ele><time>2026-05-01T08:25:53.621Z</time></trkpt><trkpt lat="46.1807992" lon="13.2050232"><ele>181.0</ele><time>2026-05-01T08:25:54.622Z</time></trkpt><trkpt lat="46.1808172" lon="13.2051596"><ele>181.0</ele><time>2026-05-01T08:25:55.621Z</time></trkpt><trkpt lat="46.1808393" lon="13.2052948"><ele>181.0</ele><time>2026-05-01T08:25:56.622Z</time></trkpt><trkpt lat="46.1808595" lon="13.2054415"><ele>181.0</ele><time>2026-05-01T08:25:57.621Z</time></trkpt><trkpt lat="46.1808844" lon="13.2055897"><ele>181.0</ele><time>2026-05-01T08:25:58.622Z</time></trkpt><trkpt lat="46.1809089" lon="13.2057421"><ele>181.0</ele><time>2026-05-01T08:25:59.621Z</time></trkpt><trkpt lat="46.1809317" lon="13.2058883"><ele>181.0</ele><time>2026-05-01T08:26:00.621Z</time></trkpt><trkpt lat="46.1809583" lon="13.2060302"><ele>181.0</ele><time>2026-05-01T08:26:01.621Z</time></trkpt><trkpt lat="46.1809818" lon="13.2061727"><ele>181.0</ele><time>2026-05-01T08:26:02.621Z</time></trkpt><trkpt lat="46.1810058" lon="13.2063107"><ele>181.0</ele><time>2026-05-01T08:26:03.621Z</time></trkpt><trkpt lat="46.1810308" lon="13.206443"><ele>181.0</ele><time>2026-05-01T08:26:04.622Z</time></trkpt><trkpt lat="46.1810517" lon="13.2065527"><ele>181.33333333333334</ele><time>2026-05-01T08:26:05.623Z</time></trkpt><trkpt lat="46.1810836" lon="13.2066709"><ele>181.66666666666669</ele><time>2026-05-01T08:26:07.623Z</time></trkpt><trkpt lat="46.1810961" lon="13.2067625"><ele>182.0</ele><time>2026-05-01T08:26:10.621Z</time></trkpt><trkpt lat="46.1810822" lon="13.2068934"><ele>182.33333333333334</ele><time>2026-05-01T08:26:12.621Z</time></trkpt><trkpt lat="46.181037" lon="13.2070701"><ele>182.66666666666666</ele><time>2026-05-01T08:26:14.622Z</time></trkpt><trkpt lat="46.1810171" lon="13.2071637"><ele>183.0</ele><time>2026-05-01T08:26:15.623Z</time></trkpt><trkpt lat="46.1810292" lon="13.2073361"><ele>183.8</ele><time>2026-05-01T08:26:17.621Z</time></trkpt><trkpt lat="46.1810863" lon="13.2074936"><ele>184.60000000000002</ele><time>2026-05-01T08:26:19.621Z</time></trkpt><trkpt lat="46.1811241" lon="13.2075665"><ele>185.39999999999998</ele><time>2026-05-01T08:26:20.621Z</time></trkpt><trkpt lat="46.1812378" lon="13.207653"><ele>186.2</ele><time>2026-05-01T08:26:22.622Z</time></trkpt><trkpt lat="46.1813104" lon="13.207672"><ele>187.0</ele><time>2026-05-01T08:26:23.622Z</time></trkpt><trkpt lat="46.1813812" lon="13.2076901"><ele>187.0</ele><time>2026-05-01T08:26:24.622Z</time></trkpt><trkpt lat="46.1814719" lon="13.2076938"><ele>187.0</ele><time>2026-05-01T08:26:25.622Z</time></trkpt><trkpt lat="46.1815528" lon="13.2077019"><ele>187.0</ele><time>2026-05-01T08:26:26.622Z</time></trkpt><trkpt lat="46.1816506" lon="13.2077174"><ele>187.0</ele><time>2026-05-01T08:26:27.622Z</time></trkpt><trkpt lat="46.181746" lon="13.2077223"><ele>187.0</ele><time>2026-05-01T08:26:28.622Z</time></trkpt><trkpt lat="46.1818364" lon="13.2077358"><ele>188.8</ele><time>2026-05-01T08:26:29.622Z</time></trkpt><trkpt lat="46.1819299" lon="13.2077463"><ele>190.6</ele><time>2026-05-01T08:26:30.621Z</time></trkpt><trkpt lat="46.1820175" lon="13.2077983"><ele>192.4</ele><time>2026-05-01T08:26:31.622Z</time></trkpt><trkpt lat="46.1821085" lon="13.2078431"><ele>194.20000000000002</ele><time>2026-05-01T08:26:32.623Z</time></trkpt><trkpt lat="46.1822091" lon="13.2078971"><ele>196.0</ele><time>2026-05-01T08:26:33.622Z</time></trkpt><trkpt lat="46.182299" lon="13.2079661"><ele>196.8</ele><time>2026-05-01T08:26:34.623Z</time></trkpt><trkpt lat="46.1823878" lon="13.2080416"><ele>197.60000000000002</ele><time>2026-05-01T08:26:35.622Z</time></trkpt><trkpt lat="46.1824806" lon="13.2081251"><ele>198.4</ele><time>2026-05-01T08:26:36.623Z</time></trkpt><trkpt lat="46.182565" lon="13.2082205"><ele>199.2</ele><time>2026-05-01T08:26:37.621Z</time></trkpt><trkpt lat="46.1826364" lon="13.2083095"><ele>200.0</ele><time>2026-05-01T08:26:38.622Z</time></trkpt><trkpt lat="46.1827039" lon="13.2084028"><ele>200.0</ele><time>2026-05-01T08:26:39.622Z</time></trkpt><trkpt lat="46.1827572" lon="13.2085101"><ele>200.0</ele><time>2026-05-01T08:26:40.622Z</time></trkpt><trkpt lat="46.1828105" lon="13.2086263"><ele>200.0</ele><time>2026-05-01T08:26:41.621Z</time></trkpt><trkpt lat="46.1828635" lon="13.2087414"><ele>200.0</ele><time>2026-05-01T08:26:42.621Z</time></trkpt><trkpt lat="46.1829165" lon="13.2088581"><ele>200.0</ele><time>2026-05-01T08:26:43.622Z</time></trkpt><trkpt lat="46.1829639" lon="13.2089711"><ele>200.50000000000003</ele><time>2026-05-01T08:26:44.621Z</time></trkpt><trkpt lat="46.1830136" lon="13.2090797"><ele>201.0</ele><time>2026-05-01T08:26:45.621Z</time></trkpt><trkpt lat="46.1830735" lon="13.2091692"><ele>201.5</ele><time>2026-05-01T08:26:46.621Z</time></trkpt><trkpt lat="46.1831386" lon="13.2092546"><ele>202.0</ele><time>2026-05-01T08:26:47.622Z</time></trkpt><trkpt lat="46.1832244" lon="13.2093177"><ele>202.50000000000003</ele><time>2026-05-01T08:26:48.621Z</time></trkpt><trkpt lat="46.1833037" lon="13.2093492"><ele>203.0</ele><time>2026-05-01T08:26:49.621Z</time></trkpt><trkpt lat="46.1833942" lon="13.2093533"><ele>203.0</ele><time>2026-05-01T08:26:50.623Z</time></trkpt><trkpt lat="46.1834717" lon="13.2093558"><ele>203.0</ele><time>2026-05-01T08:26:51.623Z</time></trkpt><trkpt lat="46.1835581" lon="13.2093723"><ele>203.0</ele><time>2026-05-01T08:26:52.623Z</time></trkpt><trkpt lat="46.1836635" lon="13.2093975"><ele>203.0</ele><time>2026-05-01T08:26:53.62Z</time></trkpt><trkpt lat="46.1837586" lon="13.2094156"><ele>203.0</ele><time>2026-05-01T08:26:54.62Z</time></trkpt><trkpt lat="46.1838541" lon="13.20938"><ele>203.0</ele><time>2026-05-01T08:26:55.621Z</time></trkpt><trkpt lat="46.1839524" lon="13.209365"><ele>203.0</ele><time>2026-05-01T08:26:56.621Z</time></trkpt><trkpt lat="46.1840652" lon="13.2093155"><ele>203.0</ele><time>2026-05-01T08:26:57.62Z</time></trkpt><trkpt lat="46.1841559" lon="13.209244"><ele>203.0</ele><time>2026-05-01T08:26:58.62Z</time></trkpt><trkpt lat="46.1842722" lon="13.2091893"><ele>203.0</ele><time>2026-05-01T08:26:59.62Z</time></trkpt><trkpt lat="46.1843649" lon="13.2091337"><ele>204.0</ele><time>2026-05-01T08:27:00.621Z</time></trkpt><trkpt lat="46.184474" lon="13.2090457"><ele>205.0</ele><time>2026-05-01T08:27:01.621Z</time></trkpt><trkpt lat="46.1846015" lon="13.2089596"><ele>206.0</ele><time>2026-05-01T08:27:02.621Z</time></trkpt><trkpt lat="46.1847312" lon="13.2088884"><ele>207.0</ele><time>2026-05-01T08:27:03.62Z</time></trkpt><trkpt lat="46.1848481" lon="13.2088144"><ele>207.0</ele><time>2026-05-01T08:27:04.621Z</time></trkpt><trkpt lat="46.1849539" lon="13.208756"><ele>207.0</ele><time>2026-05-01T08:27:05.62Z</time></trkpt><trkpt lat="46.1850533" lon="13.20871"><ele>207.0</ele><time>2026-05-01T08:27:06.621Z</time></trkpt><trkpt lat="46.1851457" lon="13.2086613"><ele>207.0</ele><time>2026-05-01T08:27:07.621Z</time></trkpt><trkpt lat="46.185245" lon="13.2086233"><ele>207.0</ele><time>2026-05-01T08:27:08.62Z</time></trkpt><trkpt lat="46.1853377" lon="13.2086067"><ele>207.0</ele><time>2026-05-01T08:27:09.62Z</time></trkpt><trkpt lat="46.1854296" lon="13.2086055"><ele>207.0</ele><time>2026-05-01T08:27:10.62Z</time></trkpt><trkpt lat="46.1855256" lon="13.2086041"><ele>207.0</ele><time>2026-05-01T08:27:11.621Z</time></trkpt><trkpt lat="46.1856147" lon="13.2086105"><ele>207.0</ele><time>2026-05-01T08:27:12.62Z</time></trkpt><trkpt lat="46.1857005" lon="13.2086203"><ele>207.0</ele><time>2026-05-01T08:27:13.622Z</time></trkpt><trkpt lat="46.1857858" lon="13.2086412"><ele>207.39999999999998</ele><time>2026-05-01T08:27:14.62Z</time></trkpt><trkpt lat="46.1858811" lon="13.2086549"><ele>207.79999999999998</ele><time>2026-05-01T08:27:15.622Z</time></trkpt><trkpt lat="46.1859764" lon="13.2086741"><ele>208.2</ele><time>2026-05-01T08:27:16.622Z</time></trkpt><trkpt lat="46.1860739" lon="13.2087011"><ele>208.6</ele><time>2026-05-01T08:27:17.622Z</time></trkpt><trkpt lat="46.1861713" lon="13.2087307"><ele>209.0</ele><time>2026-05-01T08:27:18.621Z</time></trkpt><trkpt lat="46.1862798" lon="13.2087556"><ele>209.0</ele><time>2026-05-01T08:27:19.621Z</time></trkpt><trkpt lat="46.1863849" lon="13.2087807"><ele>209.0</ele><time>2026-05-01T08:27:20.621Z</time></trkpt><trkpt lat="46.1864949" lon="13.2088042"><ele>209.0</ele><time>2026-05-01T08:27:21.622Z</time></trkpt><trkpt lat="46.1866146" lon="13.2088035"><ele>209.0</ele><time>2026-05-01T08:27:22.62Z</time></trkpt><trkpt lat="46.1867459" lon="13.2088024"><ele>211.0</ele><time>2026-05-01T08:27:23.62Z</time></trkpt><trkpt lat="46.1868505" lon="13.2087865"><ele>213.0</ele><time>2026-05-01T08:27:24.621Z</time></trkpt><trkpt lat="46.1869608" lon="13.2087852"><ele>214.99999999999997</ele><time>2026-05-01T08:27:25.622Z</time></trkpt><trkpt lat="46.1870668" lon="13.2087996"><ele>217.0</ele><time>2026-05-01T08:27:26.62Z</time></trkpt><trkpt lat="46.1871503" lon="13.2088212"><ele>219.0</ele><time>2026-05-01T08:27:27.621Z</time></trkpt><trkpt lat="46.1872347" lon="13.208852"><ele>219.0</ele><time>2026-05-01T08:27:28.622Z</time></trkpt><trkpt lat="46.1873153" lon="13.2088991"><ele>219.0</ele><time>2026-05-01T08:27:29.622Z</time></trkpt><trkpt lat="46.1873919" lon="13.2089551"><ele>219.0</ele><time>2026-05-01T08:27:30.62Z</time></trkpt><trkpt lat="46.1874706" lon="13.2090132"><ele>219.0</ele><time>2026-05-01T08:27:31.622Z</time></trkpt><trkpt lat="46.1875496" lon="13.2090797"><ele>219.0</ele><time>2026-05-01T08:27:32.62Z</time></trkpt><trkpt lat="46.1876294" lon="13.2091478"><ele>219.0</ele><time>2026-05-01T08:27:33.621Z</time></trkpt><trkpt lat="46.18771" lon="13.2092135"><ele>217.2</ele><time>2026-05-01T08:27:34.622Z</time></trkpt><trkpt lat="46.1877967" lon="13.2092808"><ele>215.39999999999998</ele><time>2026-05-01T08:27:35.622Z</time></trkpt><trkpt lat="46.1878798" lon="13.2093413"><ele>213.6</ele><time>2026-05-01T08:27:36.622Z</time></trkpt><trkpt lat="46.1879657" lon="13.209394"><ele>211.8</ele><time>2026-05-01T08:27:37.621Z</time></trkpt><trkpt lat="46.1880561" lon="13.2094341"><ele>210.0</ele><time>2026-05-01T08:27:38.621Z</time></trkpt><trkpt lat="46.1881264" lon="13.2094832"><ele>210.66666666666666</ele><time>2026-05-01T08:27:39.621Z</time></trkpt><trkpt lat="46.18821" lon="13.2095189"><ele>211.33333333333331</ele><time>2026-05-01T08:27:40.62Z</time></trkpt><trkpt lat="46.1882797" lon="13.2095544"><ele>212.0</ele><time>2026-05-01T08:27:41.621Z</time></trkpt><trkpt lat="46.1883584" lon="13.209588"><ele>212.66666666666666</ele><time>2026-05-01T08:27:42.621Z</time></trkpt><trkpt lat="46.1884399" lon="13.2096274"><ele>213.33333333333331</ele><time>2026-05-01T08:27:43.621Z</time></trkpt><trkpt lat="46.1885161" lon="13.209666"><ele>214.0</ele><time>2026-05-01T08:27:44.62Z</time></trkpt><trkpt lat="46.1885982" lon="13.2097072"><ele>214.0</ele><time>2026-05-01T08:27:45.621Z</time></trkpt><trkpt lat="46.1886762" lon="13.2097559"><ele>213.99999999999997</ele><time>2026-05-01T08:27:46.621Z</time></trkpt><trkpt lat="46.1887829" lon="13.2098085"><ele>213.99999999999997</ele><time>2026-05-01T08:27:47.62Z</time></trkpt><trkpt lat="46.1888624" lon="13.2098587"><ele>214.0</ele><time>2026-05-01T08:27:48.621Z</time></trkpt><trkpt lat="46.1889464" lon="13.2099039"><ele>214.0</ele><time>2026-05-01T08:27:49.62Z</time></trkpt><trkpt lat="46.1890319" lon="13.2099467"><ele>214.2</ele><time>2026-05-01T08:27:50.621Z</time></trkpt><trkpt lat="46.1891205" lon="13.2099841"><ele>214.39999999999998</ele><time>2026-05-01T08:27:51.621Z</time></trkpt><trkpt lat="46.189208" lon="13.2100192"><ele>214.6</ele><time>2026-05-01T08:27:52.622Z</time></trkpt><trkpt lat="46.1893009" lon="13.2100634"><ele>214.8</ele><time>2026-05-01T08:27:53.62Z</time></trkpt><trkpt lat="46.1893883" lon="13.2101116"><ele>215.0</ele><time>2026-05-01T08:27:54.621Z</time></trkpt><trkpt lat="46.1894667" lon="13.2101575"><ele>215.0</ele><time>2026-05-01T08:27:55.62Z</time></trkpt><trkpt lat="46.1895453" lon="13.2101977"><ele>215.0</ele><time>2026-05-01T08:27:56.62Z</time></trkpt><trkpt lat="46.1896283" lon="13.2102424"><ele>215.0</ele><time>2026-05-01T08:27:57.622Z</time></trkpt><trkpt lat="46.1897175" lon="13.2102935"><ele>215.0</ele><time>2026-05-01T08:27:58.621Z</time></trkpt><trkpt lat="46.1898113" lon="13.210322"><ele>215.0</ele><time>2026-05-01T08:27:59.62Z</time></trkpt><trkpt lat="46.189896" lon="13.210357"><ele>214.66666666666669</ele><time>2026-05-01T08:28:00.621Z</time></trkpt><trkpt lat="46.1899672" lon="13.2103846"><ele>214.33333333333334</ele><time>2026-05-01T08:28:01.62Z</time></trkpt><trkpt lat="46.1900376" lon="13.2104158"><ele>214.0</ele><time>2026-05-01T08:28:02.621Z</time></trkpt><trkpt lat="46.1900986" lon="13.2104539"><ele>213.66666666666669</ele><time>2026-05-01T08:28:03.621Z</time></trkpt><trkpt lat="46.1901884" lon="13.2105231"><ele>213.33333333333334</ele><time>2026-05-01T08:28:05.621Z</time></trkpt><trkpt lat="46.1902531" lon="13.2106345"><ele>213.0</ele><time>2026-05-01T08:28:07.621Z</time></trkpt><trkpt lat="46.1903062" lon="13.2107648"><ele>213.0</ele><time>2026-05-01T08:28:09.62Z</time></trkpt><trkpt lat="46.190366" lon="13.2109223"><ele>213.0</ele><time>2026-05-01T08:28:11.621Z</time></trkpt><trkpt lat="46.1903911" lon="13.2110184"><ele>213.0</ele><time>2026-05-01T08:28:12.622Z</time></trkpt><trkpt lat="46.1904113" lon="13.2111173"><ele>213.0</ele><time>2026-05-01T08:28:13.621Z</time></trkpt><trkpt lat="46.1904287" lon="13.2112182"><ele>213.0</ele><time>2026-05-01T08:28:14.62Z</time></trkpt><trkpt lat="46.1904524" lon="13.2113115"><ele>213.0</ele><time>2026-05-01T08:28:15.621Z</time></trkpt><trkpt lat="46.1904722" lon="13.2114051"><ele>212.99999999999997</ele><time>2026-05-01T08:28:16.62Z</time></trkpt><trkpt lat="46.1904943" lon="13.2114995"><ele>213.0</ele><time>2026-05-01T08:28:17.621Z</time></trkpt><trkpt lat="46.1905169" lon="13.211592"><ele>213.0</ele><time>2026-05-01T08:28:18.62Z</time></trkpt><trkpt lat="46.1905467" lon="13.2116773"><ele>213.0</ele><time>2026-05-01T08:28:19.622Z</time></trkpt><trkpt lat="46.1905938" lon="13.2117626"><ele>213.0</ele><time>2026-05-01T08:28:20.62Z</time></trkpt><trkpt lat="46.1906512" lon="13.2118545"><ele>212.99999999999997</ele><time>2026-05-01T08:28:21.621Z</time></trkpt><trkpt lat="46.1907057" lon="13.2119454"><ele>213.0</ele><time>2026-05-01T08:28:22.621Z</time></trkpt><trkpt lat="46.1907622" lon="13.2120292"><ele>213.33333333333334</ele><time>2026-05-01T08:28:23.621Z</time></trkpt><trkpt lat="46.1908187" lon="13.2121147"><ele>213.66666666666669</ele><time>2026-05-01T08:28:24.621Z</time></trkpt><trkpt lat="46.1908797" lon="13.2122034"><ele>214.0</ele><time>2026-05-01T08:28:25.621Z</time></trkpt><trkpt lat="46.1909323" lon="13.2122924"><ele>214.33333333333334</ele><time>2026-05-01T08:28:26.62Z</time></trkpt><trkpt lat="46.1909845" lon="13.212385"><ele>214.66666666666669</ele><time>2026-05-01T08:28:27.62Z</time></trkpt><trkpt lat="46.1910371" lon="13.2124757"><ele>215.0</ele><time>2026-05-01T08:28:28.622Z</time></trkpt><trkpt lat="46.1910908" lon="13.2125735"><ele>215.66666666666669</ele><time>2026-05-01T08:28:29.62Z</time></trkpt><trkpt lat="46.1911465" lon="13.2126771"><ele>216.33333333333334</ele><time>2026-05-01T08:28:30.621Z</time></trkpt><trkpt lat="46.1912049" lon="13.212775"><ele>217.0</ele><time>2026-05-01T08:28:31.622Z</time></trkpt><trkpt lat="46.1912647" lon="13.2128671"><ele>217.66666666666669</ele><time>2026-05-01T08:28:32.62Z</time></trkpt><trkpt lat="46.1913214" lon="13.2129565"><ele>218.33333333333334</ele><time>2026-05-01T08:28:33.621Z</time></trkpt><trkpt lat="46.1913753" lon="13.2130458"><ele>219.0</ele><time>2026-05-01T08:28:34.622Z</time></trkpt><trkpt lat="46.1914296" lon="13.2131362"><ele>219.0</ele><time>2026-05-01T08:28:35.621Z</time></trkpt><trkpt lat="46.191485" lon="13.213228"><ele>219.0</ele><time>2026-05-01T08:28:36.62Z</time></trkpt><trkpt lat="46.1915442" lon="13.2133212"><ele>219.0</ele><time>2026-05-01T08:28:37.621Z</time></trkpt><trkpt lat="46.191607" lon="13.2134145"><ele>219.0</ele><time>2026-05-01T08:28:38.62Z</time></trkpt><trkpt lat="46.1916697" lon="13.2135141"><ele>219.0</ele><time>2026-05-01T08:28:39.62Z</time></trkpt><trkpt lat="46.1917297" lon="13.2136155"><ele>219.0</ele><time>2026-05-01T08:28:40.62Z</time></trkpt><trkpt lat="46.1917875" lon="13.2137198"><ele>218.83333333333334</ele><time>2026-05-01T08:28:41.621Z</time></trkpt><trkpt lat="46.1918356" lon="13.2138324"><ele>218.66666666666669</ele><time>2026-05-01T08:28:42.621Z</time></trkpt><trkpt lat="46.1918746" lon="13.2139491"><ele>218.5</ele><time>2026-05-01T08:28:43.62Z</time></trkpt><trkpt lat="46.1919036" lon="13.2140687"><ele>218.33333333333334</ele><time>2026-05-01T08:28:44.62Z</time></trkpt><trkpt lat="46.1919202" lon="13.2141916"><ele>218.16666666666669</ele><time>2026-05-01T08:28:45.62Z</time></trkpt><trkpt lat="46.1919211" lon="13.2143156"><ele>218.0</ele><time>2026-05-01T08:28:46.62Z</time></trkpt><trkpt lat="46.1919105" lon="13.2144408"><ele>218.50000000000003</ele><time>2026-05-01T08:28:47.621Z</time></trkpt><trkpt lat="46.1918973" lon="13.2145664"><ele>219.0</ele><time>2026-05-01T08:28:48.621Z</time></trkpt><trkpt lat="46.1918845" lon="13.2146904"><ele>219.5</ele><time>2026-05-01T08:28:49.622Z</time></trkpt><trkpt lat="46.1918715" lon="13.2148064"><ele>220.0</ele><time>2026-05-01T08:28:50.621Z</time></trkpt><trkpt lat="46.1918593" lon="13.2149233"><ele>220.50000000000003</ele><time>2026-05-01T08:28:51.621Z</time></trkpt><trkpt lat="46.1918531" lon="13.2150445"><ele>221.0</ele><time>2026-05-01T08:28:52.62Z</time></trkpt><trkpt lat="46.191854" lon="13.2151664"><ele>221.00000000000003</ele><time>2026-05-01T08:28:53.62Z</time></trkpt><trkpt lat="46.1918547" lon="13.2152892"><ele>221.0</ele><time>2026-05-01T08:28:54.621Z</time></trkpt><trkpt lat="46.1918484" lon="13.2154125"><ele>221.0</ele><time>2026-05-01T08:28:55.62Z</time></trkpt><trkpt lat="46.1918446" lon="13.2155397"><ele>221.0</ele><time>2026-05-01T08:28:56.62Z</time></trkpt><trkpt lat="46.1918474" lon="13.2156689"><ele>221.00000000000003</ele><time>2026-05-01T08:28:57.621Z</time></trkpt><trkpt lat="46.1918533" lon="13.2157961"><ele>221.0</ele><time>2026-05-01T08:28:58.621Z</time></trkpt><trkpt lat="46.1918614" lon="13.2159187"><ele>221.00000000000003</ele><time>2026-05-01T08:28:59.622Z</time></trkpt><trkpt lat="46.1918693" lon="13.2160297"><ele>221.0</ele><time>2026-05-01T08:29:00.621Z</time></trkpt><trkpt lat="46.1918735" lon="13.2161339"><ele>221.0</ele><time>2026-05-01T08:29:01.621Z</time></trkpt><trkpt lat="46.1918836" lon="13.2162293"><ele>221.0</ele><time>2026-05-01T08:29:02.621Z</time></trkpt><trkpt lat="46.1919062" lon="13.2163237"><ele>221.0</ele><time>2026-05-01T08:29:03.62Z</time></trkpt><trkpt lat="46.1919381" lon="13.2164226"><ele>221.00000000000003</ele><time>2026-05-01T08:29:04.621Z</time></trkpt><trkpt lat="46.1919773" lon="13.2165245"><ele>221.0</ele><time>2026-05-01T08:29:05.62Z</time></trkpt><trkpt lat="46.1920231" lon="13.2166364"><ele>220.8</ele><time>2026-05-01T08:29:06.62Z</time></trkpt><trkpt lat="46.1920751" lon="13.2167657"><ele>220.60000000000002</ele><time>2026-05-01T08:29:07.621Z</time></trkpt><trkpt lat="46.1921298" lon="13.2168928"><ele>220.4</ele><time>2026-05-01T08:29:08.62Z</time></trkpt><trkpt lat="46.1921818" lon="13.2170289"><ele>220.2</ele><time>2026-05-01T08:29:09.62Z</time></trkpt><trkpt lat="46.1922466" lon="13.2171983"><ele>220.0</ele><time>2026-05-01T08:29:10.621Z</time></trkpt><trkpt lat="46.1923197" lon="13.2173889"><ele>219.75</ele><time>2026-05-01T08:29:11.62Z</time></trkpt><trkpt lat="46.1923845" lon="13.2175566"><ele>219.5</ele><time>2026-05-01T08:29:12.622Z</time></trkpt><trkpt lat="46.1924402" lon="13.2177054"><ele>219.25</ele><time>2026-05-01T08:29:13.621Z</time></trkpt><trkpt lat="46.1924923" lon="13.2178433"><ele>219.0</ele><time>2026-05-01T08:29:14.62Z</time></trkpt><trkpt lat="46.1925411" lon="13.2179686"><ele>219.0</ele><time>2026-05-01T08:29:15.62Z</time></trkpt><trkpt lat="46.192585" lon="13.2180755"><ele>219.0</ele><time>2026-05-01T08:29:16.621Z</time></trkpt><trkpt lat="46.1926232" lon="13.218166"><ele>219.0</ele><time>2026-05-01T08:29:17.621Z</time></trkpt><trkpt lat="46.1926567" lon="13.2182484"><ele>219.0</ele><time>2026-05-01T08:29:18.62Z</time></trkpt><trkpt lat="46.1927081" lon="13.2183941"><ele>219.0</ele><time>2026-05-01T08:29:20.62Z</time></trkpt><trkpt lat="46.1927384" lon="13.2184989"><ele>219.0</ele><time>2026-05-01T08:29:22.621Z</time></trkpt><trkpt lat="46.1926634" lon="13.2186034"><ele>219.2</ele><time>2026-05-01T08:29:26.622Z</time></trkpt><trkpt lat="46.1925871" lon="13.2186224"><ele>219.39999999999998</ele><time>2026-05-01T08:29:27.62Z</time></trkpt><trkpt lat="46.1924976" lon="13.2186365"><ele>219.6</ele><time>2026-05-01T08:29:28.62Z</time></trkpt><trkpt lat="46.192392" lon="13.218656"><ele>219.8</ele><time>2026-05-01T08:29:29.622Z</time></trkpt><trkpt lat="46.1922801" lon="13.218679"><ele>220.0</ele><time>2026-05-01T08:29:30.621Z</time></trkpt><trkpt lat="46.1921603" lon="13.2187066"><ele>220.33333333333331</ele><time>2026-05-01T08:29:31.621Z</time></trkpt><trkpt lat="46.1920169" lon="13.2187411"><ele>220.66666666666669</ele><time>2026-05-01T08:29:32.621Z</time></trkpt><trkpt lat="46.1918626" lon="13.2187789"><ele>221.0</ele><time>2026-05-01T08:29:33.622Z</time></trkpt><trkpt lat="46.1917098" lon="13.2188129"><ele>221.0</ele><time>2026-05-01T08:29:34.62Z</time></trkpt><trkpt lat="46.1915549" lon="13.2188476"><ele>221.0</ele><time>2026-05-01T08:29:35.622Z</time></trkpt><trkpt lat="46.191385" lon="13.218889"><ele>221.0</ele><time>2026-05-01T08:29:36.621Z</time></trkpt><trkpt lat="46.1912003" lon="13.2189327"><ele>221.33333333333334</ele><time>2026-05-01T08:29:37.62Z</time></trkpt><trkpt lat="46.1910256" lon="13.2189677"><ele>221.66666666666669</ele><time>2026-05-01T08:29:38.622Z</time></trkpt><trkpt lat="46.1908689" lon="13.2190012"><ele>222.0</ele><time>2026-05-01T08:29:39.621Z</time></trkpt><trkpt lat="46.1907224" lon="13.2190362"><ele>221.25</ele><time>2026-05-01T08:29:40.62Z</time></trkpt><trkpt lat="46.1905863" lon="13.219068"><ele>220.5</ele><time>2026-05-01T08:29:41.621Z</time></trkpt><trkpt lat="46.1904526" lon="13.2190974"><ele>219.75</ele><time>2026-05-01T08:29:42.621Z</time></trkpt><trkpt lat="46.190319" lon="13.2191268"><ele>219.0</ele><time>2026-05-01T08:29:43.62Z</time></trkpt><trkpt lat="46.1901882" lon="13.2191538"><ele>219.0</ele><time>2026-05-01T08:29:44.622Z</time></trkpt><trkpt lat="46.1900613" lon="13.2191773"><ele>219.0</ele><time>2026-05-01T08:29:45.62Z</time></trkpt><trkpt lat="46.189932" lon="13.2192025"><ele>219.0</ele><time>2026-05-01T08:29:46.621Z</time></trkpt><trkpt lat="46.1898035" lon="13.219233"><ele>219.0</ele><time>2026-05-01T08:29:47.62Z</time></trkpt><trkpt lat="46.1896762" lon="13.2192716"><ele>219.25</ele><time>2026-05-01T08:29:48.621Z</time></trkpt><trkpt lat="46.1895506" lon="13.2193221"><ele>219.5</ele><time>2026-05-01T08:29:49.622Z</time></trkpt><trkpt lat="46.1894288" lon="13.2193859"><ele>219.75</ele><time>2026-05-01T08:29:50.62Z</time></trkpt><trkpt lat="46.1893077" lon="13.2194606"><ele>220.0</ele><time>2026-05-01T08:29:51.621Z</time></trkpt><trkpt lat="46.1891849" lon="13.2195484"><ele>220.0</ele><time>2026-05-01T08:29:52.62Z</time></trkpt><trkpt lat="46.1890603" lon="13.2196426"><ele>220.0</ele><time>2026-05-01T08:29:53.621Z</time></trkpt><trkpt lat="46.1889316" lon="13.2197369"><ele>220.0</ele><time>2026-05-01T08:29:54.622Z</time></trkpt><trkpt lat="46.1887991" lon="13.2198333"><ele>220.0</ele><time>2026-05-01T08:29:55.622Z</time></trkpt><trkpt lat="46.1886656" lon="13.2199288"><ele>219.0</ele><time>2026-05-01T08:29:56.621Z</time></trkpt><trkpt lat="46.1885249" lon="13.2200293"><ele>218.0</ele><time>2026-05-01T08:29:57.621Z</time></trkpt><trkpt lat="46.1883855" lon="13.2201288"><ele>217.0</ele><time>2026-05-01T08:29:58.62Z</time></trkpt><trkpt lat="46.1882436" lon="13.2202307"><ele>217.33333333333331</ele><time>2026-05-01T08:29:59.62Z</time></trkpt><trkpt lat="46.1881024" lon="13.2203321"><ele>217.66666666666669</ele><time>2026-05-01T08:30:00.621Z</time></trkpt><trkpt lat="46.187963" lon="13.2204348"><ele>218.0</ele><time>2026-05-01T08:30:01.621Z</time></trkpt><trkpt lat="46.1878271" lon="13.2205327"><ele>218.0</ele><time>2026-05-01T08:30:02.621Z</time></trkpt><trkpt lat="46.1876937" lon="13.220628"><ele>218.0</ele><time>2026-05-01T08:30:03.621Z</time></trkpt><trkpt lat="46.1875676" lon="13.2207166"><ele>218.0</ele><time>2026-05-01T08:30:04.621Z</time></trkpt><trkpt lat="46.1874522" lon="13.2207978"><ele>218.0</ele><time>2026-05-01T08:30:05.62Z</time></trkpt><trkpt lat="46.1873464" lon="13.2208736"><ele>219.5</ele><time>2026-05-01T08:30:06.62Z</time></trkpt><trkpt lat="46.1872417" lon="13.220953"><ele>221.0</ele><time>2026-05-01T08:30:07.621Z</time></trkpt><trkpt lat="46.1871364" lon="13.2210309"><ele>222.5</ele><time>2026-05-01T08:30:08.622Z</time></trkpt><trkpt lat="46.1870361" lon="13.2211049"><ele>224.0</ele><time>2026-05-01T08:30:09.62Z</time></trkpt><trkpt lat="46.1869374" lon="13.2211712"><ele>224.00000000000003</ele><time>2026-05-01T08:30:10.621Z</time></trkpt><trkpt lat="46.1868535" lon="13.2212314"><ele>224.0</ele><time>2026-05-01T08:30:11.621Z</time></trkpt><trkpt lat="46.1867766" lon="13.2212925"><ele>224.0</ele><time>2026-05-01T08:30:12.62Z</time></trkpt><trkpt lat="46.1867059" lon="13.2213514"><ele>224.0</ele><time>2026-05-01T08:30:13.62Z</time></trkpt><trkpt lat="46.1866405" lon="13.2213981"><ele>224.00000000000003</ele><time>2026-05-01T08:30:14.621Z</time></trkpt><trkpt lat="46.1865706" lon="13.2214519"><ele>224.0</ele><time>2026-05-01T08:30:15.62Z</time></trkpt><trkpt lat="46.1865031" lon="13.2214947"><ele>223.83333333333334</ele><time>2026-05-01T08:30:16.621Z</time></trkpt><trkpt lat="46.1864449" lon="13.2215302"><ele>223.66666666666669</ele><time>2026-05-01T08:30:17.621Z</time></trkpt><trkpt lat="46.186373" lon="13.2215579"><ele>223.5</ele><time>2026-05-01T08:30:19.621Z</time></trkpt><trkpt lat="46.186331" lon="13.2216527"><ele>223.33333333333331</ele><time>2026-05-01T08:30:26.62Z</time></trkpt><trkpt lat="46.1864471" lon="13.2217415"><ele>223.16666666666666</ele><time>2026-05-01T08:30:28.621Z</time></trkpt><trkpt lat="46.1865237" lon="13.2218012"><ele>223.0</ele><time>2026-05-01T08:30:29.621Z</time></trkpt><trkpt lat="46.1866021" lon="13.2218749"><ele>222.99999999999997</ele><time>2026-05-01T08:30:30.62Z</time></trkpt><trkpt lat="46.1866737" lon="13.2219443"><ele>223.0</ele><time>2026-05-01T08:30:31.621Z</time></trkpt><trkpt lat="46.1867285" lon="13.2220036"><ele>223.0</ele><time>2026-05-01T08:30:32.62Z</time></trkpt><trkpt lat="46.186785" lon="13.2220879"><ele>223.0</ele><time>2026-05-01T08:30:34.622Z</time></trkpt><trkpt lat="46.1867851" lon="13.2221896"><ele>222.99999999999997</ele><time>2026-05-01T08:30:36.62Z</time></trkpt><trkpt lat="46.1867613" lon="13.2223185"><ele>223.0</ele><time>2026-05-01T08:30:38.621Z</time></trkpt><trkpt lat="46.1867345" lon="13.2224693"><ele>223.4</ele><time>2026-05-01T08:30:40.622Z</time></trkpt><trkpt lat="46.186713" lon="13.2226432"><ele>223.8</ele><time>2026-05-01T08:30:42.621Z</time></trkpt><trkpt lat="46.1867048" lon="13.2227382"><ele>224.2</ele><time>2026-05-01T08:30:43.622Z</time></trkpt><trkpt lat="46.1866937" lon="13.2228303"><ele>224.6</ele><time>2026-05-01T08:30:44.621Z</time></trkpt><trkpt lat="46.1866925" lon="13.2230092"><ele>225.0</ele><time>2026-05-01T08:30:46.62Z</time></trkpt><trkpt lat="46.1867" lon="13.2231766"><ele>225.4</ele><time>2026-05-01T08:30:48.621Z</time></trkpt><trkpt lat="46.1866977" lon="13.2233334"><ele>225.8</ele><time>2026-05-01T08:30:50.621Z</time></trkpt><trkpt lat="46.186688" lon="13.2234795"><ele>226.2</ele><time>2026-05-01T08:30:52.621Z</time></trkpt><trkpt lat="46.1866776" lon="13.2236243"><ele>226.6</ele><time>2026-05-01T08:30:54.621Z</time></trkpt><trkpt lat="46.1866684" lon="13.2237684"><ele>227.0</ele><time>2026-05-01T08:30:56.62Z</time></trkpt><trkpt lat="46.186656" lon="13.2239173"><ele>226.6</ele><time>2026-05-01T08:30:58.62Z</time></trkpt><trkpt lat="46.186649" lon="13.2240731"><ele>226.2</ele><time>2026-05-01T08:31:00.62Z</time></trkpt><trkpt lat="46.1866408" lon="13.2242227"><ele>225.8</ele><time>2026-05-01T08:31:02.621Z</time></trkpt><trkpt lat="46.1866323" lon="13.224394"><ele>225.4</ele><time>2026-05-01T08:31:04.621Z</time></trkpt><trkpt lat="46.1866232" lon="13.2245506"><ele>225.0</ele><time>2026-05-01T08:31:06.622Z</time></trkpt><trkpt lat="46.186609" lon="13.2247134"><ele>224.83333333333334</ele><time>2026-05-01T08:31:08.621Z</time></trkpt><trkpt lat="46.186603" lon="13.2248451"><ele>224.66666666666669</ele><time>2026-05-01T08:31:10.621Z</time></trkpt><trkpt lat="46.1865983" lon="13.2249497"><ele>224.5</ele><time>2026-05-01T08:31:12.621Z</time></trkpt><trkpt lat="46.1866037" lon="13.2250641"><ele>224.33333333333334</ele><time>2026-05-01T08:31:23.621Z</time></trkpt><trkpt lat="46.1866109" lon="13.2252199"><ele>224.16666666666669</ele><time>2026-05-01T08:31:25.62Z</time></trkpt><trkpt lat="46.18661" lon="13.2253447"><ele>224.0</ele><time>2026-05-01T08:31:27.62Z</time></trkpt><trkpt lat="46.1866038" lon="13.225477"><ele>224.0</ele><time>2026-05-01T08:31:29.621Z</time></trkpt><trkpt lat="46.1866062" lon="13.2255818"><ele>224.0</ele><time>2026-05-01T08:31:31.62Z</time></trkpt><trkpt lat="46.186618" lon="13.2256752"><ele>224.0</ele><time>2026-05-01T08:31:33.62Z</time></trkpt><trkpt lat="46.1866422" lon="13.2257682"><ele>224.0</ele><time>2026-05-01T08:31:35.62Z</time></trkpt><trkpt lat="46.1866665" lon="13.2258621"><ele>224.0</ele><time>2026-05-01T08:31:37.62Z</time></trkpt><trkpt lat="46.1866828" lon="13.2259561"><ele>224.0</ele><time>2026-05-01T08:31:39.621Z</time></trkpt><trkpt lat="46.1866694" lon="13.2260771"><ele>224.0</ele><time>2026-05-01T08:31:42.621Z</time></trkpt><trkpt lat="46.1866214" lon="13.2261398"><ele>223.79999999999998</ele><time>2026-05-01T08:31:44.621Z</time></trkpt><trkpt lat="46.1865408" lon="13.2261934"><ele>223.59999999999997</ele><time>2026-05-01T08:31:46.621Z</time></trkpt><trkpt lat="46.186453" lon="13.2262318"><ele>223.4</ele><time>2026-05-01T08:31:48.62Z</time></trkpt><trkpt lat="46.1863537" lon="13.2263118"><ele>223.2</ele><time>2026-05-01T08:31:50.621Z</time></trkpt><trkpt lat="46.1862763" lon="13.226373"><ele>223.0</ele><time>2026-05-01T08:31:52.62Z</time></trkpt><trkpt lat="46.1862024" lon="13.2264377"><ele>223.66666666666666</ele><time>2026-05-01T08:31:54.621Z</time></trkpt><trkpt lat="46.186144" lon="13.2265134"><ele>224.33333333333331</ele><time>2026-05-01T08:31:56.621Z</time></trkpt><trkpt lat="46.1860949" lon="13.2265836"><ele>225.0</ele><time>2026-05-01T08:31:58.621Z</time></trkpt><trkpt lat="46.1860431" lon="13.2266596"><ele>225.66666666666669</ele><time>2026-05-01T08:32:00.621Z</time></trkpt><trkpt lat="46.1859808" lon="13.2267674"><ele>226.33333333333334</ele><time>2026-05-01T08:32:02.621Z</time></trkpt><trkpt lat="46.1859222" lon="13.2268911"><ele>227.0</ele><time>2026-05-01T08:32:04.62Z</time></trkpt><trkpt lat="46.1858689" lon="13.2269884"><ele>227.0</ele><time>2026-05-01T08:32:06.621Z</time></trkpt><trkpt lat="46.1858443" lon="13.2270723"><ele>227.0</ele><time>2026-05-01T08:32:09.621Z</time></trkpt><trkpt lat="46.1858197" lon="13.2271936"><ele>227.0</ele><time>2026-05-01T08:32:12.62Z</time></trkpt><trkpt lat="46.1857984" lon="13.2273536"><ele>227.0</ele><time>2026-05-01T08:32:14.62Z</time></trkpt><trkpt lat="46.1857733" lon="13.2275064"><ele>227.0</ele><time>2026-05-01T08:32:16.621Z</time></trkpt><trkpt lat="46.1857538" lon="13.2276597"><ele>227.0</ele><time>2026-05-01T08:32:18.621Z</time></trkpt><trkpt lat="46.185732" lon="13.227804"><ele>227.0</ele><time>2026-05-01T08:32:20.62Z</time></trkpt><trkpt lat="46.1857177" lon="13.2279401"><ele>227.0</ele><time>2026-05-01T08:32:22.621Z</time></trkpt><trkpt lat="46.1857051" lon="13.228094"><ele>227.0</ele><time>2026-05-01T08:32:24.621Z</time></trkpt><trkpt lat="46.1856936" lon="13.2282498"><ele>227.0</ele><time>2026-05-01T08:32:26.621Z</time></trkpt><trkpt lat="46.1856725" lon="13.2284035"><ele>227.00000000000003</ele><time>2026-05-01T08:32:28.62Z</time></trkpt><trkpt lat="46.1856489" lon="13.2285271"><ele>227.0</ele><time>2026-05-01T08:32:30.621Z</time></trkpt><trkpt lat="46.1856352" lon="13.2286266"><ele>227.0</ele><time>2026-05-01T08:32:32.62Z</time></trkpt><trkpt lat="46.1856979" lon="13.2287103"><ele>227.0</ele><time>2026-05-01T08:32:36.62Z</time></trkpt><trkpt lat="46.1857885" lon="13.2287205"><ele>227.00000000000003</ele><time>2026-05-01T08:32:38.62Z</time></trkpt><trkpt lat="46.1858847" lon="13.2287367"><ele>227.0</ele><time>2026-05-01T08:32:40.62Z</time></trkpt><trkpt lat="46.1859646" lon="13.228755"><ele>227.14285714285717</ele><time>2026-05-01T08:32:42.621Z</time></trkpt><trkpt lat="46.1860526" lon="13.2287623"><ele>227.2857142857143</ele><time>2026-05-01T08:32:44.619Z</time></trkpt><trkpt lat="46.1861288" lon="13.228767"><ele>227.42857142857144</ele><time>2026-05-01T08:32:46.62Z</time></trkpt><trkpt lat="46.1861944" lon="13.228806"><ele>227.57142857142856</ele><time>2026-05-01T08:32:49.62Z</time></trkpt><trkpt lat="46.1861873" lon="13.2289016"><ele>227.7142857142857</ele><time>2026-05-01T08:32:52.62Z</time></trkpt><trkpt lat="46.186152" lon="13.2289832"><ele>227.85714285714283</ele><time>2026-05-01T08:32:55.621Z</time></trkpt><trkpt lat="46.1861291" lon="13.2290739"><ele>228.0</ele><time>2026-05-01T08:32:58.619Z</time></trkpt><trkpt lat="46.1861108" lon="13.2291659"><ele>228.0</ele><time>2026-05-01T08:33:00.619Z</time></trkpt><trkpt lat="46.1860853" lon="13.2292869"><ele>228.0</ele><time>2026-05-01T08:33:02.62Z</time></trkpt><trkpt lat="46.1860578" lon="13.2294253"><ele>228.0</ele><time>2026-05-01T08:33:04.621Z</time></trkpt><trkpt lat="46.1860328" lon="13.2295596"><ele>228.0</ele><time>2026-05-01T08:33:06.62Z</time></trkpt><trkpt lat="46.1860109" lon="13.2296994"><ele>228.0</ele><time>2026-05-01T08:33:08.62Z</time></trkpt><trkpt lat="46.1859888" lon="13.2298396"><ele>227.60000000000002</ele><time>2026-05-01T08:33:10.62Z</time></trkpt><trkpt lat="46.1859689" lon="13.2299806"><ele>227.20000000000002</ele><time>2026-05-01T08:33:12.62Z</time></trkpt><trkpt lat="46.1859604" lon="13.2301131"><ele>226.8</ele><time>2026-05-01T08:33:14.62Z</time></trkpt><trkpt lat="46.1859743" lon="13.2302377"><ele>226.4</ele><time>2026-05-01T08:33:16.621Z</time></trkpt><trkpt lat="46.1860083" lon="13.2303618"><ele>226.0</ele><time>2026-05-01T08:33:18.62Z</time></trkpt><trkpt lat="46.186047" lon="13.2304776"><ele>226.0</ele><time>2026-05-01T08:33:20.62Z</time></trkpt><trkpt lat="46.186085" lon="13.2305978"><ele>226.00000000000003</ele><time>2026-05-01T08:33:22.62Z</time></trkpt><trkpt lat="46.186118" lon="13.2307381"><ele>226.00000000000003</ele><time>2026-05-01T08:33:24.621Z</time></trkpt><trkpt lat="46.1861247" lon="13.2308799"><ele>226.0</ele><time>2026-05-01T08:33:26.619Z</time></trkpt><trkpt lat="46.1861424" lon="13.2310302"><ele>226.0</ele><time>2026-05-01T08:33:28.62Z</time></trkpt><trkpt lat="46.1861705" lon="13.2311775"><ele>225.99999999999997</ele><time>2026-05-01T08:33:30.619Z</time></trkpt><trkpt lat="46.1862101" lon="13.2313095"><ele>226.0</ele><time>2026-05-01T08:33:32.62Z</time></trkpt><trkpt lat="46.1862594" lon="13.2314205"><ele>226.0</ele><time>2026-05-01T08:33:34.62Z</time></trkpt><trkpt lat="46.1863139" lon="13.231497"><ele>226.0</ele><time>2026-05-01T08:33:36.619Z</time></trkpt><trkpt lat="46.1863691" lon="13.231572"><ele>225.99999999999997</ele><time>2026-05-01T08:34:05.62Z</time></trkpt><trkpt lat="46.1864357" lon="13.2315407"><ele>226.0</ele><time>2026-05-01T08:34:07.619Z</time></trkpt><trkpt lat="46.186506" lon="13.2315024"><ele>226.0</ele><time>2026-05-01T08:34:09.62Z</time></trkpt><trkpt lat="46.1865527" lon="13.2315697"><ele>226.00000000000003</ele><time>2026-05-01T08:34:20.62Z</time></trkpt><trkpt lat="46.1864667" lon="13.2317274"><ele>226.00000000000003</ele><time>2026-05-01T08:34:22.62Z</time></trkpt><trkpt lat="46.1864131" lon="13.2318202"><ele>226.0</ele><time>2026-05-01T08:34:23.621Z</time></trkpt><trkpt lat="46.1863565" lon="13.231913"><ele>226.0</ele><time>2026-05-01T08:34:24.619Z</time></trkpt><trkpt lat="46.1862902" lon="13.2320044"><ele>226.0</ele><time>2026-05-01T08:34:25.619Z</time></trkpt><trkpt lat="46.1862259" lon="13.2320953"><ele>226.00000000000003</ele><time>2026-05-01T08:34:26.62Z</time></trkpt><trkpt lat="46.1861605" lon="13.2321945"><ele>226.00000000000003</ele><time>2026-05-01T08:34:27.62Z</time></trkpt><trkpt lat="46.1860939" lon="13.2322943"><ele>226.0</ele><time>2026-05-01T08:34:28.619Z</time></trkpt><trkpt lat="46.1860253" lon="13.2323947"><ele>226.0</ele><time>2026-05-01T08:34:29.619Z</time></trkpt><trkpt lat="46.185952" lon="13.2324988"><ele>225.20000000000002</ele><time>2026-05-01T08:34:30.62Z</time></trkpt><trkpt lat="46.1858796" lon="13.2326057"><ele>224.40000000000003</ele><time>2026-05-01T08:34:31.619Z</time></trkpt><trkpt lat="46.1858128" lon="13.2327075"><ele>223.6</ele><time>2026-05-01T08:34:32.619Z</time></trkpt><trkpt lat="46.1857467" lon="13.2328053"><ele>222.8</ele><time>2026-05-01T08:34:33.62Z</time></trkpt><trkpt lat="46.1856817" lon="13.2328957"><ele>222.0</ele><time>2026-05-01T08:34:34.62Z</time></trkpt><trkpt lat="46.1856181" lon="13.2329822"><ele>221.5</ele><time>2026-05-01T08:34:35.619Z</time></trkpt><trkpt lat="46.1855569" lon="13.2330592"><ele>221.0</ele><time>2026-05-01T08:34:36.621Z</time></trkpt><trkpt lat="46.1854912" lon="13.2331201"><ele>220.5</ele><time>2026-05-01T08:34:37.621Z</time></trkpt><trkpt lat="46.1854164" lon="13.2331579"><ele>220.0</ele><time>2026-05-01T08:34:38.619Z</time></trkpt><trkpt lat="46.1853268" lon="13.2331788"><ele>219.5</ele><time>2026-05-01T08:34:39.62Z</time></trkpt><trkpt lat="46.1852232" lon="13.2331639"><ele>219.0</ele><time>2026-05-01T08:34:40.62Z</time></trkpt><trkpt lat="46.1851092" lon="13.2331164"><ele>219.0</ele><time>2026-05-01T08:34:41.619Z</time></trkpt><trkpt lat="46.18499" lon="13.2330583"><ele>219.0</ele><time>2026-05-01T08:34:42.619Z</time></trkpt><trkpt lat="46.1848744" lon="13.2330003"><ele>219.0</ele><time>2026-05-01T08:34:43.619Z</time></trkpt><trkpt lat="46.184764" lon="13.2329401"><ele>219.0</ele><time>2026-05-01T08:34:44.62Z</time></trkpt><trkpt lat="46.1846537" lon="13.2328886"><ele>218.0</ele><time>2026-05-01T08:34:45.619Z</time></trkpt><trkpt lat="46.1845528" lon="13.2328447"><ele>217.0</ele><time>2026-05-01T08:34:46.62Z</time></trkpt><trkpt lat="46.1844608" lon="13.2328081"><ele>216.0</ele><time>2026-05-01T08:34:47.619Z</time></trkpt><trkpt lat="46.1843802" lon="13.2327877"><ele>215.0</ele><time>2026-05-01T08:34:48.619Z</time></trkpt><trkpt lat="46.1843019" lon="13.2327839"><ele>214.0</ele><time>2026-05-01T08:34:49.619Z</time></trkpt><trkpt lat="46.1842228" lon="13.2328025"><ele>213.0</ele><time>2026-05-01T08:34:50.619Z</time></trkpt><trkpt lat="46.1841544" lon="13.2328298"><ele>213.0</ele><time>2026-05-01T08:34:51.62Z</time></trkpt><trkpt lat="46.1840892" lon="13.232875"><ele>213.0</ele><time>2026-05-01T08:34:52.621Z</time></trkpt><trkpt lat="46.1840131" lon="13.232932"><ele>213.0</ele><time>2026-05-01T08:34:53.621Z</time></trkpt><trkpt lat="46.1839271" lon="13.2330078"><ele>213.0</ele><time>2026-05-01T08:34:54.62Z</time></trkpt><trkpt lat="46.1838294" lon="13.233092"><ele>213.0</ele><time>2026-05-01T08:34:55.619Z</time></trkpt><trkpt lat="46.1837238" lon="13.2331874"><ele>212.0</ele><time>2026-05-01T08:34:56.621Z</time></trkpt><trkpt lat="46.1836174" lon="13.2332817"><ele>211.0</ele><time>2026-05-01T08:34:57.62Z</time></trkpt><trkpt lat="46.1835077" lon="13.2333834"><ele>210.0</ele><time>2026-05-01T08:34:58.621Z</time></trkpt><trkpt lat="46.1833954" lon="13.233486"><ele>209.0</ele><time>2026-05-01T08:34:59.62Z</time></trkpt><trkpt lat="46.1832836" lon="13.2335974"><ele>208.75</ele><time>2026-05-01T08:35:00.62Z</time></trkpt><trkpt lat="46.1831657" lon="13.2336995"><ele>208.5</ele><time>2026-05-01T08:35:01.62Z</time></trkpt><trkpt lat="46.1830466" lon="13.2338039"><ele>208.25</ele><time>2026-05-01T08:35:02.62Z</time></trkpt><trkpt lat="46.1829269" lon="13.233912"><ele>208.0</ele><time>2026-05-01T08:35:03.62Z</time></trkpt><trkpt lat="46.1828028" lon="13.2340171"><ele>208.0</ele><time>2026-05-01T08:35:04.621Z</time></trkpt><trkpt lat="46.182676" lon="13.2341281"><ele>208.0</ele><time>2026-05-01T08:35:05.619Z</time></trkpt><trkpt lat="46.1825491" lon="13.2342406"><ele>208.0</ele><time>2026-05-01T08:35:06.619Z</time></trkpt><trkpt lat="46.1824173" lon="13.2343554"><ele>207.75</ele><time>2026-05-01T08:35:07.619Z</time></trkpt><trkpt lat="46.1822864" lon="13.2344711"><ele>207.5</ele><time>2026-05-01T08:35:08.619Z</time></trkpt><trkpt lat="46.1821614" lon="13.2345776"><ele>207.25</ele><time>2026-05-01T08:35:09.621Z</time></trkpt><trkpt lat="46.1820381" lon="13.2346667"><ele>207.0</ele><time>2026-05-01T08:35:10.621Z</time></trkpt><trkpt lat="46.1819033" lon="13.2347472"><ele>207.0</ele><time>2026-05-01T08:35:11.619Z</time></trkpt><trkpt lat="46.181772" lon="13.2348129"><ele>207.0</ele><time>2026-05-01T08:35:12.62Z</time></trkpt><trkpt lat="46.1816436" lon="13.2348683"><ele>207.0</ele><time>2026-05-01T08:35:13.619Z</time></trkpt><trkpt lat="46.1815229" lon="13.2349174"><ele>207.0</ele><time>2026-05-01T08:35:14.62Z</time></trkpt><trkpt lat="46.1814102" lon="13.234963"><ele>207.0</ele><time>2026-05-01T08:35:15.619Z</time></trkpt><trkpt lat="46.181304" lon="13.2350063"><ele>207.0</ele><time>2026-05-01T08:35:16.62Z</time></trkpt><trkpt lat="46.181206" lon="13.2350444"><ele>207.0</ele><time>2026-05-01T08:35:17.619Z</time></trkpt><trkpt lat="46.1811125" lon="13.2350806"><ele>207.0</ele><time>2026-05-01T08:35:18.621Z</time></trkpt><trkpt lat="46.1810192" lon="13.2351225"><ele>207.0</ele><time>2026-05-01T08:35:19.621Z</time></trkpt><trkpt lat="46.1809196" lon="13.2351606"><ele>207.0</ele><time>2026-05-01T08:35:20.62Z</time></trkpt><trkpt lat="46.180812" lon="13.2352061"><ele>207.0</ele><time>2026-05-01T08:35:21.619Z</time></trkpt><trkpt lat="46.1807008" lon="13.2352543"><ele>207.0</ele><time>2026-05-01T08:35:22.619Z</time></trkpt><trkpt lat="46.1805877" lon="13.2353017"><ele>207.0</ele><time>2026-05-01T08:35:23.619Z</time></trkpt><trkpt lat="46.1804699" lon="13.2353637"><ele>206.75</ele><time>2026-05-01T08:35:24.619Z</time></trkpt><trkpt lat="46.1803556" lon="13.2354453"><ele>206.5</ele><time>2026-05-01T08:35:25.619Z</time></trkpt><trkpt lat="46.1802529" lon="13.2355424"><ele>206.25</ele><time>2026-05-01T08:35:26.62Z</time></trkpt><trkpt lat="46.1801556" lon="13.2356713"><ele>206.0</ele><time>2026-05-01T08:35:27.621Z</time></trkpt><trkpt lat="46.1800714" lon="13.235829"><ele>205.66666666666669</ele><time>2026-05-01T08:35:28.619Z</time></trkpt><trkpt lat="46.1799937" lon="13.2360072"><ele>205.33333333333331</ele><time>2026-05-01T08:35:29.621Z</time></trkpt><trkpt lat="46.1799252" lon="13.2362035"><ele>205.0</ele><time>2026-05-01T08:35:30.62Z</time></trkpt><trkpt lat="46.1798546" lon="13.2364054"><ele>205.0</ele><time>2026-05-01T08:35:31.62Z</time></trkpt><trkpt lat="46.1797826" lon="13.2366116"><ele>205.0</ele><time>2026-05-01T08:35:32.62Z</time></trkpt><trkpt lat="46.1797099" lon="13.2368196"><ele>205.0</ele><time>2026-05-01T08:35:33.619Z</time></trkpt><trkpt lat="46.1796374" lon="13.2370302"><ele>205.0</ele><time>2026-05-01T08:35:34.62Z</time></trkpt><trkpt lat="46.1795667" lon="13.2372378"><ele>205.0</ele><time>2026-05-01T08:35:35.619Z</time></trkpt><trkpt lat="46.1794988" lon="13.2374387"><ele>205.0</ele><time>2026-05-01T08:35:36.62Z</time></trkpt><trkpt lat="46.1794334" lon="13.2376254"><ele>204.75</ele><time>2026-05-01T08:35:37.62Z</time></trkpt><trkpt lat="46.1793692" lon="13.2377983"><ele>204.5</ele><time>2026-05-01T08:35:38.62Z</time></trkpt><trkpt lat="46.1793154" lon="13.2379636"><ele>204.25</ele><time>2026-05-01T08:35:39.619Z</time></trkpt><trkpt lat="46.1792636" lon="13.23812"><ele>204.0</ele><time>2026-05-01T08:35:40.621Z</time></trkpt><trkpt lat="46.1792142" lon="13.2382662"><ele>204.0</ele><time>2026-05-01T08:35:41.619Z</time></trkpt><trkpt lat="46.1791644" lon="13.2384088"><ele>204.0</ele><time>2026-05-01T08:35:42.619Z</time></trkpt><trkpt lat="46.1791138" lon="13.2385581"><ele>204.0</ele><time>2026-05-01T08:35:43.619Z</time></trkpt><trkpt lat="46.1790593" lon="13.238714"><ele>204.0</ele><time>2026-05-01T08:35:44.62Z</time></trkpt><trkpt lat="46.1789999" lon="13.2388767"><ele>203.75</ele><time>2026-05-01T08:35:45.621Z</time></trkpt><trkpt lat="46.1789409" lon="13.2390493"><ele>203.5</ele><time>2026-05-01T08:35:46.621Z</time></trkpt><trkpt lat="46.1788779" lon="13.2392331"><ele>203.25</ele><time>2026-05-01T08:35:47.621Z</time></trkpt><trkpt lat="46.1788102" lon="13.239428"><ele>203.0</ele><time>2026-05-01T08:35:48.62Z</time></trkpt><trkpt lat="46.1787398" lon="13.2396318"><ele>202.0</ele><time>2026-05-01T08:35:49.62Z</time></trkpt><trkpt lat="46.1786663" lon="13.2398422"><ele>201.0</ele><time>2026-05-01T08:35:50.619Z</time></trkpt><trkpt lat="46.1785936" lon="13.2400559"><ele>200.0</ele><time>2026-05-01T08:35:51.62Z</time></trkpt><trkpt lat="46.1785198" lon="13.2402649"><ele>200.0</ele><time>2026-05-01T08:35:52.62Z</time></trkpt><trkpt lat="46.1784437" lon="13.2404755"><ele>200.0</ele><time>2026-05-01T08:35:53.619Z</time></trkpt><trkpt lat="46.1783714" lon="13.2406819"><ele>200.0</ele><time>2026-05-01T08:35:54.62Z</time></trkpt><trkpt lat="46.1783019" lon="13.2408815"><ele>199.25</ele><time>2026-05-01T08:35:55.62Z</time></trkpt><trkpt lat="46.1782332" lon="13.2410728"><ele>198.5</ele><time>2026-05-01T08:35:56.62Z</time></trkpt><trkpt lat="46.1781641" lon="13.2412591"><ele>197.75</ele><time>2026-05-01T08:35:57.621Z</time></trkpt><trkpt lat="46.178093" lon="13.2414343"><ele>197.0</ele><time>2026-05-01T08:35:58.62Z</time></trkpt><trkpt lat="46.1780193" lon="13.2415997"><ele>196.75</ele><time>2026-05-01T08:35:59.619Z</time></trkpt><trkpt lat="46.1779451" lon="13.2417611"><ele>196.5</ele><time>2026-05-01T08:36:00.619Z</time></trkpt><trkpt lat="46.1778749" lon="13.2419193"><ele>196.25</ele><time>2026-05-01T08:36:01.619Z</time></trkpt><trkpt lat="46.1778055" lon="13.2420708"><ele>196.0</ele><time>2026-05-01T08:36:02.619Z</time></trkpt><trkpt lat="46.1777384" lon="13.2422158"><ele>196.20000000000002</ele><time>2026-05-01T08:36:03.62Z</time></trkpt><trkpt lat="46.1776733" lon="13.2423526"><ele>196.4</ele><time>2026-05-01T08:36:04.62Z</time></trkpt><trkpt lat="46.1776087" lon="13.2424825"><ele>196.6</ele><time>2026-05-01T08:36:05.62Z</time></trkpt><trkpt lat="46.1775494" lon="13.242608"><ele>196.8</ele><time>2026-05-01T08:36:06.62Z</time></trkpt><trkpt lat="46.177494" lon="13.2427273"><ele>197.0</ele><time>2026-05-01T08:36:07.619Z</time></trkpt><trkpt lat="46.1774418" lon="13.2428318"><ele>197.00000000000003</ele><time>2026-05-01T08:36:08.619Z</time></trkpt><trkpt lat="46.1773984" lon="13.2429236"><ele>197.0</ele><time>2026-05-01T08:36:09.62Z</time></trkpt><trkpt lat="46.1773593" lon="13.2430073"><ele>197.0</ele><time>2026-05-01T08:36:10.62Z</time></trkpt><trkpt lat="46.1773043" lon="13.2431185"><ele>197.0</ele><time>2026-05-01T08:36:12.619Z</time></trkpt><trkpt lat="46.1772329" lon="13.2432335"><ele>197.00000000000003</ele><time>2026-05-01T08:36:20.619Z</time></trkpt><trkpt lat="46.1771846" lon="13.2432969"><ele>197.0</ele><time>2026-05-01T08:36:21.619Z</time></trkpt><trkpt lat="46.1771239" lon="13.2433715"><ele>197.16666666666669</ele><time>2026-05-01T08:36:22.62Z</time></trkpt><trkpt lat="46.1770629" lon="13.2434518"><ele>197.33333333333334</ele><time>2026-05-01T08:36:23.62Z</time></trkpt><trkpt lat="46.1770016" lon="13.2435315"><ele>197.5</ele><time>2026-05-01T08:36:24.619Z</time></trkpt><trkpt lat="46.1769375" lon="13.2436057"><ele>197.66666666666669</ele><time>2026-05-01T08:36:25.619Z</time></trkpt><trkpt lat="46.1768669" lon="13.2436765"><ele>197.83333333333334</ele><time>2026-05-01T08:36:26.62Z</time></trkpt><trkpt lat="46.1767987" lon="13.2437377"><ele>198.0</ele><time>2026-05-01T08:36:27.621Z</time></trkpt><trkpt lat="46.1767281" lon="13.243789"><ele>198.0</ele><time>2026-05-01T08:36:28.619Z</time></trkpt><trkpt lat="46.1766569" lon="13.2438342"><ele>198.0</ele><time>2026-05-01T08:36:29.62Z</time></trkpt><trkpt lat="46.1765765" lon="13.2438749"><ele>198.0</ele><time>2026-05-01T08:36:30.621Z</time></trkpt><trkpt lat="46.1764939" lon="13.2439118"><ele>198.0</ele><time>2026-05-01T08:36:31.62Z</time></trkpt><trkpt lat="46.1764088" lon="13.2439478"><ele>198.0</ele><time>2026-05-01T08:36:32.62Z</time></trkpt><trkpt lat="46.1763232" lon="13.243976"><ele>198.0</ele><time>2026-05-01T08:36:33.619Z</time></trkpt><trkpt lat="46.1762379" lon="13.2440024"><ele>197.57142857142858</ele><time>2026-05-01T08:36:34.62Z</time></trkpt><trkpt lat="46.1761567" lon="13.2440213"><ele>197.14285714285714</ele><time>2026-05-01T08:36:35.619Z</time></trkpt><trkpt lat="46.1760839" lon="13.2440375"><ele>196.71428571428572</ele><time>2026-05-01T08:36:36.62Z</time></trkpt><trkpt lat="46.1760148" lon="13.2440505"><ele>196.28571428571428</ele><time>2026-05-01T08:36:37.621Z</time></trkpt><trkpt lat="46.1759495" lon="13.2440423"><ele>195.85714285714283</ele><time>2026-05-01T08:36:38.619Z</time></trkpt><trkpt lat="46.175887" lon="13.2440122"><ele>195.42857142857142</ele><time>2026-05-01T08:36:39.619Z</time></trkpt><trkpt lat="46.1758235" lon="13.2439621"><ele>195.0</ele><time>2026-05-01T08:36:40.62Z</time></trkpt><trkpt lat="46.1757582" lon="13.2439083"><ele>195.0</ele><time>2026-05-01T08:36:41.62Z</time></trkpt><trkpt lat="46.1756884" lon="13.2438552"><ele>195.0</ele><time>2026-05-01T08:36:42.62Z</time></trkpt><trkpt lat="46.1756186" lon="13.2438056"><ele>195.0</ele><time>2026-05-01T08:36:43.619Z</time></trkpt><trkpt lat="46.1755463" lon="13.2437609"><ele>195.0</ele><time>2026-05-01T08:36:44.621Z</time></trkpt><trkpt lat="46.1754671" lon="13.2437375"><ele>195.0</ele><time>2026-05-01T08:36:45.621Z</time></trkpt><trkpt lat="46.1753863" lon="13.2437253"><ele>195.0</ele><time>2026-05-01T08:36:46.619Z</time></trkpt><trkpt lat="46.1753063" lon="13.2437287"><ele>194.83333333333334</ele><time>2026-05-01T08:36:47.619Z</time></trkpt><trkpt lat="46.1752285" lon="13.243734"><ele>194.66666666666669</ele><time>2026-05-01T08:36:48.62Z</time></trkpt><trkpt lat="46.1751535" lon="13.2437406"><ele>194.5</ele><time>2026-05-01T08:36:49.619Z</time></trkpt><trkpt lat="46.175077" lon="13.2437458"><ele>194.33333333333334</ele><time>2026-05-01T08:36:50.62Z</time></trkpt><trkpt lat="46.1749991" lon="13.2437519"><ele>194.16666666666669</ele><time>2026-05-01T08:36:51.619Z</time></trkpt><trkpt lat="46.1749233" lon="13.2437631"><ele>194.0</ele><time>2026-05-01T08:36:52.619Z</time></trkpt><trkpt lat="46.1748497" lon="13.2437755"><ele>193.7142857142857</ele><time>2026-05-01T08:36:53.62Z</time></trkpt><trkpt lat="46.1747764" lon="13.2437877"><ele>193.42857142857144</ele><time>2026-05-01T08:36:54.62Z</time></trkpt><trkpt lat="46.1747054" lon="13.2438045"><ele>193.14285714285714</ele><time>2026-05-01T08:36:55.619Z</time></trkpt><trkpt lat="46.1746324" lon="13.2438159"><ele>192.85714285714283</ele><time>2026-05-01T08:36:56.62Z</time></trkpt><trkpt lat="46.1745603" lon="13.243833"><ele>192.57142857142856</ele><time>2026-05-01T08:36:57.619Z</time></trkpt><trkpt lat="46.1744845" lon="13.2438451"><ele>192.28571428571428</ele><time>2026-05-01T08:36:58.62Z</time></trkpt><trkpt lat="46.1744088" lon="13.2438464"><ele>192.0</ele><time>2026-05-01T08:36:59.621Z</time></trkpt><trkpt lat="46.1743366" lon="13.243844"><ele>192.0</ele><time>2026-05-01T08:37:00.62Z</time></trkpt><trkpt lat="46.1742691" lon="13.2438359"><ele>192.0</ele><time>2026-05-01T08:37:01.621Z</time></trkpt><trkpt lat="46.1741479" lon="13.2438075"><ele>192.0</ele><time>2026-05-01T08:37:03.621Z</time></trkpt><trkpt lat="46.174082" lon="13.2437873"><ele>192.0</ele><time>2026-05-01T08:37:04.619Z</time></trkpt><trkpt lat="46.1740085" lon="13.243769"><ele>192.0</ele><time>2026-05-01T08:37:05.619Z</time></trkpt><trkpt lat="46.1739238" lon="13.2437652"><ele>192.0</ele><time>2026-05-01T08:37:06.62Z</time></trkpt><trkpt lat="46.1738356" lon="13.2437578"><ele>191.16666666666666</ele><time>2026-05-01T08:37:07.619Z</time></trkpt><trkpt lat="46.1737465" lon="13.2437533"><ele>190.33333333333334</ele><time>2026-05-01T08:37:08.621Z</time></trkpt><trkpt lat="46.1736591" lon="13.2437508"><ele>189.5</ele><time>2026-05-01T08:37:09.621Z</time></trkpt><trkpt lat="46.1735734" lon="13.2437494"><ele>188.66666666666669</ele><time>2026-05-01T08:37:10.621Z</time></trkpt><trkpt lat="46.173486" lon="13.2437423"><ele>187.83333333333334</ele><time>2026-05-01T08:37:11.62Z</time></trkpt><trkpt lat="46.1733977" lon="13.243745"><ele>187.0</ele><time>2026-05-01T08:37:12.619Z</time></trkpt><trkpt lat="46.1733096" lon="13.2437478"><ele>187.0</ele><time>2026-05-01T08:37:13.62Z</time></trkpt><trkpt lat="46.1732218" lon="13.2437489"><ele>187.0</ele><time>2026-05-01T08:37:14.619Z</time></trkpt><trkpt lat="46.1731359" lon="13.2437508"><ele>187.0</ele><time>2026-05-01T08:37:15.619Z</time></trkpt><trkpt lat="46.173048" lon="13.2437604"><ele>187.0</ele><time>2026-05-01T08:37:16.619Z</time></trkpt><trkpt lat="46.1729621" lon="13.2437814"><ele>187.0</ele><time>2026-05-01T08:37:17.619Z</time></trkpt><trkpt lat="46.1728831" lon="13.2438074"><ele>187.0</ele><time>2026-05-01T08:37:18.62Z</time></trkpt><trkpt lat="46.1728042" lon="13.2438326"><ele>185.66666666666669</ele><time>2026-05-01T08:37:19.619Z</time></trkpt><trkpt lat="46.1727316" lon="13.2438582"><ele>184.33333333333334</ele><time>2026-05-01T08:37:20.62Z</time></trkpt><trkpt lat="46.1726575" lon="13.2438812"><ele>183.0</ele><time>2026-05-01T08:37:21.619Z</time></trkpt><trkpt lat="46.1725862" lon="13.2439001"><ele>181.66666666666666</ele><time>2026-05-01T08:37:22.62Z</time></trkpt><trkpt lat="46.1725161" lon="13.243915"><ele>180.33333333333331</ele><time>2026-05-01T08:37:23.619Z</time></trkpt><trkpt lat="46.1724135" lon="13.2439212"><ele>179.0</ele><time>2026-05-01T08:37:25.619Z</time></trkpt><trkpt lat="46.1723501" lon="13.2438585"><ele>178.6</ele><time>2026-05-01T08:37:28.62Z</time></trkpt><trkpt lat="46.1723502" lon="13.2437213"><ele>178.2</ele><time>2026-05-01T08:37:30.62Z</time></trkpt><trkpt lat="46.1723383" lon="13.2435549"><ele>177.79999999999998</ele><time>2026-05-01T08:37:32.619Z</time></trkpt><trkpt lat="46.1723287" lon="13.2433865"><ele>177.39999999999998</ele><time>2026-05-01T08:37:34.62Z</time></trkpt><trkpt lat="46.1723255" lon="13.2432379"><ele>177.0</ele><time>2026-05-01T08:37:36.619Z</time></trkpt><trkpt lat="46.1723287" lon="13.2431172"><ele>177.0</ele><time>2026-05-01T08:37:38.618Z</time></trkpt><trkpt lat="46.1723338" lon="13.2429999"><ele>177.0</ele><time>2026-05-01T08:37:41.618Z</time></trkpt><trkpt lat="46.1723264" lon="13.2428937"><ele>177.0</ele><time>2026-05-01T08:37:52.619Z</time></trkpt><trkpt lat="46.1723219" lon="13.2427067"><ele>177.0</ele><time>2026-05-01T08:37:54.62Z</time></trkpt><trkpt lat="46.1723242" lon="13.2425991"><ele>177.0</ele><time>2026-05-01T08:37:55.619Z</time></trkpt><trkpt lat="46.1723287" lon="13.242495"><ele>177.0</ele><time>2026-05-01T08:37:56.619Z</time></trkpt><trkpt lat="46.1723335" lon="13.2423837"><ele>177.33333333333334</ele><time>2026-05-01T08:37:57.619Z</time></trkpt><trkpt lat="46.1723385" lon="13.2422698"><ele>177.66666666666666</ele><time>2026-05-01T08:37:58.619Z</time></trkpt><trkpt lat="46.1723448" lon="13.2421563"><ele>178.0</ele><time>2026-05-01T08:37:59.619Z</time></trkpt><trkpt lat="46.1723569" lon="13.2420599"><ele>178.33333333333331</ele><time>2026-05-01T08:38:00.618Z</time></trkpt><trkpt lat="46.1723824" lon="13.2419357"><ele>178.66666666666666</ele><time>2026-05-01T08:38:02.618Z</time></trkpt><trkpt lat="46.1724486" lon="13.2419762"><ele>179.0</ele><time>2026-05-01T08:41:03.618Z</time></trkpt><trkpt lat="46.1725102" lon="13.2419572"><ele>182.0</ele><time>2026-05-01T08:43:12.618Z</time></trkpt><trkpt lat="46.1725784" lon="13.2419701"><ele>182.0</ele><time>2026-05-01T08:43:19.618Z</time></trkpt></trkseg><trkseg><trkpt lat="46.1754381" lon="13.2417621"><ele>192.0</ele><time>2026-05-01T09:44:47.604Z</time></trkpt><trkpt lat="46.1754102" lon="13.2418593"><ele>192.0</ele><time>2026-05-01T09:44:49.604Z</time></trkpt><trkpt lat="46.1754718" lon="13.2419046"><ele>192.0</ele><time>2026-05-01T09:44:53.604Z</time></trkpt><trkpt lat="46.1754696" lon="13.2417621"><ele>192.0</ele><time>2026-05-01T09:44:55.604Z</time></trkpt><trkpt lat="46.1754679" lon="13.2416653"><ele>192.0</ele><time>2026-05-01T09:44:56.603Z</time></trkpt><trkpt lat="46.1754689" lon="13.2414955"><ele>192.0</ele><time>2026-05-01T09:44:58.603Z</time></trkpt><trkpt lat="46.1754958" lon="13.2414112"><ele>191.8</ele><time>2026-05-01T09:44:59.604Z</time></trkpt><trkpt lat="46.1756053" lon="13.2413417"><ele>191.6</ele><time>2026-05-01T09:45:01.604Z</time></trkpt><trkpt lat="46.1756872" lon="13.2413411"><ele>191.4</ele><time>2026-05-01T09:45:02.603Z</time></trkpt><trkpt lat="46.1757846" lon="13.2413399"><ele>191.20000000000002</ele><time>2026-05-01T09:45:03.603Z</time></trkpt><trkpt lat="46.1758868" lon="13.2413494"><ele>191.0</ele><time>2026-05-01T09:45:04.603Z</time></trkpt><trkpt lat="46.1759899" lon="13.2413598"><ele>192.0</ele><time>2026-05-01T09:45:05.604Z</time></trkpt><trkpt lat="46.1760924" lon="13.2413757"><ele>193.0</ele><time>2026-05-01T09:45:06.604Z</time></trkpt><trkpt lat="46.1761893" lon="13.241401"><ele>194.0</ele><time>2026-05-01T09:45:07.603Z</time></trkpt><trkpt lat="46.1762797" lon="13.2414579"><ele>195.0</ele><time>2026-05-01T09:45:08.603Z</time></trkpt><trkpt lat="46.17638" lon="13.2415453"><ele>196.0</ele><time>2026-05-01T09:45:09.603Z</time></trkpt><trkpt lat="46.1764636" lon="13.2416437"><ele>196.5</ele><time>2026-05-01T09:45:10.604Z</time></trkpt><trkpt lat="46.1765417" lon="13.241762"><ele>197.0</ele><time>2026-05-01T09:45:11.603Z</time></trkpt><trkpt lat="46.1766102" lon="13.2419056"><ele>197.5</ele><time>2026-05-01T09:45:12.604Z</time></trkpt><trkpt lat="46.176674" lon="13.2420563"><ele>198.0</ele><time>2026-05-01T09:45:13.604Z</time></trkpt><trkpt lat="46.1767443" lon="13.2422093"><ele>198.25</ele><time>2026-05-01T09:45:14.604Z</time></trkpt><trkpt lat="46.1768109" lon="13.2423723"><ele>198.5</ele><time>2026-05-01T09:45:15.603Z</time></trkpt><trkpt lat="46.1768769" lon="13.2425384"><ele>198.75</ele><time>2026-05-01T09:45:16.604Z</time></trkpt><trkpt lat="46.1769451" lon="13.2426816"><ele>199.0</ele><time>2026-05-01T09:45:17.604Z</time></trkpt><trkpt lat="46.1770156" lon="13.2428128"><ele>199.0</ele><time>2026-05-01T09:45:18.605Z</time></trkpt><trkpt lat="46.1770847" lon="13.2429283"><ele>199.0</ele><time>2026-05-01T09:45:19.603Z</time></trkpt><trkpt lat="46.1771356" lon="13.243017"><ele>199.0</ele><time>2026-05-01T09:45:20.603Z</time></trkpt><trkpt lat="46.1771889" lon="13.2431057"><ele>199.0</ele><time>2026-05-01T09:45:21.604Z</time></trkpt><trkpt lat="46.1772522" lon="13.2431904"><ele>199.0</ele><time>2026-05-01T09:45:22.605Z</time></trkpt><trkpt lat="46.1773368" lon="13.243276"><ele>199.0</ele><time>2026-05-01T09:45:23.603Z</time></trkpt><trkpt lat="46.177419" lon="13.2433483"><ele>199.0</ele><time>2026-05-01T09:45:24.604Z</time></trkpt><trkpt lat="46.1775169" lon="13.2434026"><ele>199.0</ele><time>2026-05-01T09:45:25.604Z</time></trkpt><trkpt lat="46.1776249" lon="13.2434245"><ele>199.0</ele><time>2026-05-01T09:45:26.604Z</time></trkpt><trkpt lat="46.1777442" lon="13.2434198"><ele>199.0</ele><time>2026-05-01T09:45:27.604Z</time></trkpt><trkpt lat="46.1778765" lon="13.243384"><ele>199.0</ele><time>2026-05-01T09:45:28.603Z</time></trkpt><trkpt lat="46.1780241" lon="13.2433425"><ele>199.0</ele><time>2026-05-01T09:45:29.604Z</time></trkpt><trkpt lat="46.1781716" lon="13.2433139"><ele>199.0</ele><time>2026-05-01T09:45:30.604Z</time></trkpt><trkpt lat="46.1783251" lon="13.2432949"><ele>198.0</ele><time>2026-05-01T09:45:31.605Z</time></trkpt><trkpt lat="46.1784942" lon="13.2432797"><ele>197.0</ele><time>2026-05-01T09:45:32.605Z</time></trkpt><trkpt lat="46.178663" lon="13.2432622"><ele>196.0</ele><time>2026-05-01T09:45:33.604Z</time></trkpt><trkpt lat="46.1788356" lon="13.2432448"><ele>196.0</ele><time>2026-05-01T09:45:34.604Z</time></trkpt><trkpt lat="46.1790104" lon="13.2432314"><ele>196.0</ele><time>2026-05-01T09:45:35.604Z</time></trkpt><trkpt lat="46.1791889" lon="13.2432173"><ele>196.0</ele><time>2026-05-01T09:45:36.605Z</time></trkpt><trkpt lat="46.1793694" lon="13.2432071"><ele>193.0</ele><time>2026-05-01T09:45:37.605Z</time></trkpt><trkpt lat="46.179554" lon="13.2431934"><ele>190.0</ele><time>2026-05-01T09:45:38.603Z</time></trkpt><trkpt lat="46.1797392" lon="13.2431755"><ele>187.0</ele><time>2026-05-01T09:45:39.603Z</time></trkpt><trkpt lat="46.1799228" lon="13.2431661"><ele>186.33333333333334</ele><time>2026-05-01T09:45:40.604Z</time></trkpt><trkpt lat="46.1800915" lon="13.2431547"><ele>185.66666666666666</ele><time>2026-05-01T09:45:41.604Z</time></trkpt><trkpt lat="46.1802497" lon="13.2431433"><ele>185.0</ele><time>2026-05-01T09:45:42.604Z</time></trkpt><trkpt lat="46.1803976" lon="13.2431375"><ele>185.4</ele><time>2026-05-01T09:45:43.603Z</time></trkpt><trkpt lat="46.180532" lon="13.243129"><ele>185.8</ele><time>2026-05-01T09:45:44.603Z</time></trkpt><trkpt lat="46.1806513" lon="13.2431258"><ele>186.2</ele><time>2026-05-01T09:45:45.603Z</time></trkpt><trkpt lat="46.1807472" lon="13.2431208"><ele>186.6</ele><time>2026-05-01T09:45:46.604Z</time></trkpt><trkpt lat="46.1808261" lon="13.2431199"><ele>187.0</ele><time>2026-05-01T09:45:47.604Z</time></trkpt><trkpt lat="46.1809268" lon="13.2431148"><ele>187.0</ele><time>2026-05-01T09:45:49.604Z</time></trkpt><trkpt lat="46.1809847" lon="13.2430762"><ele>187.0</ele><time>2026-05-01T09:45:52.605Z</time></trkpt><trkpt lat="46.1810342" lon="13.2431391"><ele>187.0</ele><time>2026-05-01T09:46:14.605Z</time></trkpt><trkpt lat="46.1810833" lon="13.2432042"><ele>187.0</ele><time>2026-05-01T09:46:15.604Z</time></trkpt><trkpt lat="46.1811501" lon="13.2432772"><ele>187.0</ele><time>2026-05-01T09:46:16.604Z</time></trkpt><trkpt lat="46.1812517" lon="13.2433617"><ele>187.0</ele><time>2026-05-01T09:46:17.604Z</time></trkpt><trkpt lat="46.1813458" lon="13.243462"><ele>186.75</ele><time>2026-05-01T09:46:18.604Z</time></trkpt><trkpt lat="46.1814394" lon="13.2435609"><ele>186.5</ele><time>2026-05-01T09:46:19.603Z</time></trkpt><trkpt lat="46.1815432" lon="13.2436678"><ele>186.25</ele><time>2026-05-01T09:46:20.605Z</time></trkpt><trkpt lat="46.1816502" lon="13.2437891"><ele>186.0</ele><time>2026-05-01T09:46:21.604Z</time></trkpt><trkpt lat="46.1817623" lon="13.2439173"><ele>186.0</ele><time>2026-05-01T09:46:22.604Z</time></trkpt><trkpt lat="46.1818899" lon="13.2440568"><ele>186.0</ele><time>2026-05-01T09:46:23.604Z</time></trkpt><trkpt lat="46.1820301" lon="13.2442054"><ele>186.0</ele><time>2026-05-01T09:46:24.603Z</time></trkpt><trkpt lat="46.1821686" lon="13.2443544"><ele>186.0</ele><time>2026-05-01T09:46:25.604Z</time></trkpt><trkpt lat="46.1823106" lon="13.2445117"><ele>186.0</ele><time>2026-05-01T09:46:26.603Z</time></trkpt><trkpt lat="46.1824608" lon="13.2446777"><ele>186.0</ele><time>2026-05-01T09:46:27.604Z</time></trkpt><trkpt lat="46.182614" lon="13.2448427"><ele>186.0</ele><time>2026-05-01T09:46:28.603Z</time></trkpt><trkpt lat="46.1827677" lon="13.2450112"><ele>186.0</ele><time>2026-05-01T09:46:29.604Z</time></trkpt><trkpt lat="46.182922" lon="13.245183"><ele>186.0</ele><time>2026-05-01T09:46:30.603Z</time></trkpt><trkpt lat="46.1830748" lon="13.2453566"><ele>186.66666666666666</ele><time>2026-05-01T09:46:31.603Z</time></trkpt><trkpt lat="46.1832196" lon="13.2455197"><ele>187.33333333333331</ele><time>2026-05-01T09:46:32.603Z</time></trkpt><trkpt lat="46.1833573" lon="13.2456775"><ele>188.0</ele><time>2026-05-01T09:46:33.602Z</time></trkpt><trkpt lat="46.1834933" lon="13.2458243"><ele>188.0</ele><time>2026-05-01T09:46:34.602Z</time></trkpt><trkpt lat="46.1836288" lon="13.2459654"><ele>188.0</ele><time>2026-05-01T09:46:35.603Z</time></trkpt><trkpt lat="46.183758" lon="13.2461011"><ele>188.0</ele><time>2026-05-01T09:46:36.604Z</time></trkpt><trkpt lat="46.183889" lon="13.2462441"><ele>187.33333333333331</ele><time>2026-05-01T09:46:37.602Z</time></trkpt><trkpt lat="46.1840211" lon="13.2463892"><ele>186.66666666666666</ele><time>2026-05-01T09:46:38.604Z</time></trkpt><trkpt lat="46.1841568" lon="13.2465324"><ele>186.0</ele><time>2026-05-01T09:46:39.604Z</time></trkpt><trkpt lat="46.1843011" lon="13.2466725"><ele>186.0</ele><time>2026-05-01T09:46:40.603Z</time></trkpt><trkpt lat="46.1844546" lon="13.2468161"><ele>186.0</ele><time>2026-05-01T09:46:41.603Z</time></trkpt><trkpt lat="46.1846201" lon="13.2469662"><ele>186.0</ele><time>2026-05-01T09:46:42.603Z</time></trkpt><trkpt lat="46.1847937" lon="13.2471253"><ele>186.66666666666666</ele><time>2026-05-01T09:46:43.602Z</time></trkpt><trkpt lat="46.1849771" lon="13.2472866"><ele>187.33333333333331</ele><time>2026-05-01T09:46:44.602Z</time></trkpt><trkpt lat="46.1851657" lon="13.2474533"><ele>188.0</ele><time>2026-05-01T09:46:45.603Z</time></trkpt><trkpt lat="46.1853555" lon="13.2476278"><ele>188.0</ele><time>2026-05-01T09:46:46.602Z</time></trkpt><trkpt lat="46.1855485" lon="13.2478083"><ele>188.0</ele><time>2026-05-01T09:46:47.602Z</time></trkpt><trkpt lat="46.1857483" lon="13.2479879"><ele>187.0</ele><time>2026-05-01T09:46:48.603Z</time></trkpt><trkpt lat="46.185949" lon="13.2481687"><ele>186.0</ele><time>2026-05-01T09:46:49.602Z</time></trkpt><trkpt lat="46.1861521" lon="13.2483506"><ele>186.0</ele><time>2026-05-01T09:46:50.603Z</time></trkpt><trkpt lat="46.186356" lon="13.2485264"><ele>186.0</ele><time>2026-05-01T09:46:51.603Z</time></trkpt><trkpt lat="46.1865656" lon="13.2487059"><ele>186.0</ele><time>2026-05-01T09:46:52.603Z</time></trkpt><trkpt lat="46.186778" lon="13.2488752"><ele>186.0</ele><time>2026-05-01T09:46:53.602Z</time></trkpt><trkpt lat="46.1869931" lon="13.2490388"><ele>185.5</ele><time>2026-05-01T09:46:54.603Z</time></trkpt><trkpt lat="46.1872086" lon="13.2492114"><ele>185.0</ele><time>2026-05-01T09:46:55.603Z</time></trkpt><trkpt lat="46.1874159" lon="13.2493768"><ele>186.0</ele><time>2026-05-01T09:46:56.602Z</time></trkpt><trkpt lat="46.1876162" lon="13.2495333"><ele>187.0</ele><time>2026-05-01T09:46:57.603Z</time></trkpt><trkpt lat="46.1878085" lon="13.249682"><ele>188.0</ele><time>2026-05-01T09:46:58.602Z</time></trkpt><trkpt lat="46.1879857" lon="13.2498213"><ele>188.0</ele><time>2026-05-01T09:46:59.602Z</time></trkpt><trkpt lat="46.1881515" lon="13.2499511"><ele>188.0</ele><time>2026-05-01T09:47:00.603Z</time></trkpt><trkpt lat="46.188311" lon="13.2500793"><ele>188.0</ele><time>2026-05-01T09:47:01.603Z</time></trkpt><trkpt lat="46.1884606" lon="13.250205"><ele>188.0</ele><time>2026-05-01T09:47:02.604Z</time></trkpt><trkpt lat="46.1885968" lon="13.2503454"><ele>188.0</ele><time>2026-05-01T09:47:03.603Z</time></trkpt><trkpt lat="46.1887256" lon="13.2504975"><ele>188.0</ele><time>2026-05-01T09:47:04.602Z</time></trkpt><trkpt lat="46.1888413" lon="13.2506766"><ele>188.0</ele><time>2026-05-01T09:47:05.603Z</time></trkpt><trkpt lat="46.1889475" lon="13.2508807"><ele>188.0</ele><time>2026-05-01T09:47:06.602Z</time></trkpt><trkpt lat="46.1890444" lon="13.2510966"><ele>188.0</ele><time>2026-05-01T09:47:07.604Z</time></trkpt><trkpt lat="46.1891317" lon="13.2513072"><ele>187.33333333333331</ele><time>2026-05-01T09:47:08.603Z</time></trkpt><trkpt lat="46.1892231" lon="13.2515122"><ele>186.66666666666666</ele><time>2026-05-01T09:47:09.603Z</time></trkpt><trkpt lat="46.1893098" lon="13.2517093"><ele>186.0</ele><time>2026-05-01T09:47:10.602Z</time></trkpt><trkpt lat="46.1893892" lon="13.2518897"><ele>186.0</ele><time>2026-05-01T09:47:11.602Z</time></trkpt><trkpt lat="46.1894646" lon="13.2520637"><ele>186.0</ele><time>2026-05-01T09:47:12.604Z</time></trkpt><trkpt lat="46.1895405" lon="13.2522349"><ele>186.0</ele><time>2026-05-01T09:47:13.604Z</time></trkpt><trkpt lat="46.1896152" lon="13.2523964"><ele>186.0</ele><time>2026-05-01T09:47:14.603Z</time></trkpt><trkpt lat="46.1896952" lon="13.2525522"><ele>185.5</ele><time>2026-05-01T09:47:15.602Z</time></trkpt><trkpt lat="46.1897801" lon="13.2526888"><ele>185.0</ele><time>2026-05-01T09:47:16.602Z</time></trkpt><trkpt lat="46.1898744" lon="13.2528016"><ele>184.5</ele><time>2026-05-01T09:47:17.603Z</time></trkpt><trkpt lat="46.1899663" lon="13.2528965"><ele>184.0</ele><time>2026-05-01T09:47:18.602Z</time></trkpt><trkpt lat="46.1900469" lon="13.2529853"><ele>183.75</ele><time>2026-05-01T09:47:19.602Z</time></trkpt><trkpt lat="46.1901319" lon="13.2530741"><ele>183.5</ele><time>2026-05-01T09:47:20.604Z</time></trkpt><trkpt lat="46.1902277" lon="13.253183"><ele>183.25</ele><time>2026-05-01T09:47:21.603Z</time></trkpt><trkpt lat="46.1903329" lon="13.2532976"><ele>183.0</ele><time>2026-05-01T09:47:22.602Z</time></trkpt><trkpt lat="46.1904469" lon="13.2534203"><ele>183.66666666666666</ele><time>2026-05-01T09:47:23.602Z</time></trkpt><trkpt lat="46.1905675" lon="13.2535541"><ele>184.33333333333331</ele><time>2026-05-01T09:47:24.602Z</time></trkpt><trkpt lat="46.1906924" lon="13.2536975"><ele>185.0</ele><time>2026-05-01T09:47:25.603Z</time></trkpt><trkpt lat="46.1908167" lon="13.2538396"><ele>185.66666666666666</ele><time>2026-05-01T09:47:26.602Z</time></trkpt><trkpt lat="46.1909438" lon="13.2539767"><ele>186.33333333333334</ele><time>2026-05-01T09:47:27.603Z</time></trkpt><trkpt lat="46.1910723" lon="13.2541166"><ele>187.0</ele><time>2026-05-01T09:47:28.603Z</time></trkpt><trkpt lat="46.1911978" lon="13.2542561"><ele>187.0</ele><time>2026-05-01T09:47:29.603Z</time></trkpt><trkpt lat="46.1913223" lon="13.2543931"><ele>187.0</ele><time>2026-05-01T09:47:30.602Z</time></trkpt><trkpt lat="46.1914475" lon="13.2545293"><ele>187.0</ele><time>2026-05-01T09:47:31.602Z</time></trkpt><trkpt lat="46.1915722" lon="13.2546668"><ele>186.66666666666669</ele><time>2026-05-01T09:47:32.603Z</time></trkpt><trkpt lat="46.1916971" lon="13.2548051"><ele>186.33333333333334</ele><time>2026-05-01T09:47:33.603Z</time></trkpt><trkpt lat="46.1918213" lon="13.2549463"><ele>186.0</ele><time>2026-05-01T09:47:34.602Z</time></trkpt><trkpt lat="46.1919457" lon="13.2550833"><ele>186.0</ele><time>2026-05-01T09:47:35.604Z</time></trkpt><trkpt lat="46.1920744" lon="13.2552229"><ele>186.0</ele><time>2026-05-01T09:47:36.602Z</time></trkpt><trkpt lat="46.1922032" lon="13.2553596"><ele>186.0</ele><time>2026-05-01T09:47:37.603Z</time></trkpt><trkpt lat="46.1923313" lon="13.2555005"><ele>187.0</ele><time>2026-05-01T09:47:38.602Z</time></trkpt><trkpt lat="46.1924581" lon="13.2556404"><ele>188.0</ele><time>2026-05-01T09:47:39.603Z</time></trkpt><trkpt lat="46.1925848" lon="13.2557832"><ele>189.0</ele><time>2026-05-01T09:47:40.602Z</time></trkpt><trkpt lat="46.1927131" lon="13.25592"><ele>189.0</ele><time>2026-05-01T09:47:41.604Z</time></trkpt><trkpt lat="46.1928413" lon="13.2560629"><ele>189.0</ele><time>2026-05-01T09:47:42.603Z</time></trkpt><trkpt lat="46.1929712" lon="13.256203"><ele>189.0</ele><time>2026-05-01T09:47:43.602Z</time></trkpt><trkpt lat="46.193103" lon="13.2563284"><ele>189.0</ele><time>2026-05-01T09:47:44.602Z</time></trkpt><trkpt lat="46.1932422" lon="13.2564511"><ele>189.0</ele><time>2026-05-01T09:47:45.603Z</time></trkpt><trkpt lat="46.1933858" lon="13.2565539"><ele>189.0</ele><time>2026-05-01T09:47:46.602Z</time></trkpt><trkpt lat="46.193533" lon="13.2566471"><ele>189.33333333333334</ele><time>2026-05-01T09:47:47.603Z</time></trkpt><trkpt lat="46.1936835" lon="13.2567187"><ele>189.66666666666669</ele><time>2026-05-01T09:47:48.603Z</time></trkpt><trkpt lat="46.193835" lon="13.2567866"><ele>190.0</ele><time>2026-05-01T09:47:49.602Z</time></trkpt><trkpt lat="46.1939843" lon="13.2568517"><ele>191.33333333333334</ele><time>2026-05-01T09:47:50.602Z</time></trkpt><trkpt lat="46.1941306" lon="13.25692"><ele>192.66666666666669</ele><time>2026-05-01T09:47:51.604Z</time></trkpt><trkpt lat="46.1942773" lon="13.2569883"><ele>194.0</ele><time>2026-05-01T09:47:52.604Z</time></trkpt><trkpt lat="46.1944228" lon="13.2570584"><ele>194.0</ele><time>2026-05-01T09:47:53.604Z</time></trkpt><trkpt lat="46.1945706" lon="13.2571258"><ele>194.0</ele><time>2026-05-01T09:47:54.603Z</time></trkpt><trkpt lat="46.1947198" lon="13.2571999"><ele>194.0</ele><time>2026-05-01T09:47:55.603Z</time></trkpt><trkpt lat="46.1948722" lon="13.2572721"><ele>195.5</ele><time>2026-05-01T09:47:56.603Z</time></trkpt><trkpt lat="46.1950255" lon="13.2573427"><ele>197.0</ele><time>2026-05-01T09:47:57.603Z</time></trkpt><trkpt lat="46.195166" lon="13.2574036"><ele>198.5</ele><time>2026-05-01T09:47:58.603Z</time></trkpt><trkpt lat="46.1952957" lon="13.257467"><ele>200.0</ele><time>2026-05-01T09:47:59.602Z</time></trkpt><trkpt lat="46.1954135" lon="13.2575293"><ele>200.0</ele><time>2026-05-01T09:48:00.602Z</time></trkpt><trkpt lat="46.1955206" lon="13.2575957"><ele>200.0</ele><time>2026-05-01T09:48:01.603Z</time></trkpt><trkpt lat="46.1956184" lon="13.2576618"><ele>200.0</ele><time>2026-05-01T09:48:02.604Z</time></trkpt><trkpt lat="46.1957083" lon="13.2577343"><ele>200.0</ele><time>2026-05-01T09:48:03.603Z</time></trkpt><trkpt lat="46.1957871" lon="13.2577975"><ele>200.0</ele><time>2026-05-01T09:48:04.603Z</time></trkpt><trkpt lat="46.1958486" lon="13.257852"><ele>200.2</ele><time>2026-05-01T09:48:05.603Z</time></trkpt><trkpt lat="46.1959307" lon="13.2579116"><ele>200.4</ele><time>2026-05-01T09:48:07.604Z</time></trkpt><trkpt lat="46.1959955" lon="13.2578776"><ele>200.60000000000002</ele><time>2026-05-01T09:48:09.604Z</time></trkpt><trkpt lat="46.196032" lon="13.2577145"><ele>200.8</ele><time>2026-05-01T09:48:11.603Z</time></trkpt><trkpt lat="46.1960443" lon="13.2575867"><ele>201.0</ele><time>2026-05-01T09:48:12.603Z</time></trkpt><trkpt lat="46.1960639" lon="13.2574366"><ele>200.75</ele><time>2026-05-01T09:48:13.602Z</time></trkpt><trkpt lat="46.1960799" lon="13.2572774"><ele>200.5</ele><time>2026-05-01T09:48:14.602Z</time></trkpt><trkpt lat="46.1960846" lon="13.2570981"><ele>200.25</ele><time>2026-05-01T09:48:15.602Z</time></trkpt><trkpt lat="46.1960713" lon="13.2569072"><ele>200.0</ele><time>2026-05-01T09:48:16.603Z</time></trkpt><trkpt lat="46.1960474" lon="13.2567091"><ele>200.0</ele><time>2026-05-01T09:48:17.603Z</time></trkpt><trkpt lat="46.1960168" lon="13.2565021"><ele>200.0</ele><time>2026-05-01T09:48:18.603Z</time></trkpt><trkpt lat="46.195984" lon="13.2563015"><ele>200.0</ele><time>2026-05-01T09:48:19.603Z</time></trkpt><trkpt lat="46.1959388" lon="13.2561105"><ele>200.0</ele><time>2026-05-01T09:48:20.602Z</time></trkpt><trkpt lat="46.1958782" lon="13.2559429"><ele>199.75</ele><time>2026-05-01T09:48:21.602Z</time></trkpt><trkpt lat="46.1957843" lon="13.2558076"><ele>199.5</ele><time>2026-05-01T09:48:22.602Z</time></trkpt><trkpt lat="46.1956628" lon="13.2556867"><ele>199.25</ele><time>2026-05-01T09:48:23.603Z</time></trkpt><trkpt lat="46.1955251" lon="13.2555674"><ele>199.0</ele><time>2026-05-01T09:48:24.603Z</time></trkpt><trkpt lat="46.1953915" lon="13.2554173"><ele>197.66666666666666</ele><time>2026-05-01T09:48:25.603Z</time></trkpt><trkpt lat="46.1952771" lon="13.2552322"><ele>196.33333333333331</ele><time>2026-05-01T09:48:26.603Z</time></trkpt><trkpt lat="46.1951823" lon="13.2550221"><ele>195.0</ele><time>2026-05-01T09:48:27.604Z</time></trkpt><trkpt lat="46.195105" lon="13.2547946"><ele>194.66666666666669</ele><time>2026-05-01T09:48:28.602Z</time></trkpt><trkpt lat="46.1950293" lon="13.2545668"><ele>194.33333333333334</ele><time>2026-05-01T09:48:29.603Z</time></trkpt><trkpt lat="46.1949652" lon="13.2543274"><ele>194.0</ele><time>2026-05-01T09:48:30.602Z</time></trkpt><trkpt lat="46.1949021" lon="13.2540879"><ele>194.0</ele><time>2026-05-01T09:48:31.602Z</time></trkpt><trkpt lat="46.1948398" lon="13.2538433"><ele>194.0</ele><time>2026-05-01T09:48:32.603Z</time></trkpt><trkpt lat="46.1947813" lon="13.2535904"><ele>194.0</ele><time>2026-05-01T09:48:33.604Z</time></trkpt><trkpt lat="46.194728" lon="13.2533389"><ele>194.0</ele><time>2026-05-01T09:48:34.603Z</time></trkpt><trkpt lat="46.1946833" lon="13.2530896"><ele>194.0</ele><time>2026-05-01T09:48:35.603Z</time></trkpt><trkpt lat="46.1946527" lon="13.2528424"><ele>194.0</ele><time>2026-05-01T09:48:36.602Z</time></trkpt><trkpt lat="46.194634" lon="13.2525978"><ele>194.0</ele><time>2026-05-01T09:48:37.603Z</time></trkpt><trkpt lat="46.194626" lon="13.2523689"><ele>194.0</ele><time>2026-05-01T09:48:38.603Z</time></trkpt><trkpt lat="46.1946352" lon="13.2521283"><ele>194.0</ele><time>2026-05-01T09:48:39.603Z</time></trkpt><trkpt lat="46.1946578" lon="13.251879"><ele>193.33333333333334</ele><time>2026-05-01T09:48:40.604Z</time></trkpt><trkpt lat="46.1946981" lon="13.2516166"><ele>192.66666666666669</ele><time>2026-05-01T09:48:41.602Z</time></trkpt><trkpt lat="46.1947493" lon="13.2513486"><ele>192.0</ele><time>2026-05-01T09:48:42.602Z</time></trkpt><trkpt lat="46.1948099" lon="13.2510809"><ele>192.0</ele><time>2026-05-01T09:48:43.603Z</time></trkpt><trkpt lat="46.194881" lon="13.2508101"><ele>192.0</ele><time>2026-05-01T09:48:44.602Z</time></trkpt><trkpt lat="46.1949565" lon="13.2505332"><ele>192.0</ele><time>2026-05-01T09:48:45.603Z</time></trkpt><trkpt lat="46.1950276" lon="13.2502521"><ele>192.0</ele><time>2026-05-01T09:48:46.602Z</time></trkpt><trkpt lat="46.1950976" lon="13.2499713"><ele>192.0</ele><time>2026-05-01T09:48:47.604Z</time></trkpt><trkpt lat="46.1951709" lon="13.249692"><ele>192.0</ele><time>2026-05-01T09:48:48.603Z</time></trkpt><trkpt lat="46.1952464" lon="13.2494121"><ele>192.0</ele><time>2026-05-01T09:48:49.602Z</time></trkpt><trkpt lat="46.1953204" lon="13.2491294"><ele>192.0</ele><time>2026-05-01T09:48:50.602Z</time></trkpt><trkpt lat="46.1953921" lon="13.2488516"><ele>192.0</ele><time>2026-05-01T09:48:51.602Z</time></trkpt><trkpt lat="46.1954578" lon="13.2485706"><ele>192.0</ele><time>2026-05-01T09:48:52.602Z</time></trkpt><trkpt lat="46.1955282" lon="13.2482896"><ele>192.0</ele><time>2026-05-01T09:48:53.603Z</time></trkpt><trkpt lat="46.1956005" lon="13.2480045"><ele>192.0</ele><time>2026-05-01T09:48:54.603Z</time></trkpt><trkpt lat="46.1956771" lon="13.2477192"><ele>194.66666666666669</ele><time>2026-05-01T09:48:55.604Z</time></trkpt><trkpt lat="46.1957518" lon="13.2474363"><ele>197.33333333333334</ele><time>2026-05-01T09:48:56.602Z</time></trkpt><trkpt lat="46.1958241" lon="13.2471561"><ele>200.0</ele><time>2026-05-01T09:48:57.602Z</time></trkpt><trkpt lat="46.1958938" lon="13.2468901"><ele>200.0</ele><time>2026-05-01T09:48:58.602Z</time></trkpt><trkpt lat="46.195953" lon="13.2466361"><ele>200.0</ele><time>2026-05-01T09:48:59.602Z</time></trkpt><trkpt lat="46.1959948" lon="13.246373"><ele>200.0</ele><time>2026-05-01T09:49:00.602Z</time></trkpt><trkpt lat="46.1960147" lon="13.246096"><ele>199.66666666666669</ele><time>2026-05-01T09:49:01.603Z</time></trkpt><trkpt lat="46.196021" lon="13.2457982"><ele>199.33333333333331</ele><time>2026-05-01T09:49:02.603Z</time></trkpt><trkpt lat="46.1960197" lon="13.2454875"><ele>199.0</ele><time>2026-05-01T09:49:03.603Z</time></trkpt><trkpt lat="46.1960234" lon="13.2451694"><ele>198.0</ele><time>2026-05-01T09:49:04.603Z</time></trkpt><trkpt lat="46.1960237" lon="13.2448585"><ele>197.0</ele><time>2026-05-01T09:49:05.603Z</time></trkpt><trkpt lat="46.1960254" lon="13.2445505"><ele>196.0</ele><time>2026-05-01T09:49:06.602Z</time></trkpt><trkpt lat="46.1960284" lon="13.2442414"><ele>195.66666666666666</ele><time>2026-05-01T09:49:07.604Z</time></trkpt><trkpt lat="46.1960395" lon="13.243951"><ele>195.33333333333331</ele><time>2026-05-01T09:49:08.603Z</time></trkpt><trkpt lat="46.1960565" lon="13.2436695"><ele>195.0</ele><time>2026-05-01T09:49:09.603Z</time></trkpt><trkpt lat="46.1960746" lon="13.2433986"><ele>195.0</ele><time>2026-05-01T09:49:10.602Z</time></trkpt><trkpt lat="46.19609" lon="13.2431296"><ele>195.0</ele><time>2026-05-01T09:49:11.603Z</time></trkpt><trkpt lat="46.1960868" lon="13.2428578"><ele>195.0</ele><time>2026-05-01T09:49:12.603Z</time></trkpt><trkpt lat="46.1960698" lon="13.2425741"><ele>195.0</ele><time>2026-05-01T09:49:13.603Z</time></trkpt><trkpt lat="46.1960365" lon="13.2422831"><ele>195.0</ele><time>2026-05-01T09:49:14.603Z</time></trkpt><trkpt lat="46.196003" lon="13.2419815"><ele>195.0</ele><time>2026-05-01T09:49:15.602Z</time></trkpt><trkpt lat="46.1959633" lon="13.2416813"><ele>194.66666666666669</ele><time>2026-05-01T09:49:16.604Z</time></trkpt><trkpt lat="46.1959231" lon="13.2413832"><ele>194.33333333333334</ele><time>2026-05-01T09:49:17.604Z</time></trkpt><trkpt lat="46.1958904" lon="13.2410988"><ele>194.0</ele><time>2026-05-01T09:49:18.603Z</time></trkpt><trkpt lat="46.195857" lon="13.2408392"><ele>194.33333333333334</ele><time>2026-05-01T09:49:19.603Z</time></trkpt><trkpt lat="46.1958265" lon="13.2405962"><ele>194.66666666666669</ele><time>2026-05-01T09:49:20.602Z</time></trkpt><trkpt lat="46.1958014" lon="13.2403636"><ele>195.0</ele><time>2026-05-01T09:49:21.603Z</time></trkpt><trkpt lat="46.195779" lon="13.2401476"><ele>195.0</ele><time>2026-05-01T09:49:22.602Z</time></trkpt><trkpt lat="46.1957536" lon="13.2399516"><ele>195.0</ele><time>2026-05-01T09:49:23.602Z</time></trkpt><trkpt lat="46.1957333" lon="13.2397688"><ele>195.0</ele><time>2026-05-01T09:49:24.603Z</time></trkpt><trkpt lat="46.1957159" lon="13.2395998"><ele>195.0</ele><time>2026-05-01T09:49:25.603Z</time></trkpt><trkpt lat="46.1957059" lon="13.2394177"><ele>196.0</ele><time>2026-05-01T09:49:26.603Z</time></trkpt><trkpt lat="46.1957153" lon="13.2392169"><ele>197.0</ele><time>2026-05-01T09:49:27.603Z</time></trkpt><trkpt lat="46.1957324" lon="13.2390034"><ele>198.0</ele><time>2026-05-01T09:49:28.602Z</time></trkpt><trkpt lat="46.1957529" lon="13.2387859"><ele>199.0</ele><time>2026-05-01T09:49:29.602Z</time></trkpt><trkpt lat="46.1957708" lon="13.2385627"><ele>199.66666666666666</ele><time>2026-05-01T09:49:30.603Z</time></trkpt><trkpt lat="46.195789" lon="13.2383322"><ele>200.33333333333331</ele><time>2026-05-01T09:49:31.602Z</time></trkpt><trkpt lat="46.1958097" lon="13.2380977"><ele>201.0</ele><time>2026-05-01T09:49:32.602Z</time></trkpt><trkpt lat="46.195834" lon="13.2378553"><ele>201.0</ele><time>2026-05-01T09:49:33.603Z</time></trkpt><trkpt lat="46.1958609" lon="13.2376191"><ele>201.0</ele><time>2026-05-01T09:49:34.602Z</time></trkpt><trkpt lat="46.1958882" lon="13.2374035"><ele>201.0</ele><time>2026-05-01T09:49:35.604Z</time></trkpt><trkpt lat="46.1959269" lon="13.2372064"><ele>200.0</ele><time>2026-05-01T09:49:36.602Z</time></trkpt><trkpt lat="46.1959862" lon="13.2370241"><ele>199.0</ele><time>2026-05-01T09:49:37.604Z</time></trkpt><trkpt lat="46.1960744" lon="13.2368404"><ele>198.0</ele><time>2026-05-01T09:49:38.604Z</time></trkpt><trkpt lat="46.1961886" lon="13.2366481"><ele>198.0</ele><time>2026-05-01T09:49:39.604Z</time></trkpt><trkpt lat="46.1963219" lon="13.236448"><ele>198.0</ele><time>2026-05-01T09:49:40.602Z</time></trkpt><trkpt lat="46.1964513" lon="13.2362452"><ele>198.0</ele><time>2026-05-01T09:49:41.604Z</time></trkpt><trkpt lat="46.196585" lon="13.236033"><ele>198.0</ele><time>2026-05-01T09:49:42.602Z</time></trkpt><trkpt lat="46.1967259" lon="13.235807"><ele>198.0</ele><time>2026-05-01T09:49:43.603Z</time></trkpt><trkpt lat="46.1968601" lon="13.2355961"><ele>198.0</ele><time>2026-05-01T09:49:44.602Z</time></trkpt><trkpt lat="46.1969835" lon="13.2354025"><ele>198.33333333333331</ele><time>2026-05-01T09:49:45.602Z</time></trkpt><trkpt lat="46.197103" lon="13.235219"><ele>198.66666666666666</ele><time>2026-05-01T09:49:46.602Z</time></trkpt><trkpt lat="46.1972157" lon="13.2350401"><ele>199.0</ele><time>2026-05-01T09:49:47.603Z</time></trkpt><trkpt lat="46.1973325" lon="13.2348604"><ele>200.0</ele><time>2026-05-01T09:49:48.603Z</time></trkpt><trkpt lat="46.1974613" lon="13.2346974"><ele>201.0</ele><time>2026-05-01T09:49:49.603Z</time></trkpt><trkpt lat="46.1976064" lon="13.2345558"><ele>202.0</ele><time>2026-05-01T09:49:50.603Z</time></trkpt><trkpt lat="46.1977606" lon="13.2344249"><ele>202.0</ele><time>2026-05-01T09:49:51.602Z</time></trkpt><trkpt lat="46.1979198" lon="13.2342933"><ele>202.0</ele><time>2026-05-01T09:49:52.603Z</time></trkpt><trkpt lat="46.1980724" lon="13.2341325"><ele>202.0</ele><time>2026-05-01T09:49:53.603Z</time></trkpt><trkpt lat="46.1982041" lon="13.2339438"><ele>202.66666666666666</ele><time>2026-05-01T09:49:54.603Z</time></trkpt><trkpt lat="46.1983274" lon="13.2337508"><ele>203.33333333333331</ele><time>2026-05-01T09:49:55.603Z</time></trkpt><trkpt lat="46.1984401" lon="13.2335716"><ele>204.0</ele><time>2026-05-01T09:49:56.603Z</time></trkpt><trkpt lat="46.1985488" lon="13.233409"><ele>204.0</ele><time>2026-05-01T09:49:57.603Z</time></trkpt><trkpt lat="46.1986648" lon="13.2332629"><ele>204.0</ele><time>2026-05-01T09:49:58.603Z</time></trkpt><trkpt lat="46.1988014" lon="13.2331362"><ele>204.0</ele><time>2026-05-01T09:49:59.603Z</time></trkpt><trkpt lat="46.1989581" lon="13.2330266"><ele>203.33333333333331</ele><time>2026-05-01T09:50:00.603Z</time></trkpt><trkpt lat="46.1991317" lon="13.2329283"><ele>202.66666666666666</ele><time>2026-05-01T09:50:01.603Z</time></trkpt><trkpt lat="46.1993097" lon="13.2328221"><ele>202.0</ele><time>2026-05-01T09:50:02.602Z</time></trkpt><trkpt lat="46.199498" lon="13.232706"><ele>202.0</ele><time>2026-05-01T09:50:03.603Z</time></trkpt><trkpt lat="46.1996862" lon="13.2325797"><ele>202.0</ele><time>2026-05-01T09:50:04.602Z</time></trkpt><trkpt lat="46.1998653" lon="13.2324436"><ele>202.0</ele><time>2026-05-01T09:50:05.601Z</time></trkpt><trkpt lat="46.2000362" lon="13.2323031"><ele>202.66666666666666</ele><time>2026-05-01T09:50:06.602Z</time></trkpt><trkpt lat="46.2001974" lon="13.2321595"><ele>203.33333333333331</ele><time>2026-05-01T09:50:07.602Z</time></trkpt><trkpt lat="46.200351" lon="13.2320153"><ele>204.0</ele><time>2026-05-01T09:50:08.602Z</time></trkpt><trkpt lat="46.2004937" lon="13.2318732"><ele>204.0</ele><time>2026-05-01T09:50:09.602Z</time></trkpt><trkpt lat="46.2006324" lon="13.2317399"><ele>204.0</ele><time>2026-05-01T09:50:10.602Z</time></trkpt><trkpt lat="46.2007592" lon="13.2316142"><ele>204.0</ele><time>2026-05-01T09:50:11.601Z</time></trkpt><trkpt lat="46.2008787" lon="13.2315032"><ele>204.0</ele><time>2026-05-01T09:50:12.601Z</time></trkpt><trkpt lat="46.2009935" lon="13.2313954"><ele>204.0</ele><time>2026-05-01T09:50:13.602Z</time></trkpt><trkpt lat="46.2011114" lon="13.2312933"><ele>204.0</ele><time>2026-05-01T09:50:14.601Z</time></trkpt><trkpt lat="46.2012277" lon="13.2311875"><ele>204.0</ele><time>2026-05-01T09:50:15.602Z</time></trkpt><trkpt lat="46.201344" lon="13.2310797"><ele>204.0</ele><time>2026-05-01T09:50:16.601Z</time></trkpt><trkpt lat="46.2014633" lon="13.2309669"><ele>204.0</ele><time>2026-05-01T09:50:17.601Z</time></trkpt><trkpt lat="46.2015816" lon="13.2308576"><ele>204.0</ele><time>2026-05-01T09:50:18.602Z</time></trkpt><trkpt lat="46.2017035" lon="13.2307542"><ele>204.0</ele><time>2026-05-01T09:50:19.601Z</time></trkpt><trkpt lat="46.2018332" lon="13.2306558"><ele>204.0</ele><time>2026-05-01T09:50:20.602Z</time></trkpt><trkpt lat="46.2019697" lon="13.2305691"><ele>204.0</ele><time>2026-05-01T09:50:21.602Z</time></trkpt><trkpt lat="46.202099" lon="13.2304943"><ele>204.0</ele><time>2026-05-01T09:50:22.602Z</time></trkpt><trkpt lat="46.2022239" lon="13.2304309"><ele>204.0</ele><time>2026-05-01T09:50:23.602Z</time></trkpt><trkpt lat="46.2023425" lon="13.2303843"><ele>204.79999999999998</ele><time>2026-05-01T09:50:24.601Z</time></trkpt><trkpt lat="46.2024565" lon="13.2303425"><ele>205.6</ele><time>2026-05-01T09:50:25.602Z</time></trkpt><trkpt lat="46.2025574" lon="13.230303"><ele>206.4</ele><time>2026-05-01T09:50:26.602Z</time></trkpt><trkpt lat="46.2026524" lon="13.2302616"><ele>207.2</ele><time>2026-05-01T09:50:27.601Z</time></trkpt><trkpt lat="46.2027442" lon="13.2302237"><ele>208.0</ele><time>2026-05-01T09:50:28.602Z</time></trkpt><trkpt lat="46.2028249" lon="13.2301927"><ele>208.0</ele><time>2026-05-01T09:50:29.601Z</time></trkpt><trkpt lat="46.2028997" lon="13.2301636"><ele>208.0</ele><time>2026-05-01T09:50:30.603Z</time></trkpt><trkpt lat="46.2029669" lon="13.2301373"><ele>208.0</ele><time>2026-05-01T09:50:31.603Z</time></trkpt><trkpt lat="46.2030315" lon="13.2301066"><ele>208.0</ele><time>2026-05-01T09:50:32.603Z</time></trkpt><trkpt lat="46.2030962" lon="13.2300602"><ele>208.0</ele><time>2026-05-01T09:50:33.602Z</time></trkpt><trkpt lat="46.203154" lon="13.2300065"><ele>208.0</ele><time>2026-05-01T09:50:34.602Z</time></trkpt><trkpt lat="46.2031988" lon="13.2299413"><ele>208.0</ele><time>2026-05-01T09:50:35.602Z</time></trkpt><trkpt lat="46.2032344" lon="13.2298658"><ele>207.16666666666666</ele><time>2026-05-01T09:50:36.603Z</time></trkpt><trkpt lat="46.2032551" lon="13.2297752"><ele>206.33333333333331</ele><time>2026-05-01T09:50:37.602Z</time></trkpt><trkpt lat="46.20326" lon="13.2296492"><ele>205.5</ele><time>2026-05-01T09:50:38.602Z</time></trkpt><trkpt lat="46.2032622" lon="13.2295089"><ele>204.66666666666669</ele><time>2026-05-01T09:50:39.602Z</time></trkpt><trkpt lat="46.2032613" lon="13.2293718"><ele>203.83333333333334</ele><time>2026-05-01T09:50:40.602Z</time></trkpt><trkpt lat="46.2032623" lon="13.2292307"><ele>203.0</ele><time>2026-05-01T09:50:41.601Z</time></trkpt><trkpt lat="46.2032632" lon="13.2290853"><ele>204.00000000000003</ele><time>2026-05-01T09:50:42.601Z</time></trkpt><trkpt lat="46.2032654" lon="13.2289474"><ele>205.0</ele><time>2026-05-01T09:50:43.601Z</time></trkpt><trkpt lat="46.2032694" lon="13.2288159"><ele>206.0</ele><time>2026-05-01T09:50:44.602Z</time></trkpt><trkpt lat="46.2032763" lon="13.2286909"><ele>207.0</ele><time>2026-05-01T09:50:45.601Z</time></trkpt><trkpt lat="46.2032829" lon="13.2285698"><ele>208.00000000000003</ele><time>2026-05-01T09:50:46.601Z</time></trkpt><trkpt lat="46.2032983" lon="13.2284459"><ele>209.0</ele><time>2026-05-01T09:50:47.601Z</time></trkpt><trkpt lat="46.2033339" lon="13.2283352"><ele>209.0</ele><time>2026-05-01T09:50:48.601Z</time></trkpt><trkpt lat="46.2033918" lon="13.2282395"><ele>209.0</ele><time>2026-05-01T09:50:49.601Z</time></trkpt><trkpt lat="46.2034772" lon="13.2281472"><ele>209.0</ele><time>2026-05-01T09:50:50.602Z</time></trkpt><trkpt lat="46.2035855" lon="13.2280648"><ele>209.0</ele><time>2026-05-01T09:50:51.601Z</time></trkpt><trkpt lat="46.2037108" lon="13.2279955"><ele>209.0</ele><time>2026-05-01T09:50:52.602Z</time></trkpt><trkpt lat="46.2038311" lon="13.2279359"><ele>209.0</ele><time>2026-05-01T09:50:53.602Z</time></trkpt><trkpt lat="46.203947" lon="13.2278716"><ele>209.0</ele><time>2026-05-01T09:50:54.602Z</time></trkpt><trkpt lat="46.2040533" lon="13.2278187"><ele>209.0</ele><time>2026-05-01T09:50:55.602Z</time></trkpt><trkpt lat="46.2041408" lon="13.2277741"><ele>209.0</ele><time>2026-05-01T09:50:56.601Z</time></trkpt><trkpt lat="46.2042233" lon="13.227732"><ele>209.0</ele><time>2026-05-01T09:50:57.601Z</time></trkpt><trkpt lat="46.2043024" lon="13.2276909"><ele>209.0</ele><time>2026-05-01T09:50:58.602Z</time></trkpt><trkpt lat="46.2043888" lon="13.2276476"><ele>209.0</ele><time>2026-05-01T09:50:59.602Z</time></trkpt><trkpt lat="46.2044794" lon="13.2276007"><ele>209.0</ele><time>2026-05-01T09:51:00.601Z</time></trkpt><trkpt lat="46.2045822" lon="13.2275492"><ele>209.0</ele><time>2026-05-01T09:51:01.602Z</time></trkpt><trkpt lat="46.2046877" lon="13.2274955"><ele>209.0</ele><time>2026-05-01T09:51:02.602Z</time></trkpt><trkpt lat="46.2047973" lon="13.2274381"><ele>209.0</ele><time>2026-05-01T09:51:03.601Z</time></trkpt><trkpt lat="46.2049123" lon="13.2273772"><ele>209.0</ele><time>2026-05-01T09:51:04.601Z</time></trkpt><trkpt lat="46.2050336" lon="13.2273112"><ele>210.25</ele><time>2026-05-01T09:51:05.602Z</time></trkpt><trkpt lat="46.2051573" lon="13.2272489"><ele>211.5</ele><time>2026-05-01T09:51:06.603Z</time></trkpt><trkpt lat="46.2052813" lon="13.2271866"><ele>212.75</ele><time>2026-05-01T09:51:07.601Z</time></trkpt><trkpt lat="46.2053948" lon="13.2271308"><ele>214.0</ele><time>2026-05-01T09:51:08.603Z</time></trkpt><trkpt lat="46.2054996" lon="13.2270805"><ele>214.0</ele><time>2026-05-01T09:51:09.602Z</time></trkpt><trkpt lat="46.2056123" lon="13.2270284"><ele>214.0</ele><time>2026-05-01T09:51:10.601Z</time></trkpt><trkpt lat="46.205735" lon="13.2269539"><ele>214.0</ele><time>2026-05-01T09:51:11.602Z</time></trkpt><trkpt lat="46.2058801" lon="13.2268786"><ele>214.0</ele><time>2026-05-01T09:51:12.601Z</time></trkpt><trkpt lat="46.2060446" lon="13.2268052"><ele>214.0</ele><time>2026-05-01T09:51:13.601Z</time></trkpt><trkpt lat="46.2062194" lon="13.226724"><ele>214.0</ele><time>2026-05-01T09:51:14.601Z</time></trkpt><trkpt lat="46.2063861" lon="13.226641"><ele>214.0</ele><time>2026-05-01T09:51:15.602Z</time></trkpt><trkpt lat="46.2065401" lon="13.2265578"><ele>214.0</ele><time>2026-05-01T09:51:16.601Z</time></trkpt><trkpt lat="46.2066905" lon="13.2264834"><ele>214.0</ele><time>2026-05-01T09:51:17.601Z</time></trkpt><trkpt lat="46.2068293" lon="13.2264105"><ele>214.0</ele><time>2026-05-01T09:51:18.601Z</time></trkpt><trkpt lat="46.2069668" lon="13.2263392"><ele>214.25</ele><time>2026-05-01T09:51:19.601Z</time></trkpt><trkpt lat="46.2071038" lon="13.2262673"><ele>214.5</ele><time>2026-05-01T09:51:20.603Z</time></trkpt><trkpt lat="46.2072352" lon="13.2262013"><ele>214.75</ele><time>2026-05-01T09:51:21.601Z</time></trkpt><trkpt lat="46.2073688" lon="13.2261322"><ele>215.0</ele><time>2026-05-01T09:51:22.601Z</time></trkpt><trkpt lat="46.2075055" lon="13.2260706"><ele>215.25</ele><time>2026-05-01T09:51:23.601Z</time></trkpt><trkpt lat="46.2076467" lon="13.2260063"><ele>215.5</ele><time>2026-05-01T09:51:24.602Z</time></trkpt><trkpt lat="46.2077809" lon="13.2259315"><ele>215.75</ele><time>2026-05-01T09:51:25.602Z</time></trkpt><trkpt lat="46.207917" lon="13.2258512"><ele>216.0</ele><time>2026-05-01T09:51:26.601Z</time></trkpt><trkpt lat="46.2080502" lon="13.2257549"><ele>216.0</ele><time>2026-05-01T09:51:27.601Z</time></trkpt><trkpt lat="46.2081837" lon="13.2256455"><ele>216.0</ele><time>2026-05-01T09:51:28.603Z</time></trkpt><trkpt lat="46.2083109" lon="13.2255196"><ele>216.0</ele><time>2026-05-01T09:51:29.603Z</time></trkpt><trkpt lat="46.2084248" lon="13.2253895"><ele>216.0</ele><time>2026-05-01T09:51:30.602Z</time></trkpt><trkpt lat="46.2085291" lon="13.2252564"><ele>216.0</ele><time>2026-05-01T09:51:31.601Z</time></trkpt><trkpt lat="46.2086275" lon="13.2251252"><ele>216.0</ele><time>2026-05-01T09:51:32.601Z</time></trkpt><trkpt lat="46.2087236" lon="13.2249914"><ele>216.0</ele><time>2026-05-01T09:51:33.601Z</time></trkpt><trkpt lat="46.2088137" lon="13.2248567"><ele>216.0</ele><time>2026-05-01T09:51:34.601Z</time></trkpt><trkpt lat="46.2089033" lon="13.2247232"><ele>216.0</ele><time>2026-05-01T09:51:35.602Z</time></trkpt><trkpt lat="46.2089906" lon="13.2245927"><ele>216.0</ele><time>2026-05-01T09:51:36.603Z</time></trkpt><trkpt lat="46.2090784" lon="13.224462"><ele>216.0</ele><time>2026-05-01T09:51:37.603Z</time></trkpt><trkpt lat="46.2091669" lon="13.2243336"><ele>216.0</ele><time>2026-05-01T09:51:38.602Z</time></trkpt><trkpt lat="46.2092577" lon="13.2242016"><ele>216.0</ele><time>2026-05-01T09:51:39.602Z</time></trkpt><trkpt lat="46.2093481" lon="13.2240697"><ele>216.0</ele><time>2026-05-01T09:51:40.602Z</time></trkpt><trkpt lat="46.2094418" lon="13.2239346"><ele>216.0</ele><time>2026-05-01T09:51:41.602Z</time></trkpt><trkpt lat="46.2095341" lon="13.223799"><ele>216.0</ele><time>2026-05-01T09:51:42.603Z</time></trkpt><trkpt lat="46.2096319" lon="13.2236594"><ele>216.0</ele><time>2026-05-01T09:51:43.602Z</time></trkpt><trkpt lat="46.2097263" lon="13.2235205"><ele>216.0</ele><time>2026-05-01T09:51:44.602Z</time></trkpt><trkpt lat="46.2098212" lon="13.2233813"><ele>216.0</ele><time>2026-05-01T09:51:45.602Z</time></trkpt><trkpt lat="46.2099127" lon="13.2232369"><ele>216.5</ele><time>2026-05-01T09:51:46.602Z</time></trkpt><trkpt lat="46.2100083" lon="13.2231067"><ele>217.0</ele><time>2026-05-01T09:51:47.602Z</time></trkpt><trkpt lat="46.2100937" lon="13.2229815"><ele>217.5</ele><time>2026-05-01T09:51:48.602Z</time></trkpt><trkpt lat="46.2101797" lon="13.222859"><ele>218.0</ele><time>2026-05-01T09:51:49.602Z</time></trkpt><trkpt lat="46.2102644" lon="13.2227407"><ele>218.0</ele><time>2026-05-01T09:51:50.602Z</time></trkpt><trkpt lat="46.2103526" lon="13.2226255"><ele>218.0</ele><time>2026-05-01T09:51:51.602Z</time></trkpt><trkpt lat="46.2104481" lon="13.2225199"><ele>218.0</ele><time>2026-05-01T09:51:52.602Z</time></trkpt><trkpt lat="46.210552" lon="13.2224365"><ele>218.0</ele><time>2026-05-01T09:51:53.601Z</time></trkpt><trkpt lat="46.2106535" lon="13.2223366"><ele>219.0</ele><time>2026-05-01T09:51:54.601Z</time></trkpt><trkpt lat="46.2107572" lon="13.2222294"><ele>220.0</ele><time>2026-05-01T09:51:55.602Z</time></trkpt><trkpt lat="46.2108584" lon="13.222128"><ele>221.0</ele><time>2026-05-01T09:51:56.602Z</time></trkpt><trkpt lat="46.2109667" lon="13.2220327"><ele>222.0</ele><time>2026-05-01T09:51:57.602Z</time></trkpt><trkpt lat="46.2110792" lon="13.2219306"><ele>222.0</ele><time>2026-05-01T09:51:58.602Z</time></trkpt><trkpt lat="46.2111896" lon="13.2218312"><ele>222.0</ele><time>2026-05-01T09:51:59.602Z</time></trkpt><trkpt lat="46.2112998" lon="13.2217355"><ele>222.0</ele><time>2026-05-01T09:52:00.602Z</time></trkpt><trkpt lat="46.2114158" lon="13.2216423"><ele>222.0</ele><time>2026-05-01T09:52:01.603Z</time></trkpt><trkpt lat="46.2115278" lon="13.2215475"><ele>222.5</ele><time>2026-05-01T09:52:02.603Z</time></trkpt><trkpt lat="46.2116447" lon="13.2214512"><ele>223.0</ele><time>2026-05-01T09:52:03.602Z</time></trkpt><trkpt lat="46.211746" lon="13.2213585"><ele>223.5</ele><time>2026-05-01T09:52:04.601Z</time></trkpt><trkpt lat="46.2118496" lon="13.2212474"><ele>224.0</ele><time>2026-05-01T09:52:05.603Z</time></trkpt><trkpt lat="46.2119468" lon="13.2211421"><ele>224.0</ele><time>2026-05-01T09:52:06.602Z</time></trkpt><trkpt lat="46.2120558" lon="13.2210341"><ele>224.0</ele><time>2026-05-01T09:52:07.603Z</time></trkpt><trkpt lat="46.212157" lon="13.2209313"><ele>224.0</ele><time>2026-05-01T09:52:08.602Z</time></trkpt><trkpt lat="46.2122691" lon="13.2208337"><ele>224.0</ele><time>2026-05-01T09:52:09.601Z</time></trkpt><trkpt lat="46.2123722" lon="13.2207395"><ele>223.75</ele><time>2026-05-01T09:52:10.601Z</time></trkpt><trkpt lat="46.2124663" lon="13.2206438"><ele>223.5</ele><time>2026-05-01T09:52:11.601Z</time></trkpt><trkpt lat="46.2125634" lon="13.2205556"><ele>223.25</ele><time>2026-05-01T09:52:12.601Z</time></trkpt><trkpt lat="46.2126637" lon="13.2204654"><ele>223.0</ele><time>2026-05-01T09:52:13.602Z</time></trkpt><trkpt lat="46.2127584" lon="13.2203902"><ele>223.0</ele><time>2026-05-01T09:52:14.603Z</time></trkpt><trkpt lat="46.2128534" lon="13.2203066"><ele>223.0</ele><time>2026-05-01T09:52:15.602Z</time></trkpt><trkpt lat="46.2129491" lon="13.2202196"><ele>223.0</ele><time>2026-05-01T09:52:16.602Z</time></trkpt><trkpt lat="46.2130324" lon="13.2201381"><ele>223.0</ele><time>2026-05-01T09:52:17.603Z</time></trkpt><trkpt lat="46.2131108" lon="13.2200643"><ele>223.0</ele><time>2026-05-01T09:52:18.602Z</time></trkpt><trkpt lat="46.2131913" lon="13.2200037"><ele>223.49999999999997</ele><time>2026-05-01T09:52:19.601Z</time></trkpt><trkpt lat="46.2132738" lon="13.2199476"><ele>224.0</ele><time>2026-05-01T09:52:20.602Z</time></trkpt><trkpt lat="46.2133563" lon="13.2199002"><ele>224.5</ele><time>2026-05-01T09:52:21.601Z</time></trkpt><trkpt lat="46.2134392" lon="13.2198575"><ele>225.0</ele><time>2026-05-01T09:52:22.602Z</time></trkpt><trkpt lat="46.2135226" lon="13.2198264"><ele>225.49999999999997</ele><time>2026-05-01T09:52:23.602Z</time></trkpt><trkpt lat="46.2135967" lon="13.2198056"><ele>226.0</ele><time>2026-05-01T09:52:24.601Z</time></trkpt><trkpt lat="46.2136643" lon="13.2197842"><ele>226.0</ele><time>2026-05-01T09:52:25.601Z</time></trkpt><trkpt lat="46.2137285" lon="13.2197735"><ele>226.00000000000003</ele><time>2026-05-01T09:52:26.601Z</time></trkpt><trkpt lat="46.2138455" lon="13.2197725"><ele>226.00000000000003</ele><time>2026-05-01T09:52:28.602Z</time></trkpt><trkpt lat="46.2139588" lon="13.2198153"><ele>226.0</ele><time>2026-05-01T09:52:30.602Z</time></trkpt><trkpt lat="46.2140676" lon="13.2198738"><ele>226.0</ele><time>2026-05-01T09:52:32.601Z</time></trkpt><trkpt lat="46.2141857" lon="13.219929"><ele>226.14285714285717</ele><time>2026-05-01T09:52:34.602Z</time></trkpt><trkpt lat="46.2142531" lon="13.2199591"><ele>226.28571428571428</ele><time>2026-05-01T09:52:35.602Z</time></trkpt><trkpt lat="46.214319" lon="13.2199801"><ele>226.42857142857144</ele><time>2026-05-01T09:52:36.602Z</time></trkpt><trkpt lat="46.2143863" lon="13.2199819"><ele>226.57142857142858</ele><time>2026-05-01T09:52:37.603Z</time></trkpt><trkpt lat="46.2144544" lon="13.219969"><ele>226.71428571428572</ele><time>2026-05-01T09:52:38.601Z</time></trkpt><trkpt lat="46.2145274" lon="13.2199576"><ele>226.85714285714286</ele><time>2026-05-01T09:52:39.601Z</time></trkpt><trkpt lat="46.2145993" lon="13.2199394"><ele>227.0</ele><time>2026-05-01T09:52:40.602Z</time></trkpt><trkpt lat="46.2146712" lon="13.2199246"><ele>227.0</ele><time>2026-05-01T09:52:41.602Z</time></trkpt><trkpt lat="46.2147394" lon="13.2199031"><ele>227.00000000000003</ele><time>2026-05-01T09:52:42.601Z</time></trkpt><trkpt lat="46.2148009" lon="13.2198694"><ele>227.0</ele><time>2026-05-01T09:52:43.602Z</time></trkpt><trkpt lat="46.2148495" lon="13.2198058"><ele>227.0</ele><time>2026-05-01T09:52:44.602Z</time></trkpt><trkpt lat="46.2148805" lon="13.2197135"><ele>227.00000000000003</ele><time>2026-05-01T09:52:45.603Z</time></trkpt><trkpt lat="46.2148899" lon="13.2196187"><ele>227.0</ele><time>2026-05-01T09:52:46.602Z</time></trkpt><trkpt lat="46.2149013" lon="13.2195042"><ele>227.0</ele><time>2026-05-01T09:52:48.602Z</time></trkpt><trkpt lat="46.214915" lon="13.2193755"><ele>226.8</ele><time>2026-05-01T09:52:51.603Z</time></trkpt><trkpt lat="46.2149214" lon="13.2191937"><ele>226.6</ele><time>2026-05-01T09:52:53.601Z</time></trkpt><trkpt lat="46.2149176" lon="13.2190601"><ele>226.40000000000003</ele><time>2026-05-01T09:52:54.602Z</time></trkpt><trkpt lat="46.2149051" lon="13.2189171"><ele>226.20000000000002</ele><time>2026-05-01T09:52:55.602Z</time></trkpt><trkpt lat="46.214908" lon="13.2187537"><ele>226.0</ele><time>2026-05-01T09:52:56.601Z</time></trkpt><trkpt lat="46.2149032" lon="13.2186027"><ele>225.99999999999997</ele><time>2026-05-01T09:52:57.602Z</time></trkpt><trkpt lat="46.2149065" lon="13.2184798"><ele>226.0</ele><time>2026-05-01T09:52:58.603Z</time></trkpt><trkpt lat="46.2149013" lon="13.2183421"><ele>226.0</ele><time>2026-05-01T09:52:59.601Z</time></trkpt><trkpt lat="46.2149095" lon="13.2182114"><ele>226.0</ele><time>2026-05-01T09:53:00.602Z</time></trkpt><trkpt lat="46.2149171" lon="13.218117"><ele>225.99999999999997</ele><time>2026-05-01T09:53:01.601Z</time></trkpt><trkpt lat="46.2149178" lon="13.218015"><ele>226.0</ele><time>2026-05-01T09:53:02.601Z</time></trkpt><trkpt lat="46.2149196" lon="13.21792"><ele>225.60000000000002</ele><time>2026-05-01T09:53:03.602Z</time></trkpt><trkpt lat="46.2149261" lon="13.2177943"><ele>225.20000000000002</ele><time>2026-05-01T09:53:04.601Z</time></trkpt><trkpt lat="46.2149341" lon="13.2176564"><ele>224.79999999999998</ele><time>2026-05-01T09:53:05.601Z</time></trkpt><trkpt lat="46.2149293" lon="13.2175186"><ele>224.39999999999998</ele><time>2026-05-01T09:53:06.602Z</time></trkpt><trkpt lat="46.2149342" lon="13.2173802"><ele>224.0</ele><time>2026-05-01T09:53:07.602Z</time></trkpt><trkpt lat="46.214937" lon="13.2172397"><ele>224.0</ele><time>2026-05-01T09:53:08.601Z</time></trkpt><trkpt lat="46.2149232" lon="13.2170414"><ele>224.0</ele><time>2026-05-01T09:53:09.603Z</time></trkpt><trkpt lat="46.2149418" lon="13.21684"><ele>224.0</ele><time>2026-05-01T09:53:10.603Z</time></trkpt><trkpt lat="46.2149534" lon="13.2166448"><ele>224.0</ele><time>2026-05-01T09:53:11.602Z</time></trkpt><trkpt lat="46.2149691" lon="13.2163909"><ele>224.0</ele><time>2026-05-01T09:53:12.602Z</time></trkpt><trkpt lat="46.2149815" lon="13.2161554"><ele>224.0</ele><time>2026-05-01T09:53:13.602Z</time></trkpt><trkpt lat="46.2149836" lon="13.2159271"><ele>224.0</ele><time>2026-05-01T09:53:14.603Z</time></trkpt><trkpt lat="46.2149822" lon="13.2157148"><ele>224.25</ele><time>2026-05-01T09:53:15.601Z</time></trkpt><trkpt lat="46.214987" lon="13.2154923"><ele>224.5</ele><time>2026-05-01T09:53:16.602Z</time></trkpt><trkpt lat="46.2149896" lon="13.21529"><ele>224.75</ele><time>2026-05-01T09:53:17.602Z</time></trkpt><trkpt lat="46.2149956" lon="13.2150861"><ele>225.0</ele><time>2026-05-01T09:53:18.602Z</time></trkpt><trkpt lat="46.2150004" lon="13.2148863"><ele>224.25</ele><time>2026-05-01T09:53:19.601Z</time></trkpt><trkpt lat="46.2149938" lon="13.2146939"><ele>223.5</ele><time>2026-05-01T09:53:20.601Z</time></trkpt><trkpt lat="46.2149958" lon="13.2145141"><ele>222.75</ele><time>2026-05-01T09:53:21.602Z</time></trkpt><trkpt lat="46.2149992" lon="13.2143373"><ele>222.0</ele><time>2026-05-01T09:53:22.602Z</time></trkpt><trkpt lat="46.2150005" lon="13.2141566"><ele>222.0</ele><time>2026-05-01T09:53:23.601Z</time></trkpt><trkpt lat="46.2150017" lon="13.2139876"><ele>222.0</ele><time>2026-05-01T09:53:24.601Z</time></trkpt><trkpt lat="46.2149997" lon="13.2138145"><ele>222.0</ele><time>2026-05-01T09:53:25.602Z</time></trkpt><trkpt lat="46.2149902" lon="13.2136489"><ele>222.0</ele><time>2026-05-01T09:53:26.602Z</time></trkpt><trkpt lat="46.2149952" lon="13.2134931"><ele>222.0</ele><time>2026-05-01T09:53:27.603Z</time></trkpt><trkpt lat="46.2150053" lon="13.2133323"><ele>222.0</ele><time>2026-05-01T09:53:28.602Z</time></trkpt><trkpt lat="46.215041" lon="13.2131602"><ele>222.0</ele><time>2026-05-01T09:53:29.601Z</time></trkpt><trkpt lat="46.2150677" lon="13.2129812"><ele>222.0</ele><time>2026-05-01T09:53:30.602Z</time></trkpt><trkpt lat="46.2150947" lon="13.2128121"><ele>222.0</ele><time>2026-05-01T09:53:31.601Z</time></trkpt><trkpt lat="46.2151155" lon="13.2126461"><ele>222.0</ele><time>2026-05-01T09:53:32.601Z</time></trkpt><trkpt lat="46.2151402" lon="13.2124958"><ele>222.0</ele><time>2026-05-01T09:53:33.601Z</time></trkpt><trkpt lat="46.2151688" lon="13.2123462"><ele>222.0</ele><time>2026-05-01T09:53:34.601Z</time></trkpt><trkpt lat="46.2152017" lon="13.212192"><ele>222.0</ele><time>2026-05-01T09:53:35.601Z</time></trkpt><trkpt lat="46.2152279" lon="13.2120265"><ele>222.0</ele><time>2026-05-01T09:53:36.6Z</time></trkpt><trkpt lat="46.215241" lon="13.2118506"><ele>222.0</ele><time>2026-05-01T09:53:37.601Z</time></trkpt><trkpt lat="46.2152421" lon="13.2116699"><ele>222.0</ele><time>2026-05-01T09:53:38.601Z</time></trkpt><trkpt lat="46.215249" lon="13.2114928"><ele>222.0</ele><time>2026-05-01T09:53:39.601Z</time></trkpt><trkpt lat="46.2152709" lon="13.2113146"><ele>222.0</ele><time>2026-05-01T09:53:40.6Z</time></trkpt><trkpt lat="46.2153013" lon="13.2111496"><ele>222.0</ele><time>2026-05-01T09:53:41.6Z</time></trkpt><trkpt lat="46.2153271" lon="13.2109923"><ele>222.0</ele><time>2026-05-01T09:53:42.601Z</time></trkpt><trkpt lat="46.2153487" lon="13.2108331"><ele>222.0</ele><time>2026-05-01T09:53:43.6Z</time></trkpt><trkpt lat="46.2153615" lon="13.2106742"><ele>221.6</ele><time>2026-05-01T09:53:44.6Z</time></trkpt><trkpt lat="46.2153719" lon="13.210517"><ele>221.2</ele><time>2026-05-01T09:53:45.601Z</time></trkpt><trkpt lat="46.2153803" lon="13.2103579"><ele>220.8</ele><time>2026-05-01T09:53:46.6Z</time></trkpt><trkpt lat="46.2153918" lon="13.2101938"><ele>220.4</ele><time>2026-05-01T09:53:47.602Z</time></trkpt><trkpt lat="46.2154003" lon="13.2100324"><ele>220.0</ele><time>2026-05-01T09:53:48.6Z</time></trkpt><trkpt lat="46.2154107" lon="13.2098796"><ele>219.6</ele><time>2026-05-01T09:53:49.6Z</time></trkpt><trkpt lat="46.2154172" lon="13.2097384"><ele>219.2</ele><time>2026-05-01T09:53:50.601Z</time></trkpt><trkpt lat="46.2154244" lon="13.209599"><ele>218.8</ele><time>2026-05-01T09:53:51.6Z</time></trkpt><trkpt lat="46.2154386" lon="13.2094696"><ele>218.4</ele><time>2026-05-01T09:53:52.601Z</time></trkpt><trkpt lat="46.2154582" lon="13.2093376"><ele>218.0</ele><time>2026-05-01T09:53:53.601Z</time></trkpt><trkpt lat="46.2154892" lon="13.2091991"><ele>218.0</ele><time>2026-05-01T09:53:54.602Z</time></trkpt><trkpt lat="46.2155311" lon="13.2090544"><ele>218.0</ele><time>2026-05-01T09:53:55.602Z</time></trkpt><trkpt lat="46.2155839" lon="13.2088948"><ele>218.0</ele><time>2026-05-01T09:53:56.601Z</time></trkpt><trkpt lat="46.2156433" lon="13.2087214"><ele>218.0</ele><time>2026-05-01T09:53:57.6Z</time></trkpt><trkpt lat="46.2156916" lon="13.2085295"><ele>218.0</ele><time>2026-05-01T09:53:58.601Z</time></trkpt><trkpt lat="46.2157275" lon="13.2083246"><ele>218.0</ele><time>2026-05-01T09:53:59.601Z</time></trkpt><trkpt lat="46.2157518" lon="13.2081266"><ele>218.0</ele><time>2026-05-01T09:54:00.602Z</time></trkpt><trkpt lat="46.2157773" lon="13.2079214"><ele>218.0</ele><time>2026-05-01T09:54:01.6Z</time></trkpt><trkpt lat="46.2158099" lon="13.2077226"><ele>217.5</ele><time>2026-05-01T09:54:02.601Z</time></trkpt><trkpt lat="46.2158484" lon="13.2075303"><ele>217.0</ele><time>2026-05-01T09:54:03.6Z</time></trkpt><trkpt lat="46.2158878" lon="13.2073406"><ele>216.5</ele><time>2026-05-01T09:54:04.601Z</time></trkpt><trkpt lat="46.2159274" lon="13.2071564"><ele>216.0</ele><time>2026-05-01T09:54:05.601Z</time></trkpt><trkpt lat="46.2159736" lon="13.2069778"><ele>216.0</ele><time>2026-05-01T09:54:06.601Z</time></trkpt><trkpt lat="46.2160185" lon="13.2068115"><ele>216.0</ele><time>2026-05-01T09:54:07.6Z</time></trkpt><trkpt lat="46.2160636" lon="13.2066439"><ele>216.0</ele><time>2026-05-01T09:54:08.601Z</time></trkpt><trkpt lat="46.216114" lon="13.2064817"><ele>216.0</ele><time>2026-05-01T09:54:09.602Z</time></trkpt><trkpt lat="46.2161609" lon="13.20632"><ele>216.0</ele><time>2026-05-01T09:54:10.601Z</time></trkpt><trkpt lat="46.2162084" lon="13.206159"><ele>216.0</ele><time>2026-05-01T09:54:11.601Z</time></trkpt><trkpt lat="46.2162564" lon="13.2059948"><ele>216.0</ele><time>2026-05-01T09:54:12.6Z</time></trkpt><trkpt lat="46.2162995" lon="13.2058274"><ele>216.0</ele><time>2026-05-01T09:54:13.602Z</time></trkpt><trkpt lat="46.2163434" lon="13.2056562"><ele>216.0</ele><time>2026-05-01T09:54:14.6Z</time></trkpt><trkpt lat="46.2163847" lon="13.2054838"><ele>216.0</ele><time>2026-05-01T09:54:15.601Z</time></trkpt><trkpt lat="46.2164211" lon="13.2053052"><ele>216.0</ele><time>2026-05-01T09:54:16.6Z</time></trkpt><trkpt lat="46.2164513" lon="13.2051257"><ele>216.0</ele><time>2026-05-01T09:54:17.601Z</time></trkpt><trkpt lat="46.2164794" lon="13.2049415"><ele>216.25</ele><time>2026-05-01T09:54:18.602Z</time></trkpt><trkpt lat="46.2165104" lon="13.2047574"><ele>216.5</ele><time>2026-05-01T09:54:19.6Z</time></trkpt><trkpt lat="46.2165487" lon="13.2045746"><ele>216.75</ele><time>2026-05-01T09:54:20.602Z</time></trkpt><trkpt lat="46.2165787" lon="13.2043848"><ele>217.0</ele><time>2026-05-01T09:54:21.6Z</time></trkpt><trkpt lat="46.2165983" lon="13.2041915"><ele>217.0</ele><time>2026-05-01T09:54:22.601Z</time></trkpt><trkpt lat="46.2166164" lon="13.2040017"><ele>217.0</ele><time>2026-05-01T09:54:23.601Z</time></trkpt><trkpt lat="46.2166324" lon="13.2038189"><ele>217.0</ele><time>2026-05-01T09:54:24.6Z</time></trkpt><trkpt lat="46.216648" lon="13.2036403"><ele>217.0</ele><time>2026-05-01T09:54:25.601Z</time></trkpt><trkpt lat="46.2166616" lon="13.2034681"><ele>217.0</ele><time>2026-05-01T09:54:26.601Z</time></trkpt><trkpt lat="46.2166759" lon="13.2032999"><ele>217.0</ele><time>2026-05-01T09:54:27.601Z</time></trkpt><trkpt lat="46.216689" lon="13.2031328"><ele>217.0</ele><time>2026-05-01T09:54:28.602Z</time></trkpt><trkpt lat="46.2167022" lon="13.2029628"><ele>217.0</ele><time>2026-05-01T09:54:29.601Z</time></trkpt><trkpt lat="46.2167152" lon="13.2027918"><ele>217.0</ele><time>2026-05-01T09:54:30.601Z</time></trkpt><trkpt lat="46.2167282" lon="13.2026162"><ele>217.0</ele><time>2026-05-01T09:54:31.6Z</time></trkpt><trkpt lat="46.2167452" lon="13.2024284"><ele>217.0</ele><time>2026-05-01T09:54:32.601Z</time></trkpt><trkpt lat="46.2167605" lon="13.2022206"><ele>217.0</ele><time>2026-05-01T09:54:33.601Z</time></trkpt><trkpt lat="46.2167787" lon="13.2019935"><ele>216.33333333333331</ele><time>2026-05-01T09:54:34.6Z</time></trkpt><trkpt lat="46.2167959" lon="13.2017637"><ele>215.66666666666669</ele><time>2026-05-01T09:54:35.602Z</time></trkpt><trkpt lat="46.2168169" lon="13.2015506"><ele>215.0</ele><time>2026-05-01T09:54:36.601Z</time></trkpt><trkpt lat="46.2168376" lon="13.201348"><ele>215.0</ele><time>2026-05-01T09:54:37.601Z</time></trkpt><trkpt lat="46.2168606" lon="13.2011564"><ele>215.0</ele><time>2026-05-01T09:54:38.602Z</time></trkpt><trkpt lat="46.2168861" lon="13.2009668"><ele>215.0</ele><time>2026-05-01T09:54:39.601Z</time></trkpt><trkpt lat="46.2169108" lon="13.2007858"><ele>215.0</ele><time>2026-05-01T09:54:40.601Z</time></trkpt><trkpt lat="46.2169349" lon="13.2006326"><ele>214.6</ele><time>2026-05-01T09:54:41.6Z</time></trkpt><trkpt lat="46.2169544" lon="13.2004998"><ele>214.2</ele><time>2026-05-01T09:54:42.6Z</time></trkpt><trkpt lat="46.2169769" lon="13.2003803"><ele>213.8</ele><time>2026-05-01T09:54:43.6Z</time></trkpt><trkpt lat="46.2169972" lon="13.2002645"><ele>213.4</ele><time>2026-05-01T09:54:44.601Z</time></trkpt><trkpt lat="46.2170248" lon="13.2001359"><ele>213.0</ele><time>2026-05-01T09:54:45.602Z</time></trkpt><trkpt lat="46.2170504" lon="13.199988"><ele>213.0</ele><time>2026-05-01T09:54:46.601Z</time></trkpt><trkpt lat="46.2170774" lon="13.1998352"><ele>213.0</ele><time>2026-05-01T09:54:47.601Z</time></trkpt><trkpt lat="46.2171048" lon="13.1996756"><ele>213.0</ele><time>2026-05-01T09:54:48.602Z</time></trkpt><trkpt lat="46.2171378" lon="13.1995012"><ele>213.0</ele><time>2026-05-01T09:54:49.6Z</time></trkpt><trkpt lat="46.217172" lon="13.199301"><ele>212.66666666666669</ele><time>2026-05-01T09:54:50.6Z</time></trkpt><trkpt lat="46.217212" lon="13.1990876"><ele>212.33333333333334</ele><time>2026-05-01T09:54:51.601Z</time></trkpt><trkpt lat="46.2172463" lon="13.1988706"><ele>212.0</ele><time>2026-05-01T09:54:52.601Z</time></trkpt><trkpt lat="46.2172828" lon="13.198645"><ele>212.33333333333334</ele><time>2026-05-01T09:54:53.601Z</time></trkpt><trkpt lat="46.2173271" lon="13.1983992"><ele>212.66666666666669</ele><time>2026-05-01T09:54:54.6Z</time></trkpt><trkpt lat="46.2173749" lon="13.1981361"><ele>213.0</ele><time>2026-05-01T09:54:55.6Z</time></trkpt><trkpt lat="46.2174217" lon="13.1978703"><ele>213.0</ele><time>2026-05-01T09:54:56.601Z</time></trkpt><trkpt lat="46.2174643" lon="13.1976021"><ele>213.0</ele><time>2026-05-01T09:54:57.6Z</time></trkpt><trkpt lat="46.2175098" lon="13.1973286"><ele>213.0</ele><time>2026-05-01T09:54:58.602Z</time></trkpt><trkpt lat="46.2175555" lon="13.1970541"><ele>213.0</ele><time>2026-05-01T09:54:59.6Z</time></trkpt><trkpt lat="46.2176028" lon="13.1967811"><ele>213.0</ele><time>2026-05-01T09:55:00.601Z</time></trkpt><trkpt lat="46.2176486" lon="13.196509"><ele>213.0</ele><time>2026-05-01T09:55:01.602Z</time></trkpt><trkpt lat="46.2176951" lon="13.1962373"><ele>212.0</ele><time>2026-05-01T09:55:02.602Z</time></trkpt><trkpt lat="46.2177417" lon="13.1959671"><ele>211.0</ele><time>2026-05-01T09:55:03.6Z</time></trkpt><trkpt lat="46.2177887" lon="13.1956963"><ele>210.0</ele><time>2026-05-01T09:55:04.6Z</time></trkpt><trkpt lat="46.2178351" lon="13.1954256"><ele>210.0</ele><time>2026-05-01T09:55:05.6Z</time></trkpt><trkpt lat="46.2178819" lon="13.1951545"><ele>210.0</ele><time>2026-05-01T09:55:06.601Z</time></trkpt><trkpt lat="46.2179285" lon="13.1948909"><ele>210.0</ele><time>2026-05-01T09:55:07.602Z</time></trkpt><trkpt lat="46.2179774" lon="13.1946254"><ele>209.66666666666669</ele><time>2026-05-01T09:55:08.601Z</time></trkpt><trkpt lat="46.2180236" lon="13.1943536"><ele>209.33333333333334</ele><time>2026-05-01T09:55:09.602Z</time></trkpt><trkpt lat="46.2180706" lon="13.1940767"><ele>209.0</ele><time>2026-05-01T09:55:10.601Z</time></trkpt><trkpt lat="46.2181175" lon="13.193793"><ele>208.66666666666669</ele><time>2026-05-01T09:55:11.602Z</time></trkpt><trkpt lat="46.2181609" lon="13.193504"><ele>208.33333333333331</ele><time>2026-05-01T09:55:12.6Z</time></trkpt><trkpt lat="46.2182098" lon="13.1932182"><ele>208.0</ele><time>2026-05-01T09:55:13.601Z</time></trkpt><trkpt lat="46.2182595" lon="13.1929291"><ele>208.0</ele><time>2026-05-01T09:55:14.601Z</time></trkpt><trkpt lat="46.2183073" lon="13.1926345"><ele>208.0</ele><time>2026-05-01T09:55:15.601Z</time></trkpt><trkpt lat="46.2183546" lon="13.1923402"><ele>208.0</ele><time>2026-05-01T09:55:16.601Z</time></trkpt><trkpt lat="46.2184061" lon="13.1920433"><ele>207.33333333333331</ele><time>2026-05-01T09:55:17.602Z</time></trkpt><trkpt lat="46.2184553" lon="13.1917441"><ele>206.66666666666669</ele><time>2026-05-01T09:55:18.601Z</time></trkpt><trkpt lat="46.2185073" lon="13.191449"><ele>206.0</ele><time>2026-05-01T09:55:19.6Z</time></trkpt><trkpt lat="46.2185619" lon="13.191147"><ele>205.5</ele><time>2026-05-01T09:55:20.601Z</time></trkpt><trkpt lat="46.2186141" lon="13.1908286"><ele>205.0</ele><time>2026-05-01T09:55:21.601Z</time></trkpt><trkpt lat="46.2186686" lon="13.1904931"><ele>205.0</ele><time>2026-05-01T09:55:22.601Z</time></trkpt><trkpt lat="46.2187293" lon="13.190143"><ele>205.0</ele><time>2026-05-01T09:55:23.602Z</time></trkpt><trkpt lat="46.2187907" lon="13.1897791"><ele>204.5</ele><time>2026-05-01T09:55:24.602Z</time></trkpt><trkpt lat="46.2188531" lon="13.1894038"><ele>204.0</ele><time>2026-05-01T09:55:25.6Z</time></trkpt><trkpt lat="46.2189171" lon="13.1890143"><ele>203.0</ele><time>2026-05-01T09:55:26.601Z</time></trkpt><trkpt lat="46.2189828" lon="13.1886174"><ele>202.0</ele><time>2026-05-01T09:55:27.601Z</time></trkpt><trkpt lat="46.21905" lon="13.1882237"><ele>202.0</ele><time>2026-05-01T09:55:28.6Z</time></trkpt><trkpt lat="46.2191104" lon="13.1878498"><ele>202.0</ele><time>2026-05-01T09:55:29.6Z</time></trkpt><trkpt lat="46.2191662" lon="13.1875029"><ele>201.0</ele><time>2026-05-01T09:55:30.6Z</time></trkpt><trkpt lat="46.2192257" lon="13.1871741"><ele>200.0</ele><time>2026-05-01T09:55:31.601Z</time></trkpt><trkpt lat="46.2192819" lon="13.1868598"><ele>200.0</ele><time>2026-05-01T09:55:32.601Z</time></trkpt><trkpt lat="46.2193329" lon="13.1865511"><ele>200.0</ele><time>2026-05-01T09:55:33.602Z</time></trkpt><trkpt lat="46.219389" lon="13.1862526"><ele>200.0</ele><time>2026-05-01T09:55:34.601Z</time></trkpt><trkpt lat="46.2194366" lon="13.185959"><ele>199.33333333333334</ele><time>2026-05-01T09:55:35.601Z</time></trkpt><trkpt lat="46.2194841" lon="13.1856687"><ele>198.66666666666669</ele><time>2026-05-01T09:55:36.6Z</time></trkpt><trkpt lat="46.2195325" lon="13.1853856"><ele>198.0</ele><time>2026-05-01T09:55:37.601Z</time></trkpt><trkpt lat="46.2195763" lon="13.185103"><ele>198.66666666666669</ele><time>2026-05-01T09:55:38.602Z</time></trkpt><trkpt lat="46.2196232" lon="13.1848264"><ele>199.33333333333334</ele><time>2026-05-01T09:55:39.601Z</time></trkpt><trkpt lat="46.2196667" lon="13.1845486"><ele>200.0</ele><time>2026-05-01T09:55:40.6Z</time></trkpt><trkpt lat="46.2197127" lon="13.1842705"><ele>200.0</ele><time>2026-05-01T09:55:41.602Z</time></trkpt><trkpt lat="46.2197589" lon="13.1839946"><ele>200.0</ele><time>2026-05-01T09:55:42.6Z</time></trkpt><trkpt lat="46.2198017" lon="13.1837182"><ele>200.0</ele><time>2026-05-01T09:55:43.601Z</time></trkpt><trkpt lat="46.2198493" lon="13.1834468"><ele>200.0</ele><time>2026-05-01T09:55:44.601Z</time></trkpt><trkpt lat="46.2198958" lon="13.1831735"><ele>200.0</ele><time>2026-05-01T09:55:45.6Z</time></trkpt><trkpt lat="46.2199422" lon="13.1829031"><ele>200.0</ele><time>2026-05-01T09:55:46.6Z</time></trkpt><trkpt lat="46.2199879" lon="13.182631"><ele>200.0</ele><time>2026-05-01T09:55:47.601Z</time></trkpt><trkpt lat="46.2200325" lon="13.1823606"><ele>200.0</ele><time>2026-05-01T09:55:48.601Z</time></trkpt><trkpt lat="46.2200756" lon="13.1821006"><ele>200.0</ele><time>2026-05-01T09:55:49.6Z</time></trkpt><trkpt lat="46.220115" lon="13.181857"><ele>200.33333333333334</ele><time>2026-05-01T09:55:50.6Z</time></trkpt><trkpt lat="46.220151" lon="13.1816248"><ele>200.66666666666669</ele><time>2026-05-01T09:55:51.6Z</time></trkpt><trkpt lat="46.2201847" lon="13.1814056"><ele>201.0</ele><time>2026-05-01T09:55:52.602Z</time></trkpt><trkpt lat="46.2202183" lon="13.1812003"><ele>200.5</ele><time>2026-05-01T09:55:53.601Z</time></trkpt><trkpt lat="46.2202506" lon="13.1810106"><ele>200.0</ele><time>2026-05-01T09:55:54.601Z</time></trkpt><trkpt lat="46.2202837" lon="13.1808281"><ele>199.5</ele><time>2026-05-01T09:55:55.601Z</time></trkpt><trkpt lat="46.2203175" lon="13.1806585"><ele>199.0</ele><time>2026-05-01T09:55:56.6Z</time></trkpt><trkpt lat="46.220348" lon="13.180495"><ele>198.16666666666666</ele><time>2026-05-01T09:55:57.6Z</time></trkpt><trkpt lat="46.2203761" lon="13.1803506"><ele>197.33333333333331</ele><time>2026-05-01T09:55:58.601Z</time></trkpt><trkpt lat="46.2203964" lon="13.180238"><ele>196.5</ele><time>2026-05-01T09:55:59.601Z</time></trkpt><trkpt lat="46.2204134" lon="13.1801494"><ele>195.66666666666669</ele><time>2026-05-01T09:56:00.601Z</time></trkpt><trkpt lat="46.2204333" lon="13.1800618"><ele>194.83333333333334</ele><time>2026-05-01T09:56:02.6Z</time></trkpt><trkpt lat="46.2204532" lon="13.1799653"><ele>194.0</ele><time>2026-05-01T09:56:10.6Z</time></trkpt><trkpt lat="46.2204885" lon="13.179843"><ele>194.0</ele><time>2026-05-01T09:56:14.601Z</time></trkpt><trkpt lat="46.2205586" lon="13.1797034"><ele>194.0</ele><time>2026-05-01T09:56:16.601Z</time></trkpt><trkpt lat="46.220628" lon="13.179633"><ele>194.0</ele><time>2026-05-01T09:56:17.602Z</time></trkpt><trkpt lat="46.2207234" lon="13.1795683"><ele>194.0</ele><time>2026-05-01T09:56:18.6Z</time></trkpt><trkpt lat="46.2208225" lon="13.1795119"><ele>194.0</ele><time>2026-05-01T09:56:19.601Z</time></trkpt><trkpt lat="46.2209429" lon="13.1794429"><ele>194.0</ele><time>2026-05-01T09:56:20.6Z</time></trkpt><trkpt lat="46.2210853" lon="13.1793644"><ele>194.0</ele><time>2026-05-01T09:56:21.6Z</time></trkpt><trkpt lat="46.2212496" lon="13.1792651"><ele>194.0</ele><time>2026-05-01T09:56:22.601Z</time></trkpt><trkpt lat="46.2214181" lon="13.1791635"><ele>194.0</ele><time>2026-05-01T09:56:23.6Z</time></trkpt><trkpt lat="46.2216119" lon="13.1790726"><ele>194.0</ele><time>2026-05-01T09:56:24.601Z</time></trkpt><trkpt lat="46.2218074" lon="13.1789727"><ele>194.0</ele><time>2026-05-01T09:56:25.601Z</time></trkpt><trkpt lat="46.2220047" lon="13.1788795"><ele>194.0</ele><time>2026-05-01T09:56:26.6Z</time></trkpt><trkpt lat="46.2221908" lon="13.1787895"><ele>194.0</ele><time>2026-05-01T09:56:27.601Z</time></trkpt><trkpt lat="46.2223651" lon="13.1787058"><ele>194.0</ele><time>2026-05-01T09:56:28.6Z</time></trkpt><trkpt lat="46.222539" lon="13.1786188"><ele>194.0</ele><time>2026-05-01T09:56:29.601Z</time></trkpt><trkpt lat="46.2227086" lon="13.1785334"><ele>194.0</ele><time>2026-05-01T09:56:30.601Z</time></trkpt><trkpt lat="46.222876" lon="13.1784492"><ele>194.0</ele><time>2026-05-01T09:56:31.6Z</time></trkpt><trkpt lat="46.2230448" lon="13.178366"><ele>193.66666666666669</ele><time>2026-05-01T09:56:32.6Z</time></trkpt><trkpt lat="46.2232093" lon="13.1782842"><ele>193.33333333333331</ele><time>2026-05-01T09:56:33.601Z</time></trkpt><trkpt lat="46.2233732" lon="13.1781985"><ele>193.0</ele><time>2026-05-01T09:56:34.601Z</time></trkpt><trkpt lat="46.2235349" lon="13.1781133"><ele>192.66666666666666</ele><time>2026-05-01T09:56:35.6Z</time></trkpt><trkpt lat="46.2236952" lon="13.1780258"><ele>192.33333333333331</ele><time>2026-05-01T09:56:36.602Z</time></trkpt><trkpt lat="46.2238497" lon="13.1779335"><ele>192.0</ele><time>2026-05-01T09:56:37.601Z</time></trkpt><trkpt lat="46.224" lon="13.1778323"><ele>191.66666666666666</ele><time>2026-05-01T09:56:38.6Z</time></trkpt><trkpt lat="46.2241553" lon="13.1777134"><ele>191.33333333333331</ele><time>2026-05-01T09:56:39.601Z</time></trkpt><trkpt lat="46.2243175" lon="13.1775826"><ele>191.0</ele><time>2026-05-01T09:56:40.6Z</time></trkpt><trkpt lat="46.2244816" lon="13.1774342"><ele>190.66666666666666</ele><time>2026-05-01T09:56:41.6Z</time></trkpt><trkpt lat="46.2246454" lon="13.177271"><ele>190.33333333333334</ele><time>2026-05-01T09:56:42.6Z</time></trkpt><trkpt lat="46.2248087" lon="13.1771004"><ele>190.0</ele><time>2026-05-01T09:56:43.601Z</time></trkpt><trkpt lat="46.2249736" lon="13.1769236"><ele>190.0</ele><time>2026-05-01T09:56:44.601Z</time></trkpt><trkpt lat="46.2251378" lon="13.1767436"><ele>190.0</ele><time>2026-05-01T09:56:45.601Z</time></trkpt><trkpt lat="46.2253018" lon="13.1765631"><ele>190.0</ele><time>2026-05-01T09:56:46.601Z</time></trkpt><trkpt lat="46.2254659" lon="13.1763834"><ele>190.0</ele><time>2026-05-01T09:56:47.601Z</time></trkpt><trkpt lat="46.2256268" lon="13.1762045"><ele>190.0</ele><time>2026-05-01T09:56:48.602Z</time></trkpt><trkpt lat="46.2257837" lon="13.1760274"><ele>190.0</ele><time>2026-05-01T09:56:49.6Z</time></trkpt><trkpt lat="46.2259424" lon="13.1758519"><ele>190.33333333333334</ele><time>2026-05-01T09:56:50.601Z</time></trkpt><trkpt lat="46.2261017" lon="13.1756761"><ele>190.66666666666666</ele><time>2026-05-01T09:56:51.601Z</time></trkpt><trkpt lat="46.2262624" lon="13.1755004"><ele>191.0</ele><time>2026-05-01T09:56:52.601Z</time></trkpt><trkpt lat="46.2264241" lon="13.1753269"><ele>190.66666666666666</ele><time>2026-05-01T09:56:53.6Z</time></trkpt><trkpt lat="46.2265847" lon="13.1751503"><ele>190.33333333333334</ele><time>2026-05-01T09:56:54.602Z</time></trkpt><trkpt lat="46.226751" lon="13.1749657"><ele>190.0</ele><time>2026-05-01T09:56:55.602Z</time></trkpt><trkpt lat="46.2269208" lon="13.1747775"><ele>190.0</ele><time>2026-05-01T09:56:56.6Z</time></trkpt><trkpt lat="46.2270907" lon="13.1745864"><ele>190.0</ele><time>2026-05-01T09:56:57.601Z</time></trkpt><trkpt lat="46.2272662" lon="13.1743799"><ele>190.0</ele><time>2026-05-01T09:56:58.602Z</time></trkpt><trkpt lat="46.227445" lon="13.1741552"><ele>190.0</ele><time>2026-05-01T09:56:59.599Z</time></trkpt><trkpt lat="46.2276256" lon="13.1739132"><ele>190.0</ele><time>2026-05-01T09:57:00.601Z</time></trkpt><trkpt lat="46.227807" lon="13.1736585"><ele>190.0</ele><time>2026-05-01T09:57:01.6Z</time></trkpt><trkpt lat="46.2279858" lon="13.173391"><ele>190.0</ele><time>2026-05-01T09:57:02.6Z</time></trkpt><trkpt lat="46.2281565" lon="13.1731205"><ele>189.5</ele><time>2026-05-01T09:57:03.6Z</time></trkpt><trkpt lat="46.2283204" lon="13.1728442"><ele>189.0</ele><time>2026-05-01T09:57:04.599Z</time></trkpt><trkpt lat="46.228471" lon="13.1725619"><ele>188.0</ele><time>2026-05-01T09:57:05.6Z</time></trkpt><trkpt lat="46.2286173" lon="13.1722796"><ele>187.0</ele><time>2026-05-01T09:57:06.601Z</time></trkpt><trkpt lat="46.2287572" lon="13.171994"><ele>187.0</ele><time>2026-05-01T09:57:07.601Z</time></trkpt><trkpt lat="46.2288899" lon="13.1717036"><ele>187.0</ele><time>2026-05-01T09:57:08.6Z</time></trkpt><trkpt lat="46.2290122" lon="13.1714113"><ele>188.0</ele><time>2026-05-01T09:57:09.599Z</time></trkpt><trkpt lat="46.2291264" lon="13.171113"><ele>189.0</ele><time>2026-05-01T09:57:10.599Z</time></trkpt><trkpt lat="46.2292356" lon="13.1708127"><ele>188.5</ele><time>2026-05-01T09:57:11.599Z</time></trkpt><trkpt lat="46.229332" lon="13.1705048"><ele>188.0</ele><time>2026-05-01T09:57:12.599Z</time></trkpt><trkpt lat="46.2294244" lon="13.1701936"><ele>188.0</ele><time>2026-05-01T09:57:13.599Z</time></trkpt><trkpt lat="46.2295098" lon="13.1698798"><ele>188.0</ele><time>2026-05-01T09:57:14.599Z</time></trkpt><trkpt lat="46.2295879" lon="13.1695657"><ele>187.66666666666666</ele><time>2026-05-01T09:57:15.599Z</time></trkpt><trkpt lat="46.2296601" lon="13.1692551"><ele>187.33333333333334</ele><time>2026-05-01T09:57:16.601Z</time></trkpt><trkpt lat="46.2297225" lon="13.1689539"><ele>187.0</ele><time>2026-05-01T09:57:17.599Z</time></trkpt><trkpt lat="46.2297791" lon="13.1686585"><ele>187.33333333333334</ele><time>2026-05-01T09:57:18.6Z</time></trkpt><trkpt lat="46.2298304" lon="13.1683642"><ele>187.66666666666666</ele><time>2026-05-01T09:57:19.601Z</time></trkpt><trkpt lat="46.2298863" lon="13.1680723"><ele>188.0</ele><time>2026-05-01T09:57:20.6Z</time></trkpt><trkpt lat="46.2299369" lon="13.1677814"><ele>187.33333333333331</ele><time>2026-05-01T09:57:21.599Z</time></trkpt><trkpt lat="46.2299905" lon="13.1674746"><ele>186.66666666666666</ele><time>2026-05-01T09:57:22.599Z</time></trkpt><trkpt lat="46.2300525" lon="13.1671621"><ele>186.0</ele><time>2026-05-01T09:57:23.601Z</time></trkpt><trkpt lat="46.2301262" lon="13.1668536"><ele>186.0</ele><time>2026-05-01T09:57:24.6Z</time></trkpt><trkpt lat="46.2301989" lon="13.1665357"><ele>186.0</ele><time>2026-05-01T09:57:25.6Z</time></trkpt><trkpt lat="46.2302659" lon="13.1662127"><ele>186.0</ele><time>2026-05-01T09:57:26.599Z</time></trkpt><trkpt lat="46.2303263" lon="13.165886"><ele>186.0</ele><time>2026-05-01T09:57:27.599Z</time></trkpt><trkpt lat="46.2303901" lon="13.1655571"><ele>186.0</ele><time>2026-05-01T09:57:28.6Z</time></trkpt><trkpt lat="46.23045" lon="13.1652241"><ele>186.0</ele><time>2026-05-01T09:57:29.601Z</time></trkpt><trkpt lat="46.2305111" lon="13.1648897"><ele>185.0</ele><time>2026-05-01T09:57:30.601Z</time></trkpt><trkpt lat="46.2305697" lon="13.1645585"><ele>184.0</ele><time>2026-05-01T09:57:31.6Z</time></trkpt><trkpt lat="46.2306291" lon="13.1642235"><ele>185.0</ele><time>2026-05-01T09:57:32.599Z</time></trkpt><trkpt lat="46.2306935" lon="13.1638912"><ele>186.0</ele><time>2026-05-01T09:57:33.6Z</time></trkpt><trkpt lat="46.2307525" lon="13.1635595"><ele>186.0</ele><time>2026-05-01T09:57:34.6Z</time></trkpt><trkpt lat="46.2308134" lon="13.1632309"><ele>186.0</ele><time>2026-05-01T09:57:35.6Z</time></trkpt><trkpt lat="46.2308717" lon="13.1629028"><ele>187.0</ele><time>2026-05-01T09:57:36.599Z</time></trkpt><trkpt lat="46.2309341" lon="13.1625792"><ele>188.0</ele><time>2026-05-01T09:57:37.599Z</time></trkpt><trkpt lat="46.2309912" lon="13.1622562"><ele>188.0</ele><time>2026-05-01T09:57:38.599Z</time></trkpt><trkpt lat="46.2310499" lon="13.1619441"><ele>188.0</ele><time>2026-05-01T09:57:39.599Z</time></trkpt><trkpt lat="46.2311069" lon="13.1616348"><ele>188.0</ele><time>2026-05-01T09:57:40.6Z</time></trkpt><trkpt lat="46.2311673" lon="13.1613239"><ele>187.66666666666666</ele><time>2026-05-01T09:57:41.599Z</time></trkpt><trkpt lat="46.2312229" lon="13.1610151"><ele>187.33333333333334</ele><time>2026-05-01T09:57:42.599Z</time></trkpt><trkpt lat="46.2312792" lon="13.1607097"><ele>187.0</ele><time>2026-05-01T09:57:43.6Z</time></trkpt><trkpt lat="46.2313316" lon="13.1604059"><ele>187.0</ele><time>2026-05-01T09:57:44.601Z</time></trkpt><trkpt lat="46.2313928" lon="13.1601011"><ele>187.0</ele><time>2026-05-01T09:57:45.6Z</time></trkpt><trkpt lat="46.2314481" lon="13.1597871"><ele>187.0</ele><time>2026-05-01T09:57:46.599Z</time></trkpt><trkpt lat="46.2315073" lon="13.1594771"><ele>187.0</ele><time>2026-05-01T09:57:47.601Z</time></trkpt><trkpt lat="46.2315642" lon="13.1591626"><ele>187.0</ele><time>2026-05-01T09:57:48.6Z</time></trkpt><trkpt lat="46.231617" lon="13.1588444"><ele>187.0</ele><time>2026-05-01T09:57:49.6Z</time></trkpt><trkpt lat="46.2316728" lon="13.1585263"><ele>187.0</ele><time>2026-05-01T09:57:50.6Z</time></trkpt><trkpt lat="46.2317311" lon="13.1582106"><ele>186.5</ele><time>2026-05-01T09:57:51.599Z</time></trkpt><trkpt lat="46.2317894" lon="13.1578937"><ele>186.0</ele><time>2026-05-01T09:57:52.599Z</time></trkpt><trkpt lat="46.2318485" lon="13.1575747"><ele>186.0</ele><time>2026-05-01T09:57:53.6Z</time></trkpt><trkpt lat="46.2319062" lon="13.1572555"><ele>186.0</ele><time>2026-05-01T09:57:54.6Z</time></trkpt><trkpt lat="46.2319655" lon="13.1569404"><ele>186.0</ele><time>2026-05-01T09:57:55.601Z</time></trkpt><trkpt lat="46.2320226" lon="13.1566256"><ele>186.0</ele><time>2026-05-01T09:57:56.6Z</time></trkpt><trkpt lat="46.2320824" lon="13.1563152"><ele>186.0</ele><time>2026-05-01T09:57:57.6Z</time></trkpt><trkpt lat="46.2321422" lon="13.1560107"><ele>186.66666666666666</ele><time>2026-05-01T09:57:58.601Z</time></trkpt><trkpt lat="46.2322105" lon="13.1557203"><ele>187.33333333333331</ele><time>2026-05-01T09:57:59.599Z</time></trkpt><trkpt lat="46.2322885" lon="13.1554379"><ele>188.0</ele><time>2026-05-01T09:58:00.6Z</time></trkpt><trkpt lat="46.2323604" lon="13.1551517"><ele>187.0</ele><time>2026-05-01T09:58:01.601Z</time></trkpt><trkpt lat="46.2324279" lon="13.154869"><ele>186.0</ele><time>2026-05-01T09:58:02.6Z</time></trkpt><trkpt lat="46.2324934" lon="13.154606"><ele>185.0</ele><time>2026-05-01T09:58:03.6Z</time></trkpt><trkpt lat="46.2325549" lon="13.1543662"><ele>185.0</ele><time>2026-05-01T09:58:04.601Z</time></trkpt><trkpt lat="46.2326067" lon="13.1541453"><ele>185.0</ele><time>2026-05-01T09:58:05.6Z</time></trkpt><trkpt lat="46.2326554" lon="13.1539373"><ele>185.0</ele><time>2026-05-01T09:58:06.599Z</time></trkpt><trkpt lat="46.2326967" lon="13.1537692"><ele>185.0</ele><time>2026-05-01T09:58:07.599Z</time></trkpt><trkpt lat="46.2327332" lon="13.1536305"><ele>185.0</ele><time>2026-05-01T09:58:08.6Z</time></trkpt><trkpt lat="46.2327623" lon="13.1535337"><ele>185.0</ele><time>2026-05-01T09:58:09.6Z</time></trkpt><trkpt lat="46.2328167" lon="13.1534268"><ele>185.0</ele><time>2026-05-01T09:58:11.6Z</time></trkpt><trkpt lat="46.2329093" lon="13.1533722"><ele>185.0</ele><time>2026-05-01T09:58:14.599Z</time></trkpt><trkpt lat="46.2329844" lon="13.1534032"><ele>185.0</ele><time>2026-05-01T09:58:15.6Z</time></trkpt><trkpt lat="46.2330654" lon="13.153433"><ele>185.0</ele><time>2026-05-01T09:58:16.6Z</time></trkpt><trkpt lat="46.2331637" lon="13.1534727"><ele>185.25</ele><time>2026-05-01T09:58:17.599Z</time></trkpt><trkpt lat="46.2332633" lon="13.1535105"><ele>185.5</ele><time>2026-05-01T09:58:18.6Z</time></trkpt><trkpt lat="46.233376" lon="13.1535533"><ele>185.75</ele><time>2026-05-01T09:58:19.599Z</time></trkpt><trkpt lat="46.2335075" lon="13.1536046"><ele>186.0</ele><time>2026-05-01T09:58:20.599Z</time></trkpt><trkpt lat="46.2336458" lon="13.1536689"><ele>186.0</ele><time>2026-05-01T09:58:21.599Z</time></trkpt><trkpt lat="46.2337925" lon="13.1537309"><ele>186.0</ele><time>2026-05-01T09:58:22.6Z</time></trkpt><trkpt lat="46.2339499" lon="13.1537938"><ele>186.0</ele><time>2026-05-01T09:58:23.6Z</time></trkpt><trkpt lat="46.2341042" lon="13.1538602"><ele>187.0</ele><time>2026-05-01T09:58:24.601Z</time></trkpt><trkpt lat="46.2342666" lon="13.1539306"><ele>188.0</ele><time>2026-05-01T09:58:25.599Z</time></trkpt><trkpt lat="46.2344326" lon="13.1540017"><ele>189.0</ele><time>2026-05-01T09:58:26.6Z</time></trkpt><trkpt lat="46.2345962" lon="13.1540702"><ele>189.75</ele><time>2026-05-01T09:58:27.601Z</time></trkpt><trkpt lat="46.2347422" lon="13.1541418"><ele>190.5</ele><time>2026-05-01T09:58:28.599Z</time></trkpt><trkpt lat="46.2348779" lon="13.1542055"><ele>191.25</ele><time>2026-05-01T09:58:29.599Z</time></trkpt><trkpt lat="46.2350062" lon="13.1542642"><ele>192.0</ele><time>2026-05-01T09:58:30.599Z</time></trkpt><trkpt lat="46.2351214" lon="13.1543204"><ele>192.6</ele><time>2026-05-01T09:58:31.6Z</time></trkpt><trkpt lat="46.235221" lon="13.1543844"><ele>193.2</ele><time>2026-05-01T09:58:32.6Z</time></trkpt><trkpt lat="46.2353063" lon="13.1544512"><ele>193.8</ele><time>2026-05-01T09:58:33.6Z</time></trkpt><trkpt lat="46.2353723" lon="13.1545106"><ele>194.4</ele><time>2026-05-01T09:58:34.599Z</time></trkpt><trkpt lat="46.2354247" lon="13.1545702"><ele>195.0</ele><time>2026-05-01T09:58:35.6Z</time></trkpt><trkpt lat="46.2355126" lon="13.1547065"><ele>195.0</ele><time>2026-05-01T09:58:37.6Z</time></trkpt><trkpt lat="46.2355859" lon="13.1547526"><ele>195.0</ele><time>2026-05-01T09:58:38.599Z</time></trkpt><trkpt lat="46.2356914" lon="13.154781"><ele>195.0</ele><time>2026-05-01T09:58:39.6Z</time></trkpt><trkpt lat="46.2358165" lon="13.1548192"><ele>195.0</ele><time>2026-05-01T09:58:40.6Z</time></trkpt><trkpt lat="46.2359399" lon="13.154882"><ele>195.0</ele><time>2026-05-01T09:58:41.6Z</time></trkpt><trkpt lat="46.2360742" lon="13.1549387"><ele>195.75</ele><time>2026-05-01T09:58:42.6Z</time></trkpt><trkpt lat="46.236212" lon="13.1549956"><ele>196.5</ele><time>2026-05-01T09:58:43.6Z</time></trkpt><trkpt lat="46.2363454" lon="13.1550469"><ele>197.25</ele><time>2026-05-01T09:58:44.6Z</time></trkpt><trkpt lat="46.2364773" lon="13.1550918"><ele>198.0</ele><time>2026-05-01T09:58:45.601Z</time></trkpt><trkpt lat="46.2366078" lon="13.1551449"><ele>198.0</ele><time>2026-05-01T09:58:46.6Z</time></trkpt><trkpt lat="46.2367371" lon="13.155207"><ele>198.0</ele><time>2026-05-01T09:58:47.599Z</time></trkpt><trkpt lat="46.2368645" lon="13.1552732"><ele>198.0</ele><time>2026-05-01T09:58:48.6Z</time></trkpt><trkpt lat="46.2369918" lon="13.1553467"><ele>198.0</ele><time>2026-05-01T09:58:49.601Z</time></trkpt><trkpt lat="46.2371171" lon="13.1554216"><ele>198.0</ele><time>2026-05-01T09:58:50.6Z</time></trkpt><trkpt lat="46.2372438" lon="13.1554971"><ele>198.0</ele><time>2026-05-01T09:58:51.599Z</time></trkpt><trkpt lat="46.2373694" lon="13.1555706"><ele>198.0</ele><time>2026-05-01T09:58:52.6Z</time></trkpt><trkpt lat="46.2374937" lon="13.1556486"><ele>198.0</ele><time>2026-05-01T09:58:53.6Z</time></trkpt><trkpt lat="46.2376187" lon="13.15572"><ele>199.0</ele><time>2026-05-01T09:58:54.599Z</time></trkpt><trkpt lat="46.2377453" lon="13.1557798"><ele>200.0</ele><time>2026-05-01T09:58:55.6Z</time></trkpt><trkpt lat="46.2378649" lon="13.1558206"><ele>201.0</ele><time>2026-05-01T09:58:56.601Z</time></trkpt><trkpt lat="46.2379775" lon="13.1558464"><ele>202.0</ele><time>2026-05-01T09:58:57.599Z</time></trkpt><trkpt lat="46.2380847" lon="13.1558602"><ele>202.66666666666666</ele><time>2026-05-01T09:58:58.6Z</time></trkpt><trkpt lat="46.2381768" lon="13.1558598"><ele>203.33333333333331</ele><time>2026-05-01T09:58:59.6Z</time></trkpt><trkpt lat="46.2382468" lon="13.1558746"><ele>204.0</ele><time>2026-05-01T09:59:00.6Z</time></trkpt><trkpt lat="46.2383314" lon="13.1559177"><ele>204.66666666666669</ele><time>2026-05-01T09:59:02.6Z</time></trkpt><trkpt lat="46.2384446" lon="13.155934"><ele>205.33333333333334</ele><time>2026-05-01T09:59:06.6Z</time></trkpt><trkpt lat="46.2385133" lon="13.1558923"><ele>206.0</ele><time>2026-05-01T09:59:07.599Z</time></trkpt><trkpt lat="46.2385709" lon="13.1558456"><ele>206.00000000000003</ele><time>2026-05-01T09:59:08.6Z</time></trkpt><trkpt lat="46.2386488" lon="13.15581"><ele>206.0</ele><time>2026-05-01T09:59:09.6Z</time></trkpt><trkpt lat="46.2387276" lon="13.1557759"><ele>206.0</ele><time>2026-05-01T09:59:10.6Z</time></trkpt><trkpt lat="46.2388046" lon="13.1557518"><ele>206.0</ele><time>2026-05-01T09:59:11.6Z</time></trkpt><trkpt lat="46.2388707" lon="13.1557306"><ele>206.00000000000003</ele><time>2026-05-01T09:59:12.6Z</time></trkpt><trkpt lat="46.2389818" lon="13.1556969"><ele>206.0</ele><time>2026-05-01T09:59:14.6Z</time></trkpt><trkpt lat="46.2391005" lon="13.1556621"><ele>205.8</ele><time>2026-05-01T09:59:16.6Z</time></trkpt><trkpt lat="46.2391866" lon="13.1556389"><ele>205.60000000000002</ele><time>2026-05-01T09:59:17.599Z</time></trkpt><trkpt lat="46.2392774" lon="13.1556209"><ele>205.4</ele><time>2026-05-01T09:59:18.599Z</time></trkpt><trkpt lat="46.2393742" lon="13.1555836"><ele>205.2</ele><time>2026-05-01T09:59:19.601Z</time></trkpt><trkpt lat="46.2394802" lon="13.1555348"><ele>205.0</ele><time>2026-05-01T09:59:20.6Z</time></trkpt><trkpt lat="46.2395744" lon="13.1554526"><ele>205.0</ele><time>2026-05-01T09:59:21.601Z</time></trkpt><trkpt lat="46.2396759" lon="13.1554446"><ele>205.0</ele><time>2026-05-01T09:59:22.6Z</time></trkpt><trkpt lat="46.2397666" lon="13.1554141"><ele>205.0</ele><time>2026-05-01T09:59:23.6Z</time></trkpt><trkpt lat="46.2398551" lon="13.1553702"><ele>205.0</ele><time>2026-05-01T09:59:24.6Z</time></trkpt><trkpt lat="46.2399514" lon="13.1553301"><ele>205.0</ele><time>2026-05-01T09:59:25.601Z</time></trkpt><trkpt lat="46.2400445" lon="13.1552867"><ele>206.2</ele><time>2026-05-01T09:59:26.601Z</time></trkpt><trkpt lat="46.2401487" lon="13.155257"><ele>207.4</ele><time>2026-05-01T09:59:27.6Z</time></trkpt><trkpt lat="46.2402329" lon="13.1551802"><ele>208.60000000000002</ele><time>2026-05-01T09:59:28.599Z</time></trkpt><trkpt lat="46.2403287" lon="13.1551249"><ele>209.8</ele><time>2026-05-01T09:59:29.6Z</time></trkpt><trkpt lat="46.2404219" lon="13.1550762"><ele>211.0</ele><time>2026-05-01T09:59:30.6Z</time></trkpt><trkpt lat="46.2405156" lon="13.1550017"><ele>211.0</ele><time>2026-05-01T09:59:31.599Z</time></trkpt><trkpt lat="46.2406117" lon="13.1549405"><ele>211.0</ele><time>2026-05-01T09:59:32.599Z</time></trkpt><trkpt lat="46.2407087" lon="13.1548866"><ele>211.0</ele><time>2026-05-01T09:59:33.6Z</time></trkpt><trkpt lat="46.2408084" lon="13.1548285"><ele>211.0</ele><time>2026-05-01T09:59:34.601Z</time></trkpt><trkpt lat="46.2409092" lon="13.1547743"><ele>211.0</ele><time>2026-05-01T09:59:35.599Z</time></trkpt><trkpt lat="46.2410165" lon="13.154733"><ele>215.25</ele><time>2026-05-01T09:59:36.599Z</time></trkpt><trkpt lat="46.2411245" lon="13.1546825"><ele>219.5</ele><time>2026-05-01T09:59:37.6Z</time></trkpt><trkpt lat="46.2412364" lon="13.1546315"><ele>223.75</ele><time>2026-05-01T09:59:38.6Z</time></trkpt><trkpt lat="46.2413445" lon="13.1545839"><ele>228.0</ele><time>2026-05-01T09:59:39.6Z</time></trkpt><trkpt lat="46.2414568" lon="13.1545253"><ele>227.0</ele><time>2026-05-01T09:59:40.6Z</time></trkpt><trkpt lat="46.2415715" lon="13.1544715"><ele>226.0</ele><time>2026-05-01T09:59:41.599Z</time></trkpt><trkpt lat="46.2416928" lon="13.154435"><ele>225.0</ele><time>2026-05-01T09:59:42.6Z</time></trkpt><trkpt lat="46.2418136" lon="13.1543976"><ele>224.0</ele><time>2026-05-01T09:59:43.601Z</time></trkpt><trkpt lat="46.2419369" lon="13.154342"><ele>224.0</ele><time>2026-05-01T09:59:44.6Z</time></trkpt><trkpt lat="46.242057" lon="13.1542837"><ele>224.0</ele><time>2026-05-01T09:59:45.599Z</time></trkpt><trkpt lat="46.2421784" lon="13.1542213"><ele>224.0</ele><time>2026-05-01T09:59:46.601Z</time></trkpt><trkpt lat="46.2423061" lon="13.1541344"><ele>224.0</ele><time>2026-05-01T09:59:47.599Z</time></trkpt><trkpt lat="46.2424334" lon="13.1540523"><ele>223.25</ele><time>2026-05-01T09:59:48.599Z</time></trkpt><trkpt lat="46.242565" lon="13.1539766"><ele>222.5</ele><time>2026-05-01T09:59:49.6Z</time></trkpt><trkpt lat="46.2427046" lon="13.1539446"><ele>221.75</ele><time>2026-05-01T09:59:50.6Z</time></trkpt><trkpt lat="46.242852" lon="13.1539335"><ele>221.0</ele><time>2026-05-01T09:59:51.599Z</time></trkpt><trkpt lat="46.2430155" lon="13.1539284"><ele>219.0</ele><time>2026-05-01T09:59:52.601Z</time></trkpt><trkpt lat="46.2431816" lon="13.1539093"><ele>217.0</ele><time>2026-05-01T09:59:53.6Z</time></trkpt><trkpt lat="46.243337" lon="13.1538701"><ele>215.0</ele><time>2026-05-01T09:59:54.6Z</time></trkpt><trkpt lat="46.2434643" lon="13.1538363"><ele>215.00000000000003</ele><time>2026-05-01T09:59:55.601Z</time></trkpt><trkpt lat="46.2435619" lon="13.1538154"><ele>215.0</ele><time>2026-05-01T09:59:56.599Z</time></trkpt><trkpt lat="46.2436451" lon="13.1538141"><ele>215.0</ele><time>2026-05-01T09:59:57.6Z</time></trkpt><trkpt lat="46.2437169" lon="13.1538447"><ele>215.0</ele><time>2026-05-01T09:59:58.601Z</time></trkpt><trkpt lat="46.2437745" lon="13.153913"><ele>215.00000000000003</ele><time>2026-05-01T09:59:59.6Z</time></trkpt><trkpt lat="46.2438181" lon="13.1540116"><ele>215.0</ele><time>2026-05-01T10:00:00.6Z</time></trkpt><trkpt lat="46.2438697" lon="13.1541011"><ele>215.16666666666669</ele><time>2026-05-01T10:00:01.6Z</time></trkpt><trkpt lat="46.2439362" lon="13.1541427"><ele>215.33333333333334</ele><time>2026-05-01T10:00:02.601Z</time></trkpt><trkpt lat="46.2440069" lon="13.1541286"><ele>215.5</ele><time>2026-05-01T10:00:03.6Z</time></trkpt><trkpt lat="46.2440721" lon="13.1540702"><ele>215.66666666666669</ele><time>2026-05-01T10:00:04.6Z</time></trkpt><trkpt lat="46.2441311" lon="13.1539628"><ele>215.83333333333334</ele><time>2026-05-01T10:00:05.599Z</time></trkpt><trkpt lat="46.2441961" lon="13.1538386"><ele>216.0</ele><time>2026-05-01T10:00:06.599Z</time></trkpt><trkpt lat="46.2442912" lon="13.1537434"><ele>215.5</ele><time>2026-05-01T10:00:07.6Z</time></trkpt><trkpt lat="46.2444174" lon="13.1536624"><ele>215.0</ele><time>2026-05-01T10:00:08.6Z</time></trkpt><trkpt lat="46.2445439" lon="13.1535644"><ele>214.5</ele><time>2026-05-01T10:00:09.6Z</time></trkpt><trkpt lat="46.2446704" lon="13.1534286"><ele>214.0</ele><time>2026-05-01T10:00:10.6Z</time></trkpt><trkpt lat="46.2447957" lon="13.1532659"><ele>214.66666666666666</ele><time>2026-05-01T10:00:11.599Z</time></trkpt><trkpt lat="46.2449241" lon="13.153111"><ele>215.33333333333331</ele><time>2026-05-01T10:00:12.599Z</time></trkpt><trkpt lat="46.2450719" lon="13.1529908"><ele>216.0</ele><time>2026-05-01T10:00:13.599Z</time></trkpt><trkpt lat="46.2452323" lon="13.1529041"><ele>216.0</ele><time>2026-05-01T10:00:14.6Z</time></trkpt><trkpt lat="46.2453823" lon="13.1528329"><ele>216.0</ele><time>2026-05-01T10:00:15.6Z</time></trkpt><trkpt lat="46.2455146" lon="13.1527625"><ele>216.0</ele><time>2026-05-01T10:00:16.599Z</time></trkpt><trkpt lat="46.2456435" lon="13.1526835"><ele>216.0</ele><time>2026-05-01T10:00:17.599Z</time></trkpt><trkpt lat="46.2457755" lon="13.1525931"><ele>216.33333333333331</ele><time>2026-05-01T10:00:18.598Z</time></trkpt><trkpt lat="46.2459075" lon="13.1525005"><ele>216.66666666666666</ele><time>2026-05-01T10:00:19.6Z</time></trkpt><trkpt lat="46.2460457" lon="13.1524008"><ele>217.0</ele><time>2026-05-01T10:00:20.598Z</time></trkpt><trkpt lat="46.2461879" lon="13.1522986"><ele>217.0</ele><time>2026-05-01T10:00:21.599Z</time></trkpt><trkpt lat="46.246332" lon="13.1521855"><ele>217.0</ele><time>2026-05-01T10:00:22.599Z</time></trkpt><trkpt lat="46.2464801" lon="13.1520579"><ele>217.0</ele><time>2026-05-01T10:00:23.598Z</time></trkpt><trkpt lat="46.2466229" lon="13.1519183"><ele>217.33333333333331</ele><time>2026-05-01T10:00:24.599Z</time></trkpt><trkpt lat="46.2467691" lon="13.1517679"><ele>217.66666666666669</ele><time>2026-05-01T10:00:25.599Z</time></trkpt><trkpt lat="46.2469206" lon="13.1516134"><ele>218.0</ele><time>2026-05-01T10:00:26.599Z</time></trkpt><trkpt lat="46.2470749" lon="13.1514559"><ele>216.66666666666669</ele><time>2026-05-01T10:00:27.598Z</time></trkpt><trkpt lat="46.2472365" lon="13.1512973"><ele>215.33333333333331</ele><time>2026-05-01T10:00:28.598Z</time></trkpt><trkpt lat="46.2473983" lon="13.151138"><ele>214.0</ele><time>2026-05-01T10:00:29.6Z</time></trkpt><trkpt lat="46.2475582" lon="13.1509786"><ele>212.66666666666666</ele><time>2026-05-01T10:00:30.598Z</time></trkpt><trkpt lat="46.2477242" lon="13.1508197"><ele>211.33333333333331</ele><time>2026-05-01T10:00:31.6Z</time></trkpt><trkpt lat="46.2478929" lon="13.1506595"><ele>210.0</ele><time>2026-05-01T10:00:32.598Z</time></trkpt><trkpt lat="46.2480602" lon="13.1504917"><ele>207.0</ele><time>2026-05-01T10:00:33.598Z</time></trkpt><trkpt lat="46.2482273" lon="13.1503179"><ele>204.0</ele><time>2026-05-01T10:00:34.598Z</time></trkpt><trkpt lat="46.2483908" lon="13.1501433"><ele>201.0</ele><time>2026-05-01T10:00:35.598Z</time></trkpt><trkpt lat="46.2485592" lon="13.1499724"><ele>200.33333333333331</ele><time>2026-05-01T10:00:36.599Z</time></trkpt><trkpt lat="46.2487318" lon="13.1498012"><ele>199.66666666666666</ele><time>2026-05-01T10:00:37.6Z</time></trkpt><trkpt lat="46.2488996" lon="13.1496275"><ele>199.0</ele><time>2026-05-01T10:00:38.598Z</time></trkpt><trkpt lat="46.2490689" lon="13.1494588"><ele>197.66666666666666</ele><time>2026-05-01T10:00:39.598Z</time></trkpt><trkpt lat="46.2492412" lon="13.1492963"><ele>196.33333333333331</ele><time>2026-05-01T10:00:40.598Z</time></trkpt><trkpt lat="46.2494136" lon="13.1491391"><ele>195.0</ele><time>2026-05-01T10:00:41.599Z</time></trkpt><trkpt lat="46.2495847" lon="13.148983"><ele>194.33333333333331</ele><time>2026-05-01T10:00:42.598Z</time></trkpt><trkpt lat="46.2497547" lon="13.1488368"><ele>193.66666666666666</ele><time>2026-05-01T10:00:43.6Z</time></trkpt><trkpt lat="46.2499181" lon="13.1486936"><ele>193.0</ele><time>2026-05-01T10:00:44.599Z</time></trkpt><trkpt lat="46.250089" lon="13.148562"><ele>193.0</ele><time>2026-05-01T10:00:45.598Z</time></trkpt><trkpt lat="46.2502632" lon="13.1484485"><ele>193.0</ele><time>2026-05-01T10:00:46.598Z</time></trkpt><trkpt lat="46.250441" lon="13.1483459"><ele>193.0</ele><time>2026-05-01T10:00:47.599Z</time></trkpt><trkpt lat="46.2506161" lon="13.1482405"><ele>192.33333333333331</ele><time>2026-05-01T10:00:48.599Z</time></trkpt><trkpt lat="46.250795" lon="13.1481406"><ele>191.66666666666666</ele><time>2026-05-01T10:00:49.599Z</time></trkpt><trkpt lat="46.2509737" lon="13.1480387"><ele>191.0</ele><time>2026-05-01T10:00:50.598Z</time></trkpt><trkpt lat="46.2511542" lon="13.1479429"><ele>191.0</ele><time>2026-05-01T10:00:51.598Z</time></trkpt><trkpt lat="46.2513374" lon="13.1478481"><ele>191.0</ele><time>2026-05-01T10:00:52.598Z</time></trkpt><trkpt lat="46.2515214" lon="13.1477539"><ele>191.0</ele><time>2026-05-01T10:00:53.6Z</time></trkpt><trkpt lat="46.2517096" lon="13.1476713"><ele>192.0</ele><time>2026-05-01T10:00:54.599Z</time></trkpt><trkpt lat="46.2518995" lon="13.1476015"><ele>193.0</ele><time>2026-05-01T10:00:55.599Z</time></trkpt><trkpt lat="46.2520966" lon="13.1475501"><ele>194.0</ele><time>2026-05-01T10:00:56.599Z</time></trkpt><trkpt lat="46.2522955" lon="13.1475123"><ele>194.0</ele><time>2026-05-01T10:00:57.598Z</time></trkpt><trkpt lat="46.2524968" lon="13.1474835"><ele>194.0</ele><time>2026-05-01T10:00:58.599Z</time></trkpt><trkpt lat="46.252699" lon="13.1474562"><ele>194.0</ele><time>2026-05-01T10:00:59.598Z</time></trkpt><trkpt lat="46.252905" lon="13.1474358"><ele>194.0</ele><time>2026-05-01T10:01:00.598Z</time></trkpt><trkpt lat="46.2531071" lon="13.1474211"><ele>194.0</ele><time>2026-05-01T10:01:01.598Z</time></trkpt><trkpt lat="46.2533122" lon="13.1474204"><ele>194.0</ele><time>2026-05-01T10:01:02.6Z</time></trkpt><trkpt lat="46.2535142" lon="13.1474349"><ele>195.0</ele><time>2026-05-01T10:01:03.598Z</time></trkpt><trkpt lat="46.2537231" lon="13.1474464"><ele>196.0</ele><time>2026-05-01T10:01:04.599Z</time></trkpt><trkpt lat="46.253925" lon="13.1474615"><ele>197.0</ele><time>2026-05-01T10:01:05.598Z</time></trkpt><trkpt lat="46.2541285" lon="13.1474759"><ele>198.33333333333334</ele><time>2026-05-01T10:01:06.598Z</time></trkpt><trkpt lat="46.2543329" lon="13.1474881"><ele>199.66666666666669</ele><time>2026-05-01T10:01:07.599Z</time></trkpt><trkpt lat="46.2545417" lon="13.1474937"><ele>201.0</ele><time>2026-05-01T10:01:08.599Z</time></trkpt><trkpt lat="46.2547422" lon="13.1475036"><ele>201.0</ele><time>2026-05-01T10:01:09.598Z</time></trkpt><trkpt lat="46.2549408" lon="13.1475134"><ele>201.0</ele><time>2026-05-01T10:01:10.599Z</time></trkpt><trkpt lat="46.255139" lon="13.1475258"><ele>201.0</ele><time>2026-05-01T10:01:11.599Z</time></trkpt><trkpt lat="46.2553325" lon="13.1475378"><ele>201.0</ele><time>2026-05-01T10:01:12.599Z</time></trkpt><trkpt lat="46.2555144" lon="13.1475571"><ele>201.0</ele><time>2026-05-01T10:01:13.6Z</time></trkpt><trkpt lat="46.2556865" lon="13.1475776"><ele>201.0</ele><time>2026-05-01T10:01:14.598Z</time></trkpt><trkpt lat="46.2558525" lon="13.1475979"><ele>202.66666666666669</ele><time>2026-05-01T10:01:15.599Z</time></trkpt><trkpt lat="46.2560109" lon="13.1476323"><ele>204.33333333333334</ele><time>2026-05-01T10:01:16.598Z</time></trkpt><trkpt lat="46.2561721" lon="13.1476683"><ele>206.0</ele><time>2026-05-01T10:01:17.599Z</time></trkpt><trkpt lat="46.2563361" lon="13.1477041"><ele>205.66666666666669</ele><time>2026-05-01T10:01:18.598Z</time></trkpt><trkpt lat="46.256503" lon="13.1477368"><ele>205.33333333333331</ele><time>2026-05-01T10:01:19.599Z</time></trkpt><trkpt lat="46.2566799" lon="13.1477595"><ele>205.0</ele><time>2026-05-01T10:01:20.599Z</time></trkpt><trkpt lat="46.2568631" lon="13.1477752"><ele>205.0</ele><time>2026-05-01T10:01:21.599Z</time></trkpt><trkpt lat="46.2570565" lon="13.1477754"><ele>205.0</ele><time>2026-05-01T10:01:22.6Z</time></trkpt><trkpt lat="46.257252" lon="13.1477689"><ele>205.0</ele><time>2026-05-01T10:01:23.599Z</time></trkpt><trkpt lat="46.2574466" lon="13.1477558"><ele>205.0</ele><time>2026-05-01T10:01:24.599Z</time></trkpt><trkpt lat="46.2576496" lon="13.1477469"><ele>205.0</ele><time>2026-05-01T10:01:25.599Z</time></trkpt><trkpt lat="46.2578414" lon="13.1477436"><ele>205.0</ele><time>2026-05-01T10:01:26.598Z</time></trkpt><trkpt lat="46.2580248" lon="13.1477337"><ele>206.0</ele><time>2026-05-01T10:01:27.598Z</time></trkpt><trkpt lat="46.2581998" lon="13.1477243"><ele>207.0</ele><time>2026-05-01T10:01:28.599Z</time></trkpt><trkpt lat="46.2583657" lon="13.1477163"><ele>208.0</ele><time>2026-05-01T10:01:29.6Z</time></trkpt><trkpt lat="46.2585356" lon="13.1477073"><ele>208.0</ele><time>2026-05-01T10:01:30.598Z</time></trkpt><trkpt lat="46.258711" lon="13.1476955"><ele>208.0</ele><time>2026-05-01T10:01:31.6Z</time></trkpt><trkpt lat="46.2588883" lon="13.147684"><ele>208.0</ele><time>2026-05-01T10:01:32.599Z</time></trkpt><trkpt lat="46.2590636" lon="13.1476767"><ele>210.0</ele><time>2026-05-01T10:01:33.598Z</time></trkpt><trkpt lat="46.2592289" lon="13.147673"><ele>212.0</ele><time>2026-05-01T10:01:34.599Z</time></trkpt><trkpt lat="46.2593818" lon="13.1476803"><ele>214.0</ele><time>2026-05-01T10:01:35.599Z</time></trkpt><trkpt lat="46.2595263" lon="13.1476835"><ele>214.0</ele><time>2026-05-01T10:01:36.598Z</time></trkpt><trkpt lat="46.2596668" lon="13.1476945"><ele>214.0</ele><time>2026-05-01T10:01:37.6Z</time></trkpt><trkpt lat="46.2598127" lon="13.1477002"><ele>214.0</ele><time>2026-05-01T10:01:38.598Z</time></trkpt><trkpt lat="46.2599723" lon="13.1476982"><ele>214.0</ele><time>2026-05-01T10:01:39.598Z</time></trkpt><trkpt lat="46.2601365" lon="13.1476854"><ele>214.0</ele><time>2026-05-01T10:01:40.598Z</time></trkpt><trkpt lat="46.2603065" lon="13.1476597"><ele>214.0</ele><time>2026-05-01T10:01:41.599Z</time></trkpt><trkpt lat="46.2604865" lon="13.1476229"><ele>214.0</ele><time>2026-05-01T10:01:42.599Z</time></trkpt><trkpt lat="46.2606752" lon="13.1475686"><ele>214.0</ele><time>2026-05-01T10:01:43.6Z</time></trkpt><trkpt lat="46.2608614" lon="13.147503"><ele>214.0</ele><time>2026-05-01T10:01:44.598Z</time></trkpt><trkpt lat="46.2610529" lon="13.1474195"><ele>214.0</ele><time>2026-05-01T10:01:45.599Z</time></trkpt><trkpt lat="46.2612451" lon="13.1473211"><ele>213.66666666666666</ele><time>2026-05-01T10:01:46.598Z</time></trkpt><trkpt lat="46.261439" lon="13.1472221"><ele>213.33333333333331</ele><time>2026-05-01T10:01:47.599Z</time></trkpt><trkpt lat="46.2616383" lon="13.1471285"><ele>213.0</ele><time>2026-05-01T10:01:48.598Z</time></trkpt><trkpt lat="46.2618396" lon="13.1470409"><ele>213.0</ele><time>2026-05-01T10:01:49.599Z</time></trkpt><trkpt lat="46.2620463" lon="13.1469604"><ele>213.0</ele><time>2026-05-01T10:01:50.599Z</time></trkpt><trkpt lat="46.2622545" lon="13.1468907"><ele>213.0</ele><time>2026-05-01T10:01:51.598Z</time></trkpt><trkpt lat="46.262466" lon="13.1468339"><ele>213.33333333333331</ele><time>2026-05-01T10:01:52.599Z</time></trkpt><trkpt lat="46.2626743" lon="13.1467848"><ele>213.66666666666666</ele><time>2026-05-01T10:01:53.599Z</time></trkpt><trkpt lat="46.2628858" lon="13.1467383"><ele>214.0</ele><time>2026-05-01T10:01:54.599Z</time></trkpt><trkpt lat="46.263094" lon="13.1466951"><ele>214.0</ele><time>2026-05-01T10:01:55.599Z</time></trkpt><trkpt lat="46.2633018" lon="13.1466535"><ele>214.0</ele><time>2026-05-01T10:01:56.598Z</time></trkpt><trkpt lat="46.2635097" lon="13.146606"><ele>214.0</ele><time>2026-05-01T10:01:57.599Z</time></trkpt><trkpt lat="46.2637189" lon="13.1465633"><ele>212.0</ele><time>2026-05-01T10:01:58.6Z</time></trkpt><trkpt lat="46.26393" lon="13.1465224"><ele>210.0</ele><time>2026-05-01T10:01:59.599Z</time></trkpt><trkpt lat="46.264141" lon="13.1464898"><ele>208.0</ele><time>2026-05-01T10:02:00.6Z</time></trkpt><trkpt lat="46.2643534" lon="13.1464712"><ele>208.0</ele><time>2026-05-01T10:02:01.598Z</time></trkpt><trkpt lat="46.2645665" lon="13.1464642"><ele>208.0</ele><time>2026-05-01T10:02:02.598Z</time></trkpt><trkpt lat="46.2647753" lon="13.1464833"><ele>208.0</ele><time>2026-05-01T10:02:03.599Z</time></trkpt><trkpt lat="46.2649743" lon="13.1465214"><ele>211.0</ele><time>2026-05-01T10:02:04.598Z</time></trkpt><trkpt lat="46.2651658" lon="13.1465703"><ele>214.0</ele><time>2026-05-01T10:02:05.598Z</time></trkpt><trkpt lat="46.265352" lon="13.1466372"><ele>217.0</ele><time>2026-05-01T10:02:06.599Z</time></trkpt><trkpt lat="46.2655372" lon="13.1467161"><ele>215.66666666666666</ele><time>2026-05-01T10:02:07.599Z</time></trkpt><trkpt lat="46.2657179" lon="13.1468077"><ele>214.33333333333331</ele><time>2026-05-01T10:02:08.598Z</time></trkpt><trkpt lat="46.265895" lon="13.1469133"><ele>213.0</ele><time>2026-05-01T10:02:09.598Z</time></trkpt><trkpt lat="46.266068" lon="13.1470277"><ele>213.0</ele><time>2026-05-01T10:02:10.599Z</time></trkpt><trkpt lat="46.2662408" lon="13.1471301"><ele>213.0</ele><time>2026-05-01T10:02:11.598Z</time></trkpt><trkpt lat="46.2664086" lon="13.1472058"><ele>213.0</ele><time>2026-05-01T10:02:12.6Z</time></trkpt><trkpt lat="46.2665896" lon="13.1472455"><ele>212.33333333333331</ele><time>2026-05-01T10:02:13.599Z</time></trkpt><trkpt lat="46.266782" lon="13.1472484"><ele>211.66666666666666</ele><time>2026-05-01T10:02:14.598Z</time></trkpt><trkpt lat="46.2669786" lon="13.1472493"><ele>211.0</ele><time>2026-05-01T10:02:15.599Z</time></trkpt><trkpt lat="46.2671764" lon="13.1472477"><ele>210.0</ele><time>2026-05-01T10:02:16.598Z</time></trkpt><trkpt lat="46.2673754" lon="13.1472383"><ele>209.0</ele><time>2026-05-01T10:02:17.599Z</time></trkpt><trkpt lat="46.2675756" lon="13.1472355"><ele>208.0</ele><time>2026-05-01T10:02:18.598Z</time></trkpt><trkpt lat="46.2677763" lon="13.1472336"><ele>208.0</ele><time>2026-05-01T10:02:19.599Z</time></trkpt><trkpt lat="46.2679734" lon="13.1472352"><ele>208.0</ele><time>2026-05-01T10:02:20.6Z</time></trkpt><trkpt lat="46.2681696" lon="13.1472276"><ele>208.0</ele><time>2026-05-01T10:02:21.599Z</time></trkpt><trkpt lat="46.2683642" lon="13.1472164"><ele>209.66666666666666</ele><time>2026-05-01T10:02:22.598Z</time></trkpt><trkpt lat="46.2685523" lon="13.1471364"><ele>211.33333333333331</ele><time>2026-05-01T10:02:23.599Z</time></trkpt><trkpt lat="46.2687399" lon="13.1470669"><ele>213.0</ele><time>2026-05-01T10:02:24.598Z</time></trkpt><trkpt lat="46.2689099" lon="13.146926"><ele>216.33333333333331</ele><time>2026-05-01T10:02:25.599Z</time></trkpt><trkpt lat="46.2690834" lon="13.1468105"><ele>219.66666666666666</ele><time>2026-05-01T10:02:26.598Z</time></trkpt><trkpt lat="46.269251" lon="13.1466788"><ele>223.0</ele><time>2026-05-01T10:02:27.599Z</time></trkpt><trkpt lat="46.2694303" lon="13.1465695"><ele>220.66666666666666</ele><time>2026-05-01T10:02:28.598Z</time></trkpt><trkpt lat="46.2696226" lon="13.1464839"><ele>218.33333333333331</ele><time>2026-05-01T10:02:29.598Z</time></trkpt><trkpt lat="46.2698111" lon="13.1464108"><ele>216.0</ele><time>2026-05-01T10:02:30.598Z</time></trkpt><trkpt lat="46.2700111" lon="13.1463616"><ele>216.0</ele><time>2026-05-01T10:02:31.599Z</time></trkpt><trkpt lat="46.2702052" lon="13.1463039"><ele>216.0</ele><time>2026-05-01T10:02:32.598Z</time></trkpt><trkpt lat="46.270398" lon="13.1462272"><ele>216.0</ele><time>2026-05-01T10:02:33.599Z</time></trkpt><trkpt lat="46.2705844" lon="13.1461218"><ele>222.0</ele><time>2026-05-01T10:02:34.598Z</time></trkpt><trkpt lat="46.2707733" lon="13.1460124"><ele>228.0</ele><time>2026-05-01T10:02:35.599Z</time></trkpt><trkpt lat="46.2709556" lon="13.145907"><ele>234.0</ele><time>2026-05-01T10:02:36.6Z</time></trkpt><trkpt lat="46.2711308" lon="13.1458024"><ele>234.0</ele><time>2026-05-01T10:02:37.598Z</time></trkpt><trkpt lat="46.2712577" lon="13.1457168"><ele>234.0</ele><time>2026-05-01T10:02:38.599Z</time></trkpt><trkpt lat="46.2714022" lon="13.1456226"><ele>234.0</ele><time>2026-05-01T10:02:39.599Z</time></trkpt><trkpt lat="46.271541" lon="13.1455342"><ele>230.75</ele><time>2026-05-01T10:02:40.599Z</time></trkpt><trkpt lat="46.2716722" lon="13.1454474"><ele>227.5</ele><time>2026-05-01T10:02:41.599Z</time></trkpt><trkpt lat="46.2718082" lon="13.1453583"><ele>224.25</ele><time>2026-05-01T10:02:42.599Z</time></trkpt><trkpt lat="46.2719435" lon="13.1452723"><ele>221.0</ele><time>2026-05-01T10:02:43.6Z</time></trkpt><trkpt lat="46.2720745" lon="13.1451947"><ele>221.0</ele><time>2026-05-01T10:02:44.6Z</time></trkpt><trkpt lat="46.2722067" lon="13.1451179"><ele>221.0</ele><time>2026-05-01T10:02:45.6Z</time></trkpt><trkpt lat="46.2723336" lon="13.1450551"><ele>221.0</ele><time>2026-05-01T10:02:46.598Z</time></trkpt><trkpt lat="46.2724661" lon="13.1450078"><ele>221.0</ele><time>2026-05-01T10:02:47.599Z</time></trkpt><trkpt lat="46.272593" lon="13.1449696"><ele>219.0</ele><time>2026-05-01T10:02:48.599Z</time></trkpt><trkpt lat="46.2727129" lon="13.1449482"><ele>217.00000000000003</ele><time>2026-05-01T10:02:49.599Z</time></trkpt><trkpt lat="46.2728043" lon="13.144896"><ele>215.0</ele><time>2026-05-01T10:02:50.598Z</time></trkpt><trkpt lat="46.272902" lon="13.1448629"><ele>213.0</ele><time>2026-05-01T10:02:51.599Z</time></trkpt><trkpt lat="46.272992" lon="13.1448278"><ele>211.0</ele><time>2026-05-01T10:02:52.599Z</time></trkpt><trkpt lat="46.2730773" lon="13.1448085"><ele>213.16666666666666</ele><time>2026-05-01T10:02:53.6Z</time></trkpt><trkpt lat="46.2731633" lon="13.1447793"><ele>215.33333333333331</ele><time>2026-05-01T10:02:54.598Z</time></trkpt><trkpt lat="46.2732413" lon="13.1447505"><ele>217.5</ele><time>2026-05-01T10:02:55.6Z</time></trkpt><trkpt lat="46.2733293" lon="13.1447229"><ele>219.66666666666669</ele><time>2026-05-01T10:02:56.599Z</time></trkpt><trkpt lat="46.2734178" lon="13.1446898"><ele>221.83333333333334</ele><time>2026-05-01T10:02:57.6Z</time></trkpt><trkpt lat="46.2735025" lon="13.1446645"><ele>224.0</ele><time>2026-05-01T10:02:58.598Z</time></trkpt><trkpt lat="46.273586" lon="13.1446313"><ele>224.00000000000003</ele><time>2026-05-01T10:02:59.598Z</time></trkpt><trkpt lat="46.2736709" lon="13.1445991"><ele>224.0</ele><time>2026-05-01T10:03:00.599Z</time></trkpt><trkpt lat="46.2737511" lon="13.1445733"><ele>224.0</ele><time>2026-05-01T10:03:01.6Z</time></trkpt><trkpt lat="46.2738332" lon="13.1445455"><ele>224.0</ele><time>2026-05-01T10:03:02.598Z</time></trkpt><trkpt lat="46.2739141" lon="13.1445153"><ele>224.00000000000003</ele><time>2026-05-01T10:03:03.598Z</time></trkpt><trkpt lat="46.2739944" lon="13.1444859"><ele>224.0</ele><time>2026-05-01T10:03:04.6Z</time></trkpt><trkpt lat="46.2740739" lon="13.1444547"><ele>226.66666666666669</ele><time>2026-05-01T10:03:05.6Z</time></trkpt><trkpt lat="46.2741526" lon="13.1444261"><ele>229.33333333333334</ele><time>2026-05-01T10:03:06.599Z</time></trkpt><trkpt lat="46.2742299" lon="13.1443985"><ele>232.0</ele><time>2026-05-01T10:03:07.598Z</time></trkpt><trkpt lat="46.2743061" lon="13.1443728"><ele>234.66666666666669</ele><time>2026-05-01T10:03:08.598Z</time></trkpt><trkpt lat="46.2743878" lon="13.1443455"><ele>237.33333333333334</ele><time>2026-05-01T10:03:09.598Z</time></trkpt><trkpt lat="46.2744683" lon="13.1443225"><ele>240.0</ele><time>2026-05-01T10:03:10.6Z</time></trkpt><trkpt lat="46.2745439" lon="13.1442929"><ele>240.0</ele><time>2026-05-01T10:03:11.599Z</time></trkpt><trkpt lat="46.2746167" lon="13.1442688"><ele>240.0</ele><time>2026-05-01T10:03:12.598Z</time></trkpt><trkpt lat="46.2747043" lon="13.1442404"><ele>240.0</ele><time>2026-05-01T10:03:13.599Z</time></trkpt><trkpt lat="46.27479" lon="13.144211"><ele>240.0</ele><time>2026-05-01T10:03:14.6Z</time></trkpt><trkpt lat="46.2748741" lon="13.1441762"><ele>240.0</ele><time>2026-05-01T10:03:15.6Z</time></trkpt><trkpt lat="46.2749496" lon="13.1441342"><ele>240.0</ele><time>2026-05-01T10:03:16.598Z</time></trkpt><trkpt lat="46.2750334" lon="13.1440795"><ele>240.83333333333334</ele><time>2026-05-01T10:03:17.599Z</time></trkpt><trkpt lat="46.2751042" lon="13.1440283"><ele>241.66666666666669</ele><time>2026-05-01T10:03:18.598Z</time></trkpt><trkpt lat="46.2751666" lon="13.1439639"><ele>242.5</ele><time>2026-05-01T10:03:19.598Z</time></trkpt><trkpt lat="46.2752514" lon="13.1438615"><ele>243.33333333333334</ele><time>2026-05-01T10:03:20.598Z</time></trkpt><trkpt lat="46.2753101" lon="13.1437754"><ele>244.16666666666669</ele><time>2026-05-01T10:03:21.599Z</time></trkpt><trkpt lat="46.2753593" lon="13.143702"><ele>245.0</ele><time>2026-05-01T10:03:23.599Z</time></trkpt><trkpt lat="46.27537" lon="13.143586"><ele>245.00000000000003</ele><time>2026-05-01T10:03:25.6Z</time></trkpt><trkpt lat="46.2754118" lon="13.1434729"><ele>245.0</ele><time>2026-05-01T10:03:28.597Z</time></trkpt><trkpt lat="46.275408" lon="13.1433752"><ele>245.0</ele><time>2026-05-01T10:03:29.598Z</time></trkpt><trkpt lat="46.2753911" lon="13.1432313"><ele>245.0</ele><time>2026-05-01T10:03:31.599Z</time></trkpt><trkpt lat="46.2754268" lon="13.1431026"><ele>245.00000000000003</ele><time>2026-05-01T10:03:33.597Z</time></trkpt><trkpt lat="46.2754437" lon="13.1429702"><ele>245.0</ele><time>2026-05-01T10:03:34.597Z</time></trkpt><trkpt lat="46.2754577" lon="13.1428291"><ele>245.6</ele><time>2026-05-01T10:03:35.597Z</time></trkpt><trkpt lat="46.2754681" lon="13.1426593"><ele>246.2</ele><time>2026-05-01T10:03:36.598Z</time></trkpt><trkpt lat="46.2754741" lon="13.142499"><ele>246.8</ele><time>2026-05-01T10:03:37.598Z</time></trkpt><trkpt lat="46.2754906" lon="13.1423656"><ele>247.4</ele><time>2026-05-01T10:03:38.598Z</time></trkpt><trkpt lat="46.2755094" lon="13.1422332"><ele>248.0</ele><time>2026-05-01T10:03:39.597Z</time></trkpt><trkpt lat="46.2755212" lon="13.1421106"><ele>248.66666666666669</ele><time>2026-05-01T10:03:40.598Z</time></trkpt><trkpt lat="46.2755815" lon="13.1419656"><ele>249.33333333333334</ele><time>2026-05-01T10:03:42.598Z</time></trkpt><trkpt lat="46.2756088" lon="13.1418783"><ele>250.0</ele><time>2026-05-01T10:03:43.598Z</time></trkpt><trkpt lat="46.2756792" lon="13.1417283"><ele>250.66666666666669</ele><time>2026-05-01T10:03:45.597Z</time></trkpt><trkpt lat="46.2757333" lon="13.1416659"><ele>251.33333333333334</ele><time>2026-05-01T10:03:46.597Z</time></trkpt><trkpt lat="46.2757933" lon="13.1416152"><ele>252.0</ele><time>2026-05-01T10:03:47.597Z</time></trkpt><trkpt lat="46.2758614" lon="13.1415802"><ele>254.8</ele><time>2026-05-01T10:03:48.597Z</time></trkpt><trkpt lat="46.2759708" lon="13.1414997"><ele>257.6</ele><time>2026-05-01T10:03:50.598Z</time></trkpt><trkpt lat="46.276027" lon="13.1414501"><ele>260.40000000000003</ele><time>2026-05-01T10:03:51.598Z</time></trkpt><trkpt lat="46.2761042" lon="13.1413341"><ele>263.2</ele><time>2026-05-01T10:03:53.598Z</time></trkpt><trkpt lat="46.2761506" lon="13.1412302"><ele>266.0</ele><time>2026-05-01T10:03:55.599Z</time></trkpt><trkpt lat="46.2761892" lon="13.1411222"><ele>266.0</ele><time>2026-05-01T10:03:57.598Z</time></trkpt><trkpt lat="46.2762366" lon="13.1410179"><ele>266.0</ele><time>2026-05-01T10:03:59.598Z</time></trkpt><trkpt lat="46.2762925" lon="13.1409193"><ele>266.0</ele><time>2026-05-01T10:04:01.598Z</time></trkpt><trkpt lat="46.2763433" lon="13.1408259"><ele>266.0</ele><time>2026-05-01T10:04:04.598Z</time></trkpt><trkpt lat="46.2763975" lon="13.1407486"><ele>266.0</ele><time>2026-05-01T10:04:07.598Z</time></trkpt><trkpt lat="46.2764571" lon="13.1406989"><ele>266.0</ele><time>2026-05-01T10:04:11.597Z</time></trkpt><trkpt lat="46.2765155" lon="13.1406383"><ele>267.83333333333337</ele><time>2026-05-01T10:04:14.597Z</time></trkpt><trkpt lat="46.2765897" lon="13.1405932"><ele>269.6666666666667</ele><time>2026-05-01T10:04:16.597Z</time></trkpt><trkpt lat="46.2766747" lon="13.1405723"><ele>271.5</ele><time>2026-05-01T10:04:19.599Z</time></trkpt><trkpt lat="46.2767535" lon="13.1405158"><ele>273.3333333333333</ele><time>2026-05-01T10:04:21.598Z</time></trkpt><trkpt lat="46.2768529" lon="13.1404382"><ele>275.16666666666663</ele><time>2026-05-01T10:04:23.599Z</time></trkpt><trkpt lat="46.2769173" lon="13.1403764"><ele>277.0</ele><time>2026-05-01T10:04:26.599Z</time></trkpt><trkpt lat="46.2769671" lon="13.140319"><ele>277.0</ele><time>2026-05-01T10:04:29.597Z</time></trkpt><trkpt lat="46.2769953" lon="13.1402212"><ele>277.0</ele><time>2026-05-01T10:04:34.598Z</time></trkpt><trkpt lat="46.2769979" lon="13.1400907"><ele>277.0</ele><time>2026-05-01T10:04:37.597Z</time></trkpt><trkpt lat="46.277009" lon="13.1399517"><ele>277.0</ele><time>2026-05-01T10:04:39.598Z</time></trkpt><trkpt lat="46.2770414" lon="13.1398121"><ele>277.0</ele><time>2026-05-01T10:04:41.598Z</time></trkpt><trkpt lat="46.2770617" lon="13.1396724"><ele>275.3333333333333</ele><time>2026-05-01T10:04:43.597Z</time></trkpt><trkpt lat="46.2771154" lon="13.1395368"><ele>273.66666666666663</ele><time>2026-05-01T10:04:45.597Z</time></trkpt><trkpt lat="46.2771847" lon="13.1394017"><ele>272.0</ele><time>2026-05-01T10:04:47.598Z</time></trkpt><trkpt lat="46.2772299" lon="13.1393358"><ele>270.3333333333333</ele><time>2026-05-01T10:04:48.598Z</time></trkpt><trkpt lat="46.2772771" lon="13.1392596"><ele>268.6666666666667</ele><time>2026-05-01T10:04:49.597Z</time></trkpt><trkpt lat="46.2773116" lon="13.1391815"><ele>267.0</ele><time>2026-05-01T10:04:50.599Z</time></trkpt><trkpt lat="46.2773462" lon="13.1390196"><ele>265.1666666666667</ele><time>2026-05-01T10:04:52.597Z</time></trkpt><trkpt lat="46.2774051" lon="13.138879"><ele>263.3333333333333</ele><time>2026-05-01T10:04:54.599Z</time></trkpt><trkpt lat="46.2774475" lon="13.1388078"><ele>261.5</ele><time>2026-05-01T10:04:55.597Z</time></trkpt><trkpt lat="46.277492" lon="13.138734"><ele>259.66666666666663</ele><time>2026-05-01T10:04:56.599Z</time></trkpt><trkpt lat="46.2775352" lon="13.1386485"><ele>257.8333333333333</ele><time>2026-05-01T10:04:57.599Z</time></trkpt><trkpt lat="46.2775776" lon="13.1385676"><ele>256.0</ele><time>2026-05-01T10:04:58.598Z</time></trkpt><trkpt lat="46.2776184" lon="13.1384952"><ele>256.0</ele><time>2026-05-01T10:04:59.598Z</time></trkpt><trkpt lat="46.2776649" lon="13.138419"><ele>255.99999999999997</ele><time>2026-05-01T10:05:00.598Z</time></trkpt><trkpt lat="46.2777133" lon="13.1383463"><ele>256.0</ele><time>2026-05-01T10:05:01.598Z</time></trkpt><trkpt lat="46.277756" lon="13.1382712"><ele>256.0</ele><time>2026-05-01T10:05:02.598Z</time></trkpt><trkpt lat="46.277801" lon="13.1381898"><ele>255.99999999999997</ele><time>2026-05-01T10:05:03.598Z</time></trkpt><trkpt lat="46.2778474" lon="13.1381093"><ele>256.0</ele><time>2026-05-01T10:05:04.597Z</time></trkpt><trkpt lat="46.2778952" lon="13.1380208"><ele>256.0</ele><time>2026-05-01T10:05:05.599Z</time></trkpt><trkpt lat="46.2779424" lon="13.1379366"><ele>254.20000000000002</ele><time>2026-05-01T10:05:06.598Z</time></trkpt><trkpt lat="46.2779932" lon="13.1378592"><ele>252.40000000000003</ele><time>2026-05-01T10:05:07.598Z</time></trkpt><trkpt lat="46.278039" lon="13.137785"><ele>250.6</ele><time>2026-05-01T10:05:08.598Z</time></trkpt><trkpt lat="46.2780879" lon="13.137632"><ele>248.8</ele><time>2026-05-01T10:05:10.597Z</time></trkpt><trkpt lat="46.2780824" lon="13.1374704"><ele>247.0</ele><time>2026-05-01T10:05:12.598Z</time></trkpt><trkpt lat="46.2781181" lon="13.1372932"><ele>247.0</ele><time>2026-05-01T10:05:14.598Z</time></trkpt><trkpt lat="46.2781522" lon="13.137192"><ele>247.0</ele><time>2026-05-01T10:05:15.598Z</time></trkpt><trkpt lat="46.2782085" lon="13.1371173"><ele>247.0</ele><time>2026-05-01T10:05:16.598Z</time></trkpt><trkpt lat="46.2782549" lon="13.1370319"><ele>247.0</ele><time>2026-05-01T10:05:17.598Z</time></trkpt><trkpt lat="46.2783008" lon="13.1369568"><ele>247.0</ele><time>2026-05-01T10:05:18.597Z</time></trkpt><trkpt lat="46.2783483" lon="13.1368799"><ele>247.0</ele><time>2026-05-01T10:05:19.597Z</time></trkpt><trkpt lat="46.278395" lon="13.1368047"><ele>247.0</ele><time>2026-05-01T10:05:20.598Z</time></trkpt><trkpt lat="46.2784452" lon="13.1367306"><ele>246.99999999999997</ele><time>2026-05-01T10:05:21.598Z</time></trkpt><trkpt lat="46.2784971" lon="13.1366458"><ele>247.0</ele><time>2026-05-01T10:05:22.597Z</time></trkpt><trkpt lat="46.2785532" lon="13.1365615"><ele>247.0</ele><time>2026-05-01T10:05:23.599Z</time></trkpt><trkpt lat="46.2786095" lon="13.1364694"><ele>247.0</ele><time>2026-05-01T10:05:24.597Z</time></trkpt><trkpt lat="46.2786642" lon="13.1363794"><ele>246.99999999999997</ele><time>2026-05-01T10:05:25.598Z</time></trkpt><trkpt lat="46.2787188" lon="13.1362712"><ele>247.0</ele><time>2026-05-01T10:05:26.599Z</time></trkpt><trkpt lat="46.278773" lon="13.1361639"><ele>247.0</ele><time>2026-05-01T10:05:27.597Z</time></trkpt><trkpt lat="46.2788268" lon="13.1360455"><ele>247.0</ele><time>2026-05-01T10:05:28.597Z</time></trkpt><trkpt lat="46.2788853" lon="13.1359261"><ele>247.0</ele><time>2026-05-01T10:05:29.598Z</time></trkpt><trkpt lat="46.2789428" lon="13.1358096"><ele>247.0</ele><time>2026-05-01T10:05:30.598Z</time></trkpt><trkpt lat="46.2789952" lon="13.1357022"><ele>247.0</ele><time>2026-05-01T10:05:31.598Z</time></trkpt><trkpt lat="46.2790457" lon="13.1355959"><ele>245.66666666666666</ele><time>2026-05-01T10:05:32.597Z</time></trkpt><trkpt lat="46.2790939" lon="13.1354825"><ele>244.33333333333331</ele><time>2026-05-01T10:05:33.597Z</time></trkpt><trkpt lat="46.2791352" lon="13.1353694"><ele>243.0</ele><time>2026-05-01T10:05:34.598Z</time></trkpt><trkpt lat="46.2791712" lon="13.1352498"><ele>241.66666666666669</ele><time>2026-05-01T10:05:35.599Z</time></trkpt><trkpt lat="46.2791997" lon="13.1351347"><ele>240.33333333333334</ele><time>2026-05-01T10:05:36.597Z</time></trkpt><trkpt lat="46.2792188" lon="13.1350353"><ele>239.0</ele><time>2026-05-01T10:05:37.597Z</time></trkpt><trkpt lat="46.2792374" lon="13.1349361"><ele>238.00000000000003</ele><time>2026-05-01T10:05:38.598Z</time></trkpt><trkpt lat="46.2792385" lon="13.1347931"><ele>237.0</ele><time>2026-05-01T10:05:40.598Z</time></trkpt><trkpt lat="46.2792039" lon="13.1347166"><ele>236.0</ele><time>2026-05-01T10:05:42.597Z</time></trkpt><trkpt lat="46.2791501" lon="13.1346597"><ele>235.0</ele><time>2026-05-01T10:05:44.598Z</time></trkpt><trkpt lat="46.2790882" lon="13.1346053"><ele>234.00000000000003</ele><time>2026-05-01T10:05:46.598Z</time></trkpt><trkpt lat="46.2789964" lon="13.13452"><ele>233.0</ele><time>2026-05-01T10:05:49.598Z</time></trkpt><trkpt lat="46.2789424" lon="13.1343665"><ele>232.00000000000003</ele><time>2026-05-01T10:05:51.599Z</time></trkpt><trkpt lat="46.27892" lon="13.1342195"><ele>231.0</ele><time>2026-05-01T10:05:53.599Z</time></trkpt><trkpt lat="46.2789072" lon="13.134106"><ele>230.0</ele><time>2026-05-01T10:05:55.598Z</time></trkpt><trkpt lat="46.2789026" lon="13.1339955"><ele>229.0</ele><time>2026-05-01T10:05:57.597Z</time></trkpt><trkpt lat="46.2789247" lon="13.1338852"><ele>228.00000000000003</ele><time>2026-05-01T10:06:00.597Z</time></trkpt><trkpt lat="46.2788765" lon="13.1338255"><ele>227.0</ele><time>2026-05-01T10:06:03.598Z</time></trkpt><trkpt lat="46.2788541" lon="13.1339126"><ele>220.0</ele><time>2026-05-01T10:06:06.599Z</time></trkpt></trkseg></trk></gpx>